GFSSGP_prec_precacc_018.txt.gz
Total_Precipitation_Accumulation
0.00 0.00 0.00 0.00 0.00 0.00 0.00 0.00 0.00 0.00 0.00 0.00 0.00 0.00 0.00 0.00 0.01 0.14 0.02 0.00 0.00 0.01 0.00 0.00 0.00 0.00 0.00 0.00 0.00 0.01 0.01 0.01 0.03 0.04 0.11 0.21 0.28 0.47 0.50 0.36 0.33 0.54 0.69 0.54 0.40 0.37 0.46 0.44 0.26
0.00 0.00 0.00 0.00 0.00 0.00 0.00 0.00 0.00 0.00 0.00 0.00 0.00 0.00 0.02 0.01 0.00 0.01 0.00 0.00 0.00 0.00 0.00 0.00 0.00 0.00 0.00 0.00 0.00 0.00 0.00 0.00 0.00 0.00 0.05 0.24 0.30 0.32 0.31 0.44 0.41 0.43 0.46 0.58 0.50 0.74 1.13 0.96 0.72
0.00 0.00 0.00 0.00 0.00 0.00 0.00 0.00 0.00 0.00 0.00 0.00 0.00 0.00 0.10 0.03 0.00 0.00 0.00 0.00 0.00 0.00 0.00 0.00 0.00 0.00 0.00 0.00 0.00 0.00 0.00 0.00 0.00 0.01 0.03 0.12 0.10 0.22 0.23 0.36 0.23 0.17 0.15 0.40 0.58 0.70 0.93 0.82 0.98
0.00 0.00 0.00 0.00 0.00 0.00 0.00 0.00 0.00 0.00 0.00 0.00 0.00 0.01 0.06 0.03 0.00 0.00 0.00 0.00 0.00 0.00 0.00 0.00 0.00 0.00 0.00 0.00 0.00 0.00 0.00 0.00 0.00 0.00 0.01 0.07 0.08 0.11 0.17 0.33 0.40 0.49 0.42 0.69 1.09 1.73 1.28 0.72 1.05
0.00 0.00 0.00 0.00 0.00 0.00 0.00 0.00 0.00 0.00 0.00 0.00 0.00 0.07 0.07 0.03 0.02 0.00 0.00 0.00 0.00 0.00 0.00 0.00 0.00 0.00 0.00 0.00 0.00 0.00 0.00 0.00 0.00 0.00 0.00 0.00 0.01 0.03 0.05 0.07 0.19 0.52 1.17 1.32 1.11 1.24 1.41 0.98 0.29
0.00 0.00 0.00 0.00 0.00 0.00 0.00 0.00 0.00 0.00 0.00 0.00 0.04 0.16 0.10 0.01 0.01 0.01 0.00 0.00 0.00 0.00 0.00 0.00 0.00 0.00 0.00 0.00 0.00 0.00 0.00 0.00 0.00 0.00 0.00 0.00 0.00 0.00 0.00 0.01 0.04 0.07 0.10 0.15 0.16 0.14 0.11 0.16 0.09
0.00 0.00 0.00 0.00 0.00 0.00 0.00 0.00 0.00 0.00 0.00 0.00 0.01 0.10 0.22 0.03 0.00 0.00 0.01 0.00 0.00 0.00 0.00 0.00 0.00 0.00 0.00 0.00 0.00 0.00 0.00 0.00 0.00 0.00 0.00 0.01 0.01 0.00 0.00 0.00 0.00 0.00 0.03 0.06 0.09 0.08 0.02 0.01 0.01
0.00 0.00 0.00 0.00 0.00 0.00 0.00 0.00 0.00 0.00 0.00 0.00 0.00 0.01 0.06 0.01 0.00 0.00 0.00 0.01 0.00 0.00 0.00 0.00 0.00 0.00 0.00 0.00 0.00 0.00 0.00 0.00 0.00 0.00 0.00 0.00 0.00 0.00 0.00 0.01 0.01 0.01 0.03 0.05 0.07 0.08 0.03 0.02 0.00
0.00 0.00 0.00 0.00 0.00 0.00 0.00 0.00 0.00 0.00 0.00 0.00 0.00 0.00 0.00 0.00 0.00 0.00 0.00 0.00 0.00 0.00 0.00 0.00 0.00 0.00 0.00 0.00 0.00 0.00 0.00 0.00 0.00 0.00 0.00 0.00 0.02 0.00 0.00 0.02 0.03 0.04 0.03 0.04 0.06 0.09 0.05 0.01 0.00
0.00 0.00 0.00 0.00 0.00 0.00 0.00 0.00 0.00 0.00 0.00 0.00 0.00 0.00 0.00 0.00 0.00 0.00 0.00 0.00 0.01 0.01 0.00 0.00 0.00 0.00 0.00 0.00 0.00 0.02 0.02 0.00 0.00 0.01 0.00 0.00 0.01 0.00 0.00 0.01 0.04 0.07 0.06 0.06 0.13 0.15 0.08 0.04 0.04
0.00 0.00 0.00 0.00 0.00 0.00 0.00 0.00 0.00 0.00 0.00 0.00 0.00 0.00 0.00 0.00 0.00 0.00 0.00 0.00 0.00 0.00 0.00 0.00 0.00 0.00 0.00 0.00 0.00 0.02 0.01 0.00 0.00 0.00 0.00 0.00 0.00 0.00 0.00 0.00 0.02 0.08 0.10 0.18 0.18 0.37 0.41 0.34 0.20
0.00 0.00 0.00 0.00 0.00 0.00 0.00 0.00 0.00 0.00 0.00 0.00 0.00 0.00 0.00 0.00 0.00 0.00 0.00 0.00 0.00 0.00 0.00 0.00 0.00 0.00 0.00 0.00 0.00 0.00 0.00 0.00 0.00 0.00 0.00 0.00 0.00 0.00 0.00 0.00 0.00 0.04 0.08 0.10 0.19 0.39 0.33 0.26 0.31
0.00 0.00 0.00 0.00 0.00 0.00 0.00 0.00 0.00 0.00 0.00 0.00 0.00 0.00 0.00 0.00 0.00 0.00 0.00 0.00 0.00 0.00 0.00 0.00 0.00 0.00 0.00 0.00 0.00 0.00 0.00 0.00 0.00 0.00 0.00 0.00 0.00 0.00 0.00 0.00 0.00 0.00 0.00 0.03 0.04 0.06 0.12 0.14 0.13
0.00 0.00 0.00 0.00 0.00 0.00 0.00 0.00 0.00 0.00 0.00 0.00 0.00 0.00 0.00 0.00 0.00 0.00 0.00 0.00 0.00 0.00 0.00 0.00 0.00 0.00 0.00 0.00 0.00 0.00 0.00 0.00 0.00 0.00 0.00 0.00 0.00 0.00 0.00 0.00 0.00 0.00 0.01 0.01 0.02 0.03 0.04 0.05 0.06
0.00 0.00 0.00 0.00 0.00 0.00 0.00 0.00 0.00 0.00 0.00 0.00 0.00 0.00 0.00 0.00 0.00 0.00 0.00 0.00 0.00 0.00 0.00 0.00 0.00 0.00 0.00 0.00 0.00 0.00 0.00 0.00 0.00 0.00 0.00 0.00 0.00 0.00 0.00 0.00 0.00 0.00 0.00 0.00 0.00 0.00 0.02 0.04 0.07
0.00 0.00 0.00 0.00 0.00 0.00 0.00 0.00 0.00 0.00 0.00 0.00 0.00 0.00 0.00 0.00 0.00 0.00 0.00 0.00 0.00 0.00 0.00 0.00 0.00 0.00 0.00 0.00 0.00 0.00 0.00 0.00 0.00 0.00 0.00 0.00 0.00 0.00 0.00 0.00 0.00 0.00 0.00 0.00 0.00 0.00 0.00 0.01 0.04
0.00 0.00 0.00 0.00 0.00 0.00 0.00 0.00 0.00 0.00 0.00 0.00 0.00 0.00 0.00 0.00 0.00 0.00 0.00 0.00 0.00 0.00 0.00 0.00 0.00 0.00 0.00 0.00 0.00 0.00 0.00 0.00 0.00 0.00 0.00 0.00 0.00 0.00 0.00 0.00 0.00 0.00 0.00 0.00 0.00 0.00 0.00 0.00 0.00
0.00 0.00 0.00 0.00 0.00 0.00 0.00 0.00 0.00 0.00 0.00 0.00 0.00 0.00 0.00 0.00 0.00 0.00 0.00 0.00 0.00 0.00 0.00 0.00 0.00 0.00 0.00 0.00 0.00 0.00 0.00 0.00 0.00 0.00 0.00 0.00 0.00 0.00 0.00 0.00 0.00 0.00 0.00 0.00 0.00 0.00 0.00 0.00 0.00
0.00 0.00 0.00 0.00 0.00 0.00 0.00 0.00 0.00 0.00 0.00 0.00 0.00 0.00 0.00 0.00 0.00 0.00 0.00 0.00 0.00 0.00 0.00 0.00 0.00 0.00 0.00 0.00 0.00 0.00 0.00 0.00 0.00 0.00 0.00 0.00 0.00 0.00 0.00 0.00 0.00 0.00 0.00 0.00 0.00 0.00 0.00 0.00 0.00
0.00 0.00 0.00 0.00 0.00 0.00 0.00 0.00 0.00 0.00 0.00 0.00 0.00 0.00 0.00 0.00 0.00 0.00 0.00 0.00 0.00 0.00 0.00 0.00 0.00 0.00 0.00 0.00 0.00 0.00 0.00 0.00 0.00 0.00 0.00 0.00 0.00 0.00 0.00 0.00 0.00 0.00 0.00 0.00 0.00 0.00 0.00 0.00 0.00
0.00 0.00 0.00 0.00 0.00 0.00 0.00 0.00 0.00 0.00 0.00 0.00 0.00 0.00 0.00 0.00 0.00 0.00 0.00 0.00 0.00 0.00 0.00 0.00 0.00 0.00 0.00 0.00 0.00 0.00 0.00 0.00 0.00 0.00 0.00 0.00 0.00 0.00 0.00 0.00 0.00 0.00 0.00 0.00 0.00 0.00 0.00 0.00 0.00
0.00 0.00 0.00 0.00 0.00 0.00 0.00 0.00 0.00 0.00 0.00 0.00 0.00 0.00 0.00 0.00 0.00 0.00 0.00 0.00 0.00 0.00 0.00 0.00 0.00 0.00 0.00 0.00 0.00 0.00 0.00 0.00 0.00 0.00 0.00 0.00 0.00 0.00 0.00 0.00 0.00 0.00 0.00 0.00 0.00 0.00 0.00 0.00 0.00
0.00 0.00 0.00 0.00 0.00 0.00 0.00 0.00 0.00 0.00 0.00 0.00 0.00 0.00 0.00 0.00 0.00 0.00 0.00 0.00 0.00 0.00 0.00 0.00 0.00 0.00 0.00 0.00 0.00 0.00 0.00 0.00 0.00 0.00 0.00 0.00 0.00 0.00 0.00 0.00 0.00 0.00 0.00 0.00 0.00 0.00 0.00 0.00 0.00
0.00 0.00 0.00 0.00 0.00 0.00 0.00 0.00 0.00 0.00 0.00 0.00 0.00 0.00 0.00 0.00 0.00 0.00 0.00 0.00 0.00 0.00 0.00 0.00 0.00 0.00 0.00 0.00 0.00 0.00 0.00 0.00 0.00 0.00 0.00 0.00 0.00 0.00 0.00 0.00 0.00 0.00 0.00 0.00 0.00 0.00 0.00 0.00 0.00
0.00 0.00 0.00 0.00 0.00 0.00 0.00 0.00 0.00 0.00 0.00 0.00 0.00 0.00 0.00 0.00 0.00 0.00 0.00 0.00 0.00 0.00 0.00 0.00 0.00 0.00 0.00 0.00 0.00 0.00 0.00 0.00 0.00 0.00 0.00 0.00 0.00 0.00 0.00 0.00 0.00 0.00 0.00 0.00 0.00 0.01 0.01 0.02 0.06
0.00 0.00 0.00 0.00 0.00 0.00 0.00 0.00 0.00 0.00 0.00 0.00 0.00 0.00 0.00 0.00 0.00 0.00 0.00 0.00 0.00 0.00 0.00 0.00 0.00 0.00 0.00 0.00 0.00 0.00 0.00 0.00 0.00 0.00 0.00 0.00 0.00 0.00 0.00 0.00 0.00 0.00 0.00 0.01 0.07 0.11 0.17 0.28 0.34
0.00 0.00 0.00 0.00 0.00 0.00 0.00 0.00 0.00 0.00 0.00 0.00 0.00 0.00 0.00 0.00 0.00 0.00 0.00 0.00 0.00 0.00 0.00 0.00 0.00 0.00 0.00 0.00 0.00 0.00 0.00 0.00 0.00 0.00 0.00 0.00 0.00 0.00 0.00 0.00 0.01 0.03 0.09 0.15 0.19 0.20 0.19 0.17 0.11
0.00 0.00 0.00 0.00 0.00 0.01 0.00 0.00 0.00 0.00 0.00 0.00 0.00 0.00 0.00 0.00 0.00 0.00 0.00 0.00 0.00 0.00 0.00 0.00 0.00 0.00 0.00 0.00 0.00 0.00 0.00 0.00 0.00 0.00 0.00 0.00 0.00 0.00 0.00 0.04 0.12 0.18 0.16 0.11 0.09 0.06 0.03 0.02 0.01
0.00 0.00 0.00 0.00 0.00 0.04 0.07 0.01 0.00 0.00 0.00 0.00 0.00 0.00 0.00 0.00 0.00 0.00 0.00 0.00 0.00 0.00 0.00 0.00 0.00 0.00 0.00 0.00 0.00 0.00 0.00 0.00 0.00 0.00 0.00 0.00 0.00 0.01 0.05 0.09 0.08 0.03 0.01 0.00 0.00 0.00 0.00 0.00 0.00
0.00 0.00 0.00 0.01 0.02 0.01 0.03 0.01 0.00 0.00 0.00 0.00 0.00 0.00 0.00 0.00 0.00 0.00 0.00 0.00 0.00 0.00 0.00 0.00 0.00 0.00 0.00 0.00 0.00 0.00 0.00 0.00 0.00 0.00 0.00 0.00 0.00 0.00 0.00 0.00 0.00 0.00 0.00 0.00 0.00 0.00 0.00 0.00 0.00

GFSSGP_prec_precacc_024.txt.gz
Total_Precipitation_Accumulation
0.00 0.00 0.00 0.00 0.00 0.00 0.00 0.00 0.00 0.00 0.00 0.00 0.00 0.00 0.00 0.00 0.01 0.14 0.02 0.00 0.00 0.01 0.00 0.00 0.00 0.00 0.02 0.05 0.06 0.04 0.02 0.01 0.04 0.06 0.13 0.23 0.29 0.48 0.51 0.37 0.33 0.54 0.69 0.54 0.40 0.37 0.49 0.45 0.27
0.00 0.00 0.00 0.00 0.00 0.00 0.00 0.00 0.00 0.00 0.00 0.00 0.00 0.00 0.02 0.01 0.00 0.01 0.00 0.00 0.00 0.00 0.00 0.00 0.00 0.00 0.00 0.00 0.00 0.00 0.00 0.01 0.02 0.03 0.07 0.25 0.32 0.33 0.31 0.44 0.41 0.43 0.46 0.58 0.50 0.75 1.15 0.97 0.72
0.00 0.00 0.00 0.00 0.00 0.00 0.00 0.00 0.00 0.00 0.00 0.00 0.00 0.00 0.10 0.03 0.00 0.00 0.00 0.00 0.00 0.00 0.00 0.00 0.00 0.00 0.00 0.00 0.00 0.00 0.00 0.00 0.00 0.01 0.04 0.12 0.12 0.25 0.24 0.44 0.33 0.19 0.15 0.40 0.59 0.70 0.93 0.82 0.98
0.00 0.00 0.00 0.00 0.00 0.00 0.00 0.00 0.00 0.00 0.00 0.00 0.00 0.01 0.06 0.03 0.00 0.00 0.00 0.00 0.00 0.00 0.00 0.00 0.00 0.00 0.00 0.00 0.00 0.00 0.00 0.00 0.00 0.00 0.01 0.07 0.08 0.13 0.18 0.39 0.46 0.51 0.43 0.75 1.15 1.76 1.28 0.72 1.05
0.00 0.00 0.00 0.00 0.00 0.00 0.00 0.00 0.00 0.00 0.00 0.00 0.00 0.07 0.07 0.03 0.02 0.00 0.00 0.00 0.00 0.00 0.00 0.00 0.00 0.00 0.00 0.00 0.00 0.00 0.00 0.00 0.00 0.00 0.00 0.00 0.01 0.03 0.05 0.07 0.19 0.52 1.17 1.32 1.12 1.24 1.41 0.98 0.29
0.00 0.00 0.00 0.00 0.00 0.00 0.00 0.00 0.00 0.00 0.00 0.00 0.04 0.16 0.10 0.01 0.01 0.01 0.00 0.00 0.00 0.00 0.00 0.00 0.00 0.00 0.00 0.00 0.00 0.00 0.00 0.00 0.00 0.00 0.00 0.00 0.00 0.00 0.00 0.01 0.04 0.07 0.10 0.15 0.16 0.14 0.11 0.16 0.09
0.00 0.00 0.00 0.00 0.00 0.00 0.00 0.00 0.00 0.00 0.00 0.00 0.01 0.10 0.22 0.03 0.00 0.00 0.01 0.00 0.00 0.00 0.00 0.00 0.00 0.00 0.00 0.00 0.00 0.00 0.00 0.00 0.00 0.00 0.00 0.01 0.01 0.00 0.00 0.00 0.00 0.00 0.03 0.06 0.09 0.08 0.02 0.01 0.01
0.00 0.00 0.00 0.00 0.00 0.00 0.00 0.00 0.00 0.00 0.00 0.00 0.00 0.01 0.06 0.01 0.00 0.00 0.00 0.01 0.00 0.00 0.00 0.00 0.00 0.00 0.00 0.00 0.00 0.00 0.00 0.00 0.00 0.00 0.00 0.00 0.00 0.00 0.00 0.01 0.01 0.01 0.03 0.05 0.07 0.08 0.03 0.02 0.00
0.00 0.00 0.00 0.00 0.00 0.00 0.00 0.00 0.00 0.00 0.00 0.00 0.00 0.00 0.00 0.00 0.00 0.00 0.00 0.00 0.00 0.00 0.00 0.00 0.00 0.00 0.00 0.00 0.00 0.00 0.00 0.00 0.00 0.00 0.00 0.00 0.02 0.00 0.00 0.02 0.03 0.04 0.03 0.04 0.06 0.09 0.05 0.01 0.00
0.00 0.00 0.00 0.00 0.00 0.00 0.00 0.00 0.00 0.00 0.00 0.00 0.00 0.00 0.00 0.00 0.00 0.00 0.00 0.00 0.01 0.01 0.00 0.00 0.00 0.00 0.00 0.00 0.00 0.02 0.02 0.00 0.00 0.01 0.00 0.00 0.01 0.00 0.00 0.01 0.04 0.07 0.06 0.06 0.13 0.15 0.08 0.04 0.04
0.00 0.00 0.00 0.00 0.00 0.00 0.00 0.00 0.00 0.00 0.00 0.00 0.00 0.00 0.00 0.00 0.00 0.00 0.00 0.00 0.00 0.00 0.00 0.00 0.00 0.00 0.00 0.00 0.00 0.02 0.01 0.00 0.00 0.00 0.00 0.00 0.00 0.00 0.00 0.00 0.02 0.08 0.10 0.18 0.18 0.37 0.41 0.34 0.20
0.00 0.00 0.00 0.00 0.00 0.00 0.00 0.00 0.00 0.00 0.00 0.00 0.00 0.00 0.00 0.00 0.00 0.00 0.00 0.00 0.00 0.00 0.00 0.00 0.00 0.00 0.00 0.00 0.00 0.00 0.00 0.00 0.00 0.00 0.00 0.00 0.00 0.00 0.00 0.00 0.00 0.04 0.08 0.10 0.19 0.39 0.33 0.26 0.31
0.00 0.00 0.00 0.00 0.00 0.00 0.00 0.00 0.00 0.00 0.00 0.00 0.00 0.00 0.00 0.00 0.00 0.00 0.00 0.00 0.00 0.00 0.00 0.00 0.00 0.00 0.00 0.00 0.00 0.00 0.00 0.00 0.00 0.00 0.00 0.00 0.00 0.00 0.00 0.00 0.00 0.00 0.00 0.03 0.04 0.06 0.12 0.14 0.13
0.00 0.00 0.00 0.00 0.00 0.00 0.00 0.00 0.00 0.00 0.00 0.00 0.00 0.00 0.00 0.00 0.00 0.00 0.00 0.00 0.00 0.00 0.00 0.00 0.00 0.00 0.00 0.00 0.00 0.00 0.00 0.00 0.00 0.00 0.00 0.00 0.00 0.00 0.00 0.00 0.00 0.00 0.01 0.01 0.02 0.03 0.04 0.05 0.06
0.00 0.00 0.00 0.00 0.00 0.00 0.00 0.00 0.00 0.00 0.00 0.00 0.00 0.00 0.00 0.00 0.00 0.00 0.00 0.00 0.00 0.00 0.00 0.00 0.00 0.00 0.00 0.00 0.00 0.00 0.00 0.00 0.00 0.00 0.00 0.00 0.00 0.00 0.00 0.00 0.00 0.00 0.00 0.00 0.00 0.00 0.02 0.04 0.07
0.00 0.00 0.00 0.00 0.00 0.00 0.00 0.00 0.00 0.00 0.00 0.00 0.00 0.00 0.00 0.00 0.00 0.00 0.00 0.00 0.00 0.00 0.00 0.00 0.00 0.00 0.00 0.00 0.00 0.00 0.00 0.00 0.00 0.00 0.00 0.00 0.00 0.00 0.00 0.00 0.00 0.00 0.00 0.00 0.00 0.00 0.00 0.01 0.04
0.00 0.00 0.00 0.00 0.00 0.00 0.00 0.00 0.00 0.00 0.00 0.00 0.00 0.00 0.00 0.00 0.00 0.00 0.00 0.00 0.00 0.00 0.00 0.00 0.00 0.00 0.00 0.00 0.00 0.00 0.00 0.00 0.00 0.00 0.00 0.00 0.00 0.00 0.00 0.00 0.00 0.00 0.00 0.00 0.00 0.00 0.00 0.00 0.00
0.00 0.00 0.00 0.00 0.00 0.00 0.00 0.00 0.00 0.00 0.00 0.00 0.00 0.00 0.00 0.00 0.00 0.00 0.00 0.00 0.00 0.00 0.00 0.00 0.00 0.00 0.00 0.00 0.00 0.00 0.00 0.00 0.00 0.00 0.00 0.00 0.00 0.00 0.00 0.00 0.00 0.00 0.00 0.00 0.00 0.00 0.00 0.00 0.00
0.00 0.00 0.00 0.00 0.00 0.00 0.00 0.00 0.00 0.00 0.00 0.00 0.00 0.00 0.00 0.00 0.00 0.00 0.00 0.00 0.00 0.00 0.00 0.00 0.00 0.00 0.00 0.00 0.00 0.00 0.00 0.00 0.00 0.00 0.00 0.00 0.00 0.00 0.00 0.00 0.00 0.00 0.00 0.00 0.00 0.00 0.00 0.00 0.00
0.00 0.00 0.00 0.00 0.00 0.00 0.00 0.00 0.00 0.00 0.00 0.00 0.00 0.00 0.00 0.00 0.00 0.00 0.00 0.00 0.00 0.00 0.00 0.00 0.00 0.00 0.00 0.00 0.00 0.00 0.00 0.00 0.00 0.00 0.00 0.00 0.00 0.00 0.00 0.00 0.00 0.00 0.00 0.00 0.00 0.00 0.00 0.00 0.00
0.00 0.00 0.00 0.00 0.00 0.00 0.00 0.00 0.00 0.00 0.00 0.00 0.00 0.00 0.00 0.00 0.00 0.00 0.00 0.00 0.00 0.00 0.00 0.00 0.00 0.00 0.00 0.00 0.00 0.00 0.00 0.00 0.00 0.00 0.00 0.00 0.00 0.00 0.00 0.00 0.00 0.00 0.00 0.00 0.00 0.00 0.00 0.00 0.00
0.00 0.00 0.00 0.00 0.00 0.00 0.00 0.00 0.00 0.00 0.00 0.00 0.00 0.00 0.00 0.00 0.00 0.00 0.00 0.00 0.00 0.00 0.00 0.00 0.00 0.00 0.00 0.00 0.00 0.00 0.00 0.00 0.00 0.00 0.00 0.00 0.00 0.00 0.00 0.00 0.00 0.00 0.00 0.00 0.00 0.00 0.00 0.00 0.00
0.00 0.00 0.00 0.00 0.00 0.00 0.00 0.00 0.00 0.00 0.00 0.00 0.00 0.00 0.00 0.00 0.00 0.00 0.00 0.00 0.00 0.00 0.00 0.00 0.00 0.00 0.00 0.00 0.00 0.00 0.00 0.00 0.00 0.00 0.00 0.00 0.00 0.00 0.00 0.00 0.00 0.00 0.00 0.00 0.00 0.00 0.00 0.00 0.00
0.00 0.00 0.00 0.00 0.00 0.00 0.00 0.00 0.00 0.00 0.00 0.00 0.00 0.00 0.00 0.00 0.00 0.00 0.00 0.00 0.00 0.00 0.00 0.00 0.00 0.00 0.00 0.00 0.00 0.00 0.00 0.00 0.00 0.00 0.00 0.00 0.00 0.00 0.00 0.00 0.00 0.00 0.00 0.00 0.00 0.00 0.00 0.00 0.00
0.00 0.00 0.00 0.00 0.00 0.00 0.00 0.00 0.00 0.00 0.00 0.00 0.00 0.00 0.00 0.00 0.00 0.00 0.00 0.00 0.00 0.00 0.00 0.00 0.00 0.00 0.00 0.00 0.00 0.00 0.00 0.00 0.00 0.00 0.00 0.00 0.00 0.00 0.00 0.00 0.00 0.00 0.00 0.00 0.00 0.01 0.01 0.03 0.06
0.00 0.00 0.00 0.00 0.00 0.00 0.00 0.00 0.00 0.00 0.00 0.00 0.00 0.00 0.00 0.00 0.00 0.00 0.00 0.00 0.00 0.00 0.00 0.00 0.00 0.00 0.00 0.00 0.00 0.00 0.00 0.00 0.00 0.00 0.00 0.00 0.00 0.00 0.00 0.00 0.00 0.00 0.00 0.01 0.07 0.11 0.18 0.31 0.42
0.00 0.00 0.00 0.00 0.00 0.00 0.00 0.00 0.00 0.00 0.00 0.00 0.00 0.00 0.00 0.00 0.00 0.00 0.00 0.00 0.00 0.00 0.00 0.00 0.00 0.00 0.00 0.00 0.00 0.00 0.00 0.00 0.00 0.00 0.00 0.00 0.00 0.00 0.00 0.00 0.01 0.04 0.10 0.15 0.19 0.20 0.25 0.28 0.23
0.00 0.00 0.00 0.00 0.00 0.01 0.00 0.00 0.00 0.00 0.00 0.00 0.00 0.00 0.00 0.00 0.00 0.00 0.00 0.00 0.00 0.00 0.00 0.00 0.00 0.00 0.00 0.00 0.00 0.00 0.00 0.00 0.00 0.00 0.00 0.00 0.00 0.00 0.01 0.04 0.12 0.18 0.17 0.12 0.10 0.08 0.06 0.03 0.03
0.00 0.00 0.00 0.00 0.00 0.04 0.07 0.01 0.00 0.00 0.00 0.00 0.00 0.00 0.00 0.00 0.00 0.00 0.00 0.00 0.00 0.00 0.00 0.00 0.00 0.00 0.00 0.00 0.00 0.00 0.00 0.00 0.00 0.00 0.00 0.00 0.00 0.01 0.05 0.09 0.08 0.06 0.06 0.05 0.04 0.02 0.01 0.01 0.00
0.00 0.00 0.00 0.01 0.02 0.01 0.03 0.01 0.00 0.00 0.00 0.00 0.00 0.00 0.00 0.00 0.00 0.00 0.00 0.00 0.00 0.00 0.00 0.00 0.00 0.00 0.00 0.00 0.00 0.00 0.00 0.00 0.00 0.00 0.00 0.00 0.00 0.00 0.00 0.02 0.06 0.08 0.04 0.02 0.01 0.00 0.00 0.00 0.00

GFSSGP_prec_precacc_027.txt.gz
Total_Precipitation_Accumulation
0.00 0.00 0.00 0.00 0.00 0.00 0.00 0.00 0.00 0.00 0.00 0.00 0.00 0.00 0.00 0.00 0.01 0.19 0.03 0.00 0.00 0.01 0.00 0.00 0.00 0.00 0.02 0.06 0.07 0.05 0.03 0.02 0.05 0.08 0.16 0.27 0.33 0.50 0.51 0.37 0.33 0.54 0.69 0.54 0.40 0.37 0.49 0.45 0.27
0.00 0.00 0.00 0.00 0.00 0.00 0.00 0.00 0.00 0.00 0.00 0.00 0.00 0.00 0.02 0.01 0.00 0.01 0.00 0.00 0.00 0.00 0.00 0.00 0.00 0.00 0.00 0.00 0.00 0.00 0.00 0.01 0.02 0.03 0.07 0.28 0.35 0.33 0.31 0.44 0.41 0.43 0.46 0.58 0.50 0.75 1.15 0.97 0.72
0.00 0.00 0.00 0.00 0.00 0.00 0.00 0.00 0.00 0.00 0.00 0.00 0.00 0.00 0.10 0.03 0.00 0.00 0.00 0.00 0.00 0.00 0.00 0.00 0.00 0.00 0.00 0.00 0.00 0.00 0.00 0.00 0.00 0.01 0.05 0.12 0.12 0.25 0.24 0.44 0.33 0.19 0.15 0.40 0.59 0.71 0.93 0.83 0.98
0.00 0.00 0.00 0.00 0.00 0.00 0.00 0.00 0.00 0.00 0.00 0.00 0.00 0.01 0.06 0.03 0.00 0.00 0.00 0.00 0.00 0.00 0.00 0.00 0.00 0.00 0.00 0.00 0.00 0.00 0.00 0.00 0.00 0.00 0.01 0.07 0.08 0.13 0.18 0.39 0.46 0.51 0.43 0.75 1.15 1.76 1.28 0.72 1.05
0.00 0.00 0.00 0.00 0.00 0.00 0.00 0.00 0.00 0.00 0.00 0.00 0.00 0.07 0.07 0.03 0.02 0.00 0.00 0.00 0.00 0.00 0.00 0.00 0.00 0.00 0.00 0.00 0.00 0.00 0.00 0.00 0.00 0.00 0.00 0.00 0.01 0.03 0.05 0.07 0.19 0.52 1.17 1.32 1.12 1.24 1.41 0.98 0.29
0.00 0.00 0.00 0.00 0.00 0.00 0.00 0.00 0.00 0.00 0.00 0.00 0.04 0.16 0.10 0.01 0.01 0.01 0.00 0.00 0.00 0.00 0.00 0.00 0.00 0.00 0.00 0.00 0.00 0.00 0.00 0.00 0.00 0.00 0.00 0.00 0.00 0.00 0.00 0.01 0.04 0.07 0.10 0.15 0.16 0.14 0.11 0.16 0.09
0.00 0.00 0.00 0.00 0.00 0.00 0.00 0.00 0.00 0.00 0.00 0.00 0.01 0.10 0.22 0.03 0.00 0.00 0.01 0.00 0.00 0.00 0.00 0.00 0.00 0.00 0.00 0.00 0.00 0.00 0.00 0.00 0.00 0.00 0.00 0.01 0.01 0.00 0.00 0.00 0.00 0.00 0.03 0.06 0.09 0.08 0.02 0.01 0.01
0.00 0.00 0.00 0.00 0.00 0.00 0.00 0.00 0.00 0.00 0.00 0.00 0.00 0.01 0.06 0.01 0.00 0.00 0.00 0.01 0.00 0.00 0.00 0.00 0.00 0.00 0.00 0.00 0.00 0.00 0.00 0.00 0.00 0.00 0.00 0.00 0.00 0.00 0.00 0.01 0.01 0.01 0.03 0.05 0.07 0.08 0.03 0.02 0.00
0.00 0.00 0.00 0.00 0.00 0.00 0.00 0.00 0.00 0.00 0.00 0.00 0.00 0.00 0.00 0.00 0.00 0.00 0.00 0.00 0.00 0.00 0.00 0.00 0.00 0.00 0.00 0.00 0.00 0.00 0.00 0.00 0.00 0.00 0.00 0.00 0.02 0.00 0.00 0.02 0.03 0.04 0.03 0.04 0.06 0.09 0.05 0.01 0.00
0.00 0.00 0.00 0.00 0.00 0.00 0.00 0.00 0.00 0.00 0.00 0.00 0.00 0.00 0.00 0.00 0.00 0.00 0.00 0.00 0.01 0.01 0.00 0.00 0.00 0.00 0.00 0.00 0.00 0.02 0.02 0.00 0.00 0.01 0.00 0.00 0.01 0.00 0.00 0.01 0.04 0.07 0.06 0.06 0.13 0.15 0.08 0.04 0.04
0.00 0.00 0.00 0.00 0.00 0.00 0.00 0.00 0.00 0.00 0.00 0.00 0.00 0.00 0.00 0.00 0.00 0.00 0.00 0.00 0.00 0.00 0.00 0.00 0.00 0.00 0.00 0.00 0.00 0.02 0.01 0.00 0.00 0.00 0.00 0.00 0.00 0.00 0.00 0.00 0.02 0.08 0.10 0.18 0.18 0.37 0.41 0.34 0.20
0.00 0.00 0.00 0.00 0.00 0.00 0.00 0.00 0.00 0.00 0.00 0.00 0.00 0.00 0.00 0.00 0.00 0.00 0.00 0.00 0.00 0.00 0.00 0.00 0.00 0.00 0.00 0.00 0.00 0.00 0.00 0.00 0.00 0.00 0.00 0.00 0.00 0.00 0.00 0.00 0.00 0.04 0.08 0.10 0.19 0.39 0.33 0.26 0.31
0.00 0.00 0.00 0.00 0.00 0.00 0.00 0.00 0.00 0.00 0.00 0.00 0.00 0.00 0.00 0.00 0.00 0.00 0.00 0.00 0.00 0.00 0.00 0.00 0.00 0.00 0.00 0.00 0.00 0.00 0.00 0.00 0.00 0.00 0.00 0.00 0.00 0.00 0.00 0.00 0.00 0.00 0.00 0.03 0.04 0.06 0.12 0.14 0.13
0.00 0.00 0.00 0.00 0.00 0.00 0.00 0.00 0.00 0.00 0.00 0.00 0.00 0.00 0.00 0.00 0.00 0.00 0.00 0.00 0.00 0.00 0.00 0.00 0.00 0.00 0.00 0.00 0.00 0.00 0.00 0.00 0.00 0.00 0.00 0.00 0.00 0.00 0.00 0.00 0.00 0.00 0.01 0.01 0.02 0.03 0.04 0.05 0.06
0.00 0.00 0.00 0.00 0.00 0.00 0.00 0.00 0.00 0.00 0.00 0.00 0.00 0.00 0.00 0.00 0.00 0.00 0.00 0.00 0.00 0.00 0.00 0.00 0.00 0.00 0.00 0.00 0.00 0.00 0.00 0.00 0.00 0.00 0.00 0.00 0.00 0.00 0.00 0.00 0.00 0.00 0.00 0.00 0.00 0.00 0.02 0.04 0.07
0.00 0.00 0.00 0.00 0.00 0.00 0.00 0.00 0.00 0.00 0.00 0.00 0.00 0.00 0.00 0.00 0.00 0.00 0.00 0.00 0.00 0.00 0.00 0.00 0.00 0.00 0.00 0.00 0.00 0.00 0.00 0.00 0.00 0.00 0.00 0.00 0.00 0.00 0.00 0.00 0.00 0.00 0.00 0.00 0.00 0.00 0.00 0.01 0.04
0.00 0.00 0.00 0.00 0.00 0.00 0.00 0.00 0.00 0.00 0.00 0.00 0.00 0.00 0.00 0.00 0.00 0.00 0.00 0.00 0.00 0.00 0.00 0.00 0.00 0.00 0.00 0.00 0.00 0.00 0.00 0.00 0.00 0.00 0.00 0.00 0.00 0.00 0.00 0.00 0.00 0.00 0.00 0.00 0.00 0.00 0.00 0.00 0.00
0.00 0.00 0.00 0.00 0.00 0.00 0.00 0.00 0.00 0.00 0.00 0.00 0.00 0.00 0.00 0.00 0.00 0.00 0.00 0.00 0.00 0.00 0.00 0.00 0.00 0.00 0.00 0.00 0.00 0.00 0.00 0.00 0.00 0.00 0.00 0.00 0.00 0.00 0.00 0.00 0.00 0.00 0.00 0.00 0.00 0.00 0.00 0.00 0.00
0.00 0.00 0.00 0.00 0.00 0.00 0.00 0.00 0.00 0.00 0.00 0.00 0.00 0.00 0.00 0.00 0.00 0.00 0.00 0.00 0.00 0.00 0.00 0.00 0.00 0.00 0.00 0.00 0.00 0.00 0.00 0.00 0.00 0.00 0.00 0.00 0.00 0.00 0.00 0.00 0.00 0.00 0.00 0.00 0.00 0.00 0.00 0.00 0.00
0.00 0.00 0.00 0.00 0.00 0.00 0.00 0.00 0.00 0.00 0.00 0.00 0.00 0.00 0.00 0.00 0.00 0.00 0.00 0.00 0.00 0.00 0.00 0.00 0.00 0.00 0.00 0.00 0.00 0.00 0.00 0.00 0.00 0.00 0.00 0.00 0.00 0.00 0.00 0.00 0.00 0.00 0.00 0.00 0.00 0.00 0.00 0.00 0.00
0.00 0.00 0.00 0.00 0.00 0.00 0.00 0.00 0.00 0.00 0.00 0.00 0.00 0.00 0.00 0.00 0.00 0.00 0.00 0.00 0.00 0.00 0.00 0.00 0.00 0.00 0.00 0.00 0.00 0.00 0.00 0.00 0.00 0.00 0.00 0.00 0.00 0.00 0.00 0.00 0.00 0.00 0.00 0.00 0.00 0.00 0.00 0.00 0.00
0.00 0.00 0.00 0.00 0.00 0.00 0.00 0.00 0.00 0.00 0.00 0.00 0.00 0.00 0.00 0.00 0.00 0.00 0.00 0.00 0.00 0.00 0.00 0.00 0.00 0.00 0.00 0.00 0.00 0.00 0.00 0.00 0.00 0.00 0.00 0.00 0.00 0.00 0.00 0.00 0.00 0.00 0.00 0.00 0.00 0.00 0.00 0.00 0.00
0.00 0.00 0.00 0.00 0.00 0.00 0.00 0.00 0.00 0.00 0.00 0.00 0.00 0.00 0.00 0.00 0.00 0.00 0.00 0.00 0.00 0.00 0.00 0.00 0.00 0.00 0.00 0.00 0.00 0.00 0.00 0.00 0.00 0.00 0.00 0.00 0.00 0.00 0.00 0.00 0.00 0.00 0.00 0.00 0.00 0.00 0.00 0.00 0.00
0.00 0.00 0.00 0.00 0.00 0.00 0.00 0.00 0.00 0.00 0.00 0.00 0.00 0.00 0.00 0.00 0.00 0.00 0.00 0.00 0.00 0.00 0.00 0.00 0.00 0.00 0.00 0.00 0.00 0.00 0.00 0.00 0.00 0.00 0.00 0.00 0.00 0.00 0.00 0.00 0.00 0.00 0.00 0.00 0.00 0.00 0.00 0.00 0.00
0.00 0.00 0.00 0.00 0.00 0.00 0.00 0.00 0.00 0.00 0.00 0.00 0.00 0.00 0.00 0.00 0.00 0.00 0.00 0.00 0.00 0.00 0.00 0.00 0.00 0.00 0.00 0.00 0.00 0.00 0.00 0.00 0.00 0.00 0.00 0.00 0.00 0.00 0.00 0.00 0.00 0.00 0.00 0.00 0.00 0.01 0.02 0.03 0.06
0.00 0.00 0.00 0.00 0.00 0.00 0.00 0.00 0.00 0.00 0.00 0.00 0.00 0.00 0.00 0.00 0.00 0.00 0.00 0.00 0.00 0.00 0.00 0.00 0.00 0.00 0.00 0.00 0.00 0.00 0.00 0.00 0.00 0.00 0.00 0.00 0.00 0.00 0.00 0.00 0.00 0.00 0.01 0.02 0.07 0.12 0.18 0.31 0.42
0.00 0.00 0.00 0.00 0.00 0.00 0.00 0.00 0.00 0.00 0.00 0.00 0.00 0.00 0.00 0.00 0.00 0.00 0.00 0.00 0.00 0.00 0.00 0.00 0.00 0.00 0.00 0.00 0.00 0.00 0.00 0.00 0.00 0.00 0.00 0.00 0.00 0.00 0.00 0.00 0.01 0.04 0.10 0.15 0.19 0.21 0.27 0.30 0.25
0.00 0.00 0.00 0.00 0.00 0.01 0.00 0.00 0.00 0.00 0.00 0.00 0.00 0.00 0.00 0.00 0.00 0.00 0.00 0.00 0.00 0.00 0.00 0.00 0.00 0.00 0.00 0.00 0.00 0.00 0.00 0.00 0.00 0.00 0.00 0.00 0.00 0.00 0.01 0.04 0.12 0.18 0.17 0.12 0.11 0.10 0.09 0.09 0.08
0.00 0.00 0.00 0.00 0.00 0.04 0.07 0.01 0.00 0.00 0.00 0.00 0.00 0.00 0.00 0.00 0.00 0.00 0.00 0.00 0.00 0.00 0.00 0.00 0.00 0.00 0.00 0.00 0.00 0.00 0.00 0.00 0.00 0.00 0.00 0.00 0.00 0.01 0.05 0.09 0.08 0.06 0.07 0.06 0.04 0.03 0.02 0.01 0.01
0.00 0.00 0.00 0.01 0.02 0.01 0.03 0.01 0.00 0.00 0.00 0.00 0.00 0.00 0.00 0.00 0.00 0.00 0.00 0.00 0.00 0.00 0.00 0.00 0.00 0.00 0.00 0.00 0.00 0.00 0.00 0.00 0.00 0.00 0.00 0.00 0.00 0.00 0.01 0.02 0.07 0.09 0.05 0.02 0.02 0.02 0.00 0.00 0.00

GFSSGP_prec_precacc_030.txt.gz
Total_Precipitation_Accumulation
0.00 0.00 0.00 0.00 0.00 0.00 0.00 0.00 0.00 0.00 0.00 0.00 0.00 0.00 0.00 0.00 0.01 0.26 0.06 0.01 0.00 0.01 0.00 0.00 0.00 0.00 0.02 0.06 0.07 0.05 0.03 0.02 0.05 0.08 0.16 0.27 0.33 0.50 0.51 0.37 0.33 0.54 0.69 0.54 0.40 0.37 0.49 0.45 0.27
0.00 0.00 0.00 0.00 0.00 0.00 0.00 0.00 0.00 0.00 0.00 0.00 0.00 0.00 0.02 0.01 0.00 0.02 0.01 0.00 0.00 0.00 0.00 0.00 0.00 0.00 0.00 0.00 0.00 0.00 0.00 0.01 0.02 0.03 0.07 0.28 0.35 0.33 0.31 0.44 0.41 0.43 0.47 0.58 0.50 0.75 1.15 0.97 0.72
0.00 0.00 0.00 0.00 0.00 0.00 0.00 0.00 0.00 0.00 0.00 0.00 0.00 0.00 0.10 0.03 0.00 0.00 0.00 0.00 0.00 0.00 0.00 0.00 0.00 0.00 0.00 0.00 0.00 0.00 0.00 0.00 0.00 0.01 0.05 0.12 0.12 0.25 0.24 0.44 0.33 0.19 0.18 0.45 0.60 0.71 0.93 0.83 0.98
0.00 0.00 0.00 0.00 0.00 0.00 0.00 0.00 0.00 0.00 0.00 0.00 0.00 0.01 0.06 0.03 0.00 0.00 0.00 0.00 0.00 0.00 0.00 0.00 0.00 0.00 0.00 0.00 0.00 0.00 0.00 0.00 0.00 0.00 0.01 0.07 0.08 0.13 0.18 0.39 0.46 0.51 0.44 0.77 1.15 1.76 1.28 0.72 1.05
0.00 0.00 0.00 0.00 0.00 0.00 0.00 0.00 0.00 0.00 0.00 0.00 0.00 0.07 0.07 0.03 0.02 0.00 0.00 0.00 0.00 0.00 0.00 0.00 0.00 0.00 0.00 0.00 0.00 0.00 0.00 0.00 0.00 0.00 0.00 0.00 0.01 0.03 0.05 0.07 0.19 0.52 1.17 1.32 1.12 1.24 1.41 0.98 0.29
0.00 0.00 0.00 0.00 0.00 0.00 0.00 0.00 0.00 0.00 0.00 0.00 0.04 0.16 0.10 0.01 0.01 0.01 0.00 0.00 0.00 0.00 0.00 0.00 0.00 0.00 0.00 0.00 0.00 0.00 0.00 0.00 0.00 0.00 0.00 0.00 0.00 0.00 0.00 0.01 0.04 0.07 0.10 0.15 0.16 0.14 0.11 0.16 0.09
0.00 0.00 0.00 0.00 0.00 0.00 0.00 0.00 0.00 0.00 0.00 0.00 0.01 0.10 0.22 0.03 0.00 0.00 0.01 0.00 0.00 0.00 0.00 0.00 0.00 0.00 0.00 0.00 0.00 0.00 0.00 0.00 0.00 0.00 0.00 0.01 0.01 0.00 0.00 0.00 0.00 0.00 0.03 0.06 0.09 0.08 0.02 0.01 0.01
0.00 0.00 0.00 0.00 0.00 0.00 0.00 0.00 0.00 0.00 0.00 0.00 0.00 0.01 0.06 0.01 0.00 0.00 0.00 0.01 0.00 0.00 0.00 0.00 0.00 0.00 0.00 0.00 0.00 0.00 0.00 0.00 0.00 0.00 0.00 0.00 0.00 0.00 0.00 0.01 0.01 0.01 0.03 0.05 0.07 0.08 0.03 0.02 0.00
0.00 0.00 0.00 0.00 0.00 0.00 0.00 0.00 0.00 0.00 0.00 0.00 0.00 0.00 0.00 0.00 0.00 0.00 0.00 0.00 0.00 0.00 0.00 0.00 0.00 0.00 0.00 0.00 0.00 0.00 0.00 0.00 0.00 0.00 0.00 0.00 0.02 0.00 0.00 0.02 0.03 0.04 0.03 0.04 0.06 0.09 0.05 0.01 0.00
0.00 0.00 0.00 0.00 0.00 0.00 0.00 0.00 0.00 0.00 0.00 0.00 0.00 0.00 0.00 0.00 0.00 0.00 0.00 0.00 0.01 0.01 0.00 0.00 0.00 0.00 0.00 0.00 0.00 0.02 0.02 0.00 0.00 0.01 0.00 0.00 0.01 0.00 0.00 0.01 0.04 0.07 0.06 0.06 0.13 0.15 0.08 0.04 0.04
0.00 0.00 0.00 0.00 0.00 0.00 0.00 0.00 0.00 0.00 0.00 0.00 0.00 0.00 0.00 0.00 0.00 0.00 0.00 0.00 0.00 0.00 0.00 0.00 0.00 0.00 0.00 0.00 0.00 0.02 0.01 0.00 0.00 0.00 0.00 0.00 0.00 0.00 0.00 0.00 0.02 0.09 0.10 0.18 0.18 0.37 0.41 0.34 0.20
0.00 0.00 0.00 0.00 0.00 0.00 0.00 0.00 0.00 0.00 0.00 0.00 0.00 0.00 0.00 0.00 0.00 0.00 0.00 0.00 0.00 0.00 0.00 0.00 0.00 0.00 0.00 0.00 0.00 0.00 0.00 0.00 0.00 0.00 0.00 0.00 0.00 0.00 0.00 0.00 0.00 0.04 0.08 0.10 0.19 0.39 0.33 0.26 0.31
0.00 0.00 0.00 0.00 0.00 0.00 0.00 0.00 0.00 0.00 0.00 0.00 0.00 0.00 0.00 0.00 0.00 0.00 0.00 0.00 0.00 0.00 0.00 0.00 0.00 0.00 0.00 0.00 0.00 0.00 0.00 0.00 0.00 0.00 0.00 0.00 0.00 0.00 0.00 0.00 0.00 0.00 0.00 0.03 0.04 0.06 0.12 0.14 0.13
0.00 0.00 0.00 0.00 0.00 0.00 0.00 0.00 0.00 0.00 0.00 0.00 0.00 0.00 0.00 0.00 0.00 0.00 0.00 0.00 0.00 0.00 0.00 0.00 0.00 0.00 0.00 0.00 0.00 0.00 0.00 0.00 0.00 0.00 0.00 0.00 0.00 0.00 0.00 0.00 0.00 0.00 0.01 0.01 0.02 0.03 0.04 0.05 0.06
0.00 0.00 0.00 0.00 0.00 0.00 0.00 0.00 0.00 0.00 0.00 0.00 0.00 0.00 0.00 0.00 0.00 0.00 0.00 0.00 0.00 0.00 0.00 0.00 0.00 0.00 0.00 0.00 0.00 0.00 0.00 0.00 0.00 0.00 0.00 0.00 0.00 0.00 0.00 0.00 0.00 0.00 0.00 0.00 0.00 0.00 0.02 0.04 0.07
0.00 0.00 0.00 0.00 0.00 0.00 0.00 0.00 0.00 0.00 0.00 0.00 0.00 0.00 0.00 0.00 0.00 0.00 0.00 0.00 0.00 0.00 0.00 0.00 0.00 0.00 0.00 0.00 0.00 0.00 0.00 0.00 0.00 0.00 0.00 0.00 0.00 0.00 0.00 0.00 0.00 0.00 0.00 0.00 0.00 0.00 0.00 0.01 0.04
0.00 0.00 0.00 0.00 0.00 0.00 0.00 0.00 0.00 0.00 0.00 0.00 0.00 0.00 0.00 0.00 0.00 0.00 0.00 0.00 0.00 0.00 0.00 0.00 0.00 0.00 0.00 0.00 0.00 0.00 0.00 0.00 0.00 0.00 0.00 0.00 0.00 0.00 0.00 0.00 0.00 0.00 0.00 0.00 0.00 0.00 0.00 0.00 0.00
0.00 0.00 0.00 0.00 0.00 0.00 0.00 0.00 0.00 0.00 0.00 0.00 0.00 0.00 0.00 0.00 0.00 0.00 0.00 0.00 0.00 0.00 0.00 0.00 0.00 0.00 0.00 0.01 0.00 0.00 0.00 0.00 0.00 0.00 0.00 0.00 0.00 0.00 0.00 0.00 0.00 0.00 0.00 0.00 0.00 0.00 0.00 0.00 0.00
0.00 0.00 0.00 0.00 0.00 0.00 0.00 0.00 0.00 0.00 0.00 0.00 0.00 0.00 0.00 0.00 0.00 0.00 0.00 0.00 0.00 0.00 0.00 0.00 0.00 0.03 0.02 0.00 0.00 0.00 0.00 0.00 0.00 0.00 0.00 0.00 0.00 0.00 0.00 0.00 0.00 0.00 0.00 0.00 0.00 0.00 0.00 0.00 0.00
0.00 0.00 0.00 0.00 0.00 0.00 0.00 0.00 0.00 0.00 0.00 0.00 0.00 0.00 0.00 0.00 0.00 0.00 0.00 0.00 0.00 0.00 0.00 0.00 0.00 0.00 0.00 0.00 0.00 0.00 0.00 0.00 0.00 0.00 0.00 0.00 0.00 0.00 0.00 0.00 0.00 0.00 0.00 0.00 0.00 0.00 0.00 0.00 0.00
0.00 0.00 0.00 0.00 0.00 0.00 0.00 0.00 0.00 0.00 0.00 0.00 0.00 0.00 0.00 0.00 0.00 0.00 0.00 0.00 0.00 0.00 0.00 0.00 0.00 0.00 0.00 0.00 0.00 0.00 0.00 0.00 0.00 0.00 0.00 0.00 0.00 0.00 0.00 0.00 0.00 0.00 0.00 0.00 0.00 0.00 0.00 0.00 0.00
0.00 0.00 0.00 0.00 0.00 0.00 0.00 0.00 0.00 0.00 0.00 0.00 0.00 0.00 0.00 0.00 0.00 0.00 0.00 0.00 0.00 0.00 0.00 0.00 0.00 0.00 0.00 0.00 0.00 0.00 0.00 0.00 0.00 0.00 0.00 0.00 0.00 0.00 0.00 0.00 0.00 0.00 0.00 0.00 0.00 0.00 0.00 0.00 0.00
0.00 0.00 0.00 0.00 0.00 0.00 0.00 0.00 0.00 0.00 0.00 0.00 0.00 0.00 0.00 0.00 0.00 0.00 0.00 0.00 0.00 0.00 0.00 0.00 0.00 0.00 0.00 0.00 0.00 0.00 0.00 0.00 0.00 0.00 0.00 0.00 0.00 0.00 0.00 0.00 0.00 0.00 0.00 0.00 0.00 0.00 0.00 0.00 0.00
0.00 0.00 0.00 0.00 0.00 0.00 0.00 0.00 0.00 0.00 0.00 0.00 0.00 0.00 0.00 0.00 0.00 0.00 0.00 0.00 0.00 0.00 0.00 0.00 0.00 0.00 0.00 0.00 0.00 0.00 0.00 0.00 0.00 0.00 0.00 0.00 0.00 0.00 0.00 0.00 0.00 0.00 0.00 0.00 0.00 0.00 0.00 0.00 0.00
0.00 0.00 0.00 0.00 0.00 0.00 0.00 0.00 0.00 0.00 0.00 0.00 0.00 0.00 0.00 0.00 0.00 0.00 0.00 0.00 0.00 0.00 0.00 0.00 0.00 0.00 0.00 0.00 0.00 0.00 0.00 0.00 0.00 0.00 0.00 0.00 0.00 0.00 0.00 0.00 0.00 0.00 0.00 0.00 0.00 0.01 0.02 0.03 0.06
0.00 0.00 0.00 0.00 0.00 0.01 0.00 0.00 0.00 0.00 0.00 0.00 0.00 0.00 0.00 0.00 0.00 0.00 0.00 0.00 0.00 0.00 0.00 0.00 0.00 0.00 0.00 0.00 0.00 0.00 0.00 0.00 0.00 0.00 0.00 0.00 0.00 0.00 0.00 0.00 0.00 0.00 0.01 0.02 0.07 0.12 0.19 0.31 0.43
0.00 0.00 0.00 0.00 0.00 0.00 0.00 0.00 0.00 0.00 0.00 0.00 0.00 0.00 0.00 0.00 0.00 0.00 0.00 0.00 0.00 0.00 0.00 0.00 0.00 0.00 0.00 0.00 0.00 0.00 0.00 0.00 0.00 0.00 0.00 0.00 0.00 0.00 0.00 0.00 0.01 0.04 0.10 0.15 0.19 0.21 0.28 0.32 0.27
0.00 0.00 0.00 0.00 0.00 0.01 0.00 0.00 0.00 0.00 0.00 0.00 0.00 0.00 0.00 0.00 0.00 0.00 0.00 0.00 0.00 0.00 0.00 0.00 0.00 0.00 0.00 0.00 0.00 0.00 0.00 0.00 0.00 0.00 0.00 0.00 0.00 0.00 0.01 0.04 0.12 0.18 0.17 0.12 0.11 0.10 0.09 0.10 0.10
0.00 0.00 0.00 0.00 0.00 0.04 0.07 0.01 0.00 0.00 0.00 0.00 0.00 0.00 0.00 0.00 0.00 0.00 0.00 0.00 0.00 0.00 0.00 0.00 0.00 0.00 0.00 0.00 0.00 0.00 0.00 0.00 0.00 0.00 0.00 0.00 0.00 0.01 0.05 0.09 0.08 0.06 0.07 0.06 0.05 0.04 0.03 0.03 0.02
0.00 0.00 0.00 0.01 0.02 0.01 0.03 0.01 0.00 0.00 0.00 0.00 0.00 0.00 0.00 0.00 0.00 0.00 0.00 0.00 0.00 0.00 0.00 0.00 0.00 0.00 0.00 0.00 0.00 0.00 0.00 0.00 0.00 0.00 0.00 0.00 0.00 0.01 0.01 0.03 0.08 0.10 0.06 0.03 0.03 0.02 0.00 0.00 0.00

GFSSGP_prec_precacc_033.txt.gz
Total_Precipitation_Accumulation
0.00 0.00 0.00 0.00 0.00 0.00 0.00 0.00 0.00 0.00 0.00 0.00 0.00 0.00 0.00 0.01 0.05 0.30 0.12 0.01 0.00 0.01 0.00 0.00 0.00 0.00 0.02 0.06 0.07 0.05 0.03 0.02 0.05 0.08 0.16 0.27 0.33 0.50 0.51 0.37 0.33 0.54 0.69 0.54 0.40 0.37 0.49 0.45 0.27
0.00 0.00 0.00 0.00 0.00 0.00 0.00 0.00 0.00 0.00 0.00 0.00 0.00 0.00 0.02 0.01 0.00 0.03 0.02 0.01 0.00 0.01 0.00 0.00 0.00 0.00 0.00 0.00 0.00 0.00 0.00 0.01 0.02 0.03 0.07 0.28 0.35 0.33 0.31 0.44 0.41 0.43 0.47 0.59 0.50 0.75 1.15 0.97 0.72
0.00 0.00 0.00 0.00 0.00 0.00 0.00 0.00 0.00 0.00 0.00 0.00 0.00 0.00 0.10 0.03 0.01 0.00 0.00 0.00 0.00 0.01 0.00 0.00 0.00 0.00 0.00 0.00 0.00 0.00 0.00 0.00 0.00 0.01 0.05 0.12 0.12 0.25 0.24 0.44 0.33 0.19 0.18 0.45 0.60 0.71 0.93 0.83 0.98
0.00 0.00 0.00 0.00 0.00 0.00 0.00 0.00 0.00 0.00 0.00 0.00 0.00 0.01 0.06 0.03 0.00 0.00 0.00 0.00 0.00 0.00 0.00 0.00 0.00 0.00 0.00 0.00 0.00 0.00 0.00 0.00 0.00 0.00 0.01 0.07 0.08 0.13 0.18 0.39 0.46 0.51 0.44 0.77 1.15 1.76 1.28 0.72 1.05
0.00 0.00 0.00 0.00 0.00 0.00 0.00 0.00 0.00 0.00 0.00 0.00 0.00 0.07 0.07 0.04 0.02 0.00 0.00 0.00 0.00 0.00 0.00 0.00 0.00 0.00 0.00 0.00 0.00 0.00 0.00 0.00 0.00 0.00 0.00 0.00 0.01 0.03 0.05 0.07 0.19 0.52 1.17 1.32 1.12 1.24 1.41 0.98 0.29
0.00 0.00 0.00 0.00 0.00 0.00 0.00 0.00 0.00 0.00 0.00 0.00 0.04 0.16 0.10 0.01 0.01 0.01 0.00 0.00 0.00 0.00 0.00 0.00 0.00 0.00 0.00 0.00 0.00 0.00 0.00 0.00 0.00 0.00 0.00 0.00 0.00 0.00 0.00 0.01 0.04 0.07 0.10 0.15 0.16 0.14 0.11 0.16 0.09
0.00 0.00 0.00 0.00 0.00 0.00 0.00 0.00 0.00 0.00 0.00 0.00 0.01 0.10 0.22 0.03 0.00 0.00 0.01 0.00 0.00 0.00 0.00 0.00 0.00 0.00 0.00 0.00 0.00 0.00 0.00 0.00 0.00 0.00 0.00 0.01 0.01 0.00 0.00 0.00 0.00 0.00 0.03 0.06 0.09 0.08 0.02 0.01 0.01
0.00 0.00 0.00 0.00 0.00 0.00 0.00 0.00 0.00 0.00 0.00 0.00 0.00 0.01 0.06 0.01 0.00 0.00 0.00 0.01 0.00 0.00 0.00 0.00 0.00 0.00 0.00 0.00 0.00 0.00 0.00 0.00 0.00 0.00 0.00 0.00 0.00 0.00 0.00 0.01 0.01 0.01 0.03 0.05 0.07 0.08 0.03 0.02 0.00
0.00 0.00 0.00 0.00 0.00 0.00 0.00 0.00 0.00 0.00 0.00 0.00 0.00 0.00 0.00 0.00 0.00 0.00 0.00 0.00 0.00 0.00 0.00 0.00 0.00 0.00 0.00 0.00 0.00 0.00 0.00 0.00 0.00 0.00 0.00 0.00 0.02 0.00 0.00 0.02 0.03 0.04 0.03 0.04 0.06 0.09 0.05 0.01 0.00
0.00 0.00 0.00 0.00 0.00 0.00 0.00 0.00 0.00 0.00 0.00 0.00 0.00 0.00 0.00 0.00 0.00 0.00 0.00 0.00 0.01 0.01 0.00 0.00 0.00 0.00 0.00 0.00 0.00 0.02 0.02 0.00 0.00 0.01 0.00 0.00 0.01 0.00 0.00 0.01 0.04 0.07 0.06 0.06 0.13 0.15 0.08 0.04 0.04
0.00 0.00 0.00 0.00 0.00 0.00 0.00 0.00 0.00 0.00 0.00 0.00 0.00 0.00 0.00 0.00 0.00 0.00 0.00 0.00 0.00 0.00 0.00 0.00 0.00 0.00 0.00 0.00 0.00 0.02 0.01 0.00 0.00 0.00 0.00 0.00 0.00 0.00 0.00 0.00 0.02 0.09 0.10 0.18 0.18 0.37 0.41 0.34 0.20
0.00 0.00 0.00 0.00 0.00 0.00 0.00 0.00 0.00 0.00 0.00 0.00 0.00 0.00 0.00 0.00 0.00 0.00 0.00 0.00 0.00 0.00 0.00 0.00 0.00 0.00 0.00 0.00 0.00 0.00 0.00 0.00 0.00 0.00 0.00 0.00 0.00 0.00 0.00 0.00 0.00 0.04 0.08 0.10 0.19 0.39 0.33 0.26 0.31
0.00 0.00 0.00 0.00 0.00 0.00 0.00 0.00 0.00 0.00 0.00 0.00 0.00 0.00 0.00 0.00 0.00 0.00 0.00 0.00 0.00 0.00 0.00 0.00 0.00 0.00 0.00 0.00 0.00 0.00 0.00 0.00 0.00 0.00 0.00 0.00 0.00 0.00 0.00 0.00 0.00 0.00 0.00 0.03 0.04 0.06 0.12 0.14 0.13
0.00 0.00 0.00 0.00 0.00 0.00 0.00 0.00 0.00 0.00 0.00 0.00 0.00 0.00 0.00 0.00 0.00 0.00 0.00 0.00 0.00 0.00 0.00 0.00 0.00 0.00 0.00 0.00 0.00 0.00 0.00 0.00 0.00 0.00 0.00 0.00 0.00 0.00 0.00 0.00 0.00 0.00 0.01 0.01 0.02 0.03 0.04 0.05 0.06
0.00 0.00 0.00 0.00 0.00 0.00 0.00 0.00 0.00 0.00 0.00 0.00 0.00 0.00 0.00 0.00 0.00 0.00 0.00 0.00 0.00 0.00 0.00 0.00 0.00 0.00 0.00 0.00 0.00 0.00 0.00 0.00 0.00 0.00 0.00 0.00 0.00 0.00 0.00 0.00 0.00 0.00 0.00 0.00 0.00 0.00 0.02 0.04 0.07
0.00 0.00 0.00 0.00 0.00 0.00 0.00 0.00 0.00 0.00 0.00 0.00 0.00 0.00 0.00 0.00 0.00 0.00 0.00 0.00 0.00 0.00 0.00 0.00 0.00 0.10 0.06 0.02 0.00 0.00 0.00 0.00 0.00 0.00 0.00 0.00 0.00 0.00 0.00 0.00 0.00 0.00 0.00 0.00 0.00 0.00 0.00 0.01 0.04
0.00 0.00 0.00 0.00 0.00 0.00 0.00 0.00 0.00 0.00 0.00 0.00 0.00 0.00 0.00 0.00 0.00 0.00 0.00 0.00 0.00 0.00 0.00 0.01 0.00 0.04 0.14 0.11 0.03 0.00 0.00 0.00 0.00 0.00 0.00 0.00 0.00 0.00 0.00 0.00 0.00 0.00 0.00 0.00 0.00 0.00 0.00 0.00 0.00
0.00 0.00 0.00 0.00 0.00 0.00 0.00 0.00 0.00 0.00 0.00 0.00 0.00 0.00 0.00 0.00 0.00 0.00 0.00 0.00 0.00 0.00 0.00 0.02 0.01 0.06 0.08 0.07 0.02 0.01 0.00 0.00 0.00 0.00 0.00 0.00 0.00 0.00 0.00 0.00 0.00 0.00 0.00 0.00 0.00 0.00 0.00 0.00 0.00
0.00 0.00 0.00 0.00 0.00 0.00 0.00 0.00 0.00 0.00 0.00 0.00 0.00 0.00 0.00 0.00 0.00 0.00 0.00 0.00 0.00 0.01 0.01 0.01 0.00 0.06 0.05 0.02 0.01 0.00 0.00 0.00 0.00 0.00 0.00 0.00 0.00 0.00 0.00 0.00 0.00 0.00 0.00 0.00 0.00 0.00 0.00 0.00 0.00
0.00 0.00 0.00 0.00 0.00 0.00 0.00 0.00 0.00 0.00 0.00 0.00 0.00 0.00 0.00 0.00 0.00 0.00 0.00 0.01 0.02 0.01 0.00 0.00 0.00 0.00 0.00 0.00 0.00 0.00 0.00 0.00 0.00 0.00 0.00 0.00 0.00 0.00 0.00 0.00 0.00 0.00 0.00 0.00 0.00 0.00 0.00 0.00 0.00
0.00 0.00 0.00 0.00 0.00 0.00 0.00 0.00 0.00 0.00 0.00 0.00 0.00 0.00 0.00 0.00 0.00 0.00 0.00 0.00 0.00 0.00 0.00 0.00 0.00 0.00 0.00 0.00 0.00 0.00 0.00 0.00 0.00 0.00 0.00 0.00 0.00 0.00 0.00 0.00 0.00 0.00 0.00 0.00 0.00 0.00 0.00 0.00 0.00
0.00 0.00 0.00 0.00 0.00 0.00 0.00 0.00 0.00 0.00 0.00 0.00 0.00 0.00 0.00 0.00 0.00 0.00 0.00 0.00 0.00 0.00 0.00 0.00 0.00 0.00 0.00 0.00 0.00 0.00 0.00 0.00 0.00 0.00 0.00 0.00 0.00 0.00 0.00 0.00 0.00 0.00 0.00 0.00 0.00 0.00 0.00 0.00 0.00
0.00 0.00 0.00 0.00 0.00 0.00 0.00 0.00 0.00 0.00 0.00 0.00 0.00 0.00 0.00 0.00 0.00 0.00 0.00 0.00 0.00 0.00 0.00 0.00 0.00 0.00 0.00 0.00 0.00 0.00 0.00 0.00 0.00 0.00 0.00 0.00 0.00 0.00 0.00 0.00 0.00 0.00 0.00 0.00 0.00 0.00 0.00 0.00 0.00
0.00 0.00 0.00 0.00 0.00 0.00 0.00 0.00 0.00 0.00 0.00 0.00 0.00 0.00 0.00 0.00 0.00 0.00 0.00 0.00 0.00 0.00 0.00 0.00 0.00 0.00 0.00 0.00 0.00 0.00 0.00 0.00 0.00 0.00 0.00 0.00 0.00 0.00 0.00 0.00 0.00 0.00 0.00 0.00 0.00 0.00 0.00 0.00 0.00
0.00 0.00 0.00 0.00 0.01 0.01 0.03 0.03 0.01 0.00 0.00 0.00 0.00 0.00 0.00 0.00 0.00 0.00 0.00 0.00 0.00 0.00 0.00 0.00 0.00 0.00 0.00 0.00 0.00 0.00 0.00 0.00 0.00 0.00 0.00 0.00 0.00 0.00 0.00 0.00 0.00 0.00 0.00 0.00 0.00 0.01 0.02 0.03 0.06
0.00 0.00 0.00 0.00 0.01 0.02 0.01 0.00 0.00 0.00 0.00 0.00 0.00 0.00 0.00 0.00 0.00 0.00 0.00 0.00 0.00 0.00 0.00 0.00 0.00 0.00 0.00 0.00 0.00 0.00 0.00 0.00 0.00 0.00 0.00 0.00 0.00 0.00 0.00 0.00 0.00 0.00 0.01 0.02 0.07 0.12 0.19 0.31 0.43
0.00 0.00 0.00 0.00 0.00 0.00 0.00 0.00 0.00 0.00 0.00 0.00 0.00 0.00 0.00 0.00 0.00 0.00 0.00 0.00 0.00 0.00 0.00 0.00 0.00 0.00 0.00 0.00 0.00 0.00 0.00 0.00 0.00 0.00 0.00 0.00 0.00 0.00 0.00 0.00 0.01 0.04 0.10 0.15 0.19 0.21 0.28 0.32 0.27
0.00 0.00 0.00 0.00 0.00 0.01 0.00 0.00 0.00 0.00 0.00 0.00 0.00 0.00 0.00 0.00 0.00 0.00 0.00 0.00 0.00 0.00 0.00 0.00 0.00 0.00 0.00 0.00 0.00 0.00 0.00 0.00 0.00 0.00 0.00 0.00 0.00 0.00 0.01 0.04 0.12 0.18 0.17 0.12 0.11 0.10 0.09 0.10 0.10
0.00 0.00 0.00 0.00 0.00 0.04 0.07 0.01 0.00 0.00 0.00 0.00 0.00 0.00 0.00 0.00 0.00 0.00 0.00 0.00 0.00 0.00 0.00 0.00 0.00 0.00 0.00 0.00 0.00 0.00 0.00 0.00 0.00 0.00 0.00 0.00 0.00 0.01 0.05 0.09 0.08 0.06 0.08 0.07 0.05 0.04 0.04 0.03 0.02
0.00 0.00 0.00 0.01 0.02 0.01 0.03 0.01 0.00 0.00 0.00 0.00 0.00 0.00 0.00 0.00 0.00 0.00 0.00 0.00 0.00 0.00 0.00 0.00 0.00 0.00 0.00 0.00 0.00 0.00 0.00 0.00 0.00 0.00 0.00 0.00 0.00 0.01 0.02 0.04 0.09 0.11 0.07 0.04 0.03 0.02 0.00 0.00 0.00

GFSSGP_prec_precacc_036.txt.gz
Total_Precipitation_Accumulation
0.00 0.00 0.00 0.00 0.00 0.00 0.00 0.00 0.00 0.01 0.00 0.00 0.00 0.00 0.00 0.01 0.05 0.31 0.12 0.02 0.01 0.01 0.00 0.00 0.00 0.00 0.02 0.06 0.07 0.05 0.03 0.02 0.05 0.08 0.16 0.27 0.33 0.50 0.51 0.37 0.33 0.54 0.69 0.54 0.40 0.37 0.49 0.45 0.27
0.00 0.00 0.00 0.00 0.00 0.00 0.00 0.00 0.00 0.00 0.00 0.00 0.00 0.00 0.02 0.01 0.00 0.03 0.05 0.01 0.00 0.01 0.00 0.00 0.00 0.00 0.00 0.00 0.00 0.00 0.00 0.01 0.02 0.03 0.07 0.28 0.35 0.33 0.31 0.44 0.41 0.43 0.47 0.59 0.50 0.75 1.15 0.97 0.72
0.00 0.00 0.00 0.00 0.00 0.00 0.00 0.00 0.00 0.00 0.00 0.00 0.00 0.00 0.10 0.03 0.01 0.00 0.00 0.00 0.00 0.01 0.00 0.00 0.00 0.00 0.00 0.00 0.00 0.00 0.00 0.00 0.00 0.01 0.05 0.12 0.12 0.25 0.24 0.44 0.33 0.19 0.18 0.45 0.60 0.71 0.93 0.83 0.98
0.00 0.00 0.00 0.00 0.00 0.00 0.00 0.00 0.00 0.00 0.00 0.00 0.00 0.01 0.06 0.03 0.00 0.00 0.00 0.03 0.01 0.00 0.00 0.00 0.00 0.00 0.00 0.00 0.00 0.00 0.00 0.00 0.00 0.00 0.01 0.07 0.08 0.13 0.18 0.39 0.46 0.51 0.44 0.77 1.15 1.76 1.28 0.72 1.05
0.00 0.00 0.00 0.00 0.00 0.00 0.00 0.00 0.00 0.00 0.00 0.00 0.00 0.07 0.07 0.04 0.02 0.00 0.01 0.01 0.00 0.00 0.00 0.00 0.00 0.00 0.00 0.00 0.00 0.00 0.00 0.00 0.00 0.00 0.00 0.00 0.01 0.03 0.05 0.07 0.19 0.52 1.17 1.32 1.12 1.24 1.41 0.98 0.29
0.00 0.00 0.00 0.00 0.00 0.00 0.00 0.00 0.00 0.00 0.00 0.00 0.04 0.16 0.10 0.01 0.01 0.01 0.00 0.00 0.00 0.00 0.00 0.00 0.00 0.00 0.00 0.00 0.00 0.00 0.00 0.00 0.00 0.00 0.00 0.00 0.00 0.00 0.00 0.01 0.04 0.07 0.10 0.15 0.16 0.14 0.11 0.16 0.09
0.00 0.00 0.00 0.00 0.00 0.00 0.00 0.00 0.00 0.00 0.00 0.00 0.01 0.10 0.22 0.03 0.00 0.00 0.01 0.00 0.00 0.00 0.00 0.00 0.00 0.00 0.00 0.00 0.00 0.00 0.00 0.00 0.00 0.00 0.00 0.01 0.01 0.00 0.00 0.00 0.00 0.00 0.03 0.06 0.09 0.08 0.02 0.01 0.01
0.00 0.00 0.00 0.00 0.00 0.00 0.00 0.00 0.00 0.00 0.00 0.00 0.00 0.01 0.06 0.01 0.00 0.00 0.00 0.01 0.00 0.00 0.00 0.00 0.00 0.00 0.00 0.00 0.00 0.00 0.00 0.00 0.00 0.00 0.00 0.00 0.00 0.00 0.00 0.01 0.01 0.01 0.03 0.05 0.07 0.08 0.03 0.02 0.00
0.00 0.00 0.00 0.00 0.00 0.00 0.00 0.00 0.00 0.00 0.00 0.00 0.00 0.00 0.00 0.00 0.00 0.00 0.00 0.00 0.00 0.00 0.00 0.00 0.00 0.00 0.00 0.00 0.00 0.00 0.00 0.00 0.00 0.00 0.00 0.00 0.02 0.00 0.00 0.02 0.03 0.04 0.03 0.04 0.06 0.09 0.05 0.01 0.00
0.00 0.00 0.00 0.00 0.00 0.00 0.00 0.00 0.00 0.00 0.00 0.00 0.00 0.00 0.00 0.00 0.00 0.00 0.00 0.00 0.01 0.01 0.00 0.00 0.00 0.00 0.00 0.00 0.00 0.02 0.02 0.00 0.00 0.01 0.00 0.00 0.01 0.00 0.00 0.01 0.04 0.07 0.06 0.06 0.13 0.15 0.08 0.04 0.04
0.00 0.00 0.00 0.00 0.00 0.00 0.00 0.00 0.00 0.00 0.00 0.00 0.00 0.00 0.00 0.00 0.00 0.00 0.00 0.00 0.00 0.00 0.00 0.00 0.00 0.00 0.00 0.00 0.00 0.02 0.01 0.00 0.00 0.00 0.00 0.00 0.00 0.00 0.00 0.00 0.02 0.09 0.10 0.18 0.18 0.37 0.41 0.34 0.20
0.00 0.00 0.00 0.00 0.00 0.00 0.00 0.00 0.00 0.00 0.00 0.00 0.00 0.00 0.00 0.00 0.00 0.00 0.00 0.00 0.00 0.00 0.00 0.00 0.00 0.00 0.00 0.00 0.00 0.00 0.00 0.00 0.00 0.00 0.00 0.00 0.00 0.00 0.00 0.00 0.00 0.04 0.08 0.10 0.19 0.39 0.33 0.26 0.31
0.00 0.00 0.00 0.00 0.00 0.00 0.00 0.00 0.00 0.00 0.00 0.00 0.00 0.00 0.00 0.00 0.00 0.00 0.00 0.00 0.00 0.00 0.00 0.00 0.00 0.00 0.00 0.00 0.00 0.00 0.00 0.00 0.00 0.00 0.00 0.00 0.00 0.00 0.00 0.00 0.00 0.00 0.00 0.03 0.04 0.06 0.12 0.14 0.13
0.00 0.00 0.00 0.00 0.00 0.00 0.00 0.00 0.00 0.00 0.00 0.00 0.00 0.00 0.00 0.00 0.00 0.00 0.00 0.00 0.00 0.00 0.00 0.00 0.00 0.00 0.00 0.00 0.00 0.00 0.00 0.00 0.00 0.00 0.00 0.00 0.00 0.00 0.00 0.00 0.00 0.00 0.01 0.01 0.02 0.03 0.04 0.05 0.06
0.00 0.00 0.00 0.00 0.00 0.00 0.00 0.00 0.00 0.00 0.00 0.00 0.00 0.00 0.00 0.00 0.00 0.00 0.00 0.00 0.00 0.00 0.00 0.00 0.00 0.01 0.04 0.01 0.00 0.00 0.00 0.00 0.00 0.00 0.00 0.00 0.00 0.00 0.00 0.00 0.00 0.00 0.00 0.00 0.00 0.00 0.02 0.04 0.07
0.00 0.00 0.00 0.00 0.00 0.00 0.00 0.00 0.00 0.00 0.00 0.00 0.00 0.00 0.00 0.00 0.00 0.00 0.00 0.00 0.00 0.00 0.00 0.00 0.03 0.17 0.18 0.10 0.01 0.00 0.00 0.00 0.00 0.00 0.00 0.00 0.00 0.00 0.00 0.00 0.00 0.00 0.00 0.00 0.00 0.00 0.00 0.01 0.04
0.00 0.00 0.00 0.00 0.00 0.00 0.00 0.00 0.00 0.00 0.00 0.00 0.00 0.00 0.00 0.00 0.00 0.00 0.00 0.00 0.00 0.00 0.00 0.03 0.12 0.12 0.27 0.19 0.06 0.01 0.00 0.00 0.00 0.00 0.00 0.00 0.00 0.00 0.00 0.00 0.00 0.00 0.00 0.00 0.00 0.00 0.00 0.00 0.00
0.00 0.00 0.00 0.00 0.00 0.00 0.00 0.00 0.00 0.00 0.00 0.00 0.00 0.00 0.00 0.00 0.00 0.00 0.00 0.00 0.00 0.00 0.01 0.09 0.15 0.21 0.22 0.19 0.06 0.02 0.00 0.00 0.00 0.00 0.00 0.00 0.00 0.00 0.00 0.00 0.00 0.00 0.00 0.00 0.00 0.00 0.00 0.00 0.00
0.00 0.00 0.00 0.00 0.00 0.00 0.00 0.00 0.00 0.00 0.00 0.00 0.00 0.00 0.00 0.00 0.00 0.00 0.00 0.00 0.01 0.04 0.07 0.08 0.11 0.18 0.14 0.07 0.03 0.01 0.00 0.00 0.00 0.00 0.00 0.00 0.00 0.00 0.00 0.00 0.00 0.00 0.00 0.00 0.00 0.00 0.00 0.00 0.00
0.00 0.00 0.00 0.00 0.00 0.00 0.00 0.00 0.00 0.00 0.00 0.00 0.00 0.00 0.00 0.00 0.00 0.00 0.01 0.05 0.06 0.07 0.07 0.04 0.01 0.00 0.00 0.00 0.00 0.00 0.00 0.00 0.00 0.00 0.00 0.00 0.00 0.00 0.00 0.00 0.00 0.00 0.00 0.00 0.00 0.00 0.00 0.00 0.00
0.00 0.00 0.00 0.00 0.00 0.00 0.00 0.00 0.00 0.00 0.00 0.00 0.00 0.00 0.00 0.00 0.00 0.00 0.02 0.02 0.01 0.01 0.00 0.00 0.00 0.00 0.00 0.00 0.00 0.00 0.00 0.00 0.00 0.00 0.00 0.00 0.00 0.00 0.00 0.00 0.00 0.00 0.00 0.00 0.00 0.00 0.00 0.00 0.00
0.00 0.00 0.00 0.00 0.00 0.00 0.00 0.00 0.00 0.00 0.00 0.00 0.00 0.00 0.00 0.00 0.00 0.00 0.00 0.00 0.00 0.00 0.00 0.00 0.00 0.00 0.00 0.00 0.00 0.00 0.00 0.00 0.00 0.00 0.00 0.00 0.00 0.00 0.00 0.00 0.00 0.00 0.00 0.00 0.00 0.00 0.00 0.00 0.00
0.00 0.00 0.00 0.00 0.00 0.00 0.00 0.00 0.00 0.00 0.00 0.00 0.00 0.00 0.00 0.00 0.00 0.00 0.00 0.00 0.00 0.00 0.00 0.00 0.00 0.00 0.00 0.00 0.00 0.00 0.00 0.00 0.00 0.00 0.00 0.00 0.00 0.00 0.00 0.00 0.00 0.00 0.00 0.00 0.00 0.00 0.00 0.00 0.00
0.00 0.00 0.00 0.00 0.00 0.00 0.00 0.00 0.00 0.00 0.00 0.00 0.00 0.00 0.00 0.00 0.00 0.00 0.00 0.00 0.00 0.00 0.00 0.00 0.00 0.00 0.00 0.00 0.00 0.00 0.00 0.00 0.00 0.00 0.00 0.00 0.00 0.00 0.00 0.00 0.00 0.00 0.00 0.00 0.00 0.00 0.00 0.00 0.00
0.00 0.00 0.00 0.00 0.01 0.02 0.04 0.04 0.01 0.00 0.00 0.00 0.00 0.00 0.00 0.00 0.00 0.00 0.00 0.00 0.00 0.00 0.00 0.00 0.00 0.00 0.00 0.00 0.00 0.00 0.00 0.00 0.00 0.00 0.00 0.00 0.00 0.00 0.00 0.00 0.00 0.00 0.00 0.00 0.00 0.01 0.02 0.03 0.06
0.00 0.00 0.00 0.00 0.01 0.02 0.01 0.00 0.00 0.00 0.00 0.00 0.00 0.00 0.00 0.00 0.00 0.00 0.00 0.00 0.00 0.00 0.00 0.00 0.00 0.00 0.00 0.00 0.00 0.00 0.00 0.00 0.00 0.00 0.00 0.00 0.00 0.00 0.00 0.00 0.00 0.00 0.01 0.02 0.07 0.12 0.19 0.31 0.43
0.00 0.00 0.00 0.00 0.00 0.00 0.00 0.00 0.00 0.00 0.00 0.00 0.00 0.00 0.00 0.00 0.00 0.00 0.00 0.00 0.00 0.00 0.00 0.00 0.00 0.00 0.00 0.00 0.00 0.00 0.00 0.00 0.00 0.00 0.00 0.00 0.00 0.00 0.00 0.00 0.01 0.04 0.10 0.15 0.19 0.21 0.28 0.32 0.27
0.00 0.00 0.00 0.00 0.00 0.01 0.00 0.00 0.00 0.00 0.00 0.00 0.00 0.00 0.00 0.00 0.00 0.00 0.00 0.00 0.00 0.00 0.00 0.00 0.00 0.00 0.00 0.00 0.00 0.00 0.00 0.00 0.00 0.00 0.00 0.00 0.00 0.00 0.01 0.04 0.12 0.18 0.17 0.12 0.11 0.10 0.09 0.10 0.10
0.00 0.00 0.00 0.00 0.00 0.04 0.07 0.01 0.00 0.00 0.00 0.00 0.00 0.00 0.00 0.00 0.00 0.00 0.00 0.00 0.00 0.00 0.00 0.00 0.00 0.00 0.00 0.00 0.00 0.00 0.00 0.00 0.00 0.00 0.00 0.00 0.00 0.01 0.05 0.09 0.08 0.06 0.08 0.07 0.06 0.05 0.04 0.04 0.03
0.00 0.00 0.00 0.01 0.02 0.01 0.03 0.01 0.00 0.00 0.00 0.00 0.00 0.00 0.00 0.00 0.00 0.00 0.00 0.00 0.00 0.00 0.00 0.00 0.00 0.00 0.00 0.00 0.00 0.00 0.00 0.00 0.00 0.00 0.00 0.00 0.00 0.01 0.02 0.04 0.09 0.11 0.07 0.04 0.03 0.02 0.00 0.00 0.00

GFSSGP_prec_precacc_039.txt.gz
Total_Precipitation_Accumulation
0.00 0.00 0.00 0.00 0.00 0.00 0.00 0.00 0.00 0.01 0.00 0.00 0.00 0.01 0.00 0.02 0.06 0.31 0.12 0.02 0.01 0.01 0.00 0.00 0.00 0.00 0.02 0.06 0.07 0.05 0.03 0.02 0.05 0.08 0.16 0.27 0.33 0.50 0.51 0.37 0.33 0.54 0.69 0.54 0.40 0.37 0.49 0.45 0.27
0.00 0.00 0.00 0.00 0.00 0.00 0.00 0.00 0.00 0.00 0.00 0.01 0.01 0.03 0.03 0.02 0.01 0.03 0.05 0.01 0.00 0.01 0.00 0.00 0.00 0.00 0.00 0.00 0.00 0.00 0.00 0.01 0.02 0.03 0.07 0.28 0.35 0.33 0.31 0.44 0.41 0.43 0.47 0.59 0.50 0.75 1.15 0.97 0.72
0.00 0.00 0.00 0.00 0.00 0.00 0.00 0.00 0.00 0.00 0.00 0.00 0.00 0.00 0.12 0.05 0.01 0.00 0.00 0.00 0.00 0.01 0.00 0.00 0.00 0.00 0.00 0.00 0.00 0.00 0.00 0.00 0.00 0.01 0.05 0.12 0.12 0.25 0.24 0.44 0.33 0.19 0.18 0.45 0.60 0.71 0.93 0.83 0.98
0.00 0.00 0.00 0.00 0.00 0.00 0.00 0.00 0.00 0.00 0.00 0.00 0.00 0.01 0.07 0.04 0.01 0.01 0.00 0.03 0.01 0.00 0.00 0.00 0.00 0.00 0.00 0.00 0.00 0.00 0.00 0.00 0.00 0.00 0.01 0.07 0.08 0.13 0.18 0.39 0.46 0.51 0.44 0.77 1.15 1.76 1.28 0.72 1.05
0.00 0.00 0.00 0.00 0.00 0.00 0.00 0.00 0.00 0.00 0.00 0.00 0.00 0.07 0.08 0.04 0.02 0.01 0.01 0.01 0.00 0.00 0.00 0.00 0.00 0.00 0.00 0.00 0.00 0.00 0.00 0.00 0.00 0.00 0.00 0.00 0.01 0.03 0.05 0.07 0.19 0.52 1.17 1.32 1.12 1.24 1.41 0.98 0.29
0.00 0.00 0.00 0.00 0.00 0.00 0.00 0.00 0.00 0.00 0.00 0.00 0.04 0.16 0.10 0.01 0.02 0.02 0.00 0.00 0.00 0.00 0.00 0.00 0.00 0.00 0.00 0.00 0.00 0.00 0.00 0.00 0.00 0.00 0.00 0.00 0.00 0.00 0.00 0.01 0.04 0.07 0.10 0.15 0.16 0.14 0.11 0.16 0.09
0.00 0.00 0.00 0.00 0.01 0.00 0.00 0.00 0.00 0.00 0.00 0.00 0.01 0.10 0.22 0.03 0.00 0.00 0.01 0.00 0.00 0.00 0.00 0.00 0.00 0.00 0.00 0.00 0.00 0.00 0.00 0.00 0.00 0.00 0.00 0.01 0.01 0.00 0.00 0.00 0.00 0.00 0.03 0.06 0.09 0.08 0.02 0.01 0.01
0.00 0.00 0.00 0.00 0.01 0.00 0.00 0.00 0.00 0.00 0.00 0.00 0.00 0.01 0.06 0.01 0.00 0.00 0.00 0.01 0.00 0.00 0.00 0.00 0.00 0.00 0.00 0.00 0.00 0.00 0.00 0.00 0.00 0.00 0.00 0.00 0.00 0.00 0.00 0.01 0.01 0.01 0.03 0.05 0.07 0.08 0.03 0.02 0.00
0.00 0.00 0.00 0.00 0.00 0.00 0.00 0.00 0.00 0.00 0.00 0.00 0.00 0.00 0.00 0.00 0.00 0.00 0.00 0.00 0.00 0.00 0.00 0.00 0.00 0.00 0.00 0.00 0.00 0.00 0.00 0.00 0.00 0.00 0.00 0.00 0.02 0.00 0.00 0.02 0.03 0.04 0.03 0.04 0.06 0.09 0.05 0.01 0.00
0.00 0.00 0.00 0.00 0.00 0.00 0.00 0.00 0.00 0.00 0.00 0.00 0.00 0.00 0.00 0.00 0.00 0.00 0.00 0.00 0.01 0.01 0.00 0.00 0.00 0.00 0.00 0.00 0.00 0.02 0.02 0.00 0.00 0.01 0.00 0.00 0.01 0.00 0.00 0.01 0.04 0.07 0.06 0.06 0.13 0.15 0.08 0.04 0.04
0.00 0.00 0.00 0.00 0.00 0.00 0.00 0.00 0.00 0.00 0.00 0.00 0.00 0.00 0.00 0.00 0.00 0.00 0.00 0.00 0.00 0.00 0.00 0.00 0.00 0.00 0.00 0.00 0.00 0.02 0.01 0.00 0.00 0.00 0.00 0.00 0.00 0.00 0.00 0.00 0.02 0.09 0.10 0.18 0.18 0.37 0.41 0.34 0.20
0.00 0.00 0.00 0.00 0.00 0.00 0.00 0.00 0.00 0.00 0.00 0.00 0.00 0.00 0.00 0.00 0.00 0.00 0.00 0.00 0.00 0.00 0.00 0.00 0.00 0.00 0.00 0.00 0.00 0.00 0.00 0.00 0.00 0.00 0.00 0.00 0.00 0.00 0.00 0.00 0.00 0.04 0.08 0.10 0.19 0.39 0.33 0.26 0.31
0.00 0.00 0.00 0.00 0.00 0.00 0.00 0.00 0.00 0.00 0.00 0.00 0.00 0.00 0.00 0.00 0.00 0.00 0.00 0.00 0.00 0.00 0.00 0.00 0.00 0.00 0.00 0.00 0.00 0.00 0.00 0.00 0.00 0.00 0.00 0.00 0.00 0.00 0.00 0.00 0.00 0.00 0.00 0.03 0.04 0.06 0.12 0.14 0.13
0.00 0.00 0.00 0.00 0.00 0.00 0.00 0.00 0.00 0.00 0.00 0.00 0.00 0.00 0.00 0.00 0.00 0.00 0.00 0.00 0.00 0.00 0.00 0.00 0.00 0.00 0.00 0.00 0.00 0.00 0.00 0.00 0.00 0.00 0.00 0.00 0.00 0.00 0.00 0.00 0.00 0.00 0.01 0.01 0.02 0.03 0.04 0.05 0.06
0.00 0.00 0.00 0.00 0.00 0.00 0.00 0.00 0.00 0.00 0.00 0.00 0.00 0.00 0.00 0.00 0.00 0.00 0.00 0.00 0.00 0.00 0.00 0.00 0.00 0.01 0.06 0.02 0.00 0.00 0.00 0.00 0.00 0.00 0.00 0.00 0.00 0.00 0.00 0.00 0.00 0.00 0.00 0.00 0.00 0.00 0.02 0.04 0.07
0.00 0.00 0.00 0.00 0.00 0.00 0.00 0.00 0.00 0.00 0.00 0.00 0.00 0.00 0.00 0.00 0.00 0.00 0.00 0.00 0.00 0.00 0.00 0.00 0.03 0.18 0.24 0.18 0.02 0.00 0.00 0.00 0.00 0.00 0.00 0.00 0.00 0.00 0.00 0.00 0.00 0.00 0.00 0.00 0.00 0.00 0.00 0.01 0.04
0.00 0.00 0.00 0.00 0.00 0.00 0.00 0.00 0.00 0.00 0.00 0.00 0.00 0.00 0.00 0.00 0.00 0.00 0.00 0.00 0.00 0.00 0.00 0.08 0.22 0.23 0.39 0.30 0.10 0.03 0.00 0.00 0.00 0.00 0.00 0.00 0.00 0.00 0.00 0.00 0.00 0.00 0.00 0.00 0.00 0.00 0.00 0.00 0.00
0.00 0.00 0.00 0.00 0.00 0.00 0.00 0.00 0.00 0.00 0.00 0.00 0.00 0.00 0.00 0.00 0.00 0.00 0.00 0.00 0.00 0.00 0.03 0.23 0.39 0.41 0.38 0.33 0.16 0.04 0.01 0.00 0.00 0.00 0.00 0.00 0.00 0.00 0.00 0.00 0.00 0.00 0.00 0.00 0.00 0.00 0.00 0.00 0.00
0.00 0.00 0.00 0.00 0.00 0.00 0.00 0.00 0.00 0.00 0.00 0.00 0.00 0.00 0.00 0.00 0.00 0.00 0.00 0.01 0.01 0.06 0.18 0.30 0.34 0.35 0.21 0.13 0.07 0.02 0.01 0.01 0.00 0.00 0.00 0.00 0.00 0.00 0.00 0.00 0.00 0.00 0.00 0.00 0.00 0.00 0.00 0.00 0.00
0.00 0.00 0.00 0.00 0.00 0.00 0.00 0.00 0.00 0.00 0.00 0.00 0.00 0.00 0.00 0.00 0.00 0.00 0.02 0.08 0.11 0.15 0.16 0.09 0.04 0.01 0.01 0.00 0.00 0.00 0.00 0.00 0.00 0.00 0.00 0.00 0.00 0.00 0.00 0.00 0.00 0.00 0.00 0.00 0.00 0.00 0.00 0.00 0.00
0.00 0.00 0.00 0.00 0.00 0.00 0.00 0.00 0.00 0.00 0.00 0.00 0.00 0.00 0.00 0.00 0.00 0.02 0.06 0.07 0.05 0.04 0.01 0.00 0.00 0.00 0.00 0.00 0.00 0.00 0.00 0.00 0.00 0.00 0.00 0.00 0.00 0.00 0.00 0.00 0.00 0.00 0.00 0.00 0.00 0.00 0.00 0.00 0.00
0.00 0.00 0.00 0.00 0.00 0.00 0.00 0.00 0.00 0.00 0.00 0.00 0.00 0.00 0.00 0.00 0.00 0.01 0.01 0.00 0.00 0.00 0.00 0.00 0.00 0.00 0.00 0.00 0.00 0.00 0.00 0.00 0.00 0.00 0.00 0.00 0.00 0.00 0.00 0.00 0.00 0.00 0.00 0.00 0.00 0.00 0.00 0.00 0.00
0.00 0.00 0.00 0.00 0.00 0.00 0.00 0.00 0.00 0.00 0.00 0.00 0.00 0.00 0.00 0.00 0.00 0.00 0.00 0.00 0.00 0.00 0.00 0.00 0.00 0.00 0.00 0.00 0.00 0.00 0.00 0.00 0.00 0.00 0.00 0.00 0.00 0.00 0.00 0.00 0.00 0.00 0.00 0.00 0.00 0.00 0.00 0.00 0.00
0.00 0.00 0.00 0.00 0.00 0.00 0.00 0.00 0.00 0.00 0.00 0.00 0.00 0.00 0.00 0.00 0.00 0.00 0.00 0.00 0.00 0.00 0.00 0.00 0.00 0.00 0.00 0.00 0.00 0.00 0.00 0.00 0.00 0.00 0.00 0.00 0.00 0.00 0.00 0.00 0.00 0.00 0.00 0.00 0.00 0.00 0.00 0.00 0.00
0.00 0.00 0.00 0.00 0.01 0.02 0.04 0.04 0.01 0.00 0.00 0.00 0.00 0.00 0.00 0.00 0.00 0.00 0.00 0.00 0.00 0.00 0.00 0.00 0.00 0.00 0.00 0.00 0.00 0.00 0.00 0.00 0.00 0.00 0.00 0.00 0.00 0.00 0.00 0.00 0.00 0.00 0.00 0.00 0.00 0.01 0.02 0.03 0.06
0.00 0.00 0.00 0.00 0.01 0.02 0.01 0.00 0.00 0.00 0.00 0.00 0.00 0.00 0.00 0.00 0.00 0.00 0.00 0.00 0.00 0.00 0.00 0.00 0.00 0.00 0.00 0.00 0.00 0.00 0.00 0.00 0.00 0.00 0.00 0.00 0.00 0.00 0.00 0.00 0.00 0.00 0.01 0.02 0.07 0.12 0.19 0.31 0.43
0.00 0.00 0.00 0.00 0.00 0.00 0.00 0.00 0.00 0.00 0.00 0.00 0.00 0.00 0.00 0.00 0.00 0.00 0.00 0.00 0.00 0.00 0.00 0.00 0.00 0.00 0.00 0.00 0.00 0.00 0.00 0.00 0.00 0.00 0.00 0.00 0.00 0.00 0.00 0.00 0.01 0.04 0.10 0.15 0.19 0.21 0.28 0.32 0.27
0.00 0.00 0.00 0.00 0.00 0.01 0.00 0.00 0.00 0.00 0.00 0.00 0.00 0.00 0.00 0.00 0.00 0.00 0.00 0.00 0.00 0.00 0.00 0.00 0.00 0.00 0.00 0.00 0.00 0.00 0.00 0.00 0.00 0.00 0.00 0.00 0.00 0.00 0.01 0.04 0.12 0.18 0.17 0.12 0.11 0.10 0.09 0.10 0.10
0.00 0.00 0.00 0.00 0.00 0.04 0.07 0.01 0.00 0.00 0.00 0.00 0.00 0.00 0.00 0.00 0.00 0.00 0.00 0.00 0.00 0.00 0.00 0.00 0.00 0.00 0.00 0.00 0.00 0.00 0.00 0.00 0.00 0.00 0.00 0.00 0.00 0.01 0.05 0.09 0.08 0.06 0.08 0.07 0.06 0.05 0.04 0.04 0.03
0.00 0.00 0.00 0.01 0.02 0.01 0.03 0.01 0.00 0.00 0.00 0.00 0.00 0.00 0.00 0.00 0.00 0.00 0.00 0.00 0.00 0.00 0.00 0.00 0.00 0.00 0.00 0.00 0.00 0.00 0.00 0.00 0.00 0.00 0.00 0.00 0.00 0.01 0.02 0.04 0.09 0.11 0.07 0.04 0.03 0.02 0.00 0.00 0.00

GFSSGP_prec_precacc_045.txt.gz
Total_Precipitation_Accumulation
0.00 0.00 0.00 0.00 0.00 0.00 0.00 0.00 0.00 0.03 0.03 0.01 0.01 0.05 0.04 0.02 0.07 0.32 0.13 0.02 0.01 0.01 0.00 0.00 0.00 0.00 0.02 0.06 0.07 0.05 0.03 0.02 0.05 0.08 0.16 0.27 0.33 0.50 0.51 0.37 0.33 0.54 0.69 0.54 0.40 0.37 0.49 0.45 0.27
0.00 0.00 0.00 0.00 0.00 0.00 0.00 0.00 0.00 0.04 0.09 0.12 0.10 0.13 0.10 0.11 0.03 0.06 0.08 0.03 0.00 0.01 0.00 0.00 0.00 0.00 0.00 0.00 0.00 0.00 0.00 0.01 0.02 0.03 0.07 0.28 0.35 0.33 0.31 0.44 0.41 0.43 0.47 0.59 0.50 0.75 1.15 0.97 0.72
0.00 0.00 0.00 0.00 0.00 0.00 0.00 0.00 0.00 0.00 0.05 0.05 0.02 0.02 0.14 0.11 0.06 0.11 0.06 0.01 0.00 0.01 0.00 0.00 0.00 0.00 0.00 0.00 0.00 0.00 0.00 0.00 0.00 0.01 0.05 0.12 0.12 0.25 0.24 0.44 0.33 0.19 0.18 0.45 0.60 0.71 0.93 0.83 0.98
0.00 0.00 0.00 0.00 0.00 0.00 0.00 0.00 0.00 0.00 0.01 0.00 0.02 0.03 0.09 0.11 0.18 0.13 0.02 0.03 0.01 0.00 0.00 0.00 0.00 0.00 0.00 0.00 0.00 0.00 0.00 0.00 0.00 0.00 0.01 0.07 0.08 0.13 0.18 0.39 0.46 0.51 0.44 0.77 1.15 1.76 1.28 0.72 1.05
0.00 0.00 0.00 0.00 0.00 0.00 0.00 0.01 0.03 0.00 0.01 0.01 0.00 0.10 0.09 0.09 0.11 0.04 0.01 0.01 0.00 0.00 0.00 0.00 0.00 0.00 0.00 0.00 0.00 0.00 0.00 0.00 0.00 0.00 0.00 0.00 0.01 0.03 0.05 0.07 0.19 0.52 1.17 1.32 1.12 1.24 1.41 0.98 0.29
0.00 0.00 0.00 0.00 0.00 0.00 0.00 0.04 0.04 0.01 0.00 0.00 0.04 0.17 0.13 0.03 0.07 0.04 0.05 0.00 0.00 0.00 0.00 0.00 0.00 0.00 0.00 0.00 0.00 0.00 0.00 0.00 0.00 0.00 0.00 0.00 0.00 0.00 0.00 0.01 0.04 0.07 0.10 0.15 0.16 0.14 0.11 0.16 0.09
0.00 0.00 0.00 0.00 0.01 0.00 0.01 0.05 0.03 0.00 0.00 0.00 0.01 0.11 0.23 0.04 0.04 0.08 0.08 0.00 0.00 0.00 0.00 0.00 0.00 0.00 0.00 0.00 0.00 0.00 0.00 0.00 0.00 0.00 0.00 0.01 0.01 0.00 0.00 0.00 0.00 0.00 0.03 0.06 0.09 0.08 0.02 0.01 0.01
0.00 0.00 0.00 0.00 0.01 0.00 0.00 0.01 0.01 0.00 0.00 0.00 0.00 0.01 0.07 0.02 0.00 0.01 0.01 0.01 0.00 0.00 0.00 0.00 0.00 0.00 0.00 0.00 0.00 0.00 0.00 0.00 0.00 0.00 0.00 0.00 0.00 0.00 0.00 0.01 0.01 0.01 0.03 0.05 0.07 0.08 0.03 0.02 0.00
0.00 0.00 0.00 0.00 0.01 0.01 0.02 0.02 0.01 0.00 0.00 0.00 0.00 0.00 0.00 0.00 0.00 0.00 0.00 0.00 0.00 0.00 0.00 0.00 0.00 0.00 0.00 0.00 0.00 0.00 0.00 0.00 0.00 0.00 0.00 0.00 0.02 0.00 0.00 0.02 0.03 0.04 0.03 0.04 0.06 0.09 0.05 0.01 0.00
0.00 0.00 0.00 0.00 0.00 0.03 0.01 0.00 0.00 0.00 0.00 0.00 0.00 0.00 0.00 0.00 0.00 0.00 0.00 0.00 0.01 0.01 0.00 0.00 0.00 0.00 0.00 0.00 0.00 0.02 0.02 0.00 0.00 0.01 0.00 0.00 0.01 0.00 0.00 0.01 0.04 0.07 0.06 0.06 0.13 0.15 0.08 0.04 0.04
0.00 0.00 0.00 0.01 0.00 0.00 0.00 0.00 0.00 0.00 0.00 0.00 0.00 0.00 0.00 0.00 0.00 0.00 0.00 0.00 0.00 0.00 0.00 0.00 0.00 0.00 0.00 0.00 0.00 0.02 0.01 0.00 0.00 0.00 0.00 0.00 0.00 0.00 0.00 0.00 0.02 0.09 0.10 0.18 0.18 0.37 0.41 0.34 0.20
0.00 0.00 0.00 0.00 0.00 0.00 0.00 0.00 0.00 0.00 0.00 0.00 0.00 0.00 0.00 0.00 0.00 0.00 0.00 0.00 0.00 0.00 0.00 0.00 0.00 0.00 0.00 0.00 0.00 0.00 0.00 0.00 0.00 0.00 0.00 0.00 0.00 0.00 0.00 0.00 0.00 0.04 0.08 0.10 0.19 0.39 0.33 0.26 0.31
0.00 0.00 0.00 0.00 0.00 0.00 0.00 0.00 0.00 0.00 0.00 0.00 0.00 0.00 0.00 0.00 0.00 0.00 0.00 0.00 0.00 0.00 0.00 0.00 0.00 0.00 0.00 0.00 0.00 0.00 0.00 0.00 0.00 0.00 0.00 0.00 0.00 0.00 0.00 0.00 0.00 0.00 0.00 0.03 0.04 0.06 0.12 0.14 0.13
0.00 0.00 0.00 0.00 0.00 0.00 0.00 0.00 0.00 0.00 0.00 0.00 0.00 0.00 0.00 0.00 0.00 0.00 0.00 0.00 0.00 0.00 0.00 0.00 0.00 0.00 0.00 0.00 0.00 0.00 0.01 0.01 0.03 0.04 0.06 0.07 0.03 0.03 0.00 0.00 0.00 0.00 0.01 0.01 0.02 0.03 0.04 0.05 0.06
0.00 0.00 0.00 0.00 0.00 0.00 0.00 0.00 0.00 0.00 0.00 0.00 0.00 0.00 0.00 0.00 0.00 0.00 0.00 0.00 0.00 0.00 0.00 0.00 0.00 0.01 0.06 0.02 0.00 0.00 0.00 0.01 0.03 0.07 0.08 0.09 0.08 0.04 0.01 0.00 0.00 0.00 0.00 0.00 0.00 0.00 0.02 0.04 0.07
0.00 0.00 0.00 0.00 0.00 0.00 0.00 0.00 0.00 0.00 0.00 0.00 0.00 0.00 0.00 0.00 0.00 0.00 0.00 0.00 0.00 0.00 0.00 0.03 0.16 0.26 0.27 0.19 0.02 0.01 0.01 0.01 0.07 0.09 0.07 0.09 0.07 0.03 0.00 0.00 0.00 0.00 0.00 0.00 0.00 0.00 0.00 0.01 0.04
0.00 0.00 0.00 0.00 0.00 0.00 0.00 0.00 0.00 0.00 0.00 0.00 0.00 0.00 0.00 0.00 0.00 0.00 0.00 0.00 0.00 0.00 0.01 0.21 0.49 0.49 0.53 0.49 0.42 0.37 0.14 0.05 0.07 0.04 0.01 0.00 0.00 0.00 0.00 0.00 0.00 0.00 0.00 0.00 0.00 0.00 0.00 0.00 0.00
0.00 0.00 0.00 0.00 0.00 0.00 0.00 0.00 0.00 0.00 0.00 0.00 0.00 0.00 0.00 0.00 0.00 0.00 0.00 0.00 0.00 0.01 0.06 0.42 0.67 0.69 0.88 1.09 0.67 0.35 0.11 0.03 0.00 0.00 0.00 0.00 0.00 0.00 0.00 0.00 0.00 0.00 0.00 0.00 0.00 0.00 0.00 0.00 0.00
0.00 0.00 0.00 0.00 0.00 0.00 0.00 0.00 0.00 0.00 0.00 0.00 0.00 0.00 0.00 0.00 0.00 0.00 0.00 0.02 0.04 0.07 0.27 0.61 0.78 0.90 0.68 0.37 0.16 0.04 0.01 0.01 0.00 0.00 0.00 0.00 0.00 0.00 0.00 0.00 0.00 0.00 0.00 0.00 0.00 0.00 0.00 0.00 0.00
0.00 0.00 0.00 0.00 0.00 0.00 0.00 0.00 0.00 0.00 0.00 0.00 0.00 0.00 0.00 0.00 0.00 0.00 0.02 0.08 0.13 0.26 0.34 0.26 0.17 0.08 0.02 0.00 0.00 0.00 0.00 0.00 0.00 0.00 0.00 0.00 0.00 0.00 0.00 0.00 0.00 0.00 0.00 0.00 0.00 0.00 0.00 0.00 0.00
0.00 0.00 0.00 0.00 0.00 0.00 0.00 0.00 0.00 0.00 0.00 0.00 0.00 0.00 0.00 0.00 0.00 0.02 0.08 0.11 0.13 0.11 0.03 0.00 0.00 0.00 0.00 0.00 0.00 0.00 0.00 0.00 0.00 0.00 0.00 0.00 0.00 0.00 0.00 0.00 0.00 0.00 0.00 0.00 0.00 0.00 0.00 0.00 0.00
0.00 0.00 0.00 0.00 0.00 0.00 0.00 0.00 0.00 0.00 0.00 0.00 0.00 0.00 0.00 0.00 0.01 0.01 0.01 0.00 0.00 0.00 0.00 0.00 0.00 0.00 0.00 0.00 0.00 0.00 0.00 0.00 0.00 0.00 0.00 0.00 0.00 0.00 0.00 0.00 0.00 0.00 0.00 0.00 0.00 0.00 0.00 0.00 0.00
0.00 0.00 0.00 0.00 0.00 0.00 0.00 0.00 0.00 0.00 0.00 0.00 0.00 0.00 0.00 0.00 0.00 0.00 0.00 0.00 0.00 0.00 0.00 0.00 0.00 0.00 0.00 0.00 0.00 0.00 0.00 0.00 0.00 0.00 0.00 0.00 0.00 0.00 0.00 0.00 0.00 0.00 0.00 0.00 0.00 0.00 0.00 0.00 0.00
0.00 0.00 0.00 0.00 0.00 0.00 0.00 0.00 0.00 0.00 0.00 0.00 0.00 0.00 0.00 0.00 0.00 0.00 0.00 0.00 0.00 0.00 0.00 0.00 0.00 0.00 0.00 0.00 0.00 0.00 0.00 0.00 0.00 0.00 0.00 0.00 0.00 0.00 0.00 0.00 0.00 0.00 0.00 0.00 0.00 0.00 0.00 0.00 0.00
0.00 0.00 0.00 0.00 0.01 0.02 0.04 0.04 0.01 0.00 0.00 0.00 0.00 0.00 0.00 0.00 0.00 0.00 0.00 0.00 0.00 0.00 0.00 0.00 0.00 0.00 0.00 0.00 0.00 0.00 0.00 0.00 0.00 0.00 0.00 0.00 0.00 0.00 0.00 0.00 0.00 0.00 0.00 0.00 0.00 0.01 0.02 0.03 0.06
0.00 0.00 0.00 0.00 0.01 0.02 0.01 0.00 0.00 0.00 0.00 0.00 0.00 0.00 0.00 0.00 0.00 0.00 0.00 0.00 0.00 0.00 0.00 0.00 0.00 0.00 0.00 0.00 0.00 0.00 0.00 0.00 0.00 0.00 0.00 0.00 0.00 0.00 0.00 0.00 0.00 0.00 0.01 0.02 0.07 0.12 0.19 0.31 0.43
0.00 0.00 0.00 0.00 0.00 0.00 0.00 0.00 0.00 0.00 0.00 0.00 0.00 0.00 0.00 0.00 0.00 0.00 0.00 0.00 0.00 0.00 0.00 0.00 0.00 0.00 0.00 0.00 0.00 0.00 0.00 0.00 0.00 0.00 0.00 0.00 0.00 0.00 0.00 0.00 0.01 0.04 0.10 0.15 0.19 0.22 0.28 0.32 0.28
0.00 0.00 0.00 0.00 0.00 0.01 0.00 0.00 0.00 0.00 0.00 0.00 0.00 0.00 0.00 0.00 0.00 0.00 0.00 0.00 0.00 0.00 0.00 0.00 0.00 0.00 0.00 0.00 0.00 0.00 0.00 0.00 0.00 0.00 0.00 0.00 0.00 0.00 0.01 0.04 0.12 0.18 0.17 0.12 0.12 0.11 0.10 0.11 0.10
0.00 0.00 0.00 0.00 0.00 0.04 0.07 0.01 0.00 0.00 0.00 0.00 0.00 0.00 0.00 0.00 0.00 0.00 0.00 0.00 0.00 0.00 0.00 0.00 0.00 0.00 0.00 0.00 0.00 0.00 0.00 0.00 0.00 0.00 0.00 0.00 0.00 0.01 0.05 0.09 0.08 0.06 0.08 0.08 0.06 0.05 0.04 0.04 0.03
0.00 0.00 0.00 0.01 0.02 0.01 0.03 0.01 0.00 0.00 0.00 0.00 0.00 0.00 0.00 0.00 0.00 0.00 0.00 0.00 0.00 0.00 0.00 0.00 0.00 0.00 0.00 0.00 0.00 0.00 0.00 0.00 0.00 0.00 0.00 0.00 0.00 0.01 0.02 0.04 0.09 0.11 0.07 0.04 0.03 0.02 0.00 0.00 0.00

GFSSGP_prec_precacc_048.txt.gz
Total_Precipitation_Accumulation
0.00 0.00 0.00 0.00 0.00 0.00 0.00 0.00 0.00 0.03 0.04 0.01 0.01 0.05 0.04 0.02 0.07 0.38 0.15 0.04 0.01 0.01 0.00 0.01 0.01 0.00 0.02 0.06 0.07 0.05 0.03 0.02 0.05 0.08 0.16 0.27 0.33 0.50 0.51 0.37 0.33 0.54 0.69 0.54 0.40 0.37 0.49 0.45 0.27
0.00 0.00 0.00 0.00 0.00 0.00 0.00 0.00 0.00 0.05 0.09 0.13 0.11 0.13 0.12 0.14 0.04 0.08 0.12 0.07 0.00 0.01 0.00 0.00 0.00 0.00 0.00 0.00 0.00 0.00 0.00 0.01 0.02 0.03 0.07 0.28 0.35 0.33 0.31 0.44 0.41 0.43 0.47 0.59 0.50 0.75 1.15 0.97 0.72
0.00 0.00 0.00 0.00 0.00 0.00 0.00 0.00 0.00 0.01 0.07 0.07 0.07 0.04 0.16 0.16 0.08 0.16 0.13 0.01 0.01 0.01 0.00 0.00 0.00 0.00 0.00 0.00 0.00 0.00 0.00 0.00 0.00 0.01 0.05 0.12 0.12 0.25 0.24 0.44 0.33 0.19 0.18 0.45 0.60 0.71 0.93 0.83 0.98
0.00 0.00 0.00 0.00 0.00 0.00 0.00 0.00 0.00 0.00 0.01 0.01 0.06 0.10 0.15 0.16 0.22 0.20 0.05 0.04 0.01 0.00 0.01 0.00 0.00 0.01 0.00 0.00 0.00 0.00 0.00 0.00 0.00 0.00 0.01 0.07 0.08 0.13 0.18 0.39 0.46 0.51 0.44 0.77 1.15 1.76 1.28 0.72 1.05
0.00 0.00 0.00 0.00 0.00 0.00 0.00 0.01 0.03 0.00 0.01 0.01 0.01 0.12 0.13 0.11 0.11 0.05 0.05 0.01 0.01 0.00 0.01 0.00 0.01 0.01 0.00 0.00 0.00 0.00 0.00 0.00 0.00 0.00 0.00 0.00 0.01 0.03 0.05 0.07 0.19 0.52 1.17 1.32 1.12 1.24 1.41 0.98 0.29
0.00 0.00 0.00 0.00 0.00 0.00 0.00 0.05 0.05 0.01 0.00 0.00 0.04 0.17 0.13 0.04 0.08 0.05 0.06 0.01 0.00 0.00 0.00 0.00 0.00 0.00 0.00 0.00 0.00 0.00 0.00 0.00 0.00 0.00 0.00 0.00 0.00 0.00 0.00 0.01 0.04 0.07 0.10 0.15 0.16 0.14 0.11 0.16 0.09
0.00 0.00 0.00 0.00 0.01 0.00 0.01 0.06 0.06 0.01 0.00 0.00 0.01 0.11 0.23 0.06 0.09 0.15 0.10 0.00 0.00 0.00 0.00 0.00 0.00 0.00 0.00 0.00 0.00 0.00 0.00 0.00 0.00 0.00 0.00 0.01 0.01 0.00 0.00 0.00 0.00 0.00 0.03 0.06 0.09 0.08 0.02 0.01 0.01
0.00 0.00 0.00 0.00 0.01 0.00 0.00 0.02 0.01 0.02 0.01 0.00 0.00 0.02 0.08 0.05 0.09 0.03 0.03 0.01 0.00 0.00 0.00 0.00 0.00 0.00 0.00 0.00 0.00 0.00 0.00 0.00 0.00 0.00 0.00 0.00 0.00 0.00 0.00 0.01 0.01 0.01 0.03 0.05 0.07 0.08 0.03 0.02 0.00
0.00 0.00 0.00 0.00 0.01 0.02 0.06 0.06 0.01 0.00 0.00 0.01 0.01 0.00 0.01 0.04 0.02 0.00 0.00 0.00 0.00 0.00 0.00 0.00 0.00 0.00 0.00 0.00 0.00 0.00 0.00 0.00 0.00 0.00 0.00 0.00 0.02 0.00 0.00 0.02 0.03 0.04 0.03 0.04 0.06 0.09 0.05 0.01 0.00
0.00 0.00 0.00 0.00 0.01 0.06 0.04 0.01 0.01 0.00 0.00 0.01 0.00 0.00 0.00 0.01 0.01 0.00 0.00 0.00 0.01 0.01 0.00 0.00 0.00 0.00 0.00 0.00 0.00 0.02 0.02 0.00 0.00 0.01 0.00 0.00 0.01 0.00 0.00 0.01 0.04 0.07 0.06 0.06 0.13 0.15 0.08 0.04 0.04
0.00 0.00 0.00 0.01 0.00 0.00 0.00 0.00 0.00 0.00 0.00 0.00 0.00 0.00 0.00 0.00 0.00 0.00 0.00 0.00 0.00 0.00 0.00 0.00 0.00 0.00 0.00 0.00 0.00 0.02 0.01 0.00 0.00 0.00 0.00 0.00 0.00 0.00 0.01 0.02 0.02 0.09 0.10 0.18 0.18 0.37 0.41 0.34 0.20
0.00 0.00 0.00 0.00 0.00 0.00 0.00 0.00 0.00 0.00 0.00 0.00 0.00 0.00 0.00 0.00 0.00 0.00 0.00 0.00 0.00 0.00 0.00 0.00 0.00 0.00 0.00 0.00 0.00 0.00 0.00 0.00 0.00 0.00 0.00 0.00 0.05 0.06 0.04 0.02 0.01 0.04 0.08 0.10 0.19 0.39 0.33 0.26 0.31
0.00 0.00 0.00 0.00 0.00 0.00 0.00 0.00 0.00 0.00 0.00 0.00 0.00 0.00 0.00 0.00 0.00 0.00 0.00 0.00 0.00 0.00 0.00 0.00 0.00 0.00 0.00 0.00 0.00 0.00 0.00 0.00 0.00 0.00 0.00 0.00 0.02 0.04 0.02 0.01 0.00 0.00 0.00 0.03 0.04 0.06 0.12 0.14 0.13
0.00 0.00 0.00 0.00 0.00 0.00 0.00 0.00 0.00 0.00 0.00 0.00 0.00 0.00 0.00 0.00 0.00 0.00 0.00 0.00 0.00 0.00 0.00 0.00 0.00 0.00 0.00 0.00 0.00 0.00 0.01 0.01 0.04 0.04 0.06 0.09 0.09 0.10 0.04 0.01 0.00 0.00 0.01 0.01 0.02 0.03 0.04 0.05 0.06
0.00 0.00 0.00 0.00 0.00 0.00 0.00 0.00 0.00 0.00 0.00 0.00 0.00 0.00 0.00 0.00 0.00 0.00 0.00 0.00 0.00 0.00 0.00 0.00 0.01 0.01 0.06 0.02 0.00 0.00 0.00 0.01 0.03 0.08 0.08 0.10 0.14 0.12 0.07 0.02 0.00 0.00 0.00 0.00 0.00 0.00 0.02 0.04 0.07
0.00 0.00 0.00 0.00 0.00 0.00 0.00 0.00 0.00 0.00 0.00 0.00 0.00 0.00 0.00 0.00 0.00 0.00 0.00 0.00 0.00 0.00 0.00 0.04 0.21 0.35 0.31 0.21 0.03 0.01 0.01 0.03 0.09 0.09 0.08 0.11 0.11 0.07 0.02 0.00 0.01 0.00 0.00 0.00 0.00 0.00 0.00 0.01 0.04
0.00 0.00 0.00 0.00 0.00 0.00 0.00 0.00 0.00 0.00 0.00 0.00 0.00 0.00 0.00 0.00 0.00 0.00 0.00 0.00 0.00 0.00 0.01 0.21 0.51 0.62 0.73 0.56 0.47 0.47 0.35 0.16 0.08 0.04 0.01 0.01 0.01 0.00 0.00 0.00 0.00 0.00 0.00 0.00 0.00 0.00 0.00 0.00 0.00
0.00 0.00 0.00 0.00 0.00 0.00 0.00 0.00 0.00 0.00 0.00 0.00 0.00 0.00 0.00 0.00 0.00 0.00 0.00 0.00 0.00 0.01 0.06 0.42 0.68 0.76 1.03 1.53 1.31 0.62 0.15 0.03 0.00 0.00 0.00 0.00 0.00 0.00 0.00 0.00 0.00 0.00 0.00 0.00 0.00 0.00 0.00 0.00 0.00
0.00 0.00 0.00 0.00 0.00 0.00 0.00 0.00 0.00 0.00 0.00 0.00 0.00 0.00 0.00 0.00 0.00 0.00 0.00 0.02 0.04 0.08 0.27 0.62 0.80 0.98 0.87 0.59 0.20 0.04 0.01 0.01 0.00 0.00 0.00 0.00 0.00 0.00 0.00 0.00 0.00 0.00 0.00 0.00 0.00 0.00 0.00 0.00 0.00
0.00 0.00 0.00 0.00 0.00 0.00 0.00 0.00 0.00 0.00 0.00 0.00 0.00 0.00 0.00 0.00 0.00 0.01 0.03 0.09 0.13 0.26 0.34 0.26 0.18 0.08 0.02 0.00 0.00 0.00 0.00 0.00 0.00 0.00 0.00 0.00 0.00 0.00 0.00 0.00 0.00 0.00 0.00 0.00 0.00 0.00 0.00 0.00 0.00
0.00 0.00 0.00 0.00 0.00 0.00 0.00 0.00 0.00 0.00 0.00 0.00 0.00 0.00 0.00 0.00 0.00 0.02 0.08 0.11 0.13 0.11 0.03 0.00 0.00 0.00 0.00 0.00 0.00 0.00 0.00 0.00 0.00 0.00 0.00 0.00 0.00 0.00 0.00 0.00 0.00 0.00 0.00 0.00 0.00 0.00 0.00 0.00 0.00
0.00 0.00 0.00 0.00 0.00 0.00 0.00 0.00 0.00 0.00 0.00 0.00 0.00 0.00 0.00 0.00 0.01 0.01 0.01 0.00 0.00 0.00 0.00 0.00 0.00 0.00 0.00 0.00 0.00 0.00 0.00 0.00 0.00 0.00 0.00 0.00 0.00 0.00 0.00 0.00 0.00 0.00 0.00 0.00 0.00 0.00 0.00 0.00 0.00
0.00 0.00 0.00 0.00 0.00 0.00 0.00 0.00 0.00 0.00 0.00 0.00 0.00 0.00 0.00 0.00 0.00 0.00 0.00 0.00 0.00 0.00 0.00 0.00 0.00 0.00 0.00 0.00 0.00 0.00 0.00 0.00 0.00 0.00 0.00 0.00 0.00 0.00 0.00 0.00 0.00 0.00 0.00 0.00 0.00 0.00 0.00 0.00 0.00
0.00 0.00 0.00 0.00 0.00 0.00 0.00 0.00 0.00 0.00 0.00 0.00 0.00 0.00 0.00 0.00 0.00 0.00 0.00 0.00 0.00 0.00 0.00 0.00 0.00 0.00 0.00 0.00 0.00 0.00 0.00 0.00 0.00 0.00 0.00 0.00 0.00 0.00 0.00 0.00 0.00 0.00 0.00 0.00 0.00 0.00 0.00 0.00 0.00
0.00 0.00 0.00 0.00 0.01 0.02 0.04 0.04 0.01 0.00 0.00 0.00 0.00 0.00 0.00 0.00 0.00 0.00 0.00 0.00 0.00 0.00 0.00 0.00 0.00 0.00 0.00 0.00 0.00 0.00 0.00 0.00 0.00 0.00 0.00 0.00 0.00 0.00 0.00 0.00 0.00 0.00 0.00 0.00 0.00 0.01 0.02 0.04 0.08
0.00 0.00 0.00 0.00 0.01 0.02 0.01 0.00 0.00 0.00 0.00 0.00 0.00 0.00 0.00 0.00 0.00 0.00 0.00 0.00 0.00 0.00 0.00 0.00 0.00 0.00 0.00 0.00 0.00 0.00 0.00 0.00 0.00 0.00 0.00 0.00 0.00 0.00 0.00 0.00 0.00 0.00 0.01 0.02 0.08 0.13 0.20 0.33 0.45
0.00 0.00 0.00 0.00 0.00 0.00 0.00 0.00 0.00 0.00 0.00 0.00 0.00 0.00 0.00 0.00 0.00 0.00 0.00 0.00 0.00 0.00 0.00 0.00 0.00 0.00 0.00 0.00 0.00 0.00 0.00 0.00 0.00 0.00 0.00 0.00 0.00 0.00 0.00 0.00 0.01 0.04 0.10 0.16 0.20 0.24 0.31 0.35 0.31
0.00 0.00 0.00 0.00 0.00 0.01 0.00 0.00 0.00 0.00 0.00 0.00 0.00 0.00 0.00 0.00 0.00 0.00 0.00 0.00 0.00 0.00 0.00 0.00 0.00 0.00 0.00 0.00 0.00 0.00 0.00 0.00 0.00 0.00 0.00 0.00 0.00 0.00 0.01 0.04 0.12 0.18 0.17 0.13 0.14 0.13 0.12 0.13 0.13
0.00 0.00 0.00 0.00 0.00 0.04 0.07 0.01 0.00 0.00 0.00 0.00 0.00 0.00 0.00 0.00 0.00 0.00 0.00 0.00 0.00 0.00 0.00 0.00 0.00 0.00 0.00 0.00 0.00 0.00 0.00 0.00 0.00 0.00 0.00 0.00 0.00 0.01 0.05 0.09 0.08 0.07 0.09 0.09 0.10 0.08 0.05 0.04 0.03
0.00 0.00 0.00 0.01 0.02 0.01 0.03 0.01 0.00 0.00 0.00 0.00 0.00 0.00 0.00 0.00 0.00 0.00 0.00 0.00 0.00 0.00 0.00 0.00 0.00 0.00 0.00 0.00 0.00 0.00 0.00 0.00 0.00 0.00 0.00 0.00 0.00 0.01 0.02 0.04 0.09 0.11 0.09 0.07 0.05 0.03 0.01 0.00 0.00

GFSSGP_prec_precacc_051.txt.gz
Total_Precipitation_Accumulation
0.00 0.00 0.00 0.00 0.00 0.00 0.00 0.00 0.00 0.03 0.04 0.01 0.01 0.05 0.04 0.04 0.13 0.47 0.17 0.05 0.01 0.01 0.02 0.01 0.01 0.00 0.02 0.06 0.07 0.05 0.03 0.02 0.05 0.08 0.16 0.27 0.33 0.50 0.51 0.37 0.33 0.54 0.69 0.54 0.40 0.37 0.49 0.45 0.27
0.00 0.00 0.00 0.00 0.00 0.00 0.00 0.00 0.00 0.06 0.10 0.13 0.12 0.13 0.14 0.18 0.05 0.10 0.22 0.18 0.01 0.01 0.01 0.01 0.00 0.00 0.00 0.00 0.01 0.01 0.01 0.02 0.02 0.03 0.07 0.28 0.35 0.33 0.31 0.44 0.41 0.43 0.47 0.59 0.50 0.75 1.15 0.97 0.72
0.00 0.00 0.00 0.00 0.00 0.00 0.00 0.00 0.00 0.01 0.07 0.07 0.07 0.05 0.18 0.23 0.17 0.29 0.31 0.16 0.04 0.05 0.05 0.02 0.00 0.00 0.00 0.00 0.00 0.01 0.02 0.01 0.00 0.01 0.05 0.12 0.12 0.25 0.24 0.44 0.33 0.19 0.18 0.45 0.60 0.71 0.93 0.83 0.98
0.00 0.00 0.00 0.00 0.00 0.00 0.00 0.00 0.00 0.00 0.01 0.01 0.07 0.11 0.22 0.29 0.40 0.38 0.16 0.15 0.09 0.09 0.09 0.01 0.00 0.01 0.01 0.01 0.01 0.02 0.01 0.00 0.00 0.00 0.01 0.07 0.08 0.13 0.18 0.39 0.46 0.51 0.44 0.77 1.15 1.76 1.28 0.72 1.05
0.00 0.00 0.00 0.00 0.00 0.00 0.00 0.01 0.04 0.03 0.01 0.01 0.01 0.12 0.17 0.20 0.18 0.14 0.10 0.05 0.09 0.12 0.07 0.01 0.01 0.02 0.02 0.02 0.02 0.00 0.00 0.00 0.00 0.00 0.00 0.00 0.01 0.03 0.05 0.07 0.19 0.52 1.17 1.32 1.12 1.24 1.41 0.98 0.29
0.00 0.00 0.00 0.00 0.00 0.00 0.00 0.05 0.09 0.04 0.00 0.01 0.05 0.17 0.16 0.07 0.09 0.07 0.06 0.02 0.16 0.10 0.04 0.01 0.01 0.04 0.03 0.02 0.00 0.00 0.00 0.00 0.00 0.00 0.00 0.00 0.00 0.00 0.00 0.01 0.04 0.07 0.10 0.15 0.16 0.14 0.11 0.16 0.09
0.00 0.00 0.00 0.00 0.01 0.00 0.01 0.09 0.12 0.03 0.02 0.02 0.02 0.12 0.25 0.09 0.18 0.40 0.35 0.06 0.03 0.01 0.00 0.00 0.01 0.02 0.01 0.00 0.00 0.00 0.00 0.00 0.00 0.00 0.00 0.01 0.01 0.00 0.00 0.00 0.00 0.00 0.03 0.06 0.09 0.08 0.02 0.01 0.01
0.00 0.00 0.00 0.00 0.01 0.01 0.01 0.07 0.05 0.02 0.04 0.02 0.01 0.05 0.09 0.06 0.14 0.16 0.53 0.30 0.06 0.02 0.00 0.00 0.01 0.00 0.00 0.00 0.00 0.00 0.00 0.00 0.00 0.00 0.00 0.00 0.00 0.00 0.00 0.01 0.01 0.01 0.03 0.05 0.07 0.08 0.03 0.02 0.00
0.00 0.00 0.00 0.01 0.02 0.03 0.08 0.10 0.05 0.01 0.00 0.01 0.01 0.01 0.01 0.04 0.02 0.26 0.18 0.14 0.10 0.12 0.00 0.00 0.00 0.00 0.00 0.00 0.00 0.00 0.00 0.00 0.00 0.00 0.00 0.00 0.02 0.00 0.00 0.02 0.03 0.04 0.03 0.04 0.06 0.09 0.05 0.01 0.00
0.00 0.00 0.00 0.00 0.05 0.16 0.07 0.01 0.01 0.00 0.00 0.01 0.00 0.02 0.00 0.01 0.03 0.08 0.09 0.07 0.06 0.03 0.00 0.00 0.00 0.00 0.00 0.00 0.00 0.02 0.02 0.00 0.00 0.01 0.00 0.00 0.01 0.00 0.00 0.01 0.04 0.07 0.06 0.06 0.13 0.15 0.08 0.04 0.04
0.00 0.00 0.00 0.01 0.02 0.03 0.00 0.00 0.00 0.00 0.00 0.00 0.00 0.01 0.00 0.00 0.05 0.09 0.10 0.01 0.00 0.00 0.00 0.00 0.00 0.00 0.00 0.00 0.00 0.02 0.01 0.00 0.00 0.00 0.00 0.00 0.00 0.01 0.01 0.02 0.03 0.09 0.10 0.18 0.18 0.37 0.41 0.34 0.20
0.00 0.00 0.00 0.00 0.02 0.00 0.00 0.00 0.00 0.00 0.01 0.00 0.00 0.00 0.00 0.00 0.01 0.00 0.00 0.00 0.00 0.00 0.00 0.00 0.00 0.00 0.00 0.00 0.00 0.00 0.00 0.00 0.00 0.00 0.00 0.02 0.09 0.12 0.07 0.03 0.01 0.04 0.08 0.10 0.19 0.39 0.33 0.26 0.31
0.00 0.00 0.00 0.01 0.00 0.00 0.00 0.00 0.01 0.00 0.00 0.00 0.00 0.00 0.00 0.00 0.00 0.00 0.00 0.00 0.00 0.00 0.00 0.00 0.00 0.00 0.00 0.00 0.00 0.00 0.00 0.02 0.03 0.04 0.09 0.16 0.28 0.28 0.17 0.09 0.00 0.00 0.00 0.03 0.04 0.06 0.12 0.14 0.13
0.00 0.00 0.00 0.00 0.00 0.00 0.00 0.00 0.00 0.00 0.00 0.00 0.00 0.00 0.00 0.00 0.00 0.00 0.00 0.00 0.00 0.00 0.00 0.00 0.00 0.00 0.00 0.00 0.01 0.03 0.04 0.05 0.08 0.10 0.14 0.13 0.14 0.12 0.05 0.01 0.00 0.00 0.01 0.01 0.02 0.03 0.04 0.05 0.06
0.00 0.00 0.00 0.00 0.00 0.00 0.00 0.00 0.00 0.00 0.00 0.00 0.00 0.00 0.00 0.00 0.00 0.00 0.00 0.00 0.00 0.00 0.00 0.00 0.01 0.01 0.06 0.02 0.00 0.00 0.00 0.01 0.03 0.08 0.08 0.10 0.14 0.12 0.07 0.02 0.01 0.01 0.00 0.00 0.00 0.00 0.02 0.04 0.07
0.00 0.00 0.00 0.00 0.00 0.00 0.00 0.00 0.00 0.00 0.00 0.00 0.00 0.00 0.00 0.00 0.00 0.00 0.00 0.00 0.00 0.00 0.00 0.04 0.21 0.35 0.32 0.22 0.03 0.01 0.01 0.04 0.11 0.10 0.08 0.11 0.11 0.07 0.02 0.00 0.01 0.00 0.00 0.00 0.00 0.00 0.00 0.01 0.04
0.00 0.00 0.00 0.00 0.00 0.00 0.00 0.00 0.00 0.00 0.00 0.00 0.00 0.00 0.00 0.00 0.00 0.00 0.00 0.00 0.00 0.00 0.01 0.21 0.51 0.65 0.85 0.61 0.52 0.64 0.59 0.32 0.17 0.05 0.02 0.02 0.01 0.00 0.00 0.00 0.00 0.00 0.00 0.00 0.00 0.00 0.00 0.00 0.00
0.00 0.00 0.00 0.00 0.00 0.00 0.00 0.00 0.00 0.00 0.00 0.00 0.00 0.00 0.00 0.00 0.00 0.00 0.00 0.00 0.00 0.01 0.06 0.42 0.68 0.77 1.08 1.62 1.48 0.85 0.26 0.08 0.02 0.00 0.00 0.00 0.00 0.00 0.00 0.00 0.00 0.00 0.00 0.00 0.00 0.00 0.00 0.00 0.00
0.00 0.00 0.00 0.00 0.00 0.00 0.00 0.00 0.00 0.00 0.00 0.00 0.00 0.00 0.00 0.00 0.00 0.00 0.00 0.02 0.04 0.08 0.27 0.62 0.80 0.99 0.90 0.61 0.22 0.05 0.01 0.01 0.00 0.00 0.00 0.00 0.00 0.00 0.00 0.00 0.00 0.00 0.00 0.00 0.00 0.00 0.00 0.00 0.00
0.00 0.00 0.00 0.00 0.00 0.00 0.00 0.00 0.00 0.00 0.00 0.00 0.00 0.00 0.00 0.00 0.00 0.01 0.03 0.09 0.13 0.26 0.34 0.27 0.18 0.09 0.02 0.00 0.00 0.00 0.00 0.00 0.00 0.00 0.00 0.00 0.00 0.00 0.00 0.00 0.00 0.00 0.00 0.00 0.00 0.00 0.00 0.00 0.00
0.00 0.00 0.00 0.00 0.00 0.00 0.00 0.00 0.00 0.00 0.00 0.00 0.00 0.00 0.00 0.00 0.00 0.02 0.08 0.11 0.13 0.12 0.04 0.00 0.00 0.00 0.00 0.00 0.00 0.00 0.00 0.00 0.00 0.00 0.00 0.00 0.00 0.00 0.00 0.00 0.00 0.00 0.00 0.00 0.00 0.00 0.00 0.00 0.00
0.00 0.00 0.00 0.00 0.00 0.00 0.00 0.00 0.00 0.00 0.00 0.00 0.00 0.00 0.00 0.00 0.01 0.01 0.01 0.00 0.00 0.00 0.00 0.00 0.00 0.00 0.00 0.00 0.00 0.00 0.00 0.00 0.00 0.00 0.00 0.00 0.00 0.00 0.00 0.00 0.00 0.00 0.00 0.00 0.00 0.00 0.00 0.00 0.00
0.00 0.00 0.00 0.00 0.00 0.00 0.00 0.00 0.00 0.00 0.00 0.00 0.00 0.00 0.00 0.00 0.00 0.00 0.00 0.00 0.00 0.00 0.00 0.00 0.00 0.00 0.00 0.00 0.00 0.00 0.00 0.00 0.00 0.00 0.00 0.00 0.00 0.00 0.00 0.00 0.00 0.00 0.00 0.00 0.00 0.00 0.00 0.00 0.00
0.00 0.00 0.00 0.00 0.00 0.00 0.00 0.00 0.00 0.00 0.00 0.00 0.00 0.00 0.00 0.00 0.00 0.00 0.00 0.00 0.00 0.00 0.00 0.00 0.00 0.00 0.00 0.00 0.00 0.00 0.00 0.00 0.00 0.00 0.00 0.00 0.00 0.00 0.00 0.00 0.00 0.00 0.00 0.00 0.00 0.00 0.00 0.00 0.01
0.00 0.00 0.00 0.00 0.01 0.02 0.04 0.04 0.01 0.00 0.00 0.00 0.00 0.00 0.00 0.00 0.00 0.00 0.00 0.00 0.00 0.00 0.00 0.00 0.00 0.00 0.00 0.00 0.00 0.00 0.00 0.00 0.00 0.00 0.00 0.00 0.00 0.00 0.00 0.00 0.00 0.00 0.00 0.00 0.01 0.01 0.03 0.05 0.10
0.00 0.00 0.00 0.00 0.01 0.02 0.01 0.00 0.00 0.00 0.00 0.00 0.00 0.00 0.00 0.00 0.00 0.00 0.00 0.00 0.00 0.00 0.00 0.00 0.00 0.00 0.00 0.00 0.00 0.00 0.00 0.00 0.00 0.00 0.00 0.00 0.00 0.00 0.00 0.00 0.00 0.00 0.01 0.02 0.08 0.14 0.21 0.35 0.48
0.00 0.00 0.00 0.00 0.00 0.00 0.00 0.00 0.00 0.00 0.00 0.00 0.00 0.00 0.00 0.00 0.00 0.00 0.00 0.00 0.00 0.00 0.00 0.00 0.00 0.00 0.00 0.00 0.00 0.00 0.00 0.00 0.00 0.00 0.00 0.00 0.00 0.00 0.00 0.00 0.01 0.04 0.10 0.16 0.20 0.25 0.32 0.37 0.33
0.00 0.00 0.00 0.00 0.00 0.01 0.00 0.00 0.00 0.00 0.00 0.00 0.00 0.00 0.00 0.00 0.00 0.00 0.00 0.00 0.00 0.00 0.00 0.00 0.00 0.00 0.00 0.00 0.00 0.00 0.00 0.00 0.00 0.00 0.00 0.00 0.00 0.00 0.01 0.04 0.12 0.18 0.17 0.13 0.14 0.15 0.14 0.15 0.15
0.00 0.00 0.00 0.00 0.00 0.04 0.07 0.01 0.00 0.00 0.00 0.00 0.00 0.00 0.00 0.00 0.00 0.00 0.00 0.00 0.00 0.00 0.00 0.00 0.00 0.00 0.00 0.00 0.00 0.00 0.00 0.00 0.00 0.00 0.00 0.00 0.00 0.01 0.05 0.09 0.08 0.07 0.09 0.09 0.10 0.09 0.07 0.05 0.04
0.00 0.00 0.00 0.01 0.02 0.01 0.03 0.01 0.00 0.00 0.00 0.00 0.00 0.00 0.00 0.00 0.00 0.00 0.00 0.00 0.00 0.00 0.00 0.00 0.00 0.00 0.00 0.00 0.00 0.00 0.00 0.00 0.00 0.00 0.00 0.00 0.00 0.01 0.02 0.04 0.09 0.11 0.09 0.07 0.05 0.03 0.01 0.00 0.00

GFSSGP_prec_precacc_054.txt.gz
Total_Precipitation_Accumulation
0.00 0.00 0.00 0.00 0.00 0.00 0.00 0.00 0.00 0.03 0.04 0.01 0.01 0.05 0.04 0.05 0.15 0.59 0.30 0.09 0.02 0.02 0.02 0.01 0.01 0.00 0.02 0.06 0.07 0.05 0.03 0.02 0.05 0.08 0.16 0.27 0.33 0.50 0.51 0.37 0.33 0.54 0.69 0.54 0.40 0.37 0.49 0.45 0.27
0.00 0.00 0.00 0.00 0.00 0.00 0.00 0.00 0.00 0.07 0.32 0.31 0.20 0.14 0.15 0.21 0.05 0.15 0.33 0.24 0.02 0.01 0.01 0.01 0.00 0.00 0.00 0.00 0.01 0.01 0.02 0.02 0.02 0.03 0.07 0.28 0.35 0.33 0.31 0.44 0.41 0.43 0.47 0.59 0.50 0.75 1.15 0.97 0.72
0.00 0.00 0.00 0.00 0.00 0.00 0.00 0.00 0.00 0.04 0.19 0.25 0.08 0.06 0.19 0.24 0.19 0.31 0.40 0.29 0.07 0.07 0.06 0.02 0.00 0.01 0.00 0.00 0.01 0.01 0.02 0.01 0.00 0.01 0.05 0.12 0.12 0.25 0.24 0.44 0.33 0.19 0.18 0.45 0.60 0.71 0.93 0.83 0.98
0.00 0.00 0.00 0.00 0.00 0.00 0.00 0.01 0.16 0.16 0.02 0.01 0.07 0.11 0.22 0.29 0.44 0.45 0.28 0.31 0.20 0.18 0.14 0.03 0.04 0.05 0.02 0.01 0.01 0.02 0.01 0.00 0.00 0.00 0.01 0.07 0.08 0.13 0.18 0.39 0.46 0.51 0.44 0.77 1.15 1.76 1.28 0.72 1.05
0.00 0.00 0.00 0.00 0.00 0.00 0.00 0.01 0.06 0.05 0.02 0.01 0.01 0.12 0.17 0.20 0.18 0.19 0.36 0.36 0.30 0.37 0.16 0.03 0.08 0.08 0.02 0.02 0.03 0.00 0.00 0.00 0.00 0.00 0.00 0.00 0.01 0.03 0.05 0.07 0.19 0.52 1.17 1.32 1.12 1.24 1.41 0.98 0.29
0.00 0.00 0.00 0.00 0.00 0.00 0.00 0.07 0.18 0.07 0.01 0.01 0.05 0.17 0.16 0.07 0.09 0.08 0.15 0.20 0.53 0.58 0.18 0.04 0.07 0.08 0.04 0.03 0.00 0.00 0.00 0.00 0.00 0.00 0.00 0.00 0.00 0.00 0.00 0.01 0.04 0.07 0.10 0.15 0.16 0.14 0.11 0.16 0.09
0.00 0.00 0.00 0.00 0.01 0.00 0.01 0.12 0.25 0.11 0.05 0.03 0.02 0.12 0.25 0.09 0.19 0.44 0.39 0.20 0.46 0.67 0.38 0.08 0.04 0.02 0.01 0.00 0.00 0.00 0.00 0.00 0.00 0.00 0.00 0.01 0.01 0.00 0.00 0.00 0.00 0.00 0.03 0.06 0.09 0.08 0.02 0.01 0.01
0.00 0.00 0.00 0.00 0.01 0.01 0.02 0.21 0.30 0.04 0.05 0.02 0.02 0.12 0.11 0.06 0.16 0.19 0.62 0.46 0.28 0.28 0.09 0.02 0.01 0.00 0.00 0.00 0.00 0.00 0.00 0.00 0.00 0.00 0.00 0.00 0.00 0.00 0.00 0.01 0.01 0.01 0.03 0.05 0.07 0.08 0.03 0.02 0.00
0.00 0.00 0.00 0.01 0.02 0.04 0.15 0.33 0.25 0.06 0.01 0.04 0.01 0.18 0.21 0.07 0.05 0.46 0.41 0.40 0.40 0.45 0.13 0.02 0.00 0.00 0.00 0.00 0.00 0.00 0.00 0.00 0.00 0.00 0.00 0.00 0.02 0.00 0.00 0.02 0.03 0.04 0.03 0.04 0.06 0.09 0.05 0.01 0.00
0.00 0.00 0.00 0.00 0.05 0.22 0.30 0.45 0.15 0.07 0.31 0.06 0.07 0.07 0.04 0.03 0.07 0.28 0.65 0.37 0.44 0.41 0.06 0.00 0.00 0.00 0.00 0.00 0.00 0.02 0.02 0.00 0.00 0.01 0.00 0.00 0.02 0.01 0.00 0.01 0.04 0.07 0.06 0.06 0.13 0.15 0.08 0.04 0.04
0.00 0.00 0.00 0.01 0.04 0.10 0.06 0.06 0.02 0.00 0.00 0.00 0.09 0.05 0.00 0.01 0.15 0.26 0.48 0.17 0.13 0.04 0.01 0.00 0.00 0.00 0.00 0.00 0.00 0.02 0.01 0.00 0.00 0.00 0.01 0.01 0.01 0.03 0.04 0.10 0.13 0.11 0.11 0.18 0.18 0.37 0.41 0.34 0.20
0.00 0.00 0.00 0.00 0.03 0.04 0.00 0.02 0.00 0.00 0.02 0.01 0.00 0.00 0.00 0.01 0.07 0.17 0.31 0.14 0.03 0.00 0.00 0.00 0.00 0.00 0.00 0.00 0.00 0.00 0.00 0.00 0.00 0.03 0.04 0.09 0.16 0.21 0.12 0.06 0.03 0.05 0.09 0.10 0.19 0.39 0.33 0.26 0.31
0.00 0.00 0.00 0.03 0.01 0.00 0.00 0.00 0.07 0.03 0.00 0.00 0.00 0.00 0.00 0.00 0.03 0.08 0.16 0.05 0.00 0.00 0.00 0.00 0.00 0.00 0.00 0.00 0.00 0.01 0.01 0.05 0.09 0.13 0.17 0.25 0.40 0.43 0.28 0.19 0.02 0.01 0.01 0.03 0.04 0.06 0.12 0.14 0.13
0.00 0.00 0.00 0.00 0.00 0.00 0.01 0.00 0.01 0.01 0.01 0.00 0.00 0.00 0.00 0.01 0.13 0.12 0.00 0.00 0.00 0.00 0.00 0.00 0.00 0.00 0.00 0.00 0.02 0.03 0.05 0.06 0.09 0.12 0.15 0.14 0.19 0.18 0.09 0.07 0.05 0.03 0.02 0.01 0.02 0.03 0.04 0.05 0.06
0.00 0.00 0.00 0.00 0.00 0.00 0.01 0.00 0.00 0.00 0.00 0.00 0.00 0.00 0.00 0.00 0.00 0.00 0.00 0.00 0.00 0.00 0.00 0.00 0.01 0.01 0.06 0.02 0.00 0.00 0.00 0.01 0.03 0.08 0.08 0.10 0.14 0.12 0.08 0.04 0.02 0.01 0.00 0.00 0.00 0.00 0.02 0.04 0.07
0.00 0.00 0.00 0.00 0.00 0.00 0.00 0.00 0.00 0.00 0.00 0.00 0.00 0.00 0.00 0.00 0.00 0.00 0.00 0.00 0.00 0.00 0.00 0.04 0.21 0.35 0.32 0.22 0.03 0.02 0.02 0.05 0.12 0.10 0.08 0.11 0.11 0.07 0.02 0.00 0.01 0.00 0.00 0.00 0.00 0.00 0.00 0.01 0.04
0.00 0.00 0.00 0.00 0.00 0.00 0.00 0.00 0.00 0.00 0.00 0.00 0.00 0.00 0.00 0.00 0.00 0.00 0.00 0.00 0.00 0.00 0.01 0.21 0.53 0.77 0.89 0.65 0.56 0.69 0.64 0.36 0.17 0.06 0.02 0.02 0.01 0.00 0.00 0.00 0.00 0.00 0.00 0.00 0.00 0.00 0.00 0.00 0.00
0.00 0.00 0.00 0.00 0.00 0.00 0.00 0.00 0.00 0.00 0.00 0.00 0.00 0.00 0.00 0.00 0.00 0.00 0.00 0.00 0.00 0.01 0.06 0.42 0.74 0.92 1.09 1.65 1.49 0.86 0.27 0.08 0.02 0.00 0.00 0.00 0.00 0.00 0.00 0.00 0.00 0.00 0.00 0.00 0.00 0.00 0.00 0.00 0.00
0.00 0.00 0.00 0.00 0.00 0.00 0.00 0.00 0.00 0.00 0.00 0.01 0.00 0.00 0.00 0.00 0.00 0.00 0.00 0.02 0.04 0.08 0.27 0.69 0.86 1.00 0.90 0.62 0.22 0.05 0.01 0.01 0.00 0.00 0.00 0.00 0.00 0.00 0.00 0.00 0.00 0.00 0.00 0.00 0.00 0.00 0.00 0.00 0.00
0.00 0.00 0.00 0.00 0.00 0.00 0.00 0.00 0.00 0.00 0.00 0.00 0.00 0.00 0.00 0.00 0.00 0.01 0.03 0.09 0.13 0.26 0.35 0.32 0.19 0.09 0.03 0.00 0.00 0.00 0.00 0.00 0.00 0.00 0.00 0.00 0.00 0.00 0.00 0.00 0.00 0.00 0.00 0.00 0.00 0.00 0.00 0.00 0.00
0.00 0.00 0.00 0.00 0.00 0.00 0.00 0.00 0.00 0.00 0.00 0.00 0.00 0.00 0.00 0.00 0.00 0.02 0.08 0.12 0.13 0.13 0.09 0.02 0.00 0.00 0.00 0.00 0.00 0.00 0.00 0.00 0.00 0.00 0.00 0.00 0.00 0.00 0.00 0.00 0.00 0.00 0.00 0.00 0.00 0.00 0.00 0.00 0.00
0.00 0.00 0.00 0.00 0.00 0.00 0.00 0.00 0.01 0.00 0.00 0.00 0.00 0.00 0.00 0.00 0.01 0.01 0.01 0.01 0.00 0.00 0.00 0.00 0.00 0.00 0.00 0.00 0.00 0.00 0.00 0.00 0.00 0.00 0.00 0.00 0.00 0.00 0.00 0.00 0.00 0.00 0.00 0.00 0.00 0.00 0.00 0.00 0.00
0.03 0.00 0.00 0.00 0.00 0.01 0.01 0.00 0.01 0.00 0.00 0.00 0.00 0.00 0.00 0.00 0.00 0.00 0.00 0.00 0.00 0.00 0.00 0.00 0.00 0.00 0.00 0.00 0.00 0.00 0.00 0.00 0.00 0.00 0.00 0.00 0.00 0.00 0.00 0.00 0.00 0.00 0.00 0.00 0.00 0.00 0.00 0.00 0.00
0.00 0.00 0.00 0.00 0.00 0.00 0.01 0.00 0.00 0.00 0.01 0.00 0.00 0.00 0.00 0.00 0.00 0.00 0.00 0.00 0.00 0.00 0.00 0.00 0.00 0.00 0.00 0.00 0.00 0.00 0.00 0.00 0.00 0.00 0.00 0.00 0.00 0.00 0.00 0.00 0.00 0.00 0.00 0.00 0.00 0.00 0.00 0.00 0.01
0.00 0.00 0.00 0.05 0.02 0.02 0.04 0.04 0.02 0.01 0.01 0.01 0.00 0.00 0.00 0.00 0.00 0.00 0.00 0.00 0.00 0.00 0.00 0.00 0.00 0.00 0.00 0.00 0.00 0.00 0.00 0.00 0.00 0.00 0.00 0.00 0.00 0.00 0.00 0.00 0.00 0.00 0.00 0.00 0.01 0.02 0.03 0.06 0.11
0.00 0.00 0.00 0.01 0.01 0.02 0.01 0.00 0.00 0.00 0.00 0.00 0.00 0.00 0.00 0.00 0.00 0.00 0.00 0.00 0.00 0.00 0.00 0.00 0.00 0.00 0.00 0.00 0.00 0.00 0.00 0.00 0.00 0.00 0.00 0.00 0.00 0.00 0.00 0.00 0.00 0.00 0.01 0.02 0.08 0.14 0.22 0.36 0.50
0.00 0.00 0.00 0.00 0.00 0.00 0.00 0.00 0.00 0.00 0.00 0.00 0.00 0.00 0.00 0.00 0.00 0.00 0.00 0.00 0.00 0.00 0.00 0.00 0.00 0.00 0.00 0.00 0.00 0.00 0.00 0.00 0.00 0.00 0.00 0.00 0.00 0.00 0.00 0.00 0.01 0.04 0.10 0.16 0.20 0.25 0.33 0.39 0.35
0.00 0.00 0.00 0.00 0.00 0.01 0.00 0.00 0.00 0.00 0.00 0.00 0.00 0.00 0.00 0.00 0.00 0.00 0.00 0.00 0.00 0.00 0.00 0.00 0.00 0.00 0.00 0.00 0.00 0.00 0.00 0.00 0.00 0.00 0.00 0.00 0.00 0.00 0.01 0.04 0.12 0.18 0.17 0.13 0.14 0.15 0.15 0.16 0.16
0.00 0.00 0.00 0.00 0.00 0.04 0.07 0.01 0.00 0.00 0.00 0.00 0.00 0.00 0.00 0.00 0.00 0.00 0.00 0.00 0.00 0.00 0.00 0.00 0.00 0.00 0.00 0.00 0.00 0.00 0.00 0.00 0.00 0.00 0.00 0.00 0.00 0.01 0.05 0.09 0.08 0.07 0.09 0.09 0.10 0.09 0.07 0.06 0.04
0.00 0.00 0.00 0.01 0.02 0.01 0.03 0.01 0.00 0.00 0.00 0.00 0.00 0.00 0.00 0.00 0.00 0.00 0.00 0.00 0.00 0.00 0.00 0.00 0.00 0.00 0.00 0.00 0.00 0.00 0.00 0.00 0.00 0.00 0.00 0.00 0.00 0.01 0.02 0.04 0.09 0.11 0.09 0.07 0.05 0.03 0.01 0.00 0.00

GFSSGP_prec_precacc_057.txt.gz
Total_Precipitation_Accumulation
0.00 0.00 0.00 0.00 0.00 0.00 0.00 0.00 0.00 0.03 0.04 0.03 0.02 0.05 0.04 0.07 0.17 0.59 0.32 0.23 0.16 0.14 0.02 0.01 0.01 0.00 0.02 0.06 0.07 0.05 0.03 0.02 0.05 0.08 0.16 0.27 0.33 0.50 0.51 0.37 0.33 0.54 0.69 0.54 0.40 0.37 0.49 0.45 0.27
0.00 0.00 0.00 0.00 0.00 0.00 0.00 0.00 0.00 0.07 0.33 0.37 0.23 0.24 0.24 0.24 0.05 0.16 0.34 0.35 0.14 0.06 0.01 0.01 0.00 0.00 0.00 0.00 0.01 0.01 0.02 0.02 0.02 0.03 0.07 0.28 0.35 0.33 0.31 0.44 0.41 0.43 0.47 0.59 0.50 0.75 1.15 0.97 0.72
0.00 0.00 0.00 0.00 0.00 0.00 0.00 0.00 0.00 0.06 0.21 0.26 0.09 0.07 0.22 0.27 0.21 0.32 0.42 0.40 0.20 0.10 0.06 0.02 0.00 0.01 0.00 0.00 0.01 0.01 0.02 0.01 0.00 0.01 0.05 0.12 0.12 0.25 0.24 0.44 0.33 0.19 0.18 0.45 0.60 0.71 0.93 0.83 0.98
0.00 0.00 0.00 0.00 0.00 0.00 0.00 0.01 0.16 0.17 0.10 0.03 0.07 0.11 0.23 0.32 0.47 0.47 0.35 0.50 0.31 0.21 0.15 0.04 0.05 0.07 0.03 0.01 0.01 0.02 0.01 0.00 0.00 0.00 0.01 0.07 0.08 0.13 0.18 0.39 0.46 0.51 0.44 0.77 1.15 1.76 1.28 0.72 1.05
0.00 0.00 0.00 0.00 0.00 0.00 0.00 0.01 0.07 0.06 0.04 0.02 0.01 0.13 0.18 0.20 0.19 0.32 0.53 0.56 0.66 0.62 0.29 0.10 0.09 0.10 0.04 0.04 0.03 0.00 0.00 0.00 0.00 0.00 0.00 0.00 0.01 0.03 0.05 0.07 0.19 0.52 1.17 1.32 1.12 1.24 1.41 0.98 0.29
0.00 0.00 0.00 0.00 0.00 0.01 0.02 0.10 0.20 0.15 0.05 0.02 0.07 0.17 0.16 0.07 0.10 0.13 0.36 0.44 0.80 1.13 0.56 0.24 0.15 0.14 0.09 0.06 0.00 0.00 0.00 0.00 0.00 0.00 0.00 0.00 0.00 0.00 0.00 0.01 0.04 0.07 0.10 0.15 0.16 0.14 0.11 0.16 0.09
0.00 0.00 0.00 0.00 0.01 0.00 0.03 0.16 0.31 0.14 0.06 0.03 0.03 0.12 0.25 0.09 0.19 0.51 0.61 0.35 0.58 0.92 0.78 0.41 0.15 0.11 0.03 0.00 0.00 0.00 0.00 0.00 0.00 0.00 0.00 0.01 0.01 0.00 0.00 0.00 0.00 0.00 0.03 0.06 0.09 0.08 0.02 0.01 0.01
0.00 0.00 0.00 0.00 0.01 0.02 0.05 0.27 0.37 0.11 0.09 0.03 0.06 0.13 0.12 0.06 0.16 0.22 0.74 0.54 0.32 0.42 0.40 0.33 0.05 0.02 0.00 0.00 0.00 0.00 0.00 0.00 0.00 0.00 0.00 0.00 0.00 0.00 0.00 0.01 0.01 0.01 0.03 0.05 0.07 0.08 0.03 0.02 0.00
0.00 0.00 0.00 0.01 0.02 0.05 0.17 0.40 0.32 0.12 0.05 0.06 0.07 0.25 0.23 0.07 0.05 0.46 0.46 0.51 0.56 0.73 0.54 0.27 0.03 0.00 0.00 0.00 0.00 0.00 0.00 0.00 0.00 0.00 0.00 0.00 0.02 0.00 0.00 0.02 0.03 0.04 0.03 0.04 0.06 0.09 0.05 0.01 0.00
0.00 0.00 0.00 0.00 0.05 0.22 0.30 0.46 0.19 0.15 0.37 0.27 0.61 0.25 0.19 0.07 0.09 0.28 0.67 0.51 0.70 0.81 0.41 0.12 0.03 0.00 0.00 0.00 0.00 0.02 0.02 0.00 0.00 0.01 0.00 0.00 0.02 0.01 0.00 0.01 0.04 0.07 0.06 0.06 0.13 0.15 0.08 0.04 0.04
0.00 0.00 0.00 0.01 0.04 0.10 0.07 0.06 0.02 0.02 0.01 0.03 0.38 0.23 0.08 0.02 0.15 0.26 0.52 0.39 0.30 0.14 0.22 0.12 0.00 0.00 0.00 0.00 0.00 0.02 0.01 0.00 0.00 0.00 0.02 0.02 0.01 0.04 0.05 0.11 0.16 0.12 0.12 0.18 0.18 0.37 0.41 0.34 0.20
0.00 0.00 0.00 0.00 0.03 0.04 0.00 0.03 0.01 0.00 0.02 0.06 0.06 0.05 0.03 0.02 0.08 0.22 0.42 0.31 0.07 0.06 0.06 0.01 0.00 0.00 0.00 0.00 0.00 0.00 0.00 0.00 0.01 0.04 0.05 0.10 0.16 0.21 0.13 0.08 0.10 0.08 0.09 0.10 0.19 0.39 0.33 0.26 0.31
0.00 0.00 0.00 0.03 0.01 0.00 0.00 0.00 0.07 0.03 0.02 0.18 0.07 0.05 0.09 0.16 0.16 0.19 0.62 0.22 0.03 0.02 0.00 0.00 0.00 0.00 0.00 0.00 0.00 0.01 0.02 0.05 0.10 0.13 0.17 0.25 0.40 0.44 0.30 0.20 0.03 0.01 0.01 0.04 0.04 0.07 0.12 0.14 0.13
0.00 0.00 0.00 0.00 0.00 0.00 0.01 0.00 0.01 0.01 0.22 0.39 0.06 0.03 0.12 0.16 0.38 0.82 0.27 0.00 0.00 0.00 0.00 0.00 0.00 0.00 0.00 0.00 0.02 0.03 0.05 0.06 0.09 0.12 0.15 0.14 0.19 0.21 0.12 0.08 0.06 0.04 0.02 0.01 0.03 0.03 0.04 0.05 0.06
0.00 0.00 0.00 0.00 0.00 0.00 0.01 0.00 0.00 0.01 0.01 0.05 0.04 0.02 0.08 0.02 0.01 0.06 0.01 0.00 0.00 0.00 0.00 0.00 0.01 0.01 0.06 0.02 0.00 0.00 0.00 0.01 0.03 0.08 0.08 0.10 0.14 0.12 0.08 0.04 0.02 0.01 0.00 0.00 0.00 0.00 0.02 0.04 0.07
0.00 0.00 0.00 0.00 0.00 0.00 0.00 0.01 0.00 0.00 0.00 0.01 0.00 0.00 0.01 0.00 0.00 0.00 0.00 0.00 0.00 0.00 0.00 0.04 0.21 0.36 0.32 0.22 0.03 0.02 0.02 0.05 0.12 0.10 0.08 0.11 0.11 0.07 0.02 0.00 0.01 0.00 0.00 0.00 0.00 0.00 0.00 0.01 0.04
0.00 0.00 0.00 0.00 0.00 0.00 0.00 0.00 0.00 0.00 0.00 0.01 0.01 0.00 0.00 0.00 0.00 0.00 0.00 0.00 0.00 0.00 0.01 0.21 0.53 0.79 0.89 0.65 0.56 0.69 0.65 0.36 0.17 0.06 0.02 0.02 0.01 0.00 0.00 0.00 0.00 0.00 0.00 0.00 0.00 0.00 0.00 0.00 0.00
0.00 0.00 0.00 0.00 0.00 0.00 0.00 0.00 0.00 0.00 0.00 0.00 0.00 0.00 0.00 0.00 0.00 0.00 0.00 0.00 0.00 0.01 0.06 0.42 0.76 0.96 1.09 1.66 1.49 0.86 0.27 0.08 0.02 0.00 0.00 0.00 0.00 0.00 0.00 0.00 0.00 0.00 0.00 0.00 0.00 0.00 0.00 0.00 0.00
0.00 0.00 0.00 0.00 0.00 0.00 0.00 0.00 0.00 0.00 0.01 0.12 0.01 0.00 0.00 0.00 0.00 0.00 0.00 0.02 0.04 0.08 0.27 0.70 0.92 1.05 0.90 0.63 0.23 0.05 0.01 0.01 0.00 0.00 0.00 0.00 0.00 0.00 0.00 0.00 0.00 0.00 0.00 0.00 0.00 0.00 0.00 0.00 0.00
0.00 0.00 0.00 0.00 0.00 0.00 0.00 0.00 0.00 0.00 0.00 0.05 0.02 0.01 0.00 0.00 0.00 0.01 0.03 0.09 0.13 0.26 0.36 0.38 0.22 0.14 0.04 0.01 0.00 0.00 0.00 0.00 0.00 0.00 0.00 0.00 0.00 0.00 0.00 0.00 0.00 0.00 0.00 0.00 0.00 0.00 0.00 0.00 0.00
0.00 0.00 0.00 0.00 0.00 0.00 0.00 0.00 0.00 0.00 0.00 0.00 0.01 0.00 0.00 0.00 0.00 0.02 0.08 0.12 0.14 0.14 0.17 0.05 0.03 0.02 0.00 0.00 0.00 0.00 0.00 0.00 0.00 0.00 0.00 0.00 0.00 0.00 0.00 0.00 0.00 0.00 0.00 0.00 0.00 0.00 0.00 0.00 0.00
0.00 0.00 0.00 0.00 0.00 0.00 0.00 0.01 0.02 0.00 0.00 0.00 0.00 0.00 0.00 0.00 0.01 0.01 0.01 0.01 0.01 0.01 0.03 0.00 0.00 0.00 0.00 0.00 0.00 0.00 0.00 0.00 0.00 0.00 0.00 0.00 0.00 0.00 0.00 0.00 0.00 0.00 0.00 0.00 0.00 0.00 0.00 0.00 0.00
0.03 0.00 0.00 0.00 0.00 0.01 0.01 0.00 0.01 0.00 0.00 0.00 0.00 0.00 0.00 0.00 0.00 0.00 0.00 0.00 0.00 0.00 0.00 0.00 0.00 0.00 0.00 0.00 0.00 0.00 0.00 0.00 0.00 0.00 0.00 0.00 0.00 0.00 0.00 0.00 0.00 0.00 0.00 0.00 0.00 0.00 0.00 0.00 0.00
0.00 0.00 0.00 0.00 0.00 0.00 0.01 0.00 0.00 0.00 0.01 0.01 0.00 0.00 0.00 0.01 0.01 0.00 0.00 0.00 0.00 0.00 0.00 0.00 0.00 0.00 0.00 0.00 0.00 0.00 0.00 0.00 0.00 0.00 0.00 0.00 0.00 0.00 0.00 0.00 0.00 0.00 0.00 0.00 0.00 0.00 0.00 0.00 0.01
0.00 0.00 0.00 0.05 0.03 0.02 0.04 0.05 0.02 0.01 0.01 0.05 0.00 0.00 0.00 0.01 0.00 0.00 0.00 0.00 0.00 0.00 0.00 0.00 0.00 0.00 0.00 0.00 0.00 0.00 0.00 0.00 0.00 0.00 0.00 0.00 0.00 0.00 0.00 0.00 0.00 0.00 0.00 0.00 0.01 0.02 0.03 0.06 0.11
0.00 0.00 0.00 0.02 0.02 0.02 0.02 0.01 0.00 0.00 0.00 0.00 0.00 0.00 0.00 0.00 0.00 0.00 0.00 0.00 0.00 0.00 0.00 0.00 0.00 0.00 0.00 0.00 0.00 0.00 0.00 0.00 0.00 0.00 0.00 0.00 0.00 0.00 0.00 0.00 0.00 0.00 0.01 0.02 0.08 0.14 0.22 0.36 0.50
0.02 0.04 0.00 0.00 0.00 0.00 0.00 0.00 0.00 0.00 0.00 0.00 0.00 0.00 0.00 0.00 0.00 0.00 0.00 0.00 0.00 0.00 0.00 0.00 0.00 0.00 0.00 0.00 0.00 0.00 0.00 0.00 0.00 0.00 0.00 0.00 0.00 0.00 0.00 0.00 0.01 0.04 0.10 0.16 0.20 0.25 0.33 0.39 0.35
0.00 0.02 0.00 0.00 0.00 0.01 0.00 0.00 0.00 0.00 0.00 0.00 0.00 0.00 0.00 0.00 0.00 0.00 0.00 0.00 0.00 0.00 0.00 0.00 0.00 0.00 0.00 0.00 0.00 0.00 0.00 0.00 0.00 0.00 0.00 0.00 0.00 0.00 0.01 0.04 0.12 0.18 0.17 0.13 0.14 0.15 0.15 0.16 0.16
0.00 0.00 0.00 0.00 0.00 0.04 0.07 0.01 0.00 0.00 0.01 0.00 0.00 0.00 0.00 0.00 0.00 0.00 0.00 0.00 0.00 0.00 0.00 0.00 0.00 0.00 0.00 0.00 0.00 0.00 0.00 0.00 0.00 0.00 0.00 0.00 0.00 0.01 0.05 0.09 0.08 0.07 0.09 0.09 0.10 0.09 0.07 0.06 0.04
0.00 0.00 0.00 0.01 0.02 0.01 0.03 0.01 0.00 0.00 0.00 0.00 0.00 0.00 0.00 0.00 0.00 0.00 0.00 0.00 0.00 0.00 0.00 0.00 0.00 0.00 0.00 0.00 0.00 0.00 0.00 0.00 0.00 0.00 0.00 0.00 0.00 0.01 0.02 0.04 0.09 0.11 0.09 0.07 0.05 0.03 0.01 0.00 0.00

GFSSGP_prec_precacc_060.txt.gz
Total_Precipitation_Accumulation
0.00 0.00 0.00 0.00 0.00 0.00 0.00 0.00 0.00 0.03 0.05 0.05 0.02 0.05 0.04 0.07 0.17 0.61 0.32 0.23 0.17 0.14 0.02 0.01 0.01 0.00 0.02 0.06 0.08 0.05 0.04 0.02 0.05 0.08 0.16 0.27 0.33 0.50 0.51 0.37 0.33 0.54 0.69 0.54 0.40 0.37 0.49 0.45 0.27
0.00 0.00 0.00 0.00 0.00 0.00 0.00 0.00 0.00 0.07 0.34 0.38 0.24 0.24 0.24 0.24 0.06 0.17 0.35 0.36 0.14 0.06 0.02 0.01 0.00 0.00 0.00 0.01 0.01 0.03 0.02 0.02 0.02 0.03 0.07 0.28 0.35 0.33 0.31 0.44 0.41 0.43 0.47 0.59 0.50 0.75 1.15 0.97 0.72
0.00 0.00 0.00 0.00 0.00 0.00 0.00 0.00 0.00 0.06 0.22 0.27 0.09 0.07 0.22 0.28 0.21 0.33 0.44 0.42 0.22 0.10 0.06 0.02 0.01 0.01 0.00 0.00 0.02 0.02 0.02 0.01 0.00 0.01 0.05 0.12 0.12 0.25 0.24 0.44 0.33 0.19 0.18 0.45 0.60 0.71 0.93 0.83 0.98
0.00 0.00 0.00 0.00 0.00 0.00 0.00 0.01 0.16 0.18 0.10 0.03 0.07 0.11 0.24 0.33 0.47 0.48 0.38 0.60 0.34 0.21 0.20 0.07 0.09 0.09 0.03 0.02 0.02 0.02 0.01 0.00 0.00 0.00 0.01 0.07 0.08 0.13 0.18 0.39 0.46 0.51 0.44 0.77 1.15 1.76 1.28 0.72 1.05
0.00 0.00 0.00 0.00 0.00 0.01 0.01 0.02 0.09 0.07 0.04 0.03 0.01 0.13 0.18 0.21 0.19 0.39 0.65 0.71 0.72 0.69 0.52 0.27 0.22 0.24 0.12 0.06 0.05 0.02 0.00 0.00 0.00 0.00 0.00 0.00 0.01 0.03 0.05 0.07 0.19 0.52 1.17 1.32 1.12 1.24 1.41 0.98 0.29
0.00 0.00 0.00 0.00 0.00 0.03 0.05 0.15 0.31 0.23 0.06 0.03 0.07 0.17 0.16 0.08 0.13 0.36 0.63 0.73 0.96 1.23 0.82 0.60 0.48 0.43 0.25 0.10 0.03 0.00 0.00 0.00 0.00 0.00 0.00 0.00 0.00 0.00 0.00 0.01 0.04 0.07 0.10 0.15 0.16 0.14 0.11 0.16 0.09
0.00 0.00 0.00 0.00 0.01 0.00 0.03 0.18 0.33 0.17 0.06 0.03 0.03 0.12 0.25 0.09 0.20 0.58 0.82 0.74 0.76 0.97 1.09 0.92 0.46 0.32 0.12 0.01 0.00 0.00 0.00 0.00 0.00 0.00 0.00 0.01 0.01 0.00 0.00 0.00 0.00 0.00 0.03 0.06 0.09 0.08 0.02 0.01 0.01
0.00 0.00 0.00 0.00 0.01 0.02 0.06 0.29 0.38 0.13 0.11 0.04 0.09 0.14 0.12 0.06 0.16 0.27 0.86 0.76 0.84 1.02 0.58 0.54 0.35 0.21 0.02 0.00 0.00 0.00 0.00 0.00 0.00 0.00 0.00 0.00 0.00 0.00 0.00 0.01 0.01 0.01 0.03 0.05 0.07 0.08 0.03 0.02 0.00
0.00 0.00 0.00 0.01 0.02 0.05 0.17 0.40 0.32 0.13 0.07 0.07 0.09 0.26 0.25 0.08 0.05 0.47 0.51 0.62 0.72 1.23 0.90 0.62 0.32 0.12 0.00 0.00 0.00 0.00 0.00 0.00 0.00 0.00 0.00 0.00 0.02 0.00 0.00 0.02 0.03 0.04 0.03 0.04 0.06 0.09 0.05 0.01 0.00
0.00 0.00 0.00 0.00 0.05 0.22 0.30 0.46 0.19 0.15 0.37 0.27 0.62 0.30 0.35 0.17 0.10 0.29 0.67 0.55 0.79 0.91 0.57 0.34 0.24 0.01 0.00 0.00 0.00 0.02 0.02 0.00 0.00 0.01 0.00 0.00 0.02 0.01 0.00 0.01 0.04 0.07 0.06 0.06 0.13 0.15 0.08 0.04 0.04
0.00 0.00 0.00 0.01 0.04 0.10 0.07 0.06 0.02 0.02 0.01 0.03 0.39 0.27 0.15 0.12 0.20 0.28 0.55 0.44 0.35 0.19 0.32 0.23 0.05 0.00 0.00 0.00 0.00 0.02 0.01 0.00 0.00 0.00 0.02 0.02 0.01 0.04 0.05 0.11 0.16 0.12 0.12 0.18 0.18 0.37 0.41 0.34 0.20
0.00 0.00 0.00 0.00 0.03 0.04 0.00 0.03 0.01 0.00 0.02 0.07 0.08 0.10 0.15 0.09 0.18 0.32 0.52 0.34 0.11 0.09 0.16 0.13 0.03 0.00 0.00 0.00 0.00 0.00 0.00 0.00 0.01 0.04 0.05 0.10 0.16 0.21 0.13 0.08 0.10 0.08 0.09 0.10 0.19 0.39 0.33 0.26 0.31
0.00 0.00 0.00 0.03 0.01 0.00 0.00 0.00 0.07 0.03 0.02 0.26 0.13 0.22 0.21 0.22 0.22 0.36 0.85 0.28 0.17 0.11 0.03 0.01 0.00 0.00 0.00 0.00 0.00 0.01 0.02 0.05 0.10 0.13 0.17 0.25 0.40 0.44 0.30 0.20 0.03 0.01 0.01 0.04 0.04 0.07 0.12 0.14 0.13
0.00 0.00 0.00 0.00 0.00 0.00 0.01 0.00 0.01 0.01 0.22 0.58 0.26 0.22 0.26 0.26 0.43 0.89 0.33 0.03 0.03 0.02 0.01 0.00 0.00 0.00 0.00 0.00 0.02 0.03 0.05 0.06 0.09 0.12 0.15 0.14 0.19 0.21 0.12 0.08 0.06 0.04 0.02 0.01 0.03 0.03 0.04 0.05 0.06
0.00 0.00 0.00 0.00 0.00 0.00 0.01 0.00 0.01 0.02 0.01 0.07 0.17 0.16 0.15 0.03 0.01 0.06 0.02 0.00 0.00 0.00 0.00 0.00 0.01 0.01 0.06 0.02 0.00 0.00 0.00 0.01 0.03 0.08 0.08 0.10 0.14 0.12 0.08 0.04 0.02 0.01 0.00 0.00 0.00 0.00 0.02 0.04 0.07
0.00 0.00 0.00 0.00 0.00 0.00 0.00 0.02 0.02 0.03 0.04 0.07 0.09 0.03 0.01 0.01 0.00 0.00 0.00 0.00 0.00 0.00 0.00 0.04 0.21 0.36 0.32 0.22 0.03 0.02 0.02 0.05 0.12 0.10 0.08 0.11 0.11 0.07 0.02 0.00 0.01 0.00 0.00 0.00 0.00 0.00 0.00 0.01 0.04
0.00 0.00 0.00 0.00 0.00 0.00 0.00 0.00 0.00 0.01 0.03 0.04 0.04 0.00 0.00 0.00 0.00 0.00 0.00 0.00 0.00 0.00 0.01 0.21 0.53 0.79 0.89 0.65 0.56 0.69 0.65 0.36 0.17 0.06 0.02 0.02 0.01 0.00 0.00 0.00 0.00 0.00 0.00 0.00 0.00 0.00 0.00 0.00 0.00
0.00 0.00 0.00 0.00 0.00 0.00 0.00 0.00 0.00 0.00 0.01 0.01 0.01 0.00 0.00 0.00 0.00 0.00 0.00 0.00 0.00 0.01 0.06 0.42 0.76 0.96 1.09 1.66 1.49 0.86 0.27 0.08 0.02 0.00 0.00 0.00 0.00 0.00 0.00 0.00 0.00 0.00 0.00 0.00 0.00 0.00 0.00 0.00 0.00
0.00 0.00 0.00 0.00 0.00 0.00 0.00 0.00 0.00 0.00 0.01 0.13 0.01 0.00 0.00 0.00 0.00 0.00 0.00 0.02 0.04 0.08 0.27 0.70 0.92 1.06 0.90 0.63 0.23 0.05 0.01 0.01 0.00 0.00 0.00 0.00 0.00 0.00 0.00 0.00 0.00 0.00 0.00 0.00 0.00 0.00 0.00 0.00 0.00
0.00 0.00 0.00 0.00 0.00 0.00 0.00 0.00 0.00 0.00 0.00 0.05 0.02 0.01 0.00 0.00 0.00 0.01 0.03 0.09 0.13 0.26 0.36 0.39 0.22 0.16 0.04 0.01 0.00 0.00 0.00 0.00 0.00 0.00 0.00 0.00 0.00 0.00 0.00 0.00 0.00 0.00 0.00 0.00 0.00 0.00 0.00 0.00 0.00
0.00 0.00 0.00 0.00 0.00 0.00 0.00 0.00 0.00 0.00 0.00 0.01 0.01 0.00 0.00 0.00 0.00 0.02 0.08 0.12 0.14 0.14 0.17 0.06 0.04 0.04 0.00 0.00 0.00 0.00 0.00 0.00 0.00 0.00 0.00 0.00 0.00 0.00 0.00 0.00 0.00 0.00 0.00 0.00 0.00 0.00 0.00 0.00 0.00
0.00 0.00 0.00 0.00 0.00 0.00 0.00 0.01 0.02 0.00 0.00 0.00 0.01 0.00 0.01 0.00 0.01 0.01 0.01 0.01 0.01 0.01 0.03 0.02 0.03 0.02 0.00 0.00 0.00 0.00 0.00 0.00 0.00 0.00 0.00 0.00 0.00 0.00 0.00 0.00 0.00 0.00 0.00 0.00 0.00 0.00 0.00 0.00 0.00
0.03 0.00 0.00 0.00 0.00 0.01 0.01 0.00 0.01 0.00 0.00 0.00 0.00 0.00 0.00 0.00 0.00 0.00 0.00 0.00 0.00 0.00 0.02 0.08 0.04 0.01 0.00 0.00 0.00 0.00 0.00 0.00 0.00 0.00 0.00 0.00 0.00 0.00 0.00 0.00 0.00 0.00 0.00 0.00 0.00 0.00 0.00 0.00 0.00
0.00 0.00 0.00 0.00 0.00 0.00 0.01 0.00 0.00 0.00 0.01 0.01 0.00 0.00 0.00 0.01 0.01 0.00 0.00 0.00 0.00 0.03 0.06 0.04 0.00 0.00 0.00 0.00 0.00 0.00 0.00 0.00 0.00 0.00 0.00 0.00 0.00 0.00 0.00 0.00 0.00 0.00 0.00 0.00 0.00 0.00 0.00 0.00 0.01
0.00 0.00 0.00 0.06 0.03 0.02 0.04 0.05 0.02 0.01 0.01 0.05 0.00 0.00 0.00 0.01 0.00 0.00 0.02 0.05 0.03 0.02 0.01 0.00 0.00 0.00 0.00 0.00 0.00 0.00 0.00 0.00 0.00 0.00 0.00 0.00 0.00 0.00 0.00 0.00 0.00 0.00 0.00 0.00 0.01 0.02 0.03 0.06 0.11
0.00 0.00 0.00 0.02 0.02 0.02 0.02 0.01 0.00 0.00 0.00 0.00 0.00 0.00 0.00 0.00 0.00 0.00 0.01 0.02 0.00 0.00 0.00 0.00 0.00 0.00 0.00 0.00 0.00 0.00 0.00 0.00 0.00 0.00 0.00 0.00 0.00 0.00 0.01 0.00 0.00 0.00 0.01 0.02 0.08 0.14 0.22 0.36 0.50
0.02 0.04 0.01 0.00 0.00 0.00 0.00 0.00 0.00 0.00 0.00 0.00 0.00 0.00 0.00 0.00 0.00 0.00 0.00 0.00 0.00 0.00 0.00 0.00 0.00 0.00 0.00 0.00 0.00 0.00 0.00 0.00 0.00 0.00 0.00 0.00 0.01 0.00 0.00 0.00 0.01 0.04 0.10 0.16 0.20 0.25 0.33 0.39 0.35
0.00 0.02 0.02 0.01 0.00 0.01 0.00 0.00 0.00 0.00 0.00 0.00 0.00 0.00 0.00 0.00 0.00 0.00 0.00 0.00 0.00 0.00 0.00 0.00 0.00 0.00 0.00 0.00 0.00 0.00 0.00 0.00 0.00 0.00 0.00 0.00 0.00 0.00 0.01 0.04 0.12 0.18 0.17 0.13 0.14 0.15 0.15 0.16 0.16
0.00 0.00 0.00 0.00 0.00 0.04 0.07 0.01 0.00 0.00 0.01 0.00 0.00 0.00 0.00 0.00 0.00 0.00 0.00 0.00 0.00 0.00 0.00 0.00 0.00 0.00 0.00 0.00 0.00 0.00 0.00 0.00 0.00 0.00 0.00 0.00 0.00 0.01 0.05 0.09 0.08 0.07 0.09 0.09 0.10 0.09 0.07 0.06 0.04
0.00 0.00 0.01 0.01 0.02 0.01 0.03 0.01 0.00 0.00 0.00 0.00 0.00 0.00 0.00 0.00 0.00 0.00 0.00 0.00 0.00 0.00 0.00 0.00 0.00 0.00 0.00 0.00 0.00 0.00 0.00 0.01 0.01 0.00 0.00 0.00 0.00 0.01 0.02 0.04 0.09 0.11 0.09 0.07 0.05 0.03 0.01 0.00 0.00

GFSSGP_prec_precacc_063.txt.gz
Total_Precipitation_Accumulation
0.00 0.00 0.00 0.00 0.00 0.00 0.00 0.00 0.00 0.03 0.05 0.06 0.02 0.05 0.04 0.07 0.18 0.62 0.32 0.24 0.17 0.15 0.03 0.01 0.01 0.00 0.02 0.06 0.08 0.06 0.04 0.02 0.05 0.08 0.16 0.27 0.33 0.50 0.51 0.37 0.33 0.54 0.69 0.54 0.40 0.37 0.49 0.45 0.27
0.00 0.00 0.00 0.00 0.00 0.00 0.00 0.00 0.00 0.08 0.34 0.39 0.24 0.24 0.24 0.24 0.07 0.18 0.35 0.36 0.14 0.06 0.02 0.01 0.00 0.00 0.00 0.01 0.01 0.03 0.03 0.02 0.02 0.03 0.07 0.28 0.35 0.33 0.31 0.44 0.41 0.43 0.47 0.59 0.50 0.75 1.15 0.97 0.72
0.00 0.00 0.00 0.00 0.00 0.00 0.00 0.00 0.01 0.06 0.22 0.28 0.09 0.07 0.22 0.28 0.23 0.33 0.44 0.45 0.22 0.11 0.07 0.03 0.05 0.02 0.00 0.00 0.02 0.02 0.02 0.01 0.00 0.01 0.05 0.12 0.12 0.25 0.24 0.44 0.33 0.19 0.18 0.45 0.60 0.71 0.93 0.83 0.98
0.00 0.00 0.00 0.00 0.00 0.00 0.00 0.01 0.16 0.18 0.11 0.03 0.08 0.12 0.24 0.34 0.48 0.48 0.40 0.62 0.35 0.22 0.24 0.14 0.28 0.13 0.03 0.03 0.02 0.03 0.01 0.00 0.00 0.00 0.01 0.07 0.08 0.13 0.18 0.39 0.46 0.51 0.44 0.77 1.15 1.76 1.28 0.72 1.05
0.00 0.00 0.00 0.00 0.00 0.01 0.01 0.02 0.10 0.08 0.07 0.06 0.03 0.14 0.19 0.25 0.21 0.40 0.71 0.77 0.73 0.84 0.75 0.60 0.48 0.38 0.19 0.08 0.06 0.02 0.00 0.00 0.00 0.00 0.00 0.00 0.01 0.03 0.05 0.07 0.19 0.52 1.17 1.32 1.12 1.24 1.41 0.98 0.29
0.00 0.00 0.00 0.00 0.00 0.03 0.05 0.15 0.32 0.26 0.10 0.04 0.07 0.17 0.18 0.18 0.18 0.39 0.70 0.84 1.03 1.35 0.95 0.85 0.78 0.79 0.52 0.18 0.04 0.00 0.00 0.00 0.00 0.00 0.00 0.00 0.00 0.00 0.00 0.01 0.04 0.07 0.10 0.15 0.16 0.14 0.11 0.16 0.09
0.00 0.00 0.00 0.00 0.01 0.00 0.03 0.18 0.34 0.17 0.06 0.03 0.03 0.12 0.27 0.21 0.32 0.68 0.95 0.85 0.89 1.09 1.17 1.18 0.81 0.75 0.34 0.01 0.00 0.00 0.00 0.00 0.00 0.00 0.00 0.01 0.01 0.00 0.00 0.00 0.00 0.00 0.03 0.06 0.09 0.08 0.02 0.01 0.01
0.00 0.00 0.00 0.00 0.01 0.02 0.06 0.29 0.38 0.13 0.11 0.04 0.09 0.14 0.12 0.14 0.25 0.32 0.92 0.82 0.92 1.18 0.77 0.73 0.50 0.40 0.09 0.00 0.00 0.00 0.00 0.00 0.00 0.00 0.00 0.00 0.00 0.00 0.00 0.01 0.01 0.01 0.03 0.05 0.07 0.08 0.03 0.02 0.00
0.00 0.00 0.00 0.01 0.02 0.05 0.17 0.40 0.32 0.13 0.07 0.07 0.09 0.26 0.27 0.10 0.08 0.51 0.57 0.70 0.86 1.98 2.32 1.13 0.48 0.36 0.10 0.00 0.00 0.00 0.00 0.00 0.00 0.00 0.00 0.00 0.02 0.00 0.00 0.02 0.03 0.04 0.03 0.04 0.06 0.09 0.05 0.01 0.00
0.00 0.00 0.00 0.00 0.05 0.22 0.30 0.46 0.19 0.16 0.38 0.27 0.62 0.30 0.38 0.19 0.12 0.32 0.72 0.63 1.25 1.31 1.22 0.76 0.48 0.13 0.01 0.00 0.00 0.02 0.02 0.00 0.00 0.01 0.00 0.00 0.02 0.01 0.00 0.01 0.04 0.07 0.06 0.06 0.13 0.15 0.08 0.04 0.04
0.00 0.00 0.00 0.01 0.04 0.10 0.07 0.06 0.02 0.02 0.01 0.03 0.40 0.29 0.19 0.20 0.30 0.36 0.61 0.52 0.72 0.68 0.59 0.46 0.20 0.10 0.00 0.00 0.00 0.02 0.01 0.00 0.00 0.00 0.02 0.02 0.01 0.04 0.05 0.11 0.16 0.12 0.12 0.18 0.18 0.37 0.41 0.34 0.20
0.00 0.00 0.00 0.00 0.03 0.04 0.00 0.03 0.01 0.00 0.02 0.07 0.08 0.15 0.20 0.13 0.23 0.39 0.56 0.36 0.15 0.22 0.27 0.24 0.14 0.02 0.00 0.00 0.00 0.00 0.00 0.00 0.01 0.04 0.05 0.10 0.16 0.21 0.13 0.08 0.10 0.08 0.09 0.10 0.19 0.39 0.33 0.26 0.31
0.00 0.00 0.00 0.03 0.01 0.00 0.00 0.00 0.07 0.03 0.02 0.26 0.13 0.28 0.38 0.31 0.25 0.38 0.87 0.28 0.17 0.14 0.07 0.07 0.02 0.00 0.00 0.00 0.00 0.01 0.02 0.05 0.10 0.13 0.17 0.25 0.40 0.44 0.30 0.20 0.03 0.01 0.01 0.04 0.04 0.07 0.12 0.14 0.13
0.00 0.00 0.00 0.00 0.00 0.00 0.01 0.00 0.01 0.02 0.22 0.63 0.37 0.34 0.47 0.35 0.44 0.90 0.36 0.04 0.03 0.02 0.01 0.01 0.00 0.00 0.00 0.00 0.02 0.03 0.05 0.06 0.09 0.12 0.15 0.14 0.19 0.21 0.12 0.08 0.06 0.04 0.02 0.01 0.03 0.03 0.04 0.05 0.06
0.00 0.00 0.00 0.00 0.00 0.00 0.01 0.01 0.01 0.02 0.01 0.11 0.22 0.21 0.22 0.04 0.01 0.06 0.02 0.00 0.00 0.00 0.00 0.00 0.01 0.01 0.06 0.02 0.00 0.00 0.00 0.01 0.04 0.09 0.08 0.10 0.14 0.12 0.08 0.04 0.02 0.01 0.00 0.00 0.00 0.00 0.02 0.04 0.07
0.00 0.00 0.00 0.00 0.00 0.00 0.00 0.02 0.02 0.03 0.04 0.08 0.10 0.07 0.02 0.01 0.00 0.00 0.00 0.00 0.00 0.00 0.00 0.04 0.21 0.36 0.32 0.22 0.03 0.02 0.02 0.05 0.13 0.11 0.08 0.11 0.11 0.07 0.02 0.00 0.01 0.00 0.00 0.00 0.00 0.00 0.00 0.01 0.04
0.00 0.00 0.00 0.00 0.00 0.00 0.00 0.00 0.01 0.01 0.03 0.05 0.04 0.00 0.00 0.00 0.00 0.00 0.00 0.00 0.00 0.00 0.01 0.21 0.53 0.79 0.89 0.65 0.56 0.69 0.65 0.36 0.17 0.06 0.02 0.02 0.01 0.00 0.00 0.00 0.00 0.00 0.00 0.00 0.00 0.00 0.00 0.00 0.00
0.00 0.00 0.00 0.00 0.00 0.00 0.00 0.00 0.00 0.01 0.01 0.01 0.01 0.00 0.00 0.00 0.00 0.00 0.00 0.00 0.00 0.01 0.06 0.42 0.76 0.96 1.09 1.66 1.49 0.86 0.27 0.08 0.02 0.00 0.00 0.00 0.00 0.00 0.00 0.00 0.00 0.00 0.00 0.00 0.00 0.00 0.00 0.00 0.00
0.00 0.00 0.00 0.00 0.00 0.00 0.00 0.00 0.02 0.02 0.02 0.13 0.01 0.00 0.00 0.00 0.00 0.00 0.00 0.02 0.04 0.08 0.27 0.70 0.92 1.06 0.90 0.63 0.23 0.05 0.01 0.01 0.00 0.00 0.00 0.00 0.00 0.00 0.00 0.00 0.00 0.00 0.00 0.00 0.00 0.00 0.00 0.00 0.00
0.00 0.00 0.00 0.00 0.00 0.00 0.00 0.00 0.01 0.02 0.02 0.05 0.02 0.01 0.00 0.00 0.00 0.01 0.03 0.09 0.13 0.26 0.36 0.39 0.22 0.16 0.04 0.01 0.00 0.00 0.00 0.00 0.00 0.00 0.00 0.00 0.00 0.00 0.00 0.00 0.00 0.00 0.00 0.00 0.00 0.00 0.00 0.00 0.00
0.00 0.00 0.00 0.00 0.00 0.00 0.00 0.00 0.00 0.01 0.02 0.02 0.01 0.00 0.00 0.00 0.00 0.02 0.08 0.12 0.14 0.14 0.17 0.06 0.04 0.04 0.01 0.02 0.03 0.02 0.00 0.00 0.00 0.00 0.00 0.00 0.00 0.00 0.00 0.00 0.00 0.00 0.00 0.00 0.00 0.00 0.00 0.00 0.00
0.00 0.00 0.00 0.00 0.00 0.00 0.00 0.01 0.02 0.00 0.00 0.01 0.01 0.00 0.01 0.01 0.01 0.01 0.01 0.01 0.02 0.01 0.03 0.02 0.06 0.09 0.06 0.06 0.09 0.04 0.00 0.00 0.00 0.00 0.00 0.00 0.00 0.00 0.00 0.00 0.00 0.00 0.00 0.00 0.00 0.00 0.00 0.00 0.00
0.03 0.00 0.00 0.00 0.00 0.01 0.01 0.00 0.01 0.00 0.00 0.00 0.00 0.01 0.00 0.01 0.01 0.00 0.01 0.00 0.00 0.03 0.03 0.09 0.12 0.10 0.04 0.05 0.04 0.00 0.00 0.00 0.00 0.00 0.00 0.00 0.00 0.00 0.00 0.00 0.00 0.00 0.00 0.00 0.00 0.00 0.00 0.00 0.00
0.00 0.00 0.00 0.00 0.00 0.00 0.01 0.00 0.00 0.00 0.01 0.01 0.00 0.00 0.00 0.01 0.01 0.01 0.01 0.01 0.02 0.10 0.15 0.13 0.08 0.04 0.02 0.03 0.00 0.00 0.00 0.00 0.00 0.00 0.00 0.00 0.00 0.00 0.00 0.00 0.00 0.00 0.00 0.00 0.00 0.00 0.00 0.00 0.01
0.00 0.00 0.00 0.06 0.03 0.02 0.04 0.05 0.02 0.01 0.01 0.05 0.00 0.00 0.00 0.01 0.00 0.00 0.02 0.06 0.06 0.13 0.14 0.10 0.05 0.02 0.01 0.01 0.00 0.00 0.00 0.00 0.00 0.00 0.00 0.00 0.00 0.00 0.00 0.01 0.01 0.00 0.00 0.00 0.01 0.02 0.03 0.06 0.11
0.00 0.00 0.00 0.02 0.02 0.02 0.02 0.01 0.00 0.00 0.00 0.00 0.00 0.00 0.00 0.00 0.00 0.00 0.02 0.04 0.06 0.12 0.07 0.05 0.00 0.00 0.00 0.00 0.02 0.01 0.00 0.00 0.00 0.00 0.00 0.00 0.00 0.01 0.02 0.01 0.00 0.00 0.01 0.02 0.08 0.14 0.22 0.36 0.50
0.02 0.04 0.01 0.00 0.00 0.00 0.00 0.00 0.00 0.00 0.00 0.00 0.00 0.00 0.00 0.00 0.00 0.00 0.01 0.02 0.04 0.02 0.01 0.00 0.00 0.00 0.00 0.00 0.00 0.00 0.00 0.00 0.00 0.00 0.01 0.03 0.02 0.02 0.00 0.00 0.01 0.04 0.10 0.16 0.20 0.25 0.33 0.39 0.35
0.00 0.02 0.02 0.01 0.00 0.01 0.00 0.00 0.00 0.00 0.00 0.00 0.00 0.00 0.00 0.00 0.00 0.00 0.00 0.01 0.01 0.00 0.00 0.00 0.00 0.00 0.00 0.00 0.00 0.00 0.00 0.00 0.00 0.01 0.02 0.02 0.02 0.01 0.01 0.04 0.12 0.18 0.17 0.13 0.14 0.15 0.15 0.16 0.16
0.00 0.00 0.00 0.00 0.00 0.04 0.07 0.01 0.00 0.00 0.01 0.00 0.00 0.00 0.00 0.00 0.00 0.00 0.00 0.00 0.00 0.00 0.00 0.00 0.00 0.00 0.00 0.00 0.00 0.00 0.00 0.00 0.01 0.02 0.03 0.03 0.01 0.01 0.05 0.09 0.08 0.07 0.09 0.09 0.10 0.09 0.07 0.06 0.04
0.00 0.00 0.01 0.01 0.02 0.01 0.03 0.01 0.00 0.00 0.00 0.00 0.00 0.00 0.00 0.00 0.00 0.00 0.00 0.00 0.00 0.00 0.00 0.00 0.00 0.00 0.00 0.00 0.00 0.00 0.00 0.02 0.06 0.07 0.03 0.00 0.00 0.01 0.02 0.04 0.09 0.11 0.09 0.07 0.05 0.03 0.01 0.00 0.00

GFSSGP_prec_precacc_066.txt.gz
Total_Precipitation_Accumulation
0.00 0.00 0.00 0.00 0.00 0.00 0.00 0.00 0.00 0.03 0.05 0.07 0.07 0.11 0.06 0.07 0.18 0.62 0.32 0.24 0.17 0.15 0.04 0.01 0.01 0.00 0.02 0.06 0.08 0.06 0.04 0.02 0.05 0.08 0.16 0.27 0.33 0.50 0.51 0.37 0.33 0.54 0.69 0.54 0.40 0.37 0.49 0.45 0.27
0.00 0.00 0.00 0.00 0.00 0.00 0.00 0.00 0.02 0.09 0.34 0.39 0.25 0.26 0.24 0.25 0.07 0.18 0.35 0.36 0.15 0.07 0.03 0.02 0.01 0.00 0.00 0.01 0.01 0.03 0.03 0.02 0.02 0.03 0.07 0.28 0.35 0.33 0.31 0.44 0.41 0.43 0.47 0.59 0.50 0.75 1.15 0.97 0.72
0.00 0.00 0.00 0.00 0.00 0.00 0.00 0.00 0.01 0.06 0.23 0.30 0.11 0.08 0.23 0.30 0.23 0.35 0.49 0.47 0.24 0.12 0.07 0.04 0.10 0.02 0.00 0.00 0.02 0.02 0.02 0.01 0.00 0.01 0.05 0.12 0.12 0.25 0.24 0.44 0.33 0.19 0.18 0.45 0.60 0.71 0.93 0.83 0.98
0.00 0.00 0.00 0.00 0.00 0.00 0.00 0.01 0.16 0.18 0.11 0.03 0.11 0.14 0.25 0.36 0.50 0.51 0.53 0.65 0.38 0.25 0.26 0.23 0.45 0.18 0.03 0.03 0.03 0.03 0.01 0.00 0.00 0.00 0.01 0.07 0.08 0.13 0.18 0.39 0.46 0.51 0.44 0.77 1.15 1.76 1.28 0.72 1.05
0.00 0.00 0.00 0.00 0.00 0.01 0.01 0.02 0.11 0.09 0.07 0.07 0.04 0.14 0.19 0.26 0.21 0.43 0.81 0.79 0.77 0.89 0.93 0.71 0.63 0.54 0.24 0.16 0.10 0.03 0.00 0.00 0.00 0.00 0.00 0.00 0.01 0.03 0.05 0.07 0.19 0.52 1.17 1.32 1.12 1.24 1.41 0.98 0.29
0.00 0.00 0.00 0.00 0.00 0.03 0.05 0.15 0.33 0.27 0.11 0.04 0.07 0.17 0.19 0.21 0.20 0.41 0.73 0.86 1.14 1.59 1.24 1.05 0.93 0.95 0.70 0.42 0.13 0.00 0.00 0.00 0.00 0.00 0.00 0.00 0.00 0.00 0.00 0.01 0.04 0.07 0.10 0.15 0.16 0.14 0.11 0.16 0.09
0.00 0.00 0.00 0.00 0.01 0.00 0.03 0.18 0.34 0.17 0.06 0.03 0.03 0.12 0.28 0.25 0.34 0.72 1.04 0.96 1.09 1.38 1.36 1.32 0.99 0.91 0.59 0.18 0.00 0.00 0.00 0.00 0.00 0.00 0.00 0.01 0.01 0.00 0.00 0.00 0.00 0.00 0.03 0.06 0.09 0.08 0.02 0.01 0.01
0.00 0.00 0.00 0.00 0.01 0.02 0.06 0.29 0.38 0.13 0.11 0.04 0.09 0.14 0.13 0.17 0.27 0.34 1.00 0.97 1.09 1.37 0.92 0.97 1.08 0.87 0.41 0.07 0.00 0.00 0.00 0.00 0.00 0.00 0.00 0.00 0.00 0.00 0.00 0.01 0.01 0.01 0.03 0.05 0.07 0.08 0.03 0.02 0.00
0.00 0.00 0.00 0.01 0.02 0.05 0.17 0.40 0.32 0.13 0.07 0.07 0.09 0.26 0.27 0.13 0.08 0.52 0.58 0.75 0.90 2.08 2.63 1.61 1.00 0.67 0.23 0.04 0.00 0.00 0.00 0.00 0.00 0.00 0.00 0.00 0.02 0.00 0.00 0.02 0.03 0.04 0.03 0.04 0.06 0.09 0.05 0.01 0.00
0.00 0.00 0.00 0.00 0.05 0.22 0.30 0.46 0.19 0.16 0.38 0.27 0.62 0.31 0.39 0.21 0.14 0.36 0.74 0.68 1.37 1.61 1.62 1.40 0.92 0.38 0.15 0.01 0.00 0.02 0.02 0.00 0.00 0.01 0.00 0.00 0.02 0.01 0.00 0.01 0.04 0.07 0.06 0.06 0.13 0.15 0.08 0.04 0.04
0.00 0.00 0.00 0.01 0.04 0.10 0.07 0.06 0.02 0.02 0.01 0.03 0.40 0.33 0.25 0.31 0.38 0.47 0.73 0.65 0.94 1.02 0.85 0.68 0.40 0.28 0.10 0.00 0.00 0.02 0.01 0.00 0.00 0.00 0.02 0.02 0.01 0.04 0.05 0.11 0.16 0.12 0.12 0.18 0.18 0.37 0.41 0.34 0.20
0.00 0.00 0.00 0.00 0.03 0.04 0.00 0.03 0.01 0.00 0.02 0.07 0.09 0.20 0.28 0.20 0.26 0.46 0.66 0.69 0.32 0.43 0.48 0.39 0.25 0.09 0.04 0.00 0.00 0.00 0.00 0.00 0.01 0.04 0.05 0.10 0.16 0.21 0.13 0.08 0.10 0.08 0.09 0.10 0.19 0.39 0.33 0.26 0.31
0.00 0.00 0.00 0.03 0.01 0.00 0.00 0.00 0.07 0.03 0.02 0.27 0.13 0.32 0.46 0.39 0.34 0.44 0.89 0.32 0.21 0.18 0.14 0.13 0.04 0.03 0.01 0.00 0.00 0.01 0.02 0.05 0.10 0.13 0.17 0.25 0.40 0.44 0.30 0.20 0.03 0.01 0.01 0.04 0.04 0.07 0.12 0.14 0.13
0.00 0.00 0.00 0.00 0.00 0.00 0.01 0.00 0.01 0.02 0.22 0.64 0.46 0.48 0.56 0.41 0.47 0.90 0.36 0.05 0.04 0.02 0.02 0.01 0.01 0.02 0.00 0.00 0.02 0.03 0.05 0.06 0.09 0.12 0.15 0.15 0.20 0.21 0.12 0.08 0.06 0.04 0.02 0.01 0.03 0.03 0.04 0.05 0.06
0.00 0.00 0.00 0.00 0.00 0.00 0.01 0.01 0.01 0.02 0.02 0.14 0.30 0.24 0.24 0.08 0.03 0.06 0.02 0.00 0.00 0.00 0.00 0.00 0.01 0.01 0.06 0.02 0.00 0.00 0.00 0.01 0.04 0.09 0.08 0.10 0.15 0.12 0.08 0.04 0.02 0.01 0.00 0.00 0.00 0.00 0.02 0.04 0.07
0.00 0.00 0.00 0.00 0.00 0.00 0.00 0.02 0.02 0.03 0.04 0.08 0.10 0.07 0.02 0.01 0.00 0.00 0.00 0.00 0.00 0.00 0.00 0.04 0.21 0.36 0.32 0.22 0.03 0.02 0.02 0.06 0.15 0.12 0.08 0.11 0.11 0.07 0.02 0.00 0.01 0.00 0.00 0.00 0.00 0.00 0.00 0.01 0.04
0.00 0.00 0.00 0.00 0.00 0.00 0.00 0.00 0.01 0.01 0.03 0.05 0.04 0.00 0.00 0.00 0.00 0.00 0.00 0.00 0.00 0.00 0.01 0.21 0.53 0.79 0.89 0.65 0.56 0.69 0.65 0.42 0.23 0.08 0.02 0.02 0.01 0.00 0.00 0.00 0.00 0.00 0.00 0.00 0.00 0.00 0.00 0.00 0.00
0.00 0.00 0.00 0.00 0.00 0.00 0.00 0.00 0.02 0.01 0.01 0.01 0.01 0.00 0.00 0.00 0.00 0.00 0.00 0.00 0.00 0.01 0.06 0.42 0.77 0.96 1.09 1.66 1.49 0.87 0.30 0.11 0.05 0.01 0.00 0.00 0.00 0.00 0.00 0.00 0.00 0.00 0.00 0.00 0.00 0.00 0.00 0.00 0.00
0.00 0.00 0.00 0.00 0.00 0.00 0.00 0.00 0.02 0.03 0.03 0.13 0.01 0.00 0.00 0.00 0.00 0.00 0.00 0.02 0.04 0.08 0.27 0.70 0.92 1.06 0.90 0.63 0.23 0.05 0.03 0.02 0.01 0.00 0.00 0.00 0.00 0.00 0.00 0.00 0.00 0.00 0.00 0.00 0.00 0.00 0.00 0.00 0.00
0.00 0.00 0.00 0.00 0.00 0.00 0.00 0.00 0.01 0.02 0.02 0.05 0.02 0.01 0.00 0.00 0.00 0.01 0.03 0.09 0.13 0.26 0.36 0.39 0.22 0.16 0.04 0.01 0.00 0.01 0.01 0.00 0.00 0.00 0.00 0.00 0.00 0.00 0.00 0.00 0.00 0.00 0.00 0.00 0.00 0.00 0.00 0.00 0.00
0.00 0.00 0.00 0.00 0.00 0.00 0.00 0.00 0.00 0.01 0.02 0.02 0.01 0.00 0.00 0.00 0.00 0.02 0.08 0.12 0.14 0.14 0.17 0.06 0.04 0.04 0.02 0.02 0.06 0.09 0.04 0.01 0.00 0.00 0.00 0.00 0.00 0.00 0.00 0.00 0.00 0.00 0.00 0.00 0.00 0.00 0.00 0.00 0.00
0.00 0.00 0.00 0.00 0.00 0.00 0.00 0.01 0.02 0.00 0.00 0.01 0.01 0.00 0.01 0.01 0.01 0.01 0.01 0.01 0.02 0.01 0.03 0.02 0.06 0.09 0.09 0.10 0.19 0.16 0.07 0.01 0.00 0.00 0.00 0.00 0.00 0.00 0.00 0.00 0.00 0.00 0.00 0.00 0.00 0.00 0.00 0.00 0.00
0.03 0.00 0.00 0.00 0.00 0.01 0.01 0.00 0.01 0.00 0.00 0.00 0.00 0.01 0.00 0.01 0.01 0.00 0.01 0.02 0.01 0.04 0.04 0.09 0.13 0.14 0.09 0.13 0.20 0.12 0.07 0.02 0.00 0.00 0.00 0.00 0.00 0.00 0.00 0.00 0.00 0.00 0.00 0.00 0.00 0.00 0.00 0.00 0.00
0.00 0.00 0.00 0.00 0.00 0.00 0.01 0.00 0.00 0.00 0.01 0.01 0.00 0.00 0.00 0.01 0.01 0.01 0.02 0.01 0.02 0.11 0.17 0.15 0.13 0.12 0.08 0.13 0.17 0.13 0.05 0.01 0.00 0.00 0.00 0.00 0.00 0.00 0.00 0.00 0.00 0.00 0.00 0.00 0.00 0.00 0.00 0.00 0.01
0.00 0.00 0.00 0.06 0.03 0.02 0.04 0.05 0.02 0.01 0.01 0.05 0.00 0.00 0.00 0.01 0.00 0.00 0.02 0.06 0.07 0.18 0.21 0.14 0.11 0.10 0.10 0.12 0.10 0.08 0.02 0.00 0.00 0.00 0.00 0.00 0.00 0.00 0.00 0.01 0.01 0.00 0.00 0.00 0.01 0.02 0.03 0.06 0.11
0.00 0.00 0.00 0.02 0.02 0.02 0.02 0.01 0.00 0.00 0.00 0.00 0.00 0.00 0.00 0.00 0.00 0.00 0.02 0.05 0.08 0.27 0.20 0.08 0.02 0.01 0.02 0.06 0.08 0.04 0.03 0.04 0.00 0.00 0.00 0.00 0.01 0.02 0.03 0.03 0.02 0.01 0.01 0.02 0.08 0.14 0.22 0.36 0.50
0.02 0.04 0.01 0.00 0.00 0.00 0.00 0.00 0.00 0.00 0.00 0.00 0.00 0.00 0.00 0.00 0.00 0.00 0.01 0.03 0.05 0.16 0.07 0.00 0.00 0.00 0.00 0.02 0.03 0.03 0.03 0.01 0.00 0.00 0.01 0.03 0.03 0.02 0.02 0.05 0.03 0.04 0.10 0.16 0.20 0.25 0.33 0.39 0.35
0.00 0.02 0.02 0.01 0.00 0.01 0.00 0.00 0.00 0.00 0.00 0.00 0.00 0.00 0.00 0.00 0.00 0.00 0.00 0.01 0.01 0.05 0.01 0.00 0.00 0.00 0.00 0.00 0.01 0.01 0.00 0.00 0.00 0.01 0.02 0.02 0.02 0.05 0.08 0.06 0.12 0.18 0.17 0.13 0.14 0.15 0.15 0.16 0.16
0.00 0.00 0.00 0.00 0.00 0.04 0.07 0.01 0.00 0.00 0.01 0.00 0.00 0.00 0.00 0.00 0.00 0.00 0.00 0.00 0.00 0.02 0.03 0.00 0.00 0.00 0.00 0.00 0.00 0.00 0.00 0.00 0.01 0.02 0.03 0.04 0.05 0.05 0.06 0.09 0.08 0.07 0.09 0.09 0.10 0.09 0.07 0.06 0.04
0.00 0.00 0.01 0.01 0.02 0.01 0.03 0.01 0.00 0.00 0.00 0.00 0.00 0.00 0.00 0.00 0.00 0.00 0.00 0.00 0.00 0.04 0.05 0.00 0.00 0.00 0.00 0.00 0.00 0.00 0.00 0.02 0.06 0.07 0.05 0.03 0.02 0.01 0.02 0.04 0.09 0.11 0.09 0.07 0.05 0.03 0.01 0.00 0.00

GFSSGP_prec_precacc_069.txt.gz
Total_Precipitation_Accumulation
0.00 0.00 0.00 0.00 0.00 0.00 0.00 0.00 0.00 0.03 0.05 0.11 0.08 0.12 0.07 0.08 0.18 0.63 0.32 0.24 0.17 0.17 0.05 0.01 0.01 0.00 0.02 0.06 0.08 0.06 0.04 0.02 0.05 0.08 0.16 0.27 0.33 0.50 0.51 0.37 0.33 0.54 0.69 0.54 0.40 0.37 0.49 0.45 0.27
0.00 0.00 0.00 0.00 0.00 0.00 0.00 0.00 0.02 0.10 0.37 0.43 0.29 0.27 0.25 0.25 0.07 0.19 0.36 0.39 0.16 0.09 0.05 0.03 0.01 0.00 0.00 0.01 0.01 0.03 0.03 0.02 0.02 0.03 0.07 0.28 0.35 0.33 0.31 0.44 0.41 0.43 0.47 0.59 0.50 0.75 1.15 0.97 0.72
0.00 0.00 0.00 0.00 0.00 0.00 0.00 0.00 0.01 0.06 0.26 0.36 0.12 0.09 0.24 0.30 0.25 0.37 0.53 0.50 0.27 0.14 0.08 0.05 0.14 0.04 0.00 0.01 0.03 0.02 0.02 0.01 0.00 0.01 0.05 0.12 0.12 0.25 0.24 0.44 0.33 0.19 0.18 0.45 0.60 0.71 0.93 0.83 0.98
0.00 0.00 0.00 0.00 0.00 0.00 0.00 0.01 0.16 0.18 0.12 0.06 0.14 0.16 0.25 0.36 0.51 0.53 0.53 0.69 0.40 0.27 0.28 0.29 0.51 0.28 0.04 0.03 0.03 0.03 0.01 0.00 0.00 0.00 0.01 0.07 0.08 0.13 0.18 0.39 0.46 0.51 0.44 0.77 1.15 1.76 1.28 0.72 1.05
0.00 0.00 0.00 0.00 0.00 0.01 0.01 0.02 0.12 0.11 0.12 0.13 0.07 0.15 0.20 0.27 0.23 0.47 0.82 0.82 0.79 0.92 0.97 0.74 0.74 0.68 0.25 0.17 0.11 0.03 0.00 0.00 0.00 0.00 0.00 0.00 0.01 0.03 0.05 0.07 0.19 0.52 1.17 1.32 1.12 1.24 1.41 0.98 0.29
0.00 0.00 0.00 0.00 0.00 0.03 0.05 0.15 0.34 0.31 0.17 0.06 0.07 0.19 0.22 0.23 0.22 0.45 0.75 0.89 1.21 1.80 1.50 1.24 1.09 1.25 0.88 0.53 0.15 0.00 0.00 0.00 0.00 0.00 0.00 0.00 0.00 0.00 0.00 0.01 0.04 0.07 0.10 0.15 0.16 0.14 0.11 0.16 0.09
0.00 0.00 0.00 0.00 0.01 0.00 0.03 0.18 0.34 0.18 0.07 0.03 0.04 0.14 0.30 0.29 0.35 0.74 1.04 0.99 1.16 1.69 1.80 1.59 1.14 1.01 0.63 0.26 0.02 0.00 0.00 0.00 0.00 0.00 0.00 0.01 0.01 0.00 0.00 0.00 0.00 0.00 0.03 0.06 0.09 0.08 0.02 0.01 0.01
0.00 0.00 0.00 0.00 0.01 0.02 0.06 0.29 0.38 0.13 0.11 0.04 0.09 0.14 0.13 0.20 0.28 0.38 1.04 1.01 1.16 1.68 1.16 1.17 1.29 1.06 0.54 0.21 0.08 0.00 0.00 0.00 0.00 0.00 0.00 0.00 0.00 0.00 0.00 0.01 0.01 0.01 0.03 0.05 0.07 0.08 0.03 0.02 0.00
0.00 0.00 0.00 0.01 0.02 0.05 0.17 0.40 0.32 0.13 0.07 0.07 0.09 0.26 0.27 0.13 0.08 0.52 0.60 0.80 0.97 2.24 3.03 2.44 1.93 1.50 0.59 0.16 0.08 0.00 0.00 0.00 0.00 0.00 0.00 0.00 0.02 0.00 0.00 0.02 0.03 0.04 0.03 0.04 0.06 0.09 0.05 0.01 0.00
0.00 0.00 0.00 0.00 0.05 0.22 0.30 0.46 0.19 0.16 0.38 0.27 0.62 0.32 0.41 0.24 0.15 0.37 0.74 0.69 1.39 1.63 1.71 1.80 1.32 0.68 0.50 0.11 0.01 0.02 0.02 0.00 0.00 0.01 0.00 0.00 0.02 0.01 0.00 0.01 0.04 0.07 0.06 0.06 0.13 0.15 0.08 0.04 0.04
0.00 0.00 0.00 0.01 0.04 0.10 0.07 0.06 0.02 0.02 0.01 0.03 0.40 0.34 0.28 0.38 0.45 0.52 0.81 0.69 1.05 1.12 1.10 1.04 0.54 0.41 0.25 0.04 0.00 0.02 0.01 0.00 0.00 0.00 0.02 0.02 0.01 0.04 0.05 0.11 0.16 0.12 0.12 0.18 0.18 0.37 0.41 0.34 0.20
0.00 0.00 0.00 0.00 0.03 0.04 0.00 0.03 0.01 0.00 0.02 0.07 0.09 0.20 0.30 0.27 0.33 0.54 0.76 0.91 0.56 0.75 0.76 0.71 0.41 0.24 0.19 0.01 0.00 0.00 0.00 0.00 0.01 0.04 0.05 0.10 0.16 0.21 0.13 0.08 0.10 0.08 0.09 0.10 0.19 0.39 0.33 0.26 0.31
0.00 0.00 0.00 0.03 0.01 0.00 0.00 0.00 0.07 0.03 0.02 0.27 0.14 0.35 0.53 0.47 0.42 0.51 0.93 0.46 0.68 0.45 0.26 0.25 0.12 0.11 0.04 0.00 0.00 0.01 0.02 0.05 0.10 0.13 0.17 0.25 0.40 0.44 0.30 0.20 0.04 0.02 0.01 0.04 0.04 0.07 0.12 0.14 0.13
0.00 0.00 0.00 0.00 0.00 0.00 0.01 0.00 0.01 0.02 0.22 0.65 0.51 0.56 0.63 0.46 0.52 0.93 0.38 0.08 0.09 0.09 0.04 0.03 0.04 0.03 0.01 0.00 0.02 0.03 0.05 0.06 0.09 0.12 0.16 0.16 0.22 0.23 0.14 0.09 0.06 0.04 0.02 0.01 0.03 0.03 0.04 0.05 0.06
0.00 0.00 0.00 0.00 0.00 0.00 0.02 0.01 0.01 0.02 0.02 0.14 0.37 0.27 0.27 0.13 0.09 0.13 0.04 0.01 0.01 0.00 0.00 0.00 0.01 0.02 0.07 0.02 0.00 0.00 0.00 0.01 0.05 0.11 0.11 0.15 0.19 0.16 0.09 0.04 0.02 0.01 0.00 0.00 0.00 0.00 0.02 0.04 0.07
0.00 0.00 0.00 0.00 0.00 0.00 0.00 0.02 0.02 0.03 0.04 0.08 0.10 0.07 0.02 0.04 0.03 0.03 0.00 0.00 0.00 0.00 0.00 0.04 0.22 0.36 0.32 0.22 0.03 0.02 0.02 0.09 0.20 0.16 0.12 0.13 0.12 0.08 0.02 0.00 0.01 0.00 0.00 0.00 0.00 0.00 0.00 0.01 0.04
0.00 0.00 0.00 0.00 0.00 0.00 0.00 0.00 0.01 0.01 0.03 0.05 0.04 0.00 0.00 0.00 0.00 0.00 0.00 0.00 0.00 0.00 0.01 0.21 0.53 0.79 0.89 0.65 0.56 0.69 0.65 0.47 0.30 0.15 0.04 0.02 0.01 0.00 0.00 0.00 0.00 0.00 0.00 0.00 0.00 0.00 0.00 0.00 0.00
0.00 0.00 0.00 0.00 0.00 0.00 0.00 0.00 0.02 0.01 0.01 0.01 0.01 0.00 0.00 0.00 0.00 0.00 0.00 0.00 0.00 0.01 0.06 0.42 0.77 0.96 1.09 1.66 1.49 0.87 0.31 0.16 0.12 0.08 0.04 0.00 0.00 0.00 0.00 0.00 0.00 0.00 0.00 0.00 0.00 0.00 0.00 0.00 0.00
0.00 0.00 0.00 0.00 0.00 0.00 0.00 0.00 0.02 0.03 0.03 0.13 0.01 0.00 0.00 0.00 0.00 0.00 0.00 0.02 0.04 0.08 0.27 0.70 0.92 1.07 0.90 0.63 0.23 0.05 0.05 0.07 0.09 0.03 0.01 0.00 0.00 0.00 0.00 0.00 0.00 0.00 0.00 0.00 0.00 0.00 0.00 0.00 0.00
0.00 0.00 0.00 0.00 0.00 0.00 0.00 0.00 0.01 0.02 0.02 0.05 0.02 0.01 0.00 0.00 0.00 0.01 0.03 0.09 0.13 0.26 0.36 0.39 0.22 0.16 0.04 0.01 0.00 0.01 0.02 0.03 0.03 0.01 0.00 0.00 0.00 0.00 0.00 0.00 0.00 0.00 0.00 0.00 0.00 0.00 0.00 0.00 0.00
0.00 0.00 0.00 0.00 0.00 0.00 0.00 0.00 0.00 0.01 0.02 0.02 0.01 0.00 0.00 0.00 0.00 0.02 0.08 0.12 0.14 0.14 0.17 0.06 0.04 0.04 0.02 0.02 0.06 0.09 0.09 0.06 0.02 0.01 0.00 0.00 0.00 0.00 0.00 0.00 0.00 0.00 0.00 0.00 0.00 0.00 0.00 0.00 0.00
0.00 0.00 0.00 0.00 0.00 0.00 0.00 0.01 0.02 0.00 0.00 0.01 0.01 0.00 0.01 0.01 0.01 0.01 0.01 0.01 0.02 0.01 0.03 0.02 0.06 0.09 0.09 0.11 0.20 0.18 0.13 0.11 0.05 0.00 0.00 0.00 0.00 0.00 0.00 0.00 0.00 0.00 0.00 0.00 0.00 0.00 0.00 0.00 0.00
0.03 0.00 0.00 0.00 0.00 0.01 0.01 0.00 0.01 0.00 0.00 0.00 0.00 0.01 0.00 0.01 0.01 0.00 0.01 0.02 0.01 0.04 0.04 0.09 0.13 0.14 0.10 0.15 0.23 0.17 0.15 0.12 0.05 0.00 0.00 0.00 0.00 0.00 0.00 0.00 0.00 0.00 0.00 0.00 0.00 0.00 0.00 0.00 0.00
0.00 0.00 0.00 0.00 0.00 0.00 0.01 0.00 0.00 0.00 0.01 0.01 0.00 0.00 0.00 0.01 0.01 0.01 0.02 0.02 0.03 0.11 0.17 0.15 0.13 0.14 0.14 0.20 0.23 0.22 0.16 0.09 0.03 0.00 0.00 0.00 0.00 0.00 0.00 0.00 0.00 0.00 0.00 0.00 0.00 0.00 0.00 0.00 0.01
0.00 0.00 0.00 0.06 0.03 0.02 0.04 0.05 0.02 0.01 0.01 0.05 0.00 0.00 0.00 0.01 0.00 0.00 0.02 0.06 0.09 0.20 0.21 0.16 0.13 0.11 0.15 0.17 0.14 0.16 0.12 0.05 0.02 0.00 0.00 0.00 0.00 0.00 0.00 0.01 0.01 0.00 0.01 0.01 0.01 0.02 0.03 0.06 0.11
0.00 0.00 0.00 0.02 0.02 0.02 0.02 0.01 0.00 0.00 0.00 0.00 0.00 0.00 0.00 0.00 0.00 0.00 0.02 0.05 0.10 0.30 0.22 0.10 0.04 0.03 0.04 0.07 0.12 0.10 0.10 0.08 0.01 0.00 0.00 0.00 0.01 0.02 0.03 0.03 0.03 0.05 0.05 0.03 0.08 0.14 0.22 0.36 0.50
0.02 0.04 0.01 0.00 0.00 0.00 0.00 0.00 0.00 0.00 0.00 0.00 0.00 0.00 0.00 0.00 0.00 0.00 0.01 0.03 0.07 0.18 0.12 0.04 0.01 0.00 0.00 0.02 0.06 0.09 0.07 0.03 0.02 0.01 0.01 0.03 0.03 0.02 0.02 0.07 0.10 0.10 0.11 0.16 0.20 0.25 0.33 0.39 0.35
0.00 0.02 0.02 0.01 0.00 0.01 0.00 0.00 0.00 0.00 0.00 0.00 0.00 0.00 0.00 0.00 0.00 0.00 0.00 0.01 0.02 0.07 0.04 0.02 0.02 0.01 0.00 0.01 0.03 0.04 0.04 0.03 0.02 0.03 0.02 0.02 0.02 0.05 0.10 0.14 0.20 0.21 0.17 0.13 0.14 0.15 0.15 0.16 0.16
0.00 0.00 0.00 0.00 0.00 0.04 0.07 0.01 0.00 0.00 0.01 0.00 0.00 0.00 0.00 0.00 0.00 0.00 0.00 0.00 0.00 0.03 0.04 0.02 0.05 0.02 0.00 0.00 0.01 0.02 0.02 0.02 0.05 0.05 0.04 0.05 0.06 0.09 0.15 0.16 0.10 0.07 0.09 0.09 0.10 0.09 0.07 0.06 0.04
0.00 0.00 0.01 0.01 0.02 0.01 0.03 0.01 0.00 0.00 0.00 0.00 0.00 0.00 0.00 0.00 0.00 0.00 0.00 0.00 0.00 0.05 0.06 0.03 0.04 0.01 0.00 0.00 0.01 0.03 0.04 0.05 0.08 0.08 0.06 0.08 0.11 0.09 0.03 0.04 0.09 0.11 0.09 0.07 0.05 0.03 0.01 0.00 0.00

GFSSGP_prec_precacc_075.txt.gz
Total_Precipitation_Accumulation
0.00 0.00 0.00 0.00 0.00 0.00 0.00 0.00 0.00 0.03 0.05 0.11 0.11 0.17 0.12 0.18 0.46 0.87 0.34 0.24 0.19 0.18 0.05 0.01 0.02 0.01 0.02 0.06 0.08 0.06 0.04 0.02 0.05 0.08 0.16 0.27 0.33 0.50 0.51 0.37 0.33 0.54 0.69 0.54 0.40 0.37 0.49 0.45 0.27
0.00 0.00 0.00 0.00 0.00 0.00 0.00 0.00 0.02 0.10 0.37 0.43 0.30 0.29 0.32 0.76 0.73 0.44 0.37 0.40 0.18 0.10 0.05 0.03 0.01 0.01 0.00 0.01 0.01 0.03 0.03 0.02 0.02 0.03 0.07 0.28 0.35 0.33 0.31 0.44 0.41 0.43 0.47 0.59 0.50 0.75 1.15 0.97 0.72
0.00 0.00 0.00 0.00 0.00 0.00 0.00 0.00 0.01 0.06 0.26 0.37 0.14 0.14 0.29 0.45 0.44 0.40 0.55 0.52 0.30 0.15 0.08 0.05 0.15 0.05 0.01 0.01 0.03 0.03 0.03 0.01 0.00 0.01 0.05 0.12 0.12 0.25 0.24 0.44 0.33 0.19 0.18 0.45 0.60 0.71 0.93 0.83 0.98
0.00 0.00 0.00 0.00 0.00 0.00 0.00 0.01 0.16 0.18 0.12 0.06 0.16 0.25 0.30 0.39 0.55 0.55 0.55 0.74 0.45 0.30 0.28 0.29 0.52 0.31 0.04 0.04 0.03 0.03 0.01 0.00 0.00 0.00 0.01 0.07 0.08 0.13 0.18 0.39 0.46 0.51 0.44 0.77 1.15 1.76 1.28 0.72 1.05
0.00 0.00 0.00 0.00 0.00 0.01 0.02 0.03 0.12 0.11 0.13 0.14 0.11 0.31 0.41 0.42 0.30 0.48 0.87 0.92 0.94 0.99 1.00 0.74 0.80 0.78 0.26 0.17 0.11 0.03 0.00 0.00 0.00 0.00 0.00 0.00 0.01 0.03 0.05 0.07 0.19 0.52 1.17 1.32 1.12 1.24 1.41 0.98 0.29
0.00 0.00 0.00 0.00 0.00 0.03 0.07 0.19 0.34 0.31 0.19 0.06 0.12 0.40 0.52 0.63 0.61 0.55 1.01 1.43 2.13 2.34 1.78 1.31 1.36 1.60 1.04 0.63 0.15 0.00 0.00 0.00 0.00 0.00 0.00 0.00 0.00 0.00 0.00 0.01 0.04 0.07 0.10 0.15 0.16 0.14 0.11 0.16 0.09
0.00 0.00 0.00 0.00 0.01 0.00 0.04 0.18 0.35 0.19 0.09 0.06 0.08 0.31 0.42 0.34 0.51 1.02 1.47 1.71 2.27 3.30 2.63 1.89 1.45 1.48 1.04 0.55 0.07 0.00 0.00 0.00 0.00 0.00 0.00 0.01 0.01 0.00 0.00 0.00 0.00 0.00 0.03 0.06 0.09 0.08 0.02 0.01 0.01
0.00 0.00 0.00 0.00 0.01 0.02 0.06 0.29 0.38 0.13 0.11 0.04 0.09 0.16 0.32 0.24 0.31 0.58 1.26 1.39 1.81 3.19 2.93 1.60 1.70 1.54 1.02 0.52 0.21 0.00 0.00 0.00 0.00 0.00 0.00 0.00 0.00 0.00 0.00 0.01 0.01 0.01 0.03 0.05 0.07 0.08 0.03 0.02 0.00
0.00 0.00 0.00 0.01 0.02 0.05 0.17 0.40 0.32 0.13 0.07 0.07 0.09 0.26 0.33 0.14 0.12 0.59 0.64 0.96 1.45 2.95 3.82 3.02 2.41 1.98 1.00 0.47 0.26 0.01 0.00 0.00 0.00 0.00 0.00 0.00 0.02 0.00 0.00 0.02 0.03 0.04 0.03 0.04 0.06 0.09 0.05 0.01 0.00
0.00 0.00 0.00 0.00 0.05 0.22 0.30 0.46 0.19 0.16 0.38 0.27 0.62 0.32 0.44 0.26 0.18 0.46 0.85 0.77 1.51 1.78 2.07 2.52 2.15 1.54 1.10 0.52 0.26 0.07 0.02 0.00 0.00 0.01 0.00 0.00 0.02 0.01 0.00 0.01 0.04 0.07 0.06 0.06 0.13 0.15 0.08 0.04 0.04
0.00 0.00 0.00 0.01 0.04 0.10 0.07 0.06 0.02 0.02 0.01 0.03 0.40 0.36 0.33 0.45 0.52 0.61 0.88 0.80 1.16 1.24 1.27 1.29 0.88 0.83 0.72 0.50 0.32 0.17 0.03 0.00 0.00 0.00 0.02 0.02 0.01 0.04 0.05 0.11 0.16 0.12 0.12 0.18 0.18 0.37 0.41 0.34 0.20
0.00 0.00 0.00 0.00 0.03 0.04 0.00 0.03 0.01 0.00 0.02 0.07 0.09 0.22 0.36 0.47 0.51 0.64 0.87 1.03 0.73 1.06 1.00 0.91 0.61 0.36 0.26 0.05 0.02 0.03 0.02 0.01 0.01 0.04 0.05 0.10 0.16 0.21 0.13 0.08 0.10 0.08 0.09 0.10 0.19 0.39 0.33 0.26 0.31
0.00 0.00 0.00 0.03 0.01 0.00 0.00 0.00 0.07 0.03 0.02 0.27 0.17 0.57 0.61 0.60 0.54 0.63 1.06 0.65 0.85 0.91 1.02 0.82 0.49 0.34 0.16 0.06 0.02 0.01 0.02 0.05 0.10 0.13 0.17 0.25 0.41 0.48 0.34 0.21 0.04 0.02 0.02 0.04 0.04 0.07 0.12 0.14 0.13
0.00 0.00 0.00 0.00 0.00 0.00 0.01 0.00 0.01 0.02 0.22 0.66 0.58 0.86 0.88 0.57 0.59 1.02 0.47 0.20 0.26 0.43 0.42 0.48 0.53 0.33 0.23 0.09 0.07 0.07 0.05 0.06 0.09 0.13 0.17 0.18 0.30 0.31 0.18 0.11 0.07 0.05 0.03 0.01 0.03 0.03 0.04 0.05 0.06
0.00 0.00 0.00 0.00 0.00 0.00 0.02 0.08 0.06 0.02 0.02 0.14 0.41 0.35 0.41 0.28 0.17 0.19 0.08 0.05 0.09 0.13 0.24 0.28 0.34 0.41 0.37 0.15 0.03 0.01 0.00 0.01 0.06 0.15 0.18 0.20 0.30 0.24 0.14 0.05 0.02 0.01 0.00 0.00 0.00 0.00 0.02 0.04 0.07
0.00 0.00 0.01 0.04 0.00 0.00 0.00 0.12 0.07 0.03 0.04 0.08 0.10 0.09 0.18 0.25 0.15 0.22 0.05 0.02 0.01 0.06 0.13 0.18 0.39 0.58 0.52 0.26 0.04 0.02 0.02 0.10 0.24 0.22 0.21 0.19 0.16 0.10 0.03 0.00 0.01 0.00 0.00 0.00 0.00 0.00 0.00 0.01 0.04
0.00 0.00 0.00 0.00 0.00 0.00 0.00 0.01 0.02 0.01 0.03 0.05 0.04 0.01 0.05 0.31 0.40 0.11 0.03 0.02 0.00 0.01 0.03 0.27 0.61 1.00 1.03 0.69 0.57 0.69 0.66 0.52 0.38 0.25 0.16 0.08 0.03 0.01 0.00 0.00 0.00 0.00 0.00 0.00 0.00 0.00 0.00 0.00 0.00
0.00 0.00 0.00 0.00 0.00 0.00 0.00 0.00 0.02 0.01 0.01 0.01 0.01 0.00 0.01 0.01 0.01 0.00 0.00 0.00 0.00 0.01 0.06 0.43 0.81 1.13 1.21 1.71 1.50 0.87 0.33 0.25 0.20 0.16 0.17 0.11 0.02 0.00 0.00 0.00 0.00 0.00 0.00 0.00 0.00 0.00 0.00 0.00 0.00
0.00 0.00 0.00 0.00 0.00 0.00 0.00 0.00 0.02 0.03 0.03 0.13 0.01 0.00 0.00 0.00 0.00 0.00 0.00 0.02 0.04 0.08 0.27 0.70 0.97 1.19 0.95 0.65 0.23 0.05 0.07 0.12 0.17 0.12 0.10 0.05 0.02 0.00 0.00 0.00 0.00 0.00 0.00 0.00 0.00 0.00 0.00 0.00 0.00
0.00 0.00 0.00 0.00 0.00 0.00 0.00 0.00 0.01 0.02 0.02 0.05 0.02 0.01 0.00 0.00 0.00 0.01 0.03 0.09 0.13 0.26 0.36 0.40 0.27 0.25 0.10 0.01 0.00 0.01 0.03 0.07 0.11 0.11 0.04 0.01 0.01 0.00 0.00 0.00 0.00 0.00 0.00 0.00 0.00 0.00 0.00 0.00 0.00
0.00 0.00 0.00 0.00 0.00 0.00 0.00 0.00 0.00 0.01 0.02 0.02 0.01 0.00 0.00 0.00 0.00 0.02 0.08 0.12 0.14 0.14 0.17 0.06 0.05 0.11 0.09 0.05 0.06 0.09 0.14 0.08 0.07 0.09 0.04 0.02 0.01 0.00 0.00 0.00 0.00 0.00 0.00 0.00 0.00 0.00 0.00 0.00 0.00
0.00 0.00 0.00 0.00 0.00 0.01 0.00 0.01 0.02 0.00 0.00 0.01 0.01 0.00 0.01 0.01 0.01 0.01 0.01 0.01 0.02 0.01 0.03 0.02 0.06 0.10 0.13 0.17 0.21 0.18 0.15 0.14 0.09 0.05 0.04 0.03 0.02 0.00 0.00 0.00 0.00 0.00 0.00 0.00 0.00 0.00 0.00 0.00 0.00
0.03 0.00 0.00 0.00 0.00 0.01 0.01 0.00 0.01 0.00 0.00 0.00 0.00 0.01 0.00 0.01 0.01 0.00 0.01 0.02 0.01 0.04 0.04 0.09 0.13 0.14 0.11 0.16 0.26 0.18 0.16 0.16 0.15 0.08 0.07 0.07 0.05 0.01 0.00 0.00 0.00 0.00 0.00 0.00 0.00 0.00 0.00 0.00 0.00
0.00 0.00 0.00 0.00 0.00 0.00 0.01 0.00 0.00 0.00 0.01 0.01 0.00 0.00 0.00 0.01 0.01 0.01 0.02 0.02 0.03 0.11 0.17 0.15 0.13 0.14 0.14 0.20 0.26 0.24 0.18 0.13 0.09 0.08 0.07 0.04 0.01 0.00 0.00 0.00 0.00 0.00 0.00 0.00 0.00 0.00 0.00 0.00 0.01
0.00 0.00 0.01 0.07 0.03 0.02 0.05 0.05 0.02 0.01 0.01 0.05 0.00 0.00 0.00 0.01 0.00 0.00 0.02 0.06 0.09 0.20 0.21 0.16 0.13 0.11 0.15 0.19 0.25 0.20 0.14 0.08 0.07 0.04 0.03 0.03 0.02 0.01 0.00 0.01 0.01 0.00 0.01 0.02 0.03 0.03 0.03 0.06 0.11
0.00 0.00 0.02 0.04 0.02 0.03 0.02 0.01 0.00 0.00 0.00 0.00 0.00 0.00 0.00 0.00 0.00 0.00 0.02 0.05 0.10 0.30 0.22 0.10 0.04 0.03 0.05 0.08 0.15 0.13 0.11 0.09 0.04 0.03 0.02 0.03 0.02 0.02 0.03 0.03 0.03 0.05 0.07 0.06 0.10 0.14 0.22 0.36 0.50
0.02 0.04 0.01 0.00 0.00 0.00 0.00 0.00 0.00 0.00 0.00 0.00 0.00 0.00 0.00 0.00 0.00 0.00 0.01 0.03 0.07 0.19 0.13 0.04 0.01 0.00 0.01 0.02 0.06 0.09 0.07 0.04 0.06 0.06 0.04 0.05 0.05 0.02 0.02 0.07 0.10 0.12 0.16 0.17 0.21 0.26 0.33 0.39 0.35
0.00 0.02 0.02 0.01 0.00 0.01 0.00 0.00 0.00 0.00 0.00 0.00 0.00 0.00 0.00 0.00 0.00 0.00 0.00 0.01 0.02 0.07 0.04 0.02 0.02 0.01 0.00 0.01 0.04 0.04 0.05 0.06 0.06 0.09 0.08 0.07 0.04 0.05 0.10 0.14 0.24 0.30 0.27 0.21 0.20 0.16 0.15 0.16 0.16
0.00 0.00 0.00 0.00 0.00 0.04 0.07 0.01 0.00 0.00 0.01 0.00 0.00 0.00 0.00 0.00 0.00 0.00 0.00 0.00 0.00 0.03 0.04 0.02 0.05 0.02 0.00 0.00 0.02 0.03 0.06 0.06 0.10 0.14 0.15 0.15 0.10 0.10 0.18 0.28 0.27 0.22 0.19 0.15 0.11 0.09 0.07 0.06 0.04
0.00 0.00 0.01 0.01 0.02 0.01 0.03 0.01 0.00 0.00 0.00 0.00 0.00 0.00 0.00 0.00 0.00 0.00 0.00 0.00 0.00 0.05 0.06 0.03 0.05 0.03 0.01 0.01 0.03 0.07 0.11 0.13 0.15 0.15 0.14 0.16 0.20 0.22 0.21 0.19 0.19 0.17 0.11 0.07 0.05 0.03 0.01 0.00 0.00

GFSSGP_prec_precacc_078.txt.gz
Total_Precipitation_Accumulation
0.00 0.00 0.00 0.00 0.00 0.00 0.00 0.00 0.00 0.03 0.05 0.11 0.11 0.17 0.12 0.21 0.58 1.07 0.82 1.12 0.68 0.20 0.05 0.02 0.02 0.01 0.02 0.07 0.08 0.06 0.04 0.02 0.05 0.08 0.16 0.27 0.33 0.50 0.51 0.37 0.33 0.54 0.69 0.54 0.40 0.37 0.49 0.45 0.27
0.00 0.00 0.00 0.00 0.00 0.00 0.00 0.00 0.02 0.10 0.37 0.43 0.30 0.29 0.32 0.81 0.88 1.44 1.32 2.14 1.23 0.18 0.05 0.03 0.02 0.01 0.01 0.01 0.02 0.03 0.03 0.02 0.02 0.03 0.07 0.28 0.35 0.33 0.31 0.44 0.41 0.44 0.47 0.59 0.50 0.75 1.15 0.97 0.72
0.00 0.00 0.00 0.00 0.00 0.00 0.00 0.00 0.01 0.06 0.26 0.37 0.14 0.14 0.29 0.58 1.03 0.79 0.96 1.30 0.91 0.26 0.08 0.06 0.15 0.05 0.02 0.01 0.03 0.03 0.03 0.01 0.00 0.01 0.05 0.12 0.12 0.25 0.24 0.44 0.33 0.19 0.19 0.45 0.60 0.71 0.93 0.83 0.98
0.00 0.00 0.00 0.00 0.00 0.00 0.00 0.01 0.16 0.18 0.12 0.07 0.18 0.26 0.31 0.41 0.69 0.77 0.59 0.83 0.73 0.35 0.30 0.31 0.56 0.34 0.10 0.10 0.06 0.04 0.01 0.00 0.00 0.00 0.01 0.07 0.08 0.13 0.18 0.39 0.46 0.51 0.44 0.77 1.16 1.76 1.28 0.72 1.05
0.00 0.00 0.00 0.00 0.00 0.01 0.02 0.03 0.12 0.12 0.42 0.43 0.15 0.35 0.42 0.43 0.31 0.50 0.87 0.97 1.42 1.09 1.09 0.78 0.86 0.81 0.30 0.23 0.12 0.03 0.00 0.00 0.00 0.00 0.00 0.00 0.01 0.03 0.05 0.07 0.19 0.52 1.17 1.33 1.12 1.24 1.41 0.98 0.29
0.00 0.00 0.00 0.00 0.00 0.03 0.07 0.19 0.34 0.31 0.72 0.48 0.41 0.62 0.56 0.63 0.61 0.55 1.03 1.66 2.60 2.54 1.87 1.31 1.38 1.62 1.08 0.67 0.15 0.00 0.00 0.00 0.00 0.00 0.00 0.00 0.00 0.00 0.00 0.01 0.04 0.07 0.10 0.15 0.16 0.14 0.11 0.16 0.09
0.00 0.00 0.00 0.00 0.01 0.01 0.04 0.19 0.36 0.21 0.59 1.14 0.43 0.60 0.44 0.34 0.51 1.04 1.51 1.99 3.14 4.48 3.56 1.99 1.67 1.67 1.15 0.59 0.08 0.00 0.00 0.00 0.00 0.00 0.00 0.01 0.01 0.00 0.00 0.00 0.00 0.00 0.03 0.06 0.09 0.08 0.02 0.01 0.01
0.00 0.00 0.00 0.00 0.01 0.02 0.06 0.29 0.38 0.14 0.18 0.18 0.21 0.50 0.73 0.25 0.32 0.71 1.54 1.77 3.30 5.28 6.30 3.05 2.14 1.82 1.16 0.55 0.26 0.00 0.00 0.00 0.00 0.00 0.00 0.00 0.00 0.00 0.00 0.01 0.01 0.01 0.03 0.05 0.07 0.08 0.03 0.02 0.00
0.00 0.00 0.00 0.01 0.02 0.05 0.17 0.40 0.32 0.13 0.07 0.09 0.14 0.31 0.39 0.14 0.13 0.65 1.01 1.41 1.96 3.39 4.38 3.59 2.97 2.17 1.04 0.47 0.30 0.01 0.00 0.00 0.00 0.00 0.00 0.00 0.02 0.00 0.00 0.02 0.03 0.04 0.03 0.04 0.06 0.09 0.05 0.01 0.00
0.00 0.00 0.00 0.00 0.05 0.22 0.30 0.46 0.19 0.16 0.38 0.34 0.89 0.45 0.47 0.26 0.19 0.50 0.89 0.91 1.62 1.92 2.22 2.69 2.40 1.75 1.19 0.55 0.28 0.07 0.02 0.00 0.00 0.01 0.00 0.00 0.02 0.01 0.00 0.01 0.04 0.07 0.06 0.06 0.13 0.15 0.08 0.04 0.04
0.00 0.00 0.00 0.01 0.04 0.10 0.07 0.07 0.02 0.02 0.02 0.26 0.46 0.38 0.37 0.47 0.55 0.65 0.92 0.85 1.20 1.28 1.33 1.36 1.01 0.92 0.84 0.60 0.41 0.20 0.05 0.01 0.00 0.00 0.02 0.02 0.01 0.04 0.05 0.11 0.16 0.12 0.12 0.18 0.18 0.37 0.41 0.34 0.20
0.00 0.00 0.00 0.00 0.03 0.04 0.00 0.05 0.01 0.00 0.02 0.07 0.09 0.22 0.39 0.53 0.54 0.69 0.93 1.09 0.83 1.18 1.10 1.02 0.73 0.49 0.33 0.15 0.14 0.07 0.03 0.02 0.01 0.04 0.06 0.10 0.16 0.21 0.13 0.08 0.10 0.08 0.09 0.10 0.19 0.39 0.33 0.26 0.31
0.00 0.00 0.00 0.03 0.01 0.00 0.00 0.00 0.07 0.05 0.04 0.27 0.17 0.60 0.68 0.62 0.55 0.68 1.13 0.75 0.99 1.02 1.12 0.97 0.64 0.45 0.21 0.08 0.03 0.02 0.03 0.05 0.10 0.14 0.17 0.25 0.41 0.48 0.34 0.21 0.04 0.02 0.02 0.04 0.04 0.07 0.12 0.14 0.13
0.00 0.00 0.00 0.00 0.00 0.00 0.01 0.00 0.01 0.17 0.29 0.66 0.58 0.86 0.94 0.59 0.60 1.05 0.56 0.29 0.33 0.54 0.54 0.54 0.66 0.47 0.31 0.12 0.09 0.08 0.07 0.09 0.11 0.16 0.20 0.23 0.33 0.34 0.21 0.12 0.07 0.05 0.03 0.01 0.03 0.03 0.04 0.05 0.06
0.00 0.00 0.00 0.00 0.00 0.00 0.02 0.08 0.16 0.07 0.05 0.16 0.41 0.35 0.41 0.29 0.18 0.22 0.15 0.10 0.15 0.19 0.37 0.40 0.43 0.54 0.51 0.28 0.08 0.03 0.04 0.05 0.08 0.18 0.25 0.31 0.34 0.28 0.15 0.05 0.02 0.01 0.00 0.00 0.00 0.00 0.02 0.04 0.07
0.00 0.00 0.01 0.09 0.00 0.00 0.00 0.13 0.28 0.06 0.06 0.08 0.10 0.09 0.19 0.27 0.16 0.23 0.06 0.05 0.03 0.08 0.16 0.22 0.48 0.72 0.64 0.39 0.14 0.07 0.04 0.11 0.28 0.26 0.29 0.31 0.24 0.11 0.03 0.00 0.01 0.00 0.00 0.00 0.00 0.00 0.00 0.01 0.04
0.00 0.00 0.00 0.00 0.00 0.00 0.00 0.01 0.07 0.03 0.04 0.05 0.04 0.01 0.05 0.35 0.50 0.15 0.04 0.03 0.02 0.01 0.04 0.31 0.68 1.07 1.06 0.73 0.58 0.70 0.68 0.54 0.43 0.33 0.31 0.19 0.08 0.01 0.04 0.01 0.00 0.00 0.00 0.00 0.00 0.00 0.00 0.00 0.00
0.00 0.00 0.00 0.00 0.00 0.00 0.00 0.00 0.03 0.03 0.01 0.01 0.01 0.00 0.01 0.01 0.06 0.02 0.01 0.01 0.01 0.02 0.06 0.43 0.82 1.14 1.22 1.74 1.51 0.88 0.35 0.27 0.26 0.22 0.31 0.23 0.06 0.01 0.08 0.02 0.00 0.00 0.00 0.00 0.00 0.00 0.00 0.00 0.00
0.00 0.00 0.00 0.00 0.00 0.00 0.00 0.00 0.02 0.03 0.03 0.13 0.01 0.00 0.00 0.00 0.00 0.00 0.00 0.02 0.04 0.08 0.27 0.70 0.98 1.22 0.98 0.68 0.23 0.05 0.07 0.14 0.23 0.20 0.20 0.12 0.09 0.00 0.02 0.01 0.00 0.00 0.00 0.00 0.00 0.00 0.00 0.00 0.00
0.00 0.00 0.00 0.00 0.00 0.00 0.00 0.00 0.01 0.02 0.02 0.05 0.02 0.01 0.00 0.00 0.00 0.01 0.03 0.09 0.13 0.26 0.36 0.40 0.28 0.29 0.13 0.05 0.00 0.01 0.03 0.09 0.16 0.23 0.10 0.06 0.09 0.07 0.01 0.01 0.00 0.00 0.00 0.00 0.00 0.00 0.00 0.00 0.00
0.00 0.00 0.00 0.00 0.00 0.00 0.00 0.00 0.00 0.01 0.02 0.02 0.01 0.00 0.00 0.00 0.00 0.02 0.08 0.12 0.14 0.14 0.17 0.06 0.05 0.15 0.11 0.05 0.06 0.09 0.15 0.13 0.12 0.25 0.14 0.02 0.04 0.05 0.02 0.00 0.00 0.00 0.00 0.00 0.00 0.00 0.00 0.00 0.00
0.00 0.00 0.00 0.00 0.00 0.01 0.00 0.01 0.02 0.00 0.00 0.01 0.01 0.00 0.01 0.01 0.01 0.01 0.01 0.01 0.02 0.01 0.03 0.02 0.06 0.11 0.15 0.19 0.22 0.18 0.16 0.14 0.09 0.09 0.05 0.04 0.03 0.02 0.01 0.01 0.00 0.00 0.00 0.00 0.00 0.00 0.00 0.00 0.00
0.03 0.00 0.00 0.00 0.00 0.01 0.01 0.00 0.01 0.00 0.00 0.00 0.00 0.01 0.00 0.01 0.01 0.00 0.01 0.02 0.01 0.04 0.04 0.09 0.13 0.14 0.11 0.17 0.31 0.19 0.17 0.18 0.18 0.09 0.09 0.08 0.07 0.05 0.06 0.01 0.00 0.00 0.00 0.00 0.00 0.00 0.00 0.00 0.00
0.00 0.00 0.00 0.00 0.00 0.00 0.01 0.00 0.01 0.01 0.01 0.01 0.00 0.00 0.00 0.01 0.01 0.01 0.02 0.02 0.03 0.11 0.17 0.15 0.13 0.14 0.14 0.21 0.26 0.26 0.18 0.14 0.10 0.08 0.09 0.07 0.04 0.03 0.00 0.00 0.00 0.00 0.00 0.00 0.00 0.00 0.00 0.00 0.01
0.00 0.00 0.01 0.11 0.04 0.02 0.05 0.05 0.02 0.01 0.01 0.05 0.00 0.00 0.00 0.01 0.01 0.01 0.02 0.06 0.09 0.20 0.21 0.16 0.13 0.11 0.15 0.19 0.26 0.20 0.14 0.09 0.08 0.04 0.04 0.04 0.03 0.02 0.01 0.01 0.01 0.00 0.01 0.02 0.03 0.03 0.03 0.06 0.11
0.00 0.00 0.02 0.07 0.06 0.05 0.04 0.01 0.00 0.00 0.00 0.00 0.00 0.00 0.00 0.00 0.00 0.00 0.03 0.06 0.10 0.30 0.22 0.10 0.04 0.03 0.05 0.08 0.15 0.13 0.11 0.10 0.08 0.06 0.04 0.03 0.02 0.03 0.04 0.03 0.03 0.05 0.07 0.06 0.10 0.14 0.22 0.36 0.50
0.02 0.04 0.01 0.00 0.00 0.01 0.01 0.00 0.00 0.00 0.00 0.00 0.00 0.00 0.00 0.00 0.00 0.00 0.01 0.03 0.07 0.19 0.13 0.04 0.01 0.00 0.01 0.02 0.06 0.10 0.09 0.04 0.10 0.15 0.08 0.05 0.05 0.03 0.03 0.07 0.11 0.12 0.16 0.17 0.21 0.26 0.35 0.41 0.36
0.00 0.02 0.02 0.01 0.00 0.02 0.00 0.00 0.01 0.00 0.00 0.00 0.00 0.00 0.00 0.00 0.00 0.00 0.00 0.01 0.03 0.08 0.04 0.02 0.02 0.01 0.00 0.01 0.04 0.04 0.05 0.07 0.08 0.11 0.08 0.08 0.06 0.07 0.11 0.15 0.25 0.31 0.27 0.22 0.22 0.21 0.20 0.18 0.16
0.00 0.00 0.00 0.00 0.00 0.04 0.08 0.01 0.00 0.01 0.01 0.00 0.00 0.00 0.00 0.00 0.00 0.00 0.00 0.00 0.00 0.03 0.06 0.02 0.05 0.02 0.00 0.00 0.02 0.04 0.11 0.11 0.13 0.16 0.16 0.17 0.14 0.14 0.22 0.35 0.38 0.33 0.26 0.24 0.23 0.17 0.10 0.06 0.04
0.00 0.00 0.01 0.01 0.02 0.01 0.03 0.01 0.00 0.00 0.00 0.00 0.00 0.00 0.00 0.00 0.00 0.00 0.00 0.00 0.00 0.05 0.07 0.03 0.05 0.03 0.01 0.01 0.04 0.12 0.25 0.16 0.20 0.24 0.17 0.19 0.26 0.34 0.47 0.54 0.43 0.31 0.21 0.14 0.09 0.05 0.02 0.01 0.00

GFSSGP_prec_precacc_081.txt.gz
Total_Precipitation_Accumulation
0.00 0.00 0.00 0.00 0.00 0.00 0.00 0.00 0.00 0.03 0.05 0.11 0.11 0.17 0.12 0.21 0.58 1.07 0.89 1.30 1.52 0.55 0.46 0.13 0.03 0.01 0.02 0.07 0.08 0.06 0.04 0.02 0.05 0.08 0.16 0.27 0.33 0.50 0.51 0.37 0.33 0.55 0.69 0.54 0.40 0.37 0.49 0.45 0.27
0.00 0.00 0.00 0.00 0.00 0.00 0.00 0.00 0.02 0.10 0.37 0.43 0.30 0.29 0.32 0.81 0.88 1.44 1.33 2.24 2.41 1.31 0.81 0.38 0.05 0.03 0.01 0.01 0.02 0.03 0.03 0.02 0.02 0.03 0.07 0.28 0.35 0.33 0.31 0.44 0.41 0.44 0.47 0.59 0.50 0.75 1.15 0.97 0.72
0.00 0.00 0.00 0.00 0.00 0.00 0.00 0.00 0.01 0.06 0.26 0.37 0.14 0.14 0.29 0.58 1.03 0.79 0.96 1.37 1.48 0.90 0.88 0.70 0.41 0.18 0.07 0.03 0.03 0.03 0.03 0.01 0.00 0.01 0.05 0.12 0.12 0.25 0.24 0.44 0.33 0.20 0.19 0.45 0.60 0.71 0.93 0.83 0.98
0.00 0.00 0.00 0.00 0.00 0.00 0.00 0.01 0.16 0.18 0.12 0.07 0.19 0.26 0.33 0.47 0.71 0.78 0.60 0.85 1.11 0.76 0.83 1.16 0.90 0.51 0.15 0.11 0.06 0.04 0.01 0.00 0.00 0.00 0.01 0.07 0.08 0.13 0.18 0.39 0.46 0.51 0.44 0.77 1.16 1.76 1.28 0.72 1.05
0.00 0.00 0.00 0.00 0.00 0.01 0.02 0.03 0.12 0.12 0.42 0.43 0.15 0.37 0.53 0.60 0.40 0.54 0.96 1.05 1.63 1.29 1.38 1.38 1.11 0.84 0.31 0.23 0.12 0.03 0.00 0.00 0.00 0.00 0.00 0.00 0.01 0.03 0.05 0.07 0.19 0.52 1.17 1.33 1.12 1.24 1.41 0.98 0.29
0.00 0.00 0.00 0.00 0.00 0.03 0.07 0.19 0.34 0.31 0.73 0.52 0.46 0.66 0.66 0.78 0.64 0.55 1.04 1.81 3.06 3.10 2.48 2.06 1.61 1.67 1.19 0.70 0.15 0.00 0.00 0.00 0.00 0.00 0.00 0.00 0.00 0.00 0.00 0.01 0.04 0.07 0.10 0.15 0.16 0.14 0.11 0.16 0.09
0.00 0.00 0.00 0.00 0.01 0.01 0.04 0.19 0.36 0.22 0.62 1.20 0.49 0.62 0.44 0.40 0.56 1.04 1.51 2.12 3.67 5.58 5.35 3.09 2.18 2.02 1.36 0.65 0.09 0.01 0.00 0.00 0.00 0.00 0.00 0.01 0.01 0.00 0.00 0.00 0.00 0.00 0.03 0.06 0.09 0.08 0.02 0.01 0.01
0.00 0.00 0.00 0.00 0.01 0.02 0.06 0.29 0.38 0.15 0.19 0.25 0.33 0.59 0.76 0.38 0.45 0.74 1.56 1.90 3.58 6.34 8.88 5.74 3.70 2.22 1.31 0.62 0.27 0.00 0.00 0.00 0.00 0.00 0.00 0.00 0.00 0.00 0.00 0.01 0.01 0.01 0.03 0.05 0.07 0.08 0.03 0.02 0.00
0.00 0.00 0.00 0.01 0.02 0.05 0.17 0.40 0.32 0.13 0.09 0.16 0.27 0.46 0.61 0.40 0.22 0.70 1.02 1.43 2.04 3.59 5.07 5.42 5.48 3.55 1.24 0.55 0.32 0.01 0.00 0.00 0.00 0.00 0.00 0.00 0.02 0.00 0.00 0.02 0.03 0.04 0.03 0.04 0.06 0.09 0.05 0.01 0.00
0.00 0.00 0.00 0.00 0.05 0.22 0.30 0.46 0.19 0.16 0.38 0.37 0.95 0.57 0.90 0.55 0.27 0.53 0.93 0.94 1.65 1.98 2.33 3.14 3.24 3.20 1.70 0.61 0.29 0.07 0.02 0.00 0.00 0.01 0.00 0.00 0.02 0.01 0.00 0.01 0.04 0.07 0.06 0.06 0.13 0.15 0.08 0.04 0.04
0.00 0.00 0.00 0.01 0.04 0.10 0.07 0.07 0.02 0.03 0.05 0.30 0.49 0.43 0.48 0.59 0.57 0.65 0.93 0.86 1.22 1.31 1.38 1.41 1.09 1.10 1.03 0.64 0.43 0.21 0.05 0.01 0.00 0.00 0.02 0.02 0.01 0.04 0.05 0.11 0.16 0.12 0.12 0.18 0.18 0.37 0.41 0.34 0.20
0.00 0.00 0.00 0.00 0.03 0.04 0.00 0.05 0.02 0.02 0.05 0.08 0.15 0.28 0.46 0.58 0.57 0.69 0.94 1.10 0.84 1.19 1.11 1.03 0.73 0.50 0.33 0.15 0.14 0.08 0.05 0.03 0.02 0.04 0.06 0.10 0.16 0.21 0.13 0.08 0.10 0.08 0.09 0.10 0.19 0.39 0.33 0.26 0.31
0.00 0.00 0.00 0.03 0.01 0.00 0.00 0.00 0.07 0.06 0.09 0.27 0.17 0.60 0.69 0.63 0.58 0.70 1.15 0.78 1.07 1.10 1.14 0.98 0.67 0.50 0.22 0.10 0.04 0.02 0.03 0.05 0.10 0.15 0.19 0.25 0.41 0.48 0.34 0.21 0.04 0.02 0.02 0.04 0.04 0.07 0.12 0.14 0.13
0.00 0.00 0.00 0.00 0.00 0.00 0.01 0.00 0.01 0.18 0.30 0.68 0.58 0.86 0.95 0.61 0.61 1.06 0.57 0.31 0.40 0.59 0.55 0.56 0.71 0.56 0.39 0.16 0.11 0.09 0.07 0.09 0.12 0.18 0.24 0.25 0.33 0.34 0.21 0.12 0.07 0.05 0.03 0.01 0.03 0.03 0.04 0.05 0.06
0.00 0.00 0.00 0.00 0.00 0.00 0.02 0.08 0.16 0.07 0.06 0.19 0.41 0.35 0.41 0.30 0.19 0.23 0.16 0.10 0.16 0.24 0.43 0.43 0.45 0.56 0.54 0.32 0.12 0.05 0.05 0.05 0.09 0.21 0.30 0.34 0.35 0.28 0.16 0.08 0.03 0.01 0.00 0.00 0.00 0.00 0.02 0.04 0.07
0.00 0.00 0.01 0.09 0.00 0.00 0.00 0.13 0.28 0.06 0.08 0.09 0.10 0.09 0.19 0.28 0.18 0.24 0.08 0.05 0.03 0.08 0.20 0.26 0.51 0.77 0.69 0.42 0.16 0.09 0.06 0.14 0.30 0.28 0.32 0.35 0.27 0.16 0.10 0.06 0.02 0.00 0.00 0.00 0.00 0.00 0.00 0.01 0.04
0.00 0.00 0.00 0.00 0.00 0.00 0.00 0.01 0.07 0.06 0.04 0.05 0.04 0.01 0.05 0.35 0.51 0.22 0.06 0.04 0.03 0.02 0.04 0.32 0.70 1.09 1.10 0.77 0.61 0.72 0.69 0.55 0.43 0.33 0.31 0.20 0.16 0.07 0.06 0.04 0.02 0.01 0.00 0.00 0.00 0.00 0.00 0.00 0.00
0.00 0.00 0.00 0.00 0.00 0.00 0.00 0.00 0.03 0.04 0.02 0.01 0.01 0.00 0.01 0.02 0.06 0.02 0.01 0.01 0.01 0.02 0.07 0.43 0.82 1.14 1.23 1.74 1.51 0.88 0.35 0.28 0.27 0.23 0.31 0.25 0.17 0.17 0.17 0.09 0.03 0.01 0.00 0.00 0.00 0.00 0.00 0.00 0.00
0.00 0.00 0.00 0.00 0.00 0.00 0.00 0.00 0.02 0.04 0.03 0.13 0.01 0.00 0.00 0.00 0.00 0.01 0.00 0.02 0.04 0.08 0.27 0.70 0.98 1.22 0.98 0.68 0.23 0.05 0.08 0.15 0.23 0.21 0.22 0.15 0.17 0.09 0.13 0.04 0.03 0.00 0.00 0.00 0.00 0.00 0.00 0.00 0.00
0.00 0.00 0.00 0.00 0.00 0.00 0.00 0.00 0.01 0.02 0.02 0.05 0.02 0.01 0.00 0.00 0.00 0.01 0.03 0.09 0.13 0.26 0.36 0.40 0.28 0.29 0.13 0.05 0.00 0.01 0.03 0.09 0.16 0.23 0.12 0.11 0.19 0.17 0.06 0.01 0.01 0.00 0.00 0.00 0.00 0.00 0.00 0.00 0.00
0.00 0.00 0.00 0.00 0.00 0.00 0.00 0.00 0.00 0.01 0.03 0.02 0.02 0.00 0.00 0.00 0.00 0.02 0.08 0.12 0.14 0.14 0.17 0.06 0.05 0.15 0.11 0.05 0.06 0.09 0.15 0.14 0.13 0.28 0.20 0.09 0.18 0.25 0.19 0.02 0.00 0.00 0.00 0.00 0.00 0.00 0.00 0.00 0.00
0.00 0.00 0.00 0.00 0.00 0.01 0.00 0.01 0.02 0.00 0.01 0.01 0.01 0.01 0.01 0.01 0.01 0.01 0.01 0.01 0.02 0.01 0.03 0.02 0.06 0.11 0.15 0.19 0.23 0.18 0.16 0.14 0.09 0.09 0.06 0.07 0.07 0.03 0.03 0.01 0.00 0.00 0.00 0.00 0.00 0.00 0.00 0.00 0.00
0.03 0.00 0.00 0.00 0.00 0.01 0.01 0.00 0.01 0.00 0.00 0.00 0.00 0.01 0.00 0.01 0.01 0.00 0.01 0.02 0.01 0.04 0.04 0.09 0.13 0.14 0.11 0.17 0.31 0.19 0.17 0.18 0.18 0.09 0.09 0.08 0.09 0.06 0.06 0.02 0.00 0.00 0.00 0.00 0.00 0.00 0.00 0.00 0.00
0.00 0.00 0.00 0.00 0.00 0.00 0.01 0.01 0.01 0.01 0.01 0.01 0.00 0.00 0.00 0.02 0.01 0.01 0.02 0.02 0.03 0.11 0.17 0.15 0.13 0.14 0.14 0.21 0.26 0.26 0.18 0.14 0.10 0.08 0.09 0.07 0.04 0.03 0.02 0.01 0.00 0.00 0.00 0.00 0.00 0.00 0.00 0.00 0.01
0.00 0.00 0.01 0.11 0.04 0.02 0.05 0.06 0.02 0.01 0.01 0.05 0.00 0.00 0.00 0.01 0.01 0.02 0.02 0.06 0.09 0.20 0.21 0.16 0.13 0.11 0.15 0.19 0.26 0.20 0.14 0.09 0.08 0.04 0.04 0.04 0.03 0.03 0.02 0.01 0.02 0.01 0.01 0.02 0.03 0.03 0.03 0.06 0.11
0.00 0.00 0.02 0.08 0.07 0.07 0.08 0.01 0.01 0.00 0.00 0.00 0.00 0.00 0.00 0.00 0.00 0.01 0.04 0.06 0.10 0.30 0.22 0.10 0.04 0.03 0.05 0.08 0.15 0.13 0.13 0.10 0.08 0.07 0.12 0.05 0.03 0.03 0.04 0.04 0.03 0.06 0.07 0.06 0.10 0.15 0.22 0.36 0.50
0.02 0.04 0.01 0.00 0.02 0.02 0.01 0.01 0.00 0.01 0.00 0.00 0.00 0.00 0.00 0.00 0.00 0.00 0.02 0.04 0.09 0.19 0.13 0.04 0.01 0.00 0.01 0.02 0.06 0.10 0.11 0.07 0.13 0.31 0.17 0.16 0.07 0.04 0.03 0.07 0.11 0.13 0.16 0.19 0.24 0.32 0.40 0.42 0.36
0.00 0.02 0.02 0.01 0.01 0.02 0.00 0.01 0.01 0.01 0.00 0.00 0.00 0.00 0.00 0.00 0.00 0.00 0.01 0.02 0.05 0.13 0.05 0.03 0.04 0.01 0.00 0.01 0.04 0.04 0.10 0.10 0.15 0.29 0.13 0.15 0.10 0.11 0.16 0.16 0.25 0.31 0.30 0.34 0.46 0.43 0.30 0.23 0.22
0.00 0.00 0.00 0.00 0.00 0.04 0.08 0.01 0.00 0.01 0.01 0.00 0.00 0.00 0.00 0.00 0.00 0.00 0.00 0.00 0.04 0.10 0.08 0.03 0.11 0.06 0.01 0.02 0.02 0.04 0.18 0.16 0.16 0.22 0.29 0.24 0.28 0.26 0.30 0.39 0.45 0.58 0.68 0.58 0.43 0.31 0.22 0.15 0.09
0.00 0.00 0.01 0.01 0.02 0.01 0.03 0.01 0.00 0.00 0.00 0.00 0.00 0.00 0.00 0.00 0.00 0.00 0.00 0.00 0.01 0.10 0.11 0.04 0.09 0.07 0.03 0.06 0.10 0.13 0.28 0.29 0.30 0.33 0.28 0.31 0.32 0.35 0.49 0.55 0.47 0.36 0.25 0.18 0.14 0.11 0.07 0.04 0.02

GFSSGP_prec_precacc_084.txt.gz
Total_Precipitation_Accumulation
0.00 0.00 0.00 0.00 0.00 0.00 0.00 0.00 0.00 0.03 0.05 0.11 0.11 0.17 0.12 0.21 0.58 1.07 0.89 1.31 1.52 0.56 0.49 0.39 0.09 0.02 0.03 0.07 0.08 0.06 0.04 0.02 0.05 0.08 0.16 0.27 0.33 0.50 0.51 0.37 0.33 0.55 0.69 0.54 0.40 0.37 0.49 0.45 0.27
0.00 0.00 0.00 0.00 0.00 0.00 0.00 0.00 0.02 0.10 0.37 0.43 0.30 0.29 0.32 0.81 0.88 1.44 1.33 2.24 2.41 1.31 0.83 0.85 0.57 0.09 0.02 0.01 0.02 0.03 0.03 0.02 0.02 0.03 0.07 0.28 0.35 0.33 0.31 0.45 0.41 0.44 0.47 0.59 0.50 0.75 1.15 0.97 0.72
0.00 0.00 0.00 0.00 0.00 0.00 0.00 0.00 0.01 0.06 0.26 0.37 0.14 0.14 0.29 0.58 1.03 0.79 0.96 1.37 1.48 0.91 0.94 0.96 1.08 0.80 0.15 0.03 0.03 0.03 0.03 0.01 0.00 0.01 0.05 0.12 0.12 0.25 0.25 0.45 0.33 0.20 0.19 0.45 0.60 0.71 0.93 0.83 0.98
0.00 0.00 0.00 0.00 0.00 0.00 0.00 0.01 0.16 0.18 0.12 0.07 0.19 0.26 0.33 0.47 0.71 0.78 0.60 0.85 1.11 0.76 0.85 1.23 1.32 0.89 0.32 0.12 0.06 0.04 0.01 0.00 0.00 0.00 0.01 0.07 0.08 0.13 0.18 0.39 0.46 0.51 0.44 0.77 1.16 1.76 1.28 0.72 1.05
0.00 0.00 0.00 0.00 0.00 0.01 0.02 0.03 0.12 0.12 0.42 0.43 0.15 0.37 0.53 0.60 0.40 0.55 1.00 1.08 1.65 1.29 1.39 1.61 1.69 1.52 0.52 0.25 0.12 0.03 0.00 0.00 0.00 0.00 0.00 0.00 0.01 0.03 0.05 0.07 0.19 0.52 1.17 1.33 1.12 1.24 1.41 0.98 0.29
0.00 0.00 0.00 0.00 0.00 0.03 0.07 0.19 0.34 0.31 0.73 0.52 0.46 0.66 0.66 0.78 0.65 0.57 1.08 1.88 3.11 3.14 2.66 2.82 2.52 2.52 1.88 0.80 0.15 0.00 0.00 0.00 0.00 0.00 0.00 0.00 0.00 0.00 0.00 0.01 0.04 0.07 0.10 0.15 0.16 0.14 0.11 0.16 0.09
0.00 0.00 0.00 0.00 0.01 0.01 0.04 0.19 0.36 0.22 0.62 1.20 0.49 0.62 0.44 0.40 0.60 1.07 1.57 2.20 3.74 5.70 5.65 4.19 4.09 2.61 1.95 1.04 0.13 0.02 0.00 0.00 0.00 0.00 0.00 0.01 0.01 0.00 0.00 0.00 0.00 0.00 0.03 0.06 0.09 0.08 0.02 0.01 0.01
0.00 0.00 0.00 0.00 0.01 0.02 0.06 0.29 0.38 0.15 0.19 0.25 0.33 0.59 0.76 0.39 0.54 0.90 1.64 2.01 3.64 6.43 9.16 6.49 5.96 4.01 2.32 0.97 0.36 0.05 0.00 0.00 0.00 0.00 0.00 0.00 0.00 0.00 0.00 0.01 0.01 0.01 0.03 0.05 0.07 0.08 0.03 0.02 0.00
0.00 0.00 0.00 0.01 0.02 0.05 0.17 0.40 0.32 0.13 0.09 0.16 0.27 0.46 0.62 0.50 0.30 0.76 1.07 1.50 2.08 3.60 5.10 5.75 7.07 5.62 2.60 0.97 0.43 0.10 0.03 0.00 0.00 0.00 0.00 0.00 0.02 0.00 0.00 0.02 0.03 0.04 0.03 0.04 0.06 0.09 0.05 0.01 0.00
0.00 0.00 0.00 0.00 0.05 0.22 0.30 0.46 0.19 0.16 0.38 0.38 0.96 0.58 0.91 0.64 0.33 0.57 0.97 0.99 1.70 2.00 2.33 3.28 4.74 6.01 3.27 1.33 0.41 0.11 0.02 0.00 0.00 0.01 0.00 0.00 0.02 0.01 0.01 0.02 0.04 0.07 0.06 0.06 0.13 0.15 0.08 0.04 0.04
0.00 0.00 0.00 0.01 0.04 0.10 0.07 0.07 0.02 0.03 0.05 0.31 0.50 0.44 0.52 0.60 0.60 0.68 0.96 0.89 1.25 1.33 1.38 1.45 1.44 2.50 2.46 1.79 0.57 0.21 0.05 0.01 0.00 0.00 0.02 0.02 0.01 0.04 0.06 0.11 0.16 0.12 0.12 0.18 0.18 0.37 0.41 0.34 0.20
0.00 0.00 0.00 0.00 0.03 0.04 0.00 0.05 0.02 0.02 0.05 0.08 0.15 0.28 0.46 0.58 0.58 0.70 0.94 1.11 0.85 1.20 1.11 1.04 0.75 0.64 0.64 0.59 0.28 0.08 0.05 0.03 0.02 0.04 0.06 0.10 0.16 0.21 0.13 0.08 0.10 0.08 0.09 0.10 0.19 0.39 0.33 0.26 0.31
0.00 0.00 0.00 0.03 0.01 0.00 0.00 0.00 0.07 0.06 0.09 0.27 0.17 0.60 0.69 0.64 0.59 0.71 1.16 0.79 1.08 1.10 1.14 0.99 0.67 0.50 0.24 0.13 0.07 0.02 0.03 0.05 0.10 0.15 0.19 0.25 0.41 0.48 0.34 0.21 0.04 0.02 0.02 0.04 0.04 0.07 0.12 0.14 0.13
0.00 0.00 0.00 0.00 0.00 0.00 0.01 0.00 0.01 0.18 0.30 0.68 0.58 0.86 0.95 0.61 0.61 1.07 0.57 0.31 0.43 0.64 0.55 0.56 0.71 0.57 0.40 0.17 0.11 0.09 0.07 0.09 0.12 0.18 0.24 0.25 0.33 0.34 0.21 0.12 0.07 0.05 0.03 0.01 0.03 0.03 0.04 0.05 0.06
0.00 0.00 0.00 0.00 0.00 0.00 0.02 0.08 0.16 0.07 0.06 0.19 0.41 0.35 0.41 0.30 0.20 0.26 0.18 0.11 0.18 0.28 0.43 0.43 0.47 0.59 0.57 0.41 0.13 0.05 0.05 0.06 0.09 0.21 0.30 0.34 0.35 0.28 0.16 0.08 0.03 0.01 0.00 0.00 0.00 0.00 0.02 0.04 0.07
0.00 0.00 0.01 0.09 0.00 0.00 0.00 0.13 0.28 0.06 0.08 0.09 0.10 0.09 0.19 0.28 0.21 0.28 0.11 0.06 0.04 0.11 0.26 0.27 0.53 0.79 0.70 0.44 0.16 0.09 0.06 0.15 0.30 0.28 0.32 0.37 0.31 0.16 0.10 0.06 0.02 0.00 0.00 0.00 0.00 0.00 0.00 0.01 0.04
0.00 0.00 0.00 0.00 0.00 0.00 0.00 0.01 0.07 0.06 0.04 0.06 0.04 0.01 0.05 0.35 0.52 0.24 0.12 0.06 0.04 0.02 0.07 0.38 0.74 1.10 1.13 0.78 0.63 0.74 0.70 0.55 0.43 0.33 0.31 0.20 0.21 0.09 0.07 0.04 0.02 0.01 0.00 0.00 0.00 0.00 0.00 0.00 0.00
0.00 0.00 0.00 0.00 0.00 0.00 0.00 0.00 0.03 0.04 0.02 0.01 0.01 0.00 0.01 0.02 0.07 0.03 0.02 0.01 0.04 0.03 0.07 0.46 0.87 1.15 1.25 1.76 1.54 0.91 0.37 0.28 0.27 0.23 0.31 0.25 0.18 0.24 0.21 0.11 0.03 0.02 0.00 0.00 0.00 0.00 0.00 0.00 0.00
0.00 0.00 0.00 0.00 0.00 0.00 0.00 0.00 0.02 0.04 0.03 0.13 0.01 0.00 0.00 0.00 0.00 0.01 0.01 0.04 0.05 0.08 0.27 0.71 0.98 1.22 0.99 0.68 0.23 0.06 0.08 0.15 0.23 0.21 0.22 0.15 0.17 0.10 0.15 0.07 0.04 0.00 0.00 0.00 0.00 0.00 0.00 0.00 0.00
0.00 0.00 0.00 0.00 0.00 0.00 0.00 0.00 0.01 0.02 0.02 0.05 0.02 0.01 0.00 0.00 0.00 0.01 0.03 0.09 0.13 0.26 0.36 0.40 0.28 0.29 0.13 0.05 0.00 0.01 0.03 0.09 0.16 0.23 0.12 0.11 0.19 0.18 0.07 0.02 0.07 0.00 0.00 0.00 0.00 0.00 0.00 0.00 0.00
0.00 0.00 0.00 0.00 0.00 0.00 0.00 0.00 0.00 0.01 0.03 0.02 0.03 0.01 0.00 0.00 0.00 0.02 0.08 0.12 0.14 0.14 0.17 0.06 0.05 0.15 0.11 0.05 0.06 0.09 0.15 0.14 0.13 0.28 0.20 0.09 0.18 0.28 0.22 0.02 0.02 0.00 0.00 0.00 0.00 0.00 0.00 0.00 0.00
0.00 0.00 0.00 0.00 0.00 0.01 0.00 0.01 0.02 0.00 0.01 0.01 0.01 0.01 0.01 0.01 0.01 0.01 0.01 0.01 0.02 0.01 0.03 0.02 0.06 0.11 0.15 0.19 0.23 0.18 0.16 0.14 0.09 0.09 0.06 0.07 0.08 0.09 0.07 0.01 0.01 0.00 0.00 0.00 0.00 0.00 0.00 0.00 0.00
0.03 0.00 0.00 0.00 0.00 0.01 0.01 0.00 0.01 0.00 0.00 0.00 0.00 0.01 0.00 0.01 0.01 0.00 0.01 0.02 0.01 0.04 0.04 0.09 0.13 0.14 0.11 0.17 0.31 0.19 0.17 0.18 0.18 0.09 0.09 0.08 0.10 0.08 0.08 0.02 0.03 0.02 0.00 0.00 0.00 0.00 0.00 0.00 0.00
0.00 0.00 0.00 0.00 0.00 0.00 0.01 0.01 0.01 0.01 0.01 0.01 0.00 0.00 0.00 0.02 0.01 0.01 0.02 0.02 0.03 0.11 0.17 0.15 0.13 0.14 0.14 0.21 0.26 0.26 0.18 0.14 0.10 0.08 0.09 0.07 0.05 0.06 0.02 0.01 0.00 0.01 0.01 0.02 0.01 0.00 0.00 0.00 0.01
0.00 0.00 0.01 0.11 0.04 0.02 0.05 0.06 0.02 0.01 0.01 0.05 0.00 0.00 0.00 0.01 0.01 0.02 0.02 0.06 0.09 0.20 0.21 0.16 0.13 0.11 0.15 0.19 0.26 0.20 0.14 0.09 0.08 0.04 0.04 0.04 0.03 0.03 0.02 0.02 0.02 0.01 0.02 0.03 0.03 0.03 0.04 0.06 0.11
0.00 0.00 0.02 0.08 0.07 0.07 0.08 0.01 0.01 0.00 0.00 0.00 0.00 0.00 0.00 0.00 0.00 0.01 0.04 0.06 0.10 0.30 0.22 0.10 0.04 0.03 0.05 0.08 0.15 0.13 0.13 0.10 0.08 0.07 0.12 0.06 0.03 0.03 0.04 0.04 0.03 0.06 0.07 0.06 0.11 0.16 0.25 0.45 0.64
0.02 0.04 0.01 0.01 0.02 0.02 0.01 0.01 0.01 0.01 0.00 0.00 0.00 0.00 0.00 0.00 0.00 0.00 0.02 0.04 0.09 0.20 0.14 0.04 0.01 0.00 0.01 0.02 0.06 0.11 0.14 0.07 0.13 0.31 0.18 0.17 0.08 0.05 0.04 0.11 0.12 0.13 0.16 0.19 0.24 0.37 0.54 0.60 0.54
0.00 0.02 0.02 0.01 0.01 0.02 0.00 0.01 0.01 0.01 0.00 0.00 0.00 0.00 0.00 0.00 0.00 0.00 0.01 0.02 0.05 0.14 0.10 0.11 0.08 0.02 0.00 0.01 0.04 0.04 0.13 0.15 0.17 0.29 0.13 0.16 0.18 0.22 0.32 0.29 0.29 0.32 0.31 0.34 0.51 0.57 0.52 0.43 0.35
0.00 0.00 0.00 0.00 0.00 0.04 0.08 0.01 0.00 0.01 0.01 0.00 0.00 0.00 0.00 0.00 0.00 0.00 0.00 0.00 0.04 0.11 0.13 0.11 0.20 0.14 0.05 0.02 0.02 0.04 0.18 0.18 0.28 0.28 0.32 0.28 0.43 0.47 0.48 0.53 0.51 0.61 0.68 0.59 0.44 0.32 0.24 0.17 0.12
0.00 0.00 0.01 0.01 0.02 0.01 0.03 0.01 0.00 0.00 0.00 0.00 0.00 0.00 0.00 0.00 0.00 0.00 0.00 0.00 0.01 0.10 0.14 0.07 0.16 0.15 0.10 0.09 0.11 0.13 0.30 0.35 0.40 0.54 0.51 0.57 0.63 0.58 0.63 0.68 0.52 0.37 0.25 0.18 0.14 0.11 0.08 0.05 0.03

GFSSGP_prec_precacc_087.txt.gz
Total_Precipitation_Accumulation
0.00 0.00 0.00 0.00 0.00 0.00 0.00 0.00 0.00 0.03 0.05 0.11 0.11 0.17 0.12 0.21 0.58 1.07 0.89 1.31 1.53 0.57 0.49 0.39 0.09 0.02 0.03 0.07 0.08 0.06 0.04 0.02 0.05 0.08 0.16 0.27 0.33 0.50 0.51 0.37 0.33 0.55 0.69 0.54 0.40 0.37 0.49 0.45 0.27
0.00 0.00 0.00 0.00 0.00 0.00 0.00 0.00 0.02 0.10 0.37 0.43 0.30 0.29 0.32 0.81 0.88 1.44 1.33 2.24 2.41 1.32 0.88 0.85 0.57 0.09 0.02 0.01 0.02 0.03 0.03 0.02 0.02 0.03 0.07 0.28 0.35 0.33 0.31 0.45 0.41 0.44 0.47 0.59 0.50 0.75 1.15 0.97 0.72
0.00 0.00 0.00 0.00 0.00 0.00 0.00 0.00 0.01 0.06 0.26 0.37 0.14 0.14 0.29 0.58 1.03 0.80 0.96 1.37 1.50 0.99 1.15 1.04 1.08 0.87 0.31 0.13 0.05 0.03 0.03 0.01 0.00 0.01 0.05 0.12 0.12 0.25 0.25 0.45 0.33 0.20 0.19 0.45 0.60 0.71 0.93 0.83 0.98
0.00 0.00 0.00 0.00 0.00 0.00 0.00 0.01 0.16 0.18 0.12 0.07 0.19 0.26 0.33 0.47 0.71 0.78 0.61 0.85 1.17 0.89 0.94 1.38 1.40 0.93 0.55 0.50 0.20 0.06 0.01 0.00 0.00 0.00 0.01 0.07 0.08 0.13 0.18 0.39 0.46 0.51 0.44 0.77 1.16 1.76 1.28 0.72 1.05
0.00 0.00 0.00 0.00 0.00 0.01 0.02 0.03 0.12 0.12 0.42 0.43 0.15 0.37 0.53 0.60 0.40 0.55 1.02 1.11 1.71 1.33 1.53 1.74 1.75 1.59 0.55 0.45 0.36 0.14 0.01 0.00 0.00 0.00 0.00 0.00 0.01 0.03 0.05 0.07 0.19 0.52 1.17 1.33 1.12 1.24 1.41 0.98 0.29
0.00 0.00 0.00 0.00 0.00 0.03 0.07 0.19 0.34 0.31 0.73 0.52 0.46 0.66 0.66 0.78 0.65 0.57 1.09 1.89 3.13 3.15 2.67 2.86 2.57 2.68 2.02 1.01 0.46 0.22 0.09 0.00 0.00 0.00 0.00 0.00 0.00 0.00 0.00 0.01 0.04 0.07 0.10 0.15 0.16 0.14 0.11 0.16 0.09
0.00 0.00 0.00 0.00 0.01 0.01 0.04 0.19 0.36 0.22 0.62 1.20 0.49 0.62 0.44 0.40 0.60 1.08 1.62 2.24 3.80 5.75 5.67 4.21 4.11 2.74 2.34 1.92 0.53 0.30 0.16 0.01 0.00 0.00 0.00 0.01 0.01 0.00 0.00 0.00 0.00 0.00 0.03 0.06 0.09 0.08 0.02 0.01 0.01
0.00 0.00 0.00 0.00 0.01 0.02 0.06 0.29 0.38 0.15 0.19 0.25 0.33 0.59 0.76 0.39 0.54 0.91 1.65 2.07 3.68 6.48 9.24 6.53 5.97 4.07 2.58 1.94 1.41 0.36 0.23 0.04 0.00 0.00 0.00 0.00 0.00 0.00 0.00 0.01 0.01 0.01 0.03 0.05 0.07 0.08 0.03 0.02 0.00
0.00 0.00 0.00 0.01 0.02 0.05 0.17 0.40 0.32 0.13 0.09 0.16 0.27 0.46 0.62 0.50 0.30 0.76 1.07 1.50 2.09 3.63 5.15 5.77 7.15 5.74 2.96 1.72 1.70 0.72 0.47 0.09 0.00 0.00 0.00 0.00 0.02 0.00 0.00 0.02 0.03 0.04 0.03 0.04 0.06 0.09 0.05 0.01 0.00
0.00 0.00 0.00 0.00 0.05 0.22 0.30 0.46 0.19 0.16 0.38 0.38 0.96 0.58 0.91 0.64 0.33 0.58 0.98 1.00 1.72 2.02 2.34 3.29 5.26 6.66 3.96 2.22 0.98 0.71 0.64 0.21 0.01 0.01 0.00 0.01 0.02 0.01 0.01 0.02 0.04 0.07 0.06 0.06 0.13 0.15 0.08 0.04 0.04
0.00 0.00 0.00 0.01 0.04 0.10 0.07 0.07 0.02 0.03 0.05 0.31 0.50 0.44 0.52 0.60 0.60 0.68 0.97 0.90 1.27 1.35 1.40 1.46 2.37 4.00 3.32 2.57 1.13 0.60 0.58 0.16 0.00 0.00 0.02 0.02 0.01 0.04 0.06 0.11 0.16 0.12 0.12 0.18 0.18 0.37 0.41 0.34 0.20
0.00 0.00 0.00 0.00 0.03 0.04 0.00 0.05 0.02 0.02 0.05 0.08 0.15 0.28 0.46 0.59 0.58 0.71 0.95 1.11 0.85 1.20 1.12 1.05 0.81 1.58 1.73 1.31 0.79 0.36 0.21 0.06 0.02 0.04 0.06 0.10 0.16 0.21 0.13 0.08 0.10 0.08 0.09 0.10 0.19 0.39 0.33 0.26 0.31
0.00 0.00 0.00 0.03 0.01 0.00 0.00 0.00 0.07 0.06 0.09 0.27 0.17 0.60 0.69 0.64 0.59 0.72 1.19 0.79 1.09 1.10 1.15 0.99 0.68 0.68 0.77 0.76 0.54 0.21 0.08 0.05 0.10 0.15 0.19 0.25 0.41 0.48 0.34 0.21 0.04 0.02 0.02 0.04 0.04 0.07 0.12 0.14 0.13
0.00 0.00 0.00 0.00 0.00 0.00 0.01 0.00 0.01 0.18 0.30 0.68 0.58 0.86 0.95 0.61 0.62 1.08 0.59 0.32 0.44 0.66 0.56 0.56 0.71 0.58 0.47 0.42 0.35 0.19 0.08 0.09 0.12 0.18 0.24 0.25 0.33 0.34 0.21 0.12 0.07 0.05 0.03 0.01 0.03 0.03 0.04 0.05 0.06
0.00 0.00 0.00 0.00 0.00 0.00 0.02 0.08 0.16 0.07 0.06 0.19 0.41 0.35 0.41 0.30 0.20 0.28 0.23 0.12 0.19 0.39 0.43 0.43 0.47 0.59 0.57 0.43 0.15 0.07 0.05 0.06 0.09 0.21 0.30 0.34 0.35 0.28 0.16 0.08 0.03 0.01 0.00 0.00 0.00 0.00 0.02 0.04 0.07
0.00 0.00 0.01 0.09 0.00 0.00 0.00 0.13 0.28 0.06 0.08 0.09 0.10 0.09 0.19 0.28 0.21 0.29 0.15 0.09 0.04 0.18 0.28 0.28 0.53 0.81 0.70 0.44 0.18 0.09 0.06 0.15 0.30 0.28 0.32 0.37 0.31 0.16 0.10 0.06 0.02 0.00 0.00 0.00 0.00 0.00 0.00 0.01 0.04
0.00 0.00 0.00 0.00 0.00 0.00 0.00 0.01 0.07 0.06 0.04 0.06 0.04 0.01 0.05 0.35 0.52 0.24 0.14 0.10 0.06 0.07 0.12 0.47 0.77 1.12 1.13 0.79 0.64 0.74 0.70 0.55 0.43 0.33 0.31 0.20 0.21 0.09 0.07 0.04 0.02 0.01 0.00 0.00 0.00 0.00 0.00 0.00 0.00
0.00 0.00 0.00 0.00 0.00 0.00 0.00 0.00 0.03 0.04 0.02 0.01 0.01 0.00 0.01 0.02 0.07 0.03 0.02 0.02 0.06 0.09 0.10 0.61 1.02 1.19 1.27 1.78 1.54 0.91 0.37 0.29 0.27 0.23 0.31 0.25 0.18 0.24 0.23 0.12 0.03 0.02 0.00 0.00 0.00 0.00 0.00 0.00 0.00
0.00 0.00 0.00 0.00 0.00 0.00 0.00 0.00 0.02 0.04 0.03 0.13 0.01 0.00 0.00 0.00 0.00 0.01 0.01 0.04 0.07 0.10 0.29 0.75 1.08 1.30 1.00 0.71 0.24 0.06 0.09 0.19 0.25 0.21 0.22 0.15 0.17 0.10 0.18 0.08 0.04 0.00 0.00 0.00 0.00 0.00 0.00 0.00 0.00
0.00 0.00 0.00 0.00 0.00 0.00 0.00 0.00 0.01 0.02 0.02 0.05 0.02 0.01 0.00 0.00 0.01 0.01 0.03 0.09 0.13 0.26 0.36 0.40 0.30 0.31 0.14 0.07 0.00 0.01 0.04 0.10 0.17 0.23 0.12 0.11 0.19 0.18 0.07 0.02 0.07 0.00 0.00 0.00 0.00 0.00 0.00 0.00 0.00
0.00 0.00 0.00 0.00 0.00 0.00 0.00 0.00 0.00 0.01 0.03 0.02 0.03 0.01 0.00 0.00 0.00 0.02 0.08 0.12 0.14 0.14 0.17 0.06 0.05 0.15 0.11 0.05 0.06 0.09 0.15 0.14 0.13 0.28 0.20 0.09 0.18 0.28 0.22 0.02 0.02 0.02 0.01 0.00 0.00 0.00 0.00 0.00 0.00
0.00 0.00 0.00 0.00 0.00 0.01 0.00 0.01 0.02 0.00 0.01 0.01 0.01 0.01 0.01 0.01 0.01 0.01 0.01 0.02 0.02 0.01 0.03 0.02 0.06 0.11 0.15 0.19 0.23 0.18 0.16 0.14 0.09 0.09 0.06 0.07 0.08 0.09 0.07 0.01 0.01 0.01 0.00 0.01 0.00 0.00 0.00 0.00 0.00
0.03 0.00 0.00 0.00 0.00 0.01 0.01 0.00 0.01 0.00 0.00 0.00 0.00 0.01 0.00 0.01 0.01 0.00 0.01 0.02 0.01 0.04 0.04 0.09 0.13 0.14 0.11 0.17 0.31 0.19 0.17 0.18 0.18 0.09 0.09 0.08 0.10 0.08 0.08 0.02 0.03 0.02 0.00 0.01 0.01 0.01 0.00 0.00 0.00
0.00 0.00 0.00 0.00 0.00 0.00 0.01 0.01 0.01 0.01 0.01 0.01 0.00 0.00 0.00 0.02 0.01 0.01 0.02 0.02 0.03 0.11 0.17 0.15 0.13 0.14 0.14 0.21 0.26 0.26 0.18 0.14 0.10 0.08 0.09 0.07 0.05 0.06 0.02 0.01 0.00 0.01 0.02 0.05 0.05 0.04 0.02 0.01 0.01
0.00 0.00 0.01 0.11 0.04 0.02 0.05 0.06 0.02 0.01 0.01 0.05 0.00 0.00 0.00 0.01 0.01 0.02 0.02 0.06 0.09 0.20 0.21 0.16 0.13 0.11 0.15 0.19 0.26 0.20 0.14 0.09 0.08 0.04 0.04 0.04 0.03 0.03 0.02 0.02 0.02 0.01 0.05 0.08 0.07 0.05 0.05 0.06 0.11
0.00 0.00 0.02 0.08 0.07 0.07 0.08 0.01 0.01 0.00 0.00 0.00 0.00 0.00 0.00 0.00 0.00 0.01 0.04 0.06 0.10 0.30 0.22 0.10 0.04 0.03 0.05 0.08 0.15 0.13 0.13 0.10 0.08 0.07 0.12 0.06 0.03 0.03 0.04 0.04 0.04 0.06 0.09 0.09 0.11 0.16 0.25 0.46 0.67
0.02 0.04 0.01 0.01 0.02 0.02 0.01 0.01 0.01 0.01 0.00 0.00 0.00 0.00 0.00 0.00 0.00 0.00 0.02 0.05 0.11 0.22 0.16 0.04 0.01 0.00 0.01 0.02 0.06 0.11 0.14 0.07 0.13 0.31 0.18 0.17 0.08 0.06 0.05 0.13 0.16 0.15 0.18 0.20 0.25 0.39 0.55 0.62 0.58
0.00 0.02 0.02 0.01 0.01 0.02 0.00 0.01 0.01 0.01 0.00 0.00 0.00 0.00 0.00 0.00 0.00 0.00 0.01 0.02 0.07 0.16 0.16 0.18 0.10 0.02 0.00 0.01 0.04 0.04 0.13 0.15 0.17 0.29 0.14 0.17 0.18 0.23 0.36 0.36 0.37 0.38 0.34 0.37 0.53 0.60 0.53 0.45 0.37
0.00 0.00 0.00 0.00 0.00 0.04 0.08 0.01 0.00 0.01 0.01 0.00 0.00 0.00 0.00 0.00 0.00 0.00 0.00 0.00 0.04 0.13 0.15 0.17 0.26 0.18 0.06 0.02 0.02 0.04 0.18 0.18 0.28 0.28 0.33 0.32 0.48 0.54 0.59 0.65 0.62 0.73 0.85 0.70 0.46 0.34 0.25 0.18 0.13
0.00 0.00 0.01 0.01 0.02 0.01 0.03 0.01 0.00 0.00 0.00 0.00 0.00 0.00 0.00 0.00 0.00 0.00 0.00 0.00 0.01 0.10 0.14 0.08 0.22 0.22 0.22 0.16 0.12 0.13 0.30 0.35 0.41 0.56 0.53 0.62 0.77 0.78 0.82 0.86 0.71 0.56 0.40 0.28 0.17 0.12 0.08 0.05 0.03

GFSSGP_prec_precacc_090.txt.gz
Total_Precipitation_Accumulation
0.00 0.00 0.00 0.00 0.00 0.00 0.00 0.00 0.00 0.03 0.05 0.11 0.11 0.17 0.12 0.21 0.58 1.07 0.89 1.31 1.57 0.57 0.50 0.39 0.10 0.02 0.03 0.07 0.08 0.06 0.04 0.02 0.05 0.08 0.16 0.27 0.33 0.50 0.51 0.37 0.33 0.55 0.69 0.54 0.40 0.37 0.49 0.45 0.27
0.00 0.00 0.00 0.00 0.00 0.00 0.00 0.00 0.02 0.10 0.37 0.43 0.30 0.29 0.32 0.81 0.88 1.44 1.33 2.24 2.41 1.32 0.88 0.85 0.57 0.09 0.02 0.01 0.02 0.03 0.03 0.02 0.02 0.03 0.07 0.28 0.35 0.33 0.31 0.45 0.41 0.44 0.47 0.59 0.50 0.75 1.15 0.97 0.72
0.00 0.00 0.00 0.00 0.00 0.00 0.00 0.00 0.01 0.06 0.26 0.37 0.14 0.14 0.29 0.58 1.03 0.80 0.96 1.37 1.51 1.12 1.17 1.04 1.10 0.87 0.31 0.13 0.06 0.04 0.03 0.01 0.00 0.01 0.05 0.12 0.12 0.25 0.25 0.45 0.33 0.20 0.19 0.45 0.60 0.71 0.93 0.83 0.98
0.00 0.00 0.00 0.00 0.00 0.00 0.00 0.01 0.16 0.18 0.12 0.07 0.19 0.26 0.33 0.47 0.71 0.78 0.61 0.86 1.19 1.02 1.14 1.40 1.41 0.94 0.55 0.50 0.20 0.07 0.02 0.00 0.00 0.00 0.01 0.07 0.08 0.13 0.18 0.39 0.46 0.51 0.44 0.77 1.16 1.76 1.28 0.72 1.05
0.00 0.00 0.00 0.00 0.00 0.01 0.02 0.03 0.12 0.12 0.42 0.43 0.15 0.37 0.53 0.60 0.40 0.55 1.02 1.11 1.76 1.61 1.79 2.03 1.89 1.62 0.55 0.45 0.36 0.15 0.04 0.01 0.00 0.00 0.00 0.00 0.01 0.03 0.05 0.07 0.19 0.52 1.17 1.33 1.12 1.24 1.41 0.98 0.29
0.00 0.00 0.00 0.00 0.00 0.03 0.07 0.19 0.34 0.31 0.73 0.52 0.46 0.66 0.66 0.78 0.65 0.57 1.09 1.91 3.17 3.27 2.88 3.19 2.88 2.80 2.05 1.01 0.46 0.23 0.14 0.07 0.02 0.00 0.00 0.00 0.00 0.00 0.00 0.01 0.04 0.07 0.10 0.15 0.16 0.14 0.11 0.16 0.09
0.00 0.00 0.00 0.00 0.01 0.01 0.04 0.19 0.36 0.22 0.62 1.20 0.49 0.62 0.44 0.40 0.60 1.08 1.65 2.31 3.87 5.81 5.69 4.31 4.35 2.76 2.36 1.93 0.54 0.30 0.22 0.15 0.10 0.02 0.01 0.01 0.01 0.00 0.00 0.00 0.00 0.00 0.03 0.06 0.09 0.08 0.02 0.01 0.01
0.00 0.00 0.00 0.00 0.01 0.02 0.06 0.29 0.38 0.15 0.19 0.25 0.33 0.59 0.76 0.39 0.54 0.91 1.65 2.10 3.74 6.57 9.32 6.58 6.09 4.21 2.69 2.00 1.46 0.37 0.29 0.23 0.15 0.10 0.03 0.01 0.00 0.00 0.00 0.01 0.01 0.01 0.03 0.05 0.07 0.08 0.03 0.02 0.00
0.00 0.00 0.00 0.01 0.02 0.05 0.17 0.40 0.32 0.13 0.09 0.16 0.27 0.46 0.62 0.50 0.30 0.76 1.07 1.50 2.10 3.67 5.25 5.80 7.19 5.90 3.27 1.91 1.87 0.81 0.55 0.34 0.22 0.14 0.06 0.01 0.02 0.00 0.00 0.02 0.03 0.04 0.03 0.04 0.06 0.09 0.05 0.01 0.00
0.00 0.00 0.00 0.00 0.05 0.22 0.30 0.46 0.19 0.16 0.38 0.38 0.96 0.58 0.91 0.64 0.33 0.58 0.98 1.00 1.72 2.04 2.35 3.30 5.31 6.83 4.13 2.52 1.39 1.00 0.83 0.56 0.34 0.17 0.07 0.01 0.02 0.01 0.01 0.02 0.04 0.07 0.06 0.06 0.13 0.15 0.08 0.04 0.04
0.00 0.00 0.00 0.01 0.04 0.10 0.07 0.07 0.02 0.03 0.05 0.31 0.50 0.44 0.52 0.61 0.60 0.68 0.97 0.90 1.27 1.35 1.40 1.46 2.42 4.19 3.56 2.85 1.69 0.94 0.81 0.59 0.39 0.18 0.11 0.02 0.01 0.04 0.06 0.11 0.16 0.12 0.12 0.18 0.18 0.37 0.41 0.34 0.20
0.00 0.00 0.00 0.00 0.03 0.04 0.00 0.05 0.02 0.02 0.05 0.08 0.15 0.28 0.46 0.59 0.58 0.71 0.95 1.11 0.85 1.20 1.13 1.07 0.82 1.84 1.90 1.55 1.49 0.59 0.36 0.38 0.27 0.22 0.16 0.10 0.16 0.21 0.13 0.08 0.10 0.08 0.09 0.10 0.19 0.39 0.33 0.26 0.31
0.00 0.00 0.00 0.03 0.01 0.00 0.00 0.00 0.07 0.06 0.09 0.27 0.17 0.60 0.69 0.64 0.59 0.72 1.21 0.82 1.09 1.10 1.15 1.02 0.68 0.84 1.36 1.36 1.07 0.40 0.17 0.16 0.16 0.21 0.25 0.26 0.41 0.48 0.34 0.21 0.04 0.02 0.02 0.04 0.04 0.07 0.12 0.14 0.13
0.00 0.00 0.00 0.00 0.00 0.00 0.01 0.00 0.01 0.18 0.30 0.68 0.58 0.86 0.95 0.61 0.62 1.09 0.61 0.34 0.45 0.68 0.57 0.58 0.72 0.59 0.73 1.07 0.72 0.37 0.17 0.11 0.13 0.20 0.26 0.28 0.35 0.34 0.21 0.12 0.07 0.05 0.03 0.01 0.03 0.03 0.04 0.05 0.06
0.00 0.00 0.00 0.00 0.00 0.00 0.02 0.08 0.16 0.07 0.06 0.19 0.41 0.35 0.41 0.30 0.21 0.29 0.23 0.12 0.20 0.46 0.44 0.45 0.47 0.59 0.75 0.80 0.51 0.31 0.16 0.08 0.10 0.23 0.36 0.41 0.38 0.28 0.16 0.08 0.03 0.01 0.00 0.00 0.00 0.00 0.02 0.04 0.07
0.00 0.00 0.01 0.09 0.00 0.00 0.00 0.13 0.28 0.06 0.08 0.09 0.10 0.09 0.19 0.29 0.21 0.29 0.15 0.09 0.08 0.32 0.29 0.30 0.53 0.81 0.71 0.54 0.36 0.29 0.16 0.17 0.31 0.30 0.35 0.39 0.33 0.16 0.10 0.06 0.02 0.00 0.00 0.00 0.00 0.00 0.00 0.01 0.04
0.00 0.00 0.00 0.00 0.00 0.00 0.00 0.01 0.07 0.06 0.04 0.06 0.04 0.01 0.05 0.35 0.53 0.24 0.14 0.10 0.07 0.09 0.13 0.48 0.78 1.15 1.14 0.81 0.69 0.79 0.72 0.56 0.44 0.35 0.32 0.20 0.22 0.09 0.07 0.04 0.02 0.01 0.00 0.00 0.00 0.00 0.00 0.00 0.00
0.00 0.00 0.00 0.00 0.00 0.00 0.00 0.00 0.03 0.04 0.02 0.01 0.01 0.00 0.01 0.02 0.07 0.03 0.03 0.03 0.08 0.12 0.11 0.65 1.04 1.30 1.31 1.83 1.56 0.95 0.38 0.30 0.27 0.24 0.32 0.26 0.18 0.24 0.23 0.12 0.03 0.02 0.00 0.00 0.00 0.00 0.00 0.00 0.00
0.00 0.00 0.00 0.00 0.00 0.00 0.00 0.00 0.02 0.04 0.03 0.13 0.01 0.00 0.00 0.00 0.00 0.01 0.01 0.04 0.08 0.12 0.30 0.80 1.18 1.44 1.02 0.72 0.27 0.12 0.12 0.20 0.25 0.21 0.22 0.15 0.17 0.10 0.18 0.08 0.04 0.00 0.00 0.00 0.00 0.00 0.00 0.00 0.00
0.00 0.00 0.00 0.00 0.00 0.00 0.00 0.00 0.01 0.02 0.02 0.05 0.02 0.01 0.00 0.00 0.01 0.02 0.03 0.09 0.14 0.27 0.37 0.41 0.35 0.47 0.16 0.08 0.03 0.05 0.05 0.10 0.18 0.24 0.13 0.12 0.20 0.19 0.08 0.02 0.07 0.00 0.00 0.00 0.01 0.00 0.00 0.00 0.00
0.00 0.00 0.00 0.00 0.00 0.00 0.00 0.00 0.00 0.01 0.03 0.02 0.03 0.01 0.00 0.00 0.00 0.02 0.09 0.12 0.15 0.15 0.17 0.06 0.06 0.19 0.12 0.07 0.09 0.11 0.15 0.14 0.14 0.28 0.20 0.09 0.18 0.30 0.23 0.03 0.03 0.02 0.01 0.01 0.01 0.01 0.00 0.00 0.00
0.00 0.00 0.00 0.00 0.00 0.01 0.00 0.01 0.02 0.00 0.01 0.01 0.01 0.01 0.01 0.01 0.01 0.01 0.01 0.02 0.02 0.02 0.03 0.02 0.06 0.12 0.15 0.19 0.23 0.18 0.16 0.15 0.09 0.09 0.06 0.07 0.08 0.10 0.08 0.02 0.01 0.01 0.02 0.01 0.02 0.02 0.01 0.00 0.00
0.03 0.00 0.00 0.00 0.00 0.01 0.01 0.00 0.01 0.00 0.00 0.00 0.00 0.01 0.00 0.01 0.01 0.00 0.01 0.02 0.01 0.04 0.04 0.09 0.13 0.14 0.11 0.17 0.31 0.19 0.17 0.18 0.18 0.09 0.09 0.08 0.10 0.08 0.08 0.02 0.03 0.02 0.00 0.02 0.04 0.02 0.02 0.01 0.01
0.00 0.00 0.00 0.00 0.00 0.00 0.01 0.01 0.01 0.01 0.01 0.01 0.00 0.00 0.00 0.02 0.01 0.01 0.02 0.02 0.03 0.11 0.17 0.15 0.13 0.14 0.14 0.21 0.26 0.26 0.18 0.14 0.10 0.08 0.09 0.07 0.05 0.06 0.02 0.01 0.00 0.01 0.02 0.05 0.06 0.10 0.06 0.04 0.02
0.00 0.00 0.01 0.11 0.04 0.02 0.05 0.06 0.02 0.01 0.01 0.05 0.00 0.00 0.00 0.01 0.01 0.02 0.02 0.06 0.09 0.20 0.21 0.16 0.13 0.11 0.15 0.19 0.26 0.20 0.14 0.09 0.08 0.04 0.04 0.04 0.03 0.03 0.02 0.02 0.02 0.01 0.06 0.08 0.09 0.12 0.11 0.10 0.14
0.00 0.00 0.02 0.08 0.07 0.07 0.08 0.01 0.01 0.00 0.00 0.00 0.00 0.00 0.00 0.00 0.00 0.01 0.04 0.06 0.10 0.30 0.22 0.10 0.04 0.03 0.05 0.08 0.15 0.13 0.13 0.10 0.08 0.07 0.12 0.06 0.03 0.03 0.04 0.04 0.04 0.06 0.09 0.09 0.13 0.19 0.29 0.50 0.71
0.02 0.04 0.01 0.01 0.02 0.02 0.01 0.01 0.01 0.01 0.00 0.00 0.00 0.00 0.00 0.00 0.00 0.00 0.02 0.05 0.11 0.22 0.16 0.04 0.01 0.00 0.01 0.02 0.06 0.11 0.14 0.07 0.13 0.31 0.18 0.17 0.08 0.06 0.05 0.13 0.16 0.15 0.18 0.20 0.28 0.41 0.59 0.68 0.61
0.00 0.02 0.02 0.01 0.01 0.02 0.00 0.01 0.01 0.01 0.00 0.00 0.00 0.00 0.00 0.00 0.00 0.00 0.01 0.02 0.07 0.16 0.16 0.19 0.10 0.02 0.00 0.01 0.04 0.04 0.13 0.15 0.17 0.29 0.14 0.17 0.18 0.23 0.36 0.36 0.37 0.39 0.34 0.38 0.57 0.63 0.59 0.49 0.40
0.00 0.00 0.00 0.00 0.00 0.04 0.08 0.01 0.00 0.01 0.01 0.00 0.00 0.00 0.00 0.00 0.00 0.00 0.00 0.00 0.04 0.13 0.15 0.19 0.29 0.19 0.06 0.02 0.02 0.04 0.18 0.18 0.28 0.28 0.33 0.32 0.48 0.55 0.59 0.65 0.63 0.74 0.88 0.81 0.68 0.58 0.45 0.30 0.17
0.00 0.00 0.01 0.01 0.02 0.01 0.03 0.01 0.00 0.00 0.00 0.00 0.00 0.00 0.00 0.00 0.00 0.00 0.00 0.00 0.01 0.10 0.14 0.08 0.24 0.25 0.26 0.17 0.12 0.13 0.30 0.35 0.41 0.56 0.53 0.63 0.78 0.82 0.91 0.96 0.84 0.75 0.75 0.75 0.67 0.56 0.41 0.18 0.06

GFSSGP_prec_precacc_093.txt.gz
Total_Precipitation_Accumulation
0.00 0.00 0.00 0.00 0.00 0.00 0.00 0.00 0.00 0.03 0.05 0.11 0.11 0.17 0.12 0.21 0.58 1.07 0.89 1.31 1.58 0.58 0.50 0.39 0.10 0.02 0.03 0.07 0.08 0.06 0.04 0.02 0.05 0.08 0.16 0.27 0.33 0.50 0.51 0.37 0.33 0.55 0.69 0.54 0.40 0.37 0.49 0.45 0.27
0.00 0.00 0.00 0.00 0.00 0.00 0.00 0.00 0.02 0.10 0.37 0.43 0.30 0.29 0.32 0.81 0.88 1.44 1.33 2.24 2.41 1.33 0.88 0.85 0.57 0.09 0.02 0.01 0.02 0.03 0.03 0.02 0.02 0.03 0.07 0.28 0.35 0.33 0.31 0.45 0.41 0.44 0.47 0.59 0.50 0.75 1.15 0.97 0.72
0.00 0.00 0.00 0.00 0.00 0.00 0.00 0.00 0.01 0.06 0.26 0.37 0.14 0.14 0.29 0.58 1.03 0.80 0.96 1.37 1.51 1.15 1.17 1.04 1.10 0.87 0.31 0.13 0.06 0.04 0.03 0.01 0.00 0.01 0.05 0.12 0.12 0.25 0.25 0.45 0.33 0.20 0.19 0.45 0.60 0.71 0.93 0.83 0.98
0.00 0.00 0.00 0.00 0.00 0.00 0.00 0.01 0.16 0.18 0.12 0.07 0.19 0.26 0.33 0.47 0.71 0.78 0.61 0.86 1.20 1.12 1.23 1.41 1.41 0.95 0.56 0.50 0.20 0.07 0.02 0.00 0.00 0.00 0.01 0.07 0.08 0.13 0.18 0.39 0.46 0.51 0.44 0.78 1.16 1.76 1.28 0.72 1.05
0.00 0.00 0.00 0.00 0.00 0.01 0.02 0.03 0.12 0.12 0.42 0.43 0.15 0.37 0.53 0.60 0.40 0.55 1.02 1.11 1.78 1.81 2.28 2.46 1.95 1.73 0.60 0.45 0.36 0.15 0.04 0.01 0.00 0.00 0.00 0.00 0.01 0.03 0.05 0.07 0.20 0.53 1.18 1.33 1.12 1.24 1.41 0.98 0.29
0.00 0.00 0.00 0.00 0.00 0.03 0.07 0.19 0.34 0.31 0.73 0.52 0.46 0.66 0.66 0.78 0.65 0.57 1.09 1.91 3.18 3.36 3.33 4.25 3.48 3.37 2.66 1.29 0.48 0.23 0.14 0.07 0.02 0.00 0.00 0.00 0.00 0.00 0.01 0.02 0.04 0.07 0.10 0.15 0.16 0.14 0.11 0.16 0.09
0.00 0.00 0.00 0.00 0.01 0.01 0.04 0.19 0.36 0.22 0.62 1.20 0.49 0.62 0.44 0.40 0.60 1.08 1.65 2.31 3.87 5.85 5.84 5.12 5.60 3.30 2.66 2.47 0.84 0.37 0.22 0.15 0.10 0.03 0.01 0.01 0.01 0.00 0.01 0.00 0.00 0.00 0.03 0.06 0.09 0.08 0.02 0.01 0.01
0.00 0.00 0.00 0.00 0.01 0.02 0.06 0.29 0.38 0.15 0.19 0.25 0.33 0.59 0.76 0.39 0.54 0.91 1.65 2.10 3.74 6.57 9.34 6.71 6.50 4.40 2.78 2.29 1.77 0.48 0.30 0.23 0.15 0.10 0.05 0.01 0.00 0.00 0.01 0.01 0.01 0.01 0.03 0.05 0.07 0.08 0.03 0.02 0.00
0.00 0.00 0.00 0.01 0.02 0.05 0.17 0.40 0.32 0.13 0.09 0.16 0.27 0.46 0.62 0.50 0.30 0.76 1.07 1.50 2.10 3.69 5.27 5.82 7.28 6.03 3.32 2.00 2.08 0.98 0.66 0.35 0.22 0.20 0.14 0.02 0.02 0.00 0.00 0.02 0.03 0.04 0.03 0.04 0.06 0.09 0.05 0.01 0.00
0.00 0.00 0.00 0.00 0.05 0.22 0.30 0.46 0.19 0.16 0.38 0.38 0.96 0.58 0.91 0.64 0.33 0.58 0.98 1.00 1.73 2.08 2.39 3.31 5.34 6.91 4.31 2.75 1.70 1.17 0.90 0.57 0.34 0.22 0.16 0.03 0.03 0.01 0.01 0.02 0.04 0.07 0.06 0.06 0.13 0.15 0.08 0.04 0.04
0.00 0.00 0.00 0.01 0.04 0.10 0.07 0.07 0.02 0.03 0.05 0.31 0.50 0.44 0.52 0.61 0.60 0.68 0.97 0.90 1.27 1.35 1.40 1.46 2.46 4.20 3.65 3.01 2.36 1.52 0.95 0.61 0.40 0.22 0.19 0.06 0.01 0.04 0.06 0.11 0.16 0.12 0.12 0.18 0.18 0.37 0.41 0.34 0.20
0.00 0.00 0.00 0.00 0.03 0.04 0.00 0.05 0.02 0.02 0.05 0.08 0.15 0.28 0.46 0.59 0.58 0.71 0.95 1.12 0.86 1.21 1.13 1.07 0.82 1.85 1.94 1.65 1.86 1.25 0.64 0.42 0.29 0.25 0.28 0.17 0.16 0.21 0.13 0.08 0.10 0.08 0.09 0.10 0.19 0.39 0.33 0.26 0.31
0.00 0.00 0.00 0.03 0.01 0.00 0.00 0.00 0.07 0.06 0.09 0.27 0.17 0.60 0.69 0.64 0.59 0.72 1.21 0.83 1.11 1.11 1.15 1.02 0.69 0.85 1.40 1.50 1.44 0.88 0.26 0.20 0.21 0.26 0.36 0.33 0.41 0.48 0.34 0.21 0.04 0.02 0.02 0.04 0.04 0.07 0.12 0.14 0.13
0.00 0.00 0.00 0.00 0.00 0.00 0.01 0.00 0.01 0.18 0.30 0.68 0.58 0.86 0.95 0.61 0.62 1.09 0.61 0.35 0.46 0.70 0.57 0.58 0.72 0.59 0.84 1.34 0.97 0.75 0.27 0.13 0.16 0.26 0.34 0.34 0.35 0.34 0.21 0.12 0.07 0.05 0.03 0.01 0.03 0.03 0.04 0.05 0.06
0.00 0.00 0.00 0.00 0.00 0.00 0.02 0.08 0.16 0.07 0.06 0.19 0.41 0.35 0.41 0.30 0.21 0.29 0.23 0.12 0.20 0.48 0.45 0.45 0.47 0.59 0.97 1.17 0.85 0.63 0.37 0.15 0.13 0.27 0.40 0.51 0.39 0.28 0.16 0.08 0.03 0.01 0.00 0.00 0.00 0.00 0.02 0.04 0.07
0.00 0.00 0.01 0.09 0.00 0.00 0.00 0.13 0.28 0.06 0.08 0.09 0.10 0.09 0.19 0.29 0.21 0.29 0.15 0.10 0.08 0.37 0.30 0.31 0.53 0.81 0.89 0.96 0.75 0.64 0.47 0.31 0.34 0.33 0.42 0.52 0.36 0.16 0.10 0.06 0.02 0.00 0.00 0.00 0.00 0.00 0.00 0.01 0.04
0.00 0.00 0.00 0.00 0.00 0.00 0.00 0.01 0.07 0.06 0.04 0.06 0.04 0.01 0.05 0.35 0.53 0.24 0.14 0.10 0.07 0.12 0.16 0.50 0.81 1.16 1.24 1.03 0.93 1.12 1.00 0.71 0.49 0.38 0.38 0.25 0.23 0.09 0.07 0.04 0.02 0.01 0.00 0.00 0.00 0.00 0.00 0.00 0.00
0.00 0.00 0.00 0.00 0.00 0.00 0.00 0.00 0.03 0.04 0.02 0.01 0.01 0.00 0.01 0.02 0.07 0.03 0.03 0.03 0.08 0.12 0.12 0.67 1.06 1.32 1.35 1.88 1.68 1.05 0.47 0.37 0.31 0.26 0.34 0.27 0.19 0.25 0.23 0.12 0.03 0.02 0.00 0.00 0.00 0.00 0.00 0.00 0.00
0.00 0.00 0.00 0.00 0.00 0.00 0.00 0.00 0.02 0.04 0.03 0.13 0.01 0.00 0.00 0.00 0.00 0.01 0.02 0.04 0.08 0.12 0.31 0.81 1.20 1.51 1.13 0.74 0.33 0.17 0.14 0.22 0.26 0.22 0.23 0.16 0.18 0.12 0.19 0.08 0.04 0.00 0.00 0.00 0.00 0.00 0.01 0.01 0.00
0.00 0.00 0.00 0.00 0.00 0.00 0.00 0.00 0.01 0.02 0.02 0.05 0.02 0.01 0.00 0.00 0.01 0.02 0.03 0.09 0.14 0.27 0.37 0.41 0.36 0.53 0.21 0.10 0.07 0.12 0.08 0.11 0.18 0.24 0.13 0.12 0.20 0.20 0.09 0.02 0.07 0.00 0.00 0.00 0.01 0.01 0.02 0.01 0.00
0.00 0.00 0.00 0.00 0.00 0.00 0.00 0.00 0.00 0.01 0.03 0.02 0.03 0.01 0.00 0.00 0.00 0.02 0.09 0.12 0.15 0.15 0.17 0.06 0.06 0.27 0.21 0.08 0.10 0.14 0.23 0.16 0.14 0.28 0.20 0.09 0.18 0.31 0.24 0.04 0.03 0.02 0.01 0.01 0.01 0.01 0.01 0.01 0.00
0.00 0.00 0.00 0.00 0.00 0.01 0.00 0.01 0.02 0.00 0.01 0.01 0.01 0.01 0.01 0.01 0.01 0.01 0.01 0.02 0.02 0.02 0.03 0.02 0.06 0.13 0.17 0.19 0.23 0.19 0.17 0.17 0.10 0.09 0.06 0.07 0.08 0.10 0.10 0.03 0.02 0.02 0.02 0.01 0.03 0.03 0.03 0.02 0.01
0.03 0.00 0.00 0.00 0.00 0.01 0.01 0.00 0.01 0.00 0.00 0.00 0.00 0.01 0.00 0.01 0.01 0.00 0.01 0.02 0.01 0.04 0.04 0.09 0.13 0.15 0.12 0.17 0.31 0.19 0.17 0.18 0.18 0.09 0.09 0.08 0.10 0.09 0.08 0.04 0.05 0.04 0.01 0.06 0.06 0.03 0.04 0.05 0.04
0.00 0.00 0.00 0.00 0.00 0.00 0.01 0.01 0.01 0.01 0.01 0.01 0.00 0.00 0.00 0.02 0.01 0.01 0.02 0.02 0.03 0.11 0.17 0.15 0.13 0.14 0.15 0.21 0.26 0.26 0.18 0.14 0.10 0.08 0.09 0.07 0.05 0.06 0.02 0.01 0.01 0.01 0.02 0.06 0.08 0.13 0.10 0.08 0.06
0.00 0.00 0.01 0.11 0.04 0.02 0.05 0.06 0.02 0.01 0.01 0.05 0.00 0.00 0.00 0.01 0.01 0.02 0.02 0.06 0.09 0.20 0.21 0.16 0.13 0.11 0.15 0.19 0.26 0.20 0.14 0.09 0.08 0.04 0.04 0.04 0.03 0.03 0.02 0.02 0.02 0.01 0.06 0.08 0.09 0.12 0.13 0.13 0.16
0.00 0.00 0.02 0.08 0.07 0.07 0.08 0.01 0.01 0.00 0.00 0.00 0.00 0.00 0.00 0.00 0.00 0.01 0.04 0.06 0.10 0.30 0.22 0.10 0.04 0.03 0.05 0.08 0.15 0.13 0.13 0.10 0.08 0.07 0.12 0.06 0.03 0.03 0.04 0.04 0.04 0.06 0.09 0.09 0.13 0.19 0.29 0.51 0.74
0.02 0.04 0.01 0.01 0.02 0.02 0.01 0.01 0.01 0.01 0.00 0.00 0.00 0.00 0.00 0.00 0.00 0.00 0.02 0.05 0.11 0.22 0.16 0.04 0.01 0.00 0.01 0.02 0.06 0.11 0.14 0.07 0.13 0.31 0.18 0.17 0.08 0.06 0.05 0.13 0.16 0.15 0.18 0.20 0.28 0.41 0.59 0.69 0.63
0.00 0.02 0.02 0.01 0.01 0.02 0.00 0.01 0.01 0.01 0.00 0.00 0.00 0.00 0.00 0.00 0.00 0.00 0.01 0.02 0.07 0.16 0.16 0.19 0.11 0.02 0.00 0.01 0.04 0.04 0.13 0.15 0.17 0.29 0.14 0.17 0.18 0.23 0.36 0.36 0.37 0.39 0.34 0.38 0.57 0.64 0.59 0.50 0.43
0.00 0.00 0.00 0.00 0.00 0.04 0.08 0.01 0.00 0.01 0.01 0.00 0.00 0.00 0.00 0.00 0.00 0.00 0.00 0.00 0.04 0.13 0.15 0.20 0.31 0.20 0.07 0.02 0.02 0.04 0.18 0.18 0.28 0.28 0.33 0.32 0.48 0.55 0.59 0.65 0.63 0.74 0.89 0.82 0.69 0.59 0.48 0.39 0.32
0.00 0.00 0.01 0.01 0.02 0.01 0.03 0.01 0.00 0.00 0.00 0.00 0.00 0.00 0.00 0.00 0.00 0.00 0.00 0.00 0.01 0.10 0.14 0.08 0.25 0.26 0.29 0.18 0.12 0.13 0.30 0.35 0.41 0.56 0.53 0.63 0.78 0.82 0.91 0.96 0.85 0.77 0.79 0.91 0.94 0.82 0.70 0.58 0.47

GFSSGP_prec_precacc_096.txt.gz
Total_Precipitation_Accumulation
0.00 0.00 0.00 0.00 0.00 0.00 0.00 0.00 0.00 0.03 0.05 0.11 0.11 0.17 0.12 0.21 0.58 1.07 0.89 1.31 1.58 0.58 0.50 0.39 0.10 0.02 0.03 0.07 0.08 0.06 0.04 0.02 0.05 0.08 0.16 0.27 0.34 0.50 0.51 0.37 0.33 0.55 0.69 0.54 0.40 0.37 0.49 0.45 0.27
0.00 0.00 0.00 0.00 0.00 0.00 0.00 0.00 0.02 0.10 0.37 0.43 0.30 0.29 0.32 0.81 0.88 1.44 1.33 2.24 2.41 1.33 0.88 0.85 0.57 0.09 0.02 0.02 0.02 0.03 0.03 0.02 0.02 0.03 0.08 0.28 0.35 0.33 0.31 0.45 0.41 0.44 0.47 0.59 0.50 0.75 1.15 0.97 0.72
0.00 0.00 0.00 0.00 0.00 0.00 0.00 0.00 0.01 0.06 0.26 0.37 0.14 0.14 0.29 0.58 1.03 0.80 0.96 1.37 1.51 1.15 1.17 1.04 1.10 0.87 0.32 0.14 0.06 0.04 0.03 0.01 0.00 0.01 0.05 0.12 0.12 0.25 0.25 0.45 0.33 0.20 0.19 0.45 0.60 0.71 0.93 0.83 0.98
0.00 0.00 0.00 0.00 0.00 0.00 0.00 0.01 0.16 0.18 0.12 0.07 0.19 0.26 0.33 0.47 0.71 0.78 0.61 0.86 1.20 1.13 1.26 1.45 1.44 0.96 0.56 0.51 0.21 0.07 0.02 0.00 0.00 0.00 0.01 0.07 0.08 0.13 0.18 0.39 0.46 0.51 0.44 0.78 1.16 1.76 1.28 0.72 1.05
0.00 0.00 0.00 0.00 0.00 0.01 0.02 0.03 0.12 0.12 0.42 0.43 0.15 0.37 0.53 0.60 0.40 0.55 1.02 1.11 1.78 1.83 2.55 3.26 2.72 2.11 0.76 0.46 0.36 0.15 0.04 0.01 0.00 0.00 0.00 0.00 0.01 0.03 0.05 0.07 0.20 0.53 1.18 1.33 1.12 1.24 1.41 0.98 0.29
0.00 0.00 0.00 0.00 0.00 0.03 0.07 0.19 0.34 0.31 0.73 0.52 0.46 0.66 0.66 0.78 0.65 0.57 1.09 1.91 3.18 3.36 3.45 5.09 5.61 4.76 3.31 1.66 0.55 0.26 0.14 0.07 0.02 0.00 0.00 0.00 0.00 0.00 0.01 0.02 0.04 0.07 0.10 0.15 0.16 0.14 0.11 0.16 0.09
0.00 0.00 0.00 0.00 0.01 0.01 0.04 0.19 0.36 0.22 0.62 1.20 0.49 0.62 0.44 0.40 0.60 1.08 1.65 2.31 3.87 5.85 5.86 5.26 7.51 5.07 3.45 3.13 1.57 1.26 0.47 0.18 0.11 0.03 0.01 0.01 0.01 0.00 0.01 0.00 0.00 0.00 0.03 0.06 0.09 0.08 0.02 0.01 0.01
0.00 0.00 0.00 0.00 0.01 0.02 0.06 0.29 0.38 0.15 0.19 0.25 0.33 0.59 0.76 0.39 0.54 0.91 1.65 2.10 3.74 6.58 9.34 6.73 6.72 5.15 3.33 2.63 2.05 0.89 0.94 0.51 0.17 0.10 0.05 0.01 0.00 0.00 0.01 0.01 0.01 0.01 0.03 0.05 0.07 0.08 0.03 0.02 0.00
0.00 0.00 0.00 0.01 0.02 0.05 0.17 0.40 0.32 0.13 0.09 0.16 0.27 0.46 0.62 0.50 0.30 0.76 1.07 1.50 2.10 3.69 5.27 5.83 7.30 6.09 3.44 2.05 2.19 1.22 1.29 0.68 0.24 0.20 0.14 0.02 0.02 0.00 0.00 0.02 0.03 0.04 0.03 0.04 0.06 0.09 0.05 0.01 0.00
0.00 0.00 0.00 0.00 0.05 0.22 0.30 0.46 0.19 0.16 0.38 0.38 0.96 0.58 0.91 0.64 0.33 0.58 0.98 1.00 1.73 2.09 2.40 3.32 5.34 6.93 4.33 2.81 1.80 1.32 1.14 0.87 0.39 0.22 0.16 0.03 0.03 0.01 0.01 0.02 0.04 0.07 0.06 0.06 0.13 0.15 0.08 0.04 0.04
0.00 0.00 0.00 0.01 0.04 0.10 0.07 0.07 0.02 0.03 0.05 0.31 0.50 0.44 0.52 0.61 0.60 0.68 0.97 0.90 1.27 1.36 1.43 1.47 2.48 4.22 3.71 3.07 2.49 1.67 1.14 0.87 0.57 0.26 0.19 0.07 0.02 0.05 0.06 0.11 0.16 0.12 0.12 0.18 0.18 0.37 0.41 0.34 0.20
0.00 0.00 0.00 0.00 0.03 0.04 0.00 0.05 0.02 0.02 0.05 0.08 0.15 0.28 0.46 0.59 0.58 0.71 0.95 1.13 0.86 1.21 1.15 1.09 0.85 1.86 1.97 1.72 1.96 1.46 0.86 0.65 0.47 0.37 0.32 0.18 0.16 0.22 0.13 0.08 0.10 0.08 0.09 0.10 0.19 0.39 0.33 0.26 0.31
0.00 0.00 0.00 0.03 0.01 0.00 0.00 0.00 0.07 0.06 0.09 0.27 0.17 0.60 0.69 0.64 0.59 0.72 1.22 0.83 1.11 1.11 1.16 1.04 0.71 0.87 1.42 1.53 1.54 1.09 0.52 0.45 0.42 0.42 0.43 0.34 0.41 0.48 0.34 0.21 0.04 0.02 0.02 0.04 0.04 0.07 0.12 0.14 0.13
0.00 0.00 0.00 0.00 0.00 0.00 0.01 0.00 0.01 0.18 0.30 0.68 0.58 0.86 0.95 0.61 0.62 1.09 0.61 0.36 0.47 0.70 0.57 0.58 0.72 0.60 0.85 1.37 1.00 0.98 0.54 0.27 0.37 0.47 0.38 0.34 0.35 0.34 0.21 0.12 0.07 0.05 0.03 0.01 0.03 0.03 0.04 0.05 0.06
0.00 0.00 0.00 0.00 0.00 0.00 0.02 0.08 0.16 0.07 0.06 0.19 0.41 0.35 0.41 0.30 0.21 0.29 0.23 0.13 0.20 0.48 0.45 0.45 0.48 0.60 0.98 1.18 0.90 0.76 0.60 0.26 0.19 0.41 0.49 0.53 0.39 0.28 0.16 0.08 0.03 0.01 0.00 0.00 0.00 0.00 0.02 0.04 0.07
0.00 0.00 0.01 0.09 0.00 0.00 0.00 0.13 0.28 0.06 0.08 0.09 0.10 0.09 0.19 0.29 0.21 0.29 0.15 0.10 0.08 0.37 0.31 0.31 0.53 0.81 0.92 1.01 0.86 0.86 0.68 0.47 0.43 0.41 0.55 0.59 0.36 0.16 0.10 0.06 0.02 0.00 0.00 0.00 0.00 0.00 0.00 0.01 0.04
0.00 0.00 0.00 0.00 0.00 0.00 0.00 0.01 0.07 0.06 0.04 0.06 0.04 0.01 0.05 0.35 0.53 0.24 0.14 0.10 0.07 0.12 0.16 0.50 0.81 1.17 1.35 1.21 1.11 1.47 1.22 0.89 0.62 0.52 0.57 0.39 0.25 0.09 0.07 0.04 0.02 0.01 0.00 0.00 0.00 0.00 0.00 0.00 0.00
0.00 0.00 0.00 0.00 0.00 0.00 0.00 0.00 0.03 0.04 0.02 0.01 0.01 0.00 0.01 0.02 0.07 0.03 0.03 0.03 0.08 0.12 0.12 0.67 1.06 1.32 1.38 2.06 1.86 1.56 0.80 0.66 0.55 0.48 0.56 0.47 0.23 0.25 0.23 0.12 0.03 0.02 0.00 0.00 0.00 0.00 0.00 0.00 0.00
0.00 0.00 0.00 0.00 0.00 0.00 0.00 0.00 0.02 0.04 0.03 0.13 0.01 0.00 0.00 0.00 0.00 0.01 0.02 0.05 0.08 0.12 0.31 0.81 1.21 1.52 1.14 0.77 0.50 0.57 0.42 0.45 0.49 0.45 0.44 0.31 0.21 0.12 0.19 0.08 0.04 0.00 0.00 0.00 0.00 0.00 0.01 0.01 0.01
0.00 0.00 0.00 0.00 0.00 0.00 0.00 0.00 0.01 0.02 0.02 0.05 0.02 0.01 0.00 0.00 0.01 0.02 0.04 0.10 0.14 0.27 0.37 0.41 0.37 0.53 0.21 0.14 0.18 0.31 0.19 0.24 0.29 0.34 0.22 0.18 0.22 0.21 0.09 0.02 0.07 0.00 0.00 0.00 0.01 0.01 0.02 0.02 0.02
0.00 0.00 0.00 0.00 0.00 0.00 0.00 0.00 0.00 0.01 0.03 0.02 0.03 0.01 0.00 0.00 0.00 0.02 0.09 0.13 0.15 0.15 0.17 0.06 0.06 0.27 0.21 0.10 0.13 0.21 0.32 0.24 0.19 0.32 0.24 0.12 0.20 0.31 0.24 0.04 0.03 0.02 0.01 0.01 0.01 0.01 0.01 0.02 0.02
0.00 0.00 0.00 0.00 0.00 0.01 0.00 0.01 0.02 0.00 0.01 0.01 0.01 0.01 0.01 0.01 0.01 0.01 0.01 0.02 0.02 0.02 0.03 0.02 0.06 0.13 0.18 0.19 0.23 0.21 0.22 0.21 0.11 0.09 0.06 0.08 0.09 0.10 0.10 0.03 0.02 0.02 0.02 0.01 0.03 0.03 0.03 0.02 0.02
0.03 0.00 0.00 0.00 0.00 0.01 0.01 0.00 0.01 0.00 0.00 0.00 0.00 0.01 0.00 0.01 0.01 0.00 0.01 0.02 0.01 0.04 0.04 0.09 0.13 0.15 0.12 0.17 0.31 0.19 0.17 0.19 0.22 0.10 0.09 0.08 0.10 0.09 0.08 0.04 0.05 0.04 0.01 0.06 0.06 0.04 0.04 0.05 0.04
0.00 0.00 0.00 0.00 0.00 0.00 0.01 0.01 0.01 0.01 0.01 0.01 0.00 0.00 0.00 0.02 0.01 0.01 0.02 0.02 0.03 0.12 0.17 0.15 0.13 0.14 0.15 0.21 0.26 0.26 0.18 0.14 0.10 0.09 0.10 0.07 0.05 0.06 0.02 0.01 0.01 0.01 0.02 0.06 0.08 0.14 0.11 0.10 0.09
0.00 0.00 0.01 0.11 0.04 0.02 0.05 0.06 0.02 0.01 0.01 0.05 0.00 0.00 0.00 0.01 0.01 0.02 0.02 0.06 0.09 0.20 0.22 0.16 0.13 0.11 0.15 0.19 0.26 0.20 0.14 0.09 0.08 0.04 0.04 0.04 0.03 0.03 0.02 0.02 0.02 0.02 0.06 0.10 0.11 0.13 0.13 0.14 0.18
0.00 0.00 0.02 0.08 0.07 0.07 0.08 0.01 0.01 0.00 0.00 0.00 0.00 0.00 0.00 0.00 0.00 0.01 0.04 0.06 0.10 0.30 0.22 0.10 0.04 0.03 0.05 0.08 0.15 0.13 0.13 0.10 0.08 0.07 0.12 0.06 0.03 0.03 0.04 0.04 0.04 0.07 0.11 0.12 0.17 0.22 0.30 0.51 0.74
0.02 0.04 0.01 0.01 0.02 0.02 0.01 0.01 0.01 0.01 0.00 0.00 0.00 0.00 0.00 0.00 0.00 0.00 0.02 0.05 0.11 0.22 0.16 0.04 0.01 0.00 0.01 0.02 0.06 0.11 0.14 0.07 0.13 0.31 0.18 0.17 0.08 0.06 0.05 0.13 0.16 0.15 0.19 0.22 0.30 0.42 0.59 0.69 0.63
0.00 0.02 0.02 0.01 0.01 0.02 0.00 0.01 0.01 0.01 0.00 0.00 0.00 0.00 0.00 0.00 0.00 0.00 0.01 0.02 0.07 0.16 0.16 0.19 0.11 0.02 0.00 0.01 0.04 0.04 0.13 0.15 0.17 0.29 0.14 0.17 0.18 0.23 0.36 0.36 0.37 0.39 0.34 0.38 0.57 0.64 0.59 0.51 0.43
0.00 0.00 0.00 0.00 0.00 0.04 0.08 0.01 0.00 0.01 0.01 0.00 0.00 0.00 0.00 0.00 0.00 0.00 0.00 0.00 0.04 0.13 0.15 0.20 0.31 0.20 0.07 0.02 0.02 0.04 0.18 0.18 0.28 0.28 0.33 0.32 0.48 0.55 0.59 0.65 0.63 0.74 0.89 0.82 0.69 0.59 0.48 0.39 0.32
0.00 0.00 0.01 0.01 0.02 0.01 0.03 0.01 0.00 0.00 0.00 0.00 0.00 0.00 0.00 0.00 0.00 0.00 0.00 0.00 0.01 0.10 0.14 0.08 0.25 0.26 0.29 0.18 0.12 0.13 0.30 0.35 0.41 0.56 0.53 0.63 0.78 0.82 0.91 0.96 0.85 0.77 0.79 0.91 0.94 0.83 0.71 0.62 0.55

GFSSGP_prec_precacc_102.txt.gz
Total_Precipitation_Accumulation
0.00 0.00 0.00 0.00 0.00 0.00 0.00 0.00 0.00 0.03 0.05 0.11 0.11 0.17 0.12 0.21 0.58 1.07 0.89 1.31 1.58 0.58 0.50 0.40 0.10 0.02 0.04 0.08 0.08 0.06 0.04 0.02 0.05 0.08 0.16 0.27 0.34 0.50 0.51 0.37 0.34 0.55 0.70 0.55 0.40 0.38 0.49 0.46 0.27
0.00 0.00 0.00 0.00 0.00 0.00 0.00 0.00 0.02 0.10 0.37 0.43 0.30 0.29 0.32 0.81 0.88 1.44 1.33 2.24 2.41 1.33 0.88 0.85 0.57 0.09 0.04 0.03 0.03 0.03 0.03 0.02 0.02 0.03 0.10 0.31 0.37 0.33 0.31 0.45 0.41 0.44 0.47 0.59 0.50 0.75 1.16 0.98 0.72
0.00 0.00 0.00 0.00 0.00 0.00 0.00 0.00 0.01 0.06 0.26 0.37 0.14 0.14 0.29 0.58 1.03 0.80 0.96 1.37 1.51 1.15 1.17 1.04 1.11 0.87 0.32 0.16 0.07 0.04 0.07 0.02 0.00 0.03 0.13 0.19 0.16 0.27 0.25 0.45 0.33 0.20 0.19 0.45 0.60 0.71 0.93 0.83 0.98
0.00 0.00 0.00 0.00 0.00 0.00 0.00 0.01 0.16 0.18 0.12 0.07 0.19 0.26 0.33 0.47 0.71 0.78 0.61 0.86 1.20 1.13 1.26 1.45 1.45 0.97 0.59 0.60 0.24 0.08 0.08 0.01 0.00 0.01 0.04 0.15 0.23 0.15 0.18 0.39 0.46 0.51 0.44 0.78 1.16 1.76 1.28 0.72 1.05
0.00 0.00 0.00 0.00 0.00 0.01 0.02 0.03 0.12 0.12 0.42 0.43 0.15 0.37 0.53 0.60 0.40 0.55 1.02 1.11 1.78 1.83 2.55 3.31 2.97 2.41 1.10 0.98 0.76 0.33 0.14 0.04 0.00 0.01 0.05 0.09 0.52 0.22 0.06 0.07 0.20 0.53 1.18 1.33 1.12 1.24 1.41 0.98 0.29
0.00 0.00 0.00 0.00 0.00 0.03 0.07 0.19 0.34 0.31 0.73 0.52 0.46 0.66 0.66 0.78 0.65 0.57 1.09 1.91 3.18 3.36 3.45 5.11 5.72 5.42 4.22 2.66 1.89 1.51 1.05 0.50 0.15 0.05 0.05 0.02 0.19 0.29 0.05 0.02 0.04 0.07 0.10 0.15 0.16 0.14 0.11 0.16 0.09
0.00 0.00 0.00 0.00 0.01 0.01 0.04 0.19 0.36 0.22 0.62 1.20 0.49 0.62 0.44 0.40 0.60 1.08 1.65 2.31 3.87 5.85 5.86 5.26 7.51 5.13 4.02 4.23 3.27 3.31 2.19 1.39 0.52 0.19 0.10 0.06 0.05 0.01 0.01 0.00 0.00 0.00 0.03 0.06 0.09 0.08 0.02 0.01 0.01
0.00 0.00 0.00 0.00 0.01 0.02 0.06 0.29 0.38 0.15 0.19 0.25 0.33 0.59 0.76 0.39 0.54 0.91 1.65 2.10 3.74 6.58 9.34 6.73 6.72 5.23 3.50 3.41 3.94 3.20 3.29 2.37 1.11 0.36 0.23 0.09 0.08 0.02 0.01 0.01 0.01 0.01 0.03 0.05 0.07 0.08 0.03 0.02 0.00
0.00 0.00 0.00 0.01 0.02 0.05 0.17 0.40 0.32 0.13 0.09 0.16 0.27 0.46 0.62 0.50 0.30 0.76 1.07 1.50 2.10 3.69 5.27 5.84 7.31 6.11 3.63 2.51 3.41 2.91 3.51 2.83 1.47 0.61 0.37 0.16 0.07 0.01 0.00 0.02 0.03 0.04 0.03 0.04 0.06 0.09 0.05 0.01 0.00
0.00 0.00 0.00 0.00 0.05 0.22 0.30 0.46 0.19 0.16 0.38 0.38 0.96 0.58 0.91 0.64 0.33 0.58 0.98 1.00 1.73 2.10 2.40 3.33 5.34 6.93 4.40 2.97 2.10 2.19 2.87 4.41 1.69 0.53 0.36 0.20 0.06 0.01 0.02 0.02 0.05 0.07 0.06 0.06 0.13 0.15 0.08 0.04 0.04
0.00 0.00 0.00 0.01 0.04 0.10 0.07 0.07 0.02 0.03 0.05 0.31 0.50 0.44 0.52 0.61 0.60 0.68 0.97 0.90 1.27 1.36 1.46 1.47 2.49 4.22 3.72 3.11 2.57 2.20 2.37 4.02 2.99 0.62 0.31 0.17 0.06 0.12 0.11 0.13 0.17 0.12 0.12 0.18 0.18 0.37 0.41 0.34 0.20
0.00 0.00 0.00 0.00 0.03 0.04 0.00 0.05 0.02 0.02 0.05 0.08 0.15 0.28 0.46 0.59 0.58 0.71 0.95 1.13 0.86 1.21 1.18 1.12 0.87 1.90 1.99 1.76 2.08 1.90 1.25 1.61 3.12 1.16 0.54 0.22 0.21 0.31 0.18 0.11 0.10 0.08 0.09 0.10 0.19 0.39 0.33 0.26 0.31
0.00 0.00 0.00 0.03 0.01 0.00 0.00 0.00 0.07 0.06 0.09 0.27 0.17 0.60 0.69 0.64 0.59 0.72 1.22 0.83 1.11 1.11 1.16 1.07 0.80 0.97 1.54 1.67 1.74 1.41 0.69 0.68 1.50 1.54 0.71 0.40 0.45 0.54 0.41 0.25 0.04 0.02 0.02 0.04 0.04 0.07 0.12 0.14 0.13
0.00 0.00 0.00 0.00 0.00 0.00 0.01 0.00 0.01 0.18 0.30 0.68 0.58 0.86 0.95 0.61 0.62 1.09 0.61 0.36 0.47 0.70 0.58 0.60 0.77 0.64 0.92 1.49 1.20 1.24 0.71 0.37 0.76 1.51 0.67 0.46 0.41 0.37 0.21 0.14 0.09 0.05 0.03 0.01 0.03 0.03 0.04 0.05 0.06
0.00 0.00 0.00 0.00 0.00 0.00 0.02 0.08 0.16 0.07 0.06 0.19 0.41 0.35 0.41 0.30 0.21 0.29 0.23 0.13 0.21 0.49 0.45 0.46 0.49 0.62 1.00 1.21 1.02 0.94 0.74 0.42 0.40 0.93 0.80 0.78 0.50 0.31 0.16 0.09 0.06 0.02 0.00 0.00 0.00 0.00 0.02 0.04 0.07
0.00 0.00 0.01 0.09 0.00 0.00 0.00 0.13 0.28 0.06 0.08 0.09 0.10 0.09 0.19 0.29 0.21 0.29 0.15 0.10 0.08 0.38 0.31 0.31 0.54 0.82 0.93 1.02 0.90 0.97 0.79 0.57 0.61 0.62 0.79 0.87 0.65 0.22 0.11 0.06 0.03 0.01 0.00 0.00 0.00 0.00 0.00 0.01 0.04
0.00 0.00 0.00 0.00 0.00 0.00 0.00 0.01 0.07 0.06 0.04 0.06 0.04 0.01 0.05 0.35 0.53 0.24 0.14 0.10 0.07 0.12 0.17 0.51 0.81 1.17 1.36 1.22 1.13 1.52 1.31 1.03 0.77 0.70 0.71 0.56 0.46 0.20 0.07 0.05 0.06 0.03 0.00 0.00 0.00 0.00 0.00 0.00 0.00
0.00 0.00 0.00 0.00 0.00 0.00 0.00 0.00 0.03 0.04 0.02 0.01 0.01 0.00 0.01 0.02 0.07 0.03 0.03 0.03 0.08 0.13 0.12 0.68 1.07 1.33 1.39 2.07 1.89 1.66 0.97 0.80 0.78 0.62 0.70 0.58 0.37 0.34 0.24 0.13 0.05 0.06 0.03 0.02 0.00 0.00 0.00 0.00 0.00
0.00 0.00 0.00 0.00 0.00 0.00 0.00 0.00 0.02 0.04 0.03 0.13 0.01 0.00 0.00 0.00 0.00 0.01 0.02 0.05 0.08 0.12 0.31 0.81 1.21 1.52 1.15 0.77 0.56 0.83 0.79 0.72 0.81 0.68 0.60 0.47 0.36 0.22 0.22 0.08 0.05 0.01 0.01 0.03 0.00 0.00 0.01 0.01 0.01
0.00 0.00 0.00 0.00 0.00 0.00 0.00 0.00 0.01 0.02 0.02 0.05 0.02 0.01 0.00 0.00 0.01 0.02 0.04 0.10 0.14 0.27 0.38 0.41 0.37 0.54 0.22 0.15 0.23 0.51 0.58 0.64 0.64 0.75 0.58 0.46 0.39 0.30 0.13 0.04 0.08 0.00 0.00 0.01 0.01 0.01 0.02 0.02 0.02
0.00 0.00 0.00 0.00 0.00 0.00 0.00 0.00 0.00 0.01 0.03 0.02 0.03 0.01 0.00 0.00 0.00 0.02 0.09 0.13 0.15 0.15 0.17 0.06 0.06 0.27 0.22 0.10 0.16 0.40 0.65 0.72 0.81 0.95 0.76 0.50 0.43 0.40 0.29 0.08 0.05 0.03 0.01 0.01 0.01 0.01 0.01 0.02 0.02
0.00 0.00 0.00 0.00 0.00 0.01 0.00 0.01 0.02 0.00 0.01 0.01 0.01 0.01 0.01 0.01 0.01 0.01 0.01 0.02 0.02 0.02 0.03 0.02 0.06 0.13 0.18 0.20 0.24 0.32 0.62 0.64 0.71 0.67 0.46 0.44 0.36 0.24 0.17 0.08 0.05 0.04 0.03 0.01 0.03 0.03 0.03 0.02 0.02
0.03 0.00 0.00 0.00 0.00 0.01 0.01 0.00 0.01 0.00 0.00 0.00 0.00 0.01 0.00 0.01 0.01 0.00 0.01 0.02 0.01 0.04 0.04 0.10 0.13 0.15 0.12 0.17 0.31 0.22 0.31 0.44 0.60 0.63 0.58 0.46 0.40 0.26 0.18 0.10 0.07 0.07 0.06 0.10 0.07 0.04 0.04 0.05 0.04
0.00 0.00 0.00 0.00 0.00 0.00 0.01 0.01 0.01 0.01 0.01 0.01 0.00 0.00 0.00 0.02 0.01 0.01 0.02 0.02 0.03 0.12 0.17 0.16 0.13 0.14 0.15 0.21 0.27 0.27 0.19 0.16 0.22 0.37 0.41 0.37 0.30 0.21 0.14 0.10 0.07 0.08 0.09 0.14 0.13 0.15 0.12 0.10 0.09
0.00 0.00 0.01 0.11 0.04 0.02 0.05 0.06 0.02 0.01 0.01 0.05 0.00 0.00 0.00 0.01 0.01 0.02 0.02 0.06 0.09 0.20 0.22 0.16 0.13 0.12 0.15 0.19 0.26 0.20 0.15 0.09 0.08 0.08 0.14 0.18 0.16 0.10 0.08 0.07 0.07 0.08 0.11 0.14 0.19 0.18 0.19 0.17 0.20
0.00 0.00 0.03 0.09 0.07 0.08 0.08 0.02 0.01 0.00 0.00 0.00 0.00 0.00 0.00 0.00 0.00 0.01 0.04 0.06 0.10 0.30 0.22 0.10 0.04 0.04 0.05 0.08 0.15 0.13 0.13 0.10 0.09 0.07 0.13 0.07 0.08 0.06 0.06 0.05 0.05 0.09 0.13 0.14 0.23 0.35 0.40 0.60 0.81
0.02 0.04 0.01 0.01 0.02 0.04 0.02 0.01 0.01 0.01 0.00 0.00 0.00 0.00 0.00 0.00 0.00 0.00 0.02 0.05 0.11 0.22 0.16 0.04 0.01 0.00 0.01 0.02 0.06 0.11 0.14 0.07 0.13 0.31 0.18 0.18 0.08 0.07 0.05 0.13 0.16 0.16 0.19 0.23 0.32 0.46 0.65 0.75 0.69
0.00 0.02 0.02 0.01 0.02 0.03 0.00 0.01 0.01 0.01 0.00 0.00 0.00 0.00 0.00 0.00 0.00 0.00 0.01 0.02 0.07 0.16 0.16 0.19 0.11 0.02 0.00 0.01 0.04 0.04 0.13 0.15 0.17 0.29 0.14 0.17 0.19 0.23 0.37 0.36 0.37 0.39 0.35 0.38 0.58 0.65 0.61 0.55 0.47
0.00 0.00 0.00 0.00 0.00 0.05 0.08 0.01 0.00 0.01 0.01 0.00 0.00 0.00 0.00 0.00 0.00 0.00 0.00 0.00 0.04 0.13 0.15 0.20 0.31 0.20 0.07 0.02 0.02 0.04 0.18 0.18 0.28 0.28 0.33 0.32 0.48 0.55 0.59 0.65 0.63 0.74 0.89 0.82 0.69 0.60 0.48 0.40 0.33
0.01 0.00 0.01 0.01 0.02 0.01 0.03 0.02 0.00 0.00 0.00 0.00 0.00 0.00 0.00 0.00 0.00 0.00 0.00 0.00 0.01 0.10 0.14 0.08 0.25 0.26 0.29 0.18 0.12 0.13 0.30 0.35 0.41 0.56 0.53 0.63 0.78 0.82 0.91 0.96 0.85 0.77 0.79 0.91 0.94 0.83 0.71 0.62 0.55

GFSSGP_prec_precacc_105.txt.gz
Total_Precipitation_Accumulation
0.00 0.00 0.00 0.00 0.00 0.00 0.00 0.00 0.00 0.03 0.05 0.11 0.11 0.17 0.12 0.21 0.58 1.07 0.89 1.31 1.58 0.58 0.50 0.40 0.10 0.02 0.04 0.08 0.08 0.06 0.04 0.02 0.05 0.09 0.16 0.27 0.34 0.50 0.51 0.37 0.34 0.55 0.70 0.55 0.40 0.38 0.49 0.46 0.27
0.00 0.00 0.00 0.00 0.00 0.00 0.00 0.00 0.02 0.10 0.37 0.43 0.30 0.29 0.32 0.81 0.88 1.44 1.33 2.24 2.41 1.33 0.88 0.85 0.57 0.09 0.04 0.03 0.03 0.03 0.03 0.02 0.02 0.03 0.11 0.31 0.38 0.33 0.31 0.45 0.41 0.44 0.47 0.59 0.50 0.75 1.16 0.98 0.72
0.00 0.00 0.00 0.00 0.00 0.00 0.00 0.00 0.01 0.06 0.26 0.37 0.14 0.14 0.29 0.58 1.03 0.80 0.96 1.37 1.51 1.15 1.17 1.04 1.11 0.87 0.32 0.16 0.07 0.04 0.07 0.02 0.00 0.03 0.14 0.22 0.24 0.32 0.26 0.45 0.33 0.20 0.19 0.45 0.60 0.71 0.93 0.83 0.98
0.00 0.00 0.00 0.00 0.00 0.00 0.00 0.01 0.16 0.18 0.12 0.07 0.19 0.26 0.33 0.47 0.71 0.78 0.61 0.86 1.20 1.13 1.26 1.45 1.45 0.97 0.59 0.60 0.24 0.08 0.08 0.01 0.01 0.01 0.04 0.16 0.38 0.32 0.24 0.39 0.46 0.51 0.44 0.78 1.16 1.76 1.28 0.72 1.05
0.00 0.00 0.00 0.00 0.00 0.01 0.02 0.03 0.12 0.12 0.42 0.43 0.15 0.37 0.53 0.60 0.40 0.55 1.02 1.11 1.78 1.83 2.55 3.31 2.97 2.41 1.10 0.98 0.77 0.33 0.17 0.07 0.08 0.10 0.09 0.11 0.61 0.47 0.20 0.12 0.20 0.53 1.18 1.33 1.12 1.24 1.41 0.98 0.29
0.00 0.00 0.00 0.00 0.00 0.03 0.07 0.19 0.34 0.31 0.73 0.52 0.46 0.66 0.66 0.78 0.65 0.57 1.09 1.91 3.18 3.36 3.45 5.11 5.72 5.42 4.22 2.66 1.89 1.53 1.27 0.82 0.61 0.27 0.10 0.05 0.29 0.51 0.15 0.08 0.05 0.07 0.10 0.15 0.16 0.14 0.11 0.16 0.09
0.00 0.00 0.00 0.00 0.01 0.01 0.04 0.19 0.36 0.22 0.62 1.20 0.49 0.62 0.44 0.40 0.60 1.08 1.65 2.31 3.87 5.85 5.86 5.26 7.51 5.13 4.02 4.23 3.27 3.32 2.35 1.97 1.44 1.08 0.42 0.12 0.11 0.10 0.03 0.01 0.00 0.00 0.03 0.06 0.09 0.08 0.02 0.01 0.01
0.00 0.00 0.00 0.00 0.01 0.02 0.06 0.29 0.38 0.15 0.19 0.25 0.33 0.59 0.76 0.39 0.54 0.91 1.65 2.10 3.74 6.58 9.34 6.73 6.72 5.23 3.50 3.41 3.95 3.22 3.33 2.49 1.74 1.33 1.03 0.21 0.27 0.15 0.08 0.02 0.01 0.01 0.03 0.05 0.07 0.08 0.03 0.02 0.00
0.00 0.00 0.00 0.01 0.02 0.05 0.17 0.40 0.32 0.13 0.09 0.16 0.27 0.46 0.62 0.50 0.30 0.76 1.07 1.50 2.10 3.69 5.27 5.84 7.31 6.11 3.63 2.51 3.41 2.93 3.56 2.90 1.65 1.30 1.86 0.45 0.17 0.21 0.10 0.03 0.03 0.04 0.03 0.04 0.06 0.09 0.05 0.01 0.00
0.00 0.00 0.00 0.00 0.05 0.22 0.30 0.46 0.19 0.16 0.38 0.38 0.96 0.58 0.91 0.64 0.33 0.58 0.98 1.00 1.73 2.10 2.40 3.33 5.34 6.93 4.40 2.97 2.10 2.19 2.89 4.46 1.91 1.18 1.45 0.74 0.15 0.08 0.04 0.02 0.05 0.07 0.06 0.06 0.13 0.15 0.08 0.04 0.04
0.00 0.00 0.00 0.01 0.04 0.10 0.07 0.07 0.02 0.03 0.05 0.31 0.50 0.44 0.52 0.61 0.60 0.68 0.97 0.90 1.27 1.36 1.46 1.47 2.49 4.22 3.72 3.11 2.57 2.22 2.39 4.08 3.16 1.19 0.84 0.80 0.22 0.19 0.12 0.13 0.17 0.12 0.12 0.18 0.18 0.37 0.41 0.34 0.20
0.00 0.00 0.00 0.00 0.03 0.04 0.00 0.05 0.02 0.02 0.05 0.08 0.15 0.28 0.46 0.59 0.58 0.71 0.95 1.13 0.86 1.21 1.18 1.12 0.87 1.90 1.99 1.76 2.09 1.98 1.34 1.94 3.59 1.56 0.95 0.58 0.40 0.36 0.19 0.11 0.10 0.08 0.09 0.10 0.19 0.39 0.33 0.26 0.31
0.00 0.00 0.00 0.03 0.01 0.00 0.00 0.00 0.07 0.06 0.09 0.27 0.17 0.60 0.69 0.64 0.59 0.72 1.22 0.83 1.11 1.11 1.16 1.07 0.80 0.97 1.54 1.67 1.74 1.47 0.76 0.99 2.37 1.99 1.21 0.55 0.53 0.56 0.41 0.25 0.04 0.02 0.02 0.04 0.04 0.07 0.12 0.14 0.13
0.00 0.00 0.00 0.00 0.00 0.00 0.01 0.00 0.01 0.18 0.30 0.68 0.58 0.86 0.95 0.61 0.62 1.09 0.61 0.36 0.47 0.70 0.58 0.60 0.77 0.65 0.94 1.51 1.21 1.31 0.78 0.59 1.50 2.08 1.30 0.63 0.44 0.38 0.21 0.14 0.09 0.05 0.03 0.01 0.03 0.03 0.04 0.05 0.06
0.00 0.00 0.00 0.00 0.00 0.00 0.02 0.08 0.16 0.07 0.06 0.19 0.41 0.35 0.41 0.30 0.21 0.29 0.23 0.13 0.21 0.49 0.45 0.46 0.50 0.63 1.03 1.29 1.04 0.99 0.81 0.49 0.67 1.56 1.42 1.02 0.56 0.34 0.17 0.09 0.06 0.02 0.00 0.00 0.00 0.00 0.02 0.04 0.07
0.00 0.00 0.01 0.09 0.00 0.00 0.00 0.13 0.28 0.06 0.08 0.09 0.10 0.09 0.19 0.29 0.21 0.29 0.15 0.10 0.08 0.38 0.31 0.31 0.54 0.83 0.94 1.06 0.97 1.01 0.81 0.58 0.69 0.85 1.13 1.03 0.74 0.32 0.15 0.06 0.03 0.01 0.00 0.00 0.00 0.00 0.00 0.01 0.04
0.00 0.00 0.00 0.00 0.00 0.00 0.00 0.01 0.07 0.06 0.04 0.06 0.04 0.01 0.05 0.35 0.53 0.24 0.14 0.10 0.07 0.12 0.17 0.51 0.81 1.17 1.36 1.22 1.15 1.55 1.34 1.03 0.78 0.72 0.81 0.65 0.58 0.32 0.11 0.07 0.06 0.04 0.01 0.00 0.00 0.00 0.00 0.00 0.00
0.00 0.00 0.00 0.00 0.00 0.00 0.00 0.00 0.03 0.04 0.02 0.01 0.01 0.00 0.01 0.02 0.07 0.03 0.03 0.03 0.08 0.13 0.12 0.68 1.07 1.33 1.39 2.07 1.89 1.66 1.00 0.84 0.79 0.62 0.71 0.59 0.40 0.38 0.28 0.15 0.06 0.12 0.04 0.04 0.01 0.00 0.00 0.00 0.00
0.00 0.00 0.00 0.00 0.00 0.00 0.00 0.00 0.02 0.04 0.03 0.13 0.01 0.00 0.00 0.00 0.00 0.01 0.02 0.05 0.08 0.12 0.31 0.81 1.22 1.52 1.15 0.77 0.56 0.83 0.79 0.75 0.84 0.69 0.60 0.48 0.36 0.25 0.25 0.10 0.06 0.05 0.03 0.05 0.02 0.00 0.01 0.01 0.01
0.00 0.00 0.00 0.00 0.00 0.00 0.00 0.00 0.01 0.02 0.02 0.05 0.02 0.01 0.00 0.00 0.01 0.02 0.04 0.10 0.14 0.27 0.38 0.41 0.37 0.54 0.22 0.15 0.23 0.51 0.58 0.65 0.68 0.84 0.60 0.46 0.40 0.31 0.14 0.04 0.08 0.01 0.03 0.03 0.02 0.01 0.02 0.02 0.02
0.00 0.00 0.00 0.00 0.00 0.00 0.00 0.00 0.00 0.01 0.03 0.02 0.03 0.01 0.00 0.00 0.00 0.02 0.09 0.13 0.15 0.15 0.17 0.06 0.06 0.27 0.22 0.10 0.16 0.40 0.66 0.72 0.84 1.17 1.00 0.53 0.44 0.41 0.30 0.08 0.05 0.03 0.03 0.02 0.02 0.01 0.01 0.02 0.02
0.00 0.00 0.00 0.00 0.00 0.01 0.00 0.02 0.02 0.00 0.01 0.01 0.01 0.01 0.01 0.01 0.01 0.01 0.01 0.02 0.02 0.02 0.03 0.02 0.07 0.13 0.18 0.20 0.24 0.32 0.62 0.65 0.73 0.75 0.86 0.59 0.42 0.28 0.19 0.08 0.05 0.04 0.04 0.02 0.03 0.03 0.03 0.02 0.02
0.03 0.00 0.00 0.00 0.00 0.01 0.01 0.01 0.01 0.00 0.00 0.00 0.00 0.01 0.00 0.01 0.01 0.00 0.01 0.02 0.01 0.04 0.04 0.10 0.13 0.15 0.12 0.17 0.31 0.22 0.31 0.45 0.63 0.76 0.81 0.81 0.58 0.34 0.23 0.11 0.07 0.07 0.06 0.11 0.08 0.05 0.06 0.06 0.05
0.00 0.00 0.00 0.00 0.00 0.00 0.01 0.01 0.01 0.01 0.01 0.01 0.00 0.00 0.00 0.02 0.01 0.01 0.02 0.02 0.03 0.12 0.17 0.16 0.13 0.14 0.15 0.21 0.27 0.27 0.21 0.17 0.24 0.48 0.72 0.74 0.64 0.42 0.26 0.14 0.09 0.10 0.11 0.17 0.14 0.17 0.13 0.13 0.10
0.00 0.00 0.01 0.11 0.04 0.02 0.05 0.06 0.02 0.01 0.01 0.05 0.00 0.00 0.00 0.01 0.01 0.02 0.02 0.06 0.09 0.20 0.22 0.16 0.13 0.12 0.15 0.19 0.26 0.20 0.15 0.09 0.08 0.10 0.22 0.40 0.48 0.43 0.25 0.15 0.11 0.13 0.15 0.19 0.21 0.21 0.21 0.19 0.22
0.00 0.00 0.03 0.09 0.07 0.09 0.08 0.02 0.01 0.00 0.00 0.00 0.00 0.00 0.00 0.00 0.00 0.01 0.04 0.06 0.10 0.30 0.22 0.10 0.04 0.04 0.05 0.08 0.15 0.13 0.13 0.10 0.09 0.08 0.14 0.11 0.15 0.20 0.22 0.16 0.14 0.17 0.19 0.18 0.26 0.37 0.45 0.62 0.83
0.02 0.04 0.01 0.01 0.02 0.04 0.02 0.01 0.01 0.01 0.00 0.00 0.00 0.00 0.00 0.00 0.00 0.00 0.02 0.05 0.11 0.22 0.16 0.04 0.01 0.00 0.01 0.02 0.06 0.11 0.14 0.07 0.13 0.31 0.18 0.18 0.09 0.09 0.10 0.19 0.21 0.19 0.23 0.24 0.33 0.47 0.66 0.78 0.71
0.00 0.02 0.02 0.02 0.03 0.04 0.00 0.01 0.03 0.05 0.00 0.00 0.00 0.00 0.00 0.00 0.00 0.00 0.01 0.02 0.07 0.16 0.16 0.19 0.11 0.02 0.00 0.01 0.04 0.04 0.13 0.15 0.17 0.29 0.14 0.17 0.19 0.23 0.38 0.37 0.37 0.39 0.35 0.38 0.58 0.65 0.62 0.56 0.47
0.01 0.00 0.00 0.01 0.00 0.05 0.08 0.01 0.00 0.04 0.05 0.02 0.00 0.00 0.00 0.00 0.00 0.00 0.00 0.00 0.04 0.13 0.15 0.20 0.31 0.20 0.07 0.02 0.02 0.04 0.18 0.18 0.28 0.28 0.33 0.32 0.48 0.55 0.59 0.65 0.63 0.74 0.89 0.82 0.69 0.60 0.48 0.40 0.33
0.04 0.03 0.01 0.01 0.02 0.01 0.04 0.02 0.00 0.00 0.01 0.01 0.00 0.00 0.00 0.00 0.01 0.00 0.00 0.00 0.01 0.10 0.14 0.08 0.25 0.26 0.29 0.18 0.12 0.13 0.30 0.35 0.41 0.56 0.53 0.63 0.78 0.82 0.91 0.96 0.85 0.77 0.79 0.91 0.94 0.83 0.71 0.62 0.55

GFSSGP_prec_precacc_108.txt.gz
Total_Precipitation_Accumulation
0.00 0.00 0.00 0.00 0.00 0.00 0.00 0.00 0.00 0.03 0.05 0.11 0.11 0.17 0.12 0.21 0.58 1.07 0.89 1.31 1.58 0.58 0.50 0.40 0.10 0.02 0.04 0.08 0.08 0.06 0.04 0.02 0.05 0.09 0.16 0.27 0.34 0.50 0.51 0.37 0.34 0.55 0.70 0.55 0.40 0.38 0.49 0.46 0.27
0.00 0.00 0.00 0.00 0.00 0.00 0.00 0.00 0.02 0.10 0.37 0.43 0.30 0.29 0.32 0.81 0.88 1.44 1.33 2.24 2.41 1.33 0.88 0.85 0.57 0.09 0.04 0.03 0.03 0.03 0.03 0.02 0.02 0.03 0.11 0.31 0.38 0.33 0.31 0.45 0.41 0.44 0.48 0.60 0.50 0.75 1.16 0.98 0.72
0.00 0.00 0.00 0.00 0.00 0.00 0.00 0.00 0.01 0.06 0.26 0.37 0.14 0.14 0.29 0.58 1.03 0.80 0.96 1.37 1.51 1.15 1.17 1.04 1.11 0.87 0.32 0.16 0.07 0.04 0.07 0.02 0.01 0.03 0.14 0.22 0.24 0.32 0.26 0.45 0.33 0.20 0.19 0.46 0.60 0.71 0.93 0.83 0.98
0.00 0.00 0.00 0.00 0.00 0.00 0.00 0.01 0.16 0.18 0.12 0.07 0.19 0.26 0.33 0.47 0.71 0.78 0.61 0.86 1.20 1.13 1.26 1.45 1.45 0.97 0.59 0.60 0.24 0.08 0.08 0.01 0.02 0.10 0.08 0.17 0.38 0.32 0.25 0.39 0.46 0.51 0.44 0.78 1.16 1.76 1.28 0.72 1.05
0.00 0.00 0.00 0.00 0.00 0.01 0.02 0.03 0.12 0.12 0.42 0.43 0.15 0.37 0.53 0.60 0.40 0.55 1.02 1.11 1.78 1.83 2.55 3.31 2.97 2.41 1.10 0.98 0.77 0.33 0.17 0.07 0.09 0.24 0.39 0.35 0.67 0.48 0.22 0.14 0.21 0.53 1.18 1.33 1.12 1.24 1.41 0.98 0.29
0.00 0.00 0.00 0.00 0.00 0.03 0.07 0.19 0.34 0.31 0.73 0.52 0.46 0.66 0.66 0.78 0.65 0.57 1.09 1.91 3.18 3.36 3.45 5.11 5.72 5.42 4.22 2.66 1.89 1.54 1.34 0.96 0.67 0.33 0.29 0.28 0.48 0.53 0.18 0.10 0.07 0.07 0.10 0.15 0.16 0.14 0.11 0.16 0.09
0.00 0.00 0.00 0.00 0.01 0.01 0.04 0.19 0.36 0.22 0.62 1.20 0.49 0.62 0.44 0.40 0.60 1.08 1.65 2.31 3.87 5.85 5.86 5.26 7.51 5.13 4.02 4.24 3.28 3.33 2.37 2.12 1.74 1.20 0.59 0.29 0.24 0.20 0.06 0.01 0.01 0.00 0.03 0.06 0.09 0.08 0.02 0.01 0.01
0.00 0.00 0.00 0.00 0.01 0.02 0.06 0.29 0.38 0.15 0.19 0.25 0.33 0.59 0.76 0.39 0.54 0.91 1.65 2.10 3.74 6.58 9.34 6.73 6.72 5.23 3.50 3.41 3.96 3.23 3.41 2.71 1.95 1.51 1.23 0.41 0.43 0.27 0.15 0.02 0.01 0.01 0.03 0.05 0.07 0.08 0.03 0.02 0.00
0.00 0.00 0.00 0.01 0.02 0.05 0.17 0.40 0.32 0.13 0.09 0.16 0.27 0.46 0.62 0.50 0.30 0.76 1.07 1.50 2.10 3.69 5.27 5.84 7.31 6.11 3.63 2.51 3.41 2.94 3.63 3.09 1.92 1.52 2.02 0.78 0.36 0.35 0.22 0.03 0.03 0.04 0.03 0.04 0.06 0.09 0.05 0.01 0.00
0.00 0.00 0.00 0.00 0.05 0.22 0.30 0.46 0.19 0.16 0.38 0.38 0.96 0.58 0.91 0.64 0.33 0.58 0.98 1.00 1.73 2.10 2.40 3.33 5.34 6.93 4.40 2.97 2.10 2.19 2.92 4.53 2.18 1.47 1.69 1.39 0.48 0.38 0.21 0.05 0.05 0.07 0.06 0.06 0.13 0.15 0.08 0.04 0.04
0.00 0.00 0.00 0.01 0.04 0.10 0.07 0.07 0.02 0.03 0.05 0.31 0.50 0.44 0.52 0.61 0.60 0.68 0.97 0.90 1.27 1.36 1.46 1.47 2.49 4.22 3.72 3.11 2.57 2.22 2.39 4.08 3.27 1.38 1.01 1.42 0.53 0.49 0.31 0.16 0.17 0.12 0.12 0.18 0.18 0.37 0.41 0.34 0.20
0.00 0.00 0.00 0.00 0.03 0.04 0.00 0.05 0.02 0.02 0.05 0.08 0.15 0.28 0.46 0.59 0.58 0.71 0.95 1.13 0.86 1.21 1.18 1.12 0.87 1.90 1.99 1.76 2.09 1.98 1.35 1.97 3.68 1.68 1.04 0.84 0.92 0.52 0.30 0.12 0.10 0.08 0.09 0.10 0.19 0.39 0.33 0.26 0.31
0.00 0.00 0.00 0.03 0.01 0.00 0.00 0.00 0.07 0.06 0.09 0.27 0.17 0.60 0.69 0.64 0.59 0.72 1.22 0.83 1.11 1.11 1.16 1.07 0.80 0.97 1.54 1.67 1.74 1.47 0.79 1.09 2.53 2.11 1.38 0.63 0.89 0.72 0.44 0.26 0.04 0.02 0.02 0.04 0.04 0.07 0.12 0.14 0.13
0.00 0.00 0.00 0.00 0.00 0.00 0.01 0.00 0.01 0.18 0.30 0.68 0.58 0.86 0.95 0.61 0.62 1.09 0.61 0.36 0.47 0.70 0.58 0.60 0.77 0.65 0.94 1.51 1.21 1.31 0.83 0.85 1.77 2.22 1.46 0.67 0.58 0.54 0.23 0.14 0.09 0.05 0.03 0.01 0.03 0.03 0.04 0.05 0.06
0.00 0.00 0.00 0.00 0.00 0.00 0.02 0.08 0.16 0.07 0.06 0.19 0.41 0.35 0.41 0.30 0.21 0.29 0.23 0.13 0.21 0.49 0.45 0.46 0.50 0.63 1.03 1.29 1.04 0.99 0.84 0.64 1.03 1.84 1.56 1.08 0.65 0.45 0.19 0.09 0.06 0.02 0.00 0.00 0.00 0.00 0.02 0.04 0.07
0.00 0.00 0.01 0.09 0.00 0.00 0.00 0.13 0.28 0.06 0.08 0.09 0.10 0.09 0.19 0.29 0.21 0.29 0.15 0.10 0.08 0.38 0.31 0.31 0.54 0.83 0.94 1.07 0.97 1.01 0.82 0.65 0.89 1.25 1.39 1.16 0.82 0.37 0.15 0.06 0.03 0.01 0.00 0.00 0.00 0.00 0.00 0.01 0.04
0.00 0.00 0.00 0.00 0.00 0.00 0.00 0.01 0.07 0.06 0.04 0.06 0.04 0.01 0.05 0.35 0.53 0.24 0.14 0.10 0.07 0.12 0.17 0.51 0.81 1.17 1.37 1.23 1.16 1.56 1.36 1.04 0.89 1.08 1.16 0.83 0.69 0.36 0.12 0.07 0.06 0.04 0.01 0.00 0.00 0.00 0.00 0.00 0.00
0.00 0.00 0.00 0.00 0.00 0.00 0.00 0.00 0.03 0.04 0.02 0.01 0.01 0.00 0.01 0.02 0.07 0.03 0.03 0.03 0.08 0.13 0.12 0.68 1.07 1.33 1.39 2.07 1.89 1.68 1.02 0.85 0.80 0.71 0.88 0.79 0.51 0.44 0.29 0.16 0.06 0.12 0.04 0.04 0.01 0.00 0.00 0.00 0.00
0.00 0.00 0.00 0.00 0.00 0.00 0.00 0.00 0.02 0.04 0.03 0.13 0.01 0.00 0.00 0.00 0.00 0.01 0.02 0.05 0.08 0.12 0.31 0.81 1.22 1.52 1.15 0.77 0.57 0.84 0.80 0.75 0.85 0.70 0.62 0.55 0.42 0.27 0.26 0.10 0.06 0.05 0.03 0.05 0.02 0.00 0.01 0.01 0.01
0.00 0.00 0.00 0.00 0.00 0.00 0.00 0.00 0.01 0.02 0.02 0.05 0.02 0.01 0.00 0.00 0.01 0.02 0.04 0.10 0.14 0.27 0.38 0.41 0.37 0.54 0.22 0.15 0.23 0.51 0.60 0.66 0.69 0.84 0.61 0.47 0.42 0.32 0.15 0.05 0.08 0.01 0.03 0.03 0.02 0.01 0.02 0.02 0.02
0.00 0.00 0.00 0.00 0.00 0.00 0.00 0.00 0.00 0.01 0.03 0.02 0.03 0.01 0.00 0.00 0.00 0.02 0.09 0.13 0.15 0.15 0.17 0.06 0.06 0.27 0.22 0.10 0.16 0.40 0.66 0.76 0.89 1.21 1.01 0.54 0.45 0.41 0.30 0.08 0.05 0.03 0.03 0.02 0.02 0.01 0.01 0.02 0.02
0.00 0.00 0.00 0.00 0.00 0.01 0.00 0.02 0.02 0.00 0.01 0.01 0.01 0.01 0.01 0.01 0.01 0.01 0.01 0.02 0.02 0.02 0.03 0.02 0.07 0.13 0.18 0.20 0.24 0.32 0.62 0.65 0.75 0.79 0.99 0.64 0.45 0.29 0.19 0.09 0.05 0.05 0.05 0.03 0.04 0.03 0.03 0.02 0.02
0.03 0.00 0.00 0.00 0.00 0.01 0.01 0.01 0.01 0.00 0.00 0.00 0.00 0.01 0.00 0.01 0.01 0.00 0.01 0.02 0.01 0.04 0.04 0.10 0.13 0.15 0.12 0.17 0.32 0.22 0.31 0.45 0.64 0.78 1.08 1.15 0.78 0.47 0.25 0.13 0.09 0.09 0.08 0.16 0.10 0.06 0.08 0.07 0.05
0.00 0.00 0.00 0.00 0.00 0.00 0.01 0.01 0.01 0.01 0.01 0.01 0.00 0.00 0.00 0.02 0.01 0.01 0.02 0.02 0.03 0.12 0.17 0.16 0.13 0.14 0.15 0.21 0.27 0.28 0.21 0.17 0.24 0.49 0.76 1.26 1.11 0.72 0.41 0.19 0.11 0.13 0.15 0.23 0.22 0.22 0.16 0.17 0.13
0.00 0.00 0.01 0.11 0.04 0.02 0.05 0.06 0.02 0.01 0.01 0.05 0.00 0.00 0.00 0.01 0.01 0.02 0.02 0.06 0.09 0.20 0.22 0.16 0.13 0.12 0.16 0.20 0.26 0.20 0.15 0.09 0.08 0.11 0.26 0.53 0.95 0.81 0.55 0.28 0.16 0.18 0.21 0.27 0.32 0.33 0.29 0.23 0.27
0.00 0.00 0.03 0.09 0.07 0.09 0.08 0.02 0.01 0.00 0.00 0.00 0.00 0.00 0.00 0.00 0.00 0.01 0.04 0.06 0.10 0.30 0.22 0.10 0.04 0.04 0.06 0.09 0.16 0.13 0.13 0.10 0.09 0.08 0.16 0.16 0.28 0.50 0.53 0.44 0.24 0.25 0.28 0.28 0.37 0.49 0.53 0.68 0.86
0.02 0.04 0.01 0.01 0.02 0.05 0.02 0.01 0.01 0.01 0.00 0.00 0.00 0.00 0.00 0.00 0.00 0.00 0.02 0.05 0.11 0.22 0.16 0.04 0.01 0.00 0.01 0.03 0.07 0.11 0.14 0.07 0.13 0.31 0.20 0.28 0.16 0.27 0.38 0.53 0.51 0.39 0.37 0.35 0.42 0.54 0.71 0.81 0.72
0.00 0.02 0.02 0.02 0.04 0.04 0.00 0.01 0.04 0.05 0.01 0.02 0.02 0.00 0.00 0.00 0.00 0.00 0.01 0.02 0.07 0.16 0.16 0.19 0.11 0.02 0.00 0.01 0.04 0.04 0.13 0.15 0.17 0.29 0.14 0.20 0.22 0.33 0.48 0.63 0.67 0.65 0.52 0.48 0.64 0.69 0.65 0.58 0.48
0.02 0.00 0.00 0.01 0.01 0.06 0.08 0.01 0.02 0.04 0.09 0.07 0.04 0.00 0.01 0.00 0.01 0.01 0.00 0.00 0.04 0.13 0.15 0.20 0.31 0.20 0.07 0.02 0.02 0.05 0.18 0.18 0.28 0.28 0.33 0.32 0.48 0.58 0.63 0.72 0.86 0.96 1.01 0.88 0.73 0.62 0.49 0.40 0.33
0.05 0.05 0.04 0.04 0.02 0.01 0.04 0.02 0.00 0.01 0.03 0.12 0.12 0.00 0.01 0.00 0.02 0.04 0.02 0.00 0.01 0.10 0.14 0.08 0.25 0.26 0.29 0.18 0.12 0.14 0.30 0.35 0.41 0.56 0.53 0.63 0.78 0.82 0.91 0.96 0.89 0.81 0.80 0.91 0.94 0.83 0.71 0.62 0.55

GFSSGP_prec_precacc_111.txt.gz
Total_Precipitation_Accumulation
0.00 0.00 0.00 0.00 0.00 0.00 0.00 0.00 0.00 0.03 0.05 0.11 0.11 0.17 0.12 0.21 0.58 1.07 0.89 1.31 1.58 0.58 0.50 0.40 0.10 0.02 0.04 0.08 0.08 0.06 0.04 0.02 0.05 0.09 0.16 0.27 0.34 0.50 0.51 0.38 0.34 0.55 0.70 0.55 0.41 0.38 0.50 0.46 0.27
0.00 0.00 0.00 0.00 0.00 0.00 0.00 0.00 0.02 0.10 0.37 0.43 0.30 0.29 0.32 0.81 0.88 1.44 1.33 2.24 2.41 1.33 0.88 0.85 0.57 0.09 0.04 0.03 0.03 0.03 0.04 0.02 0.02 0.03 0.11 0.31 0.38 0.33 0.31 0.45 0.41 0.44 0.48 0.60 0.51 0.76 1.16 0.98 0.72
0.00 0.00 0.00 0.00 0.00 0.00 0.00 0.00 0.01 0.06 0.26 0.37 0.14 0.14 0.29 0.58 1.03 0.80 0.96 1.37 1.51 1.15 1.17 1.04 1.11 0.87 0.32 0.16 0.07 0.04 0.07 0.02 0.01 0.03 0.14 0.22 0.24 0.32 0.26 0.45 0.33 0.20 0.19 0.46 0.61 0.72 0.93 0.83 0.98
0.00 0.00 0.00 0.00 0.00 0.00 0.00 0.01 0.16 0.18 0.12 0.07 0.19 0.26 0.33 0.47 0.71 0.78 0.61 0.86 1.20 1.13 1.26 1.45 1.45 0.97 0.59 0.60 0.24 0.08 0.08 0.01 0.02 0.10 0.09 0.18 0.40 0.33 0.25 0.39 0.46 0.51 0.44 0.78 1.17 1.76 1.28 0.72 1.05
0.00 0.00 0.00 0.00 0.00 0.01 0.02 0.03 0.12 0.12 0.42 0.43 0.15 0.37 0.53 0.60 0.40 0.55 1.02 1.11 1.78 1.83 2.55 3.31 2.97 2.41 1.10 0.98 0.77 0.33 0.17 0.07 0.10 0.24 0.40 0.38 0.80 0.62 0.25 0.14 0.21 0.53 1.18 1.33 1.13 1.24 1.41 0.98 0.29
0.00 0.00 0.00 0.00 0.00 0.03 0.07 0.19 0.34 0.31 0.73 0.52 0.46 0.66 0.66 0.78 0.65 0.57 1.09 1.91 3.18 3.36 3.45 5.11 5.72 5.42 4.22 2.66 1.89 1.54 1.36 1.01 0.76 0.44 0.36 0.30 0.66 0.80 0.29 0.11 0.07 0.07 0.10 0.15 0.16 0.14 0.11 0.16 0.09
0.00 0.00 0.00 0.00 0.01 0.01 0.04 0.19 0.36 0.22 0.62 1.20 0.49 0.62 0.44 0.40 0.60 1.08 1.65 2.31 3.87 5.85 5.86 5.26 7.51 5.13 4.02 4.24 3.28 3.33 2.37 2.15 1.85 1.28 0.69 0.30 0.34 0.47 0.25 0.08 0.03 0.00 0.03 0.06 0.09 0.08 0.02 0.01 0.01
0.00 0.00 0.00 0.00 0.01 0.02 0.06 0.29 0.38 0.15 0.19 0.25 0.33 0.59 0.76 0.39 0.54 0.91 1.65 2.10 3.74 6.58 9.34 6.73 6.72 5.23 3.50 3.41 3.96 3.24 3.43 2.81 2.03 1.57 1.28 0.45 0.45 0.34 0.33 0.13 0.04 0.01 0.03 0.05 0.07 0.08 0.03 0.02 0.00
0.00 0.00 0.00 0.01 0.02 0.05 0.17 0.40 0.32 0.13 0.09 0.16 0.27 0.46 0.62 0.50 0.30 0.76 1.07 1.50 2.10 3.69 5.27 5.84 7.31 6.11 3.63 2.51 3.41 2.94 3.64 3.17 2.03 1.57 2.05 0.79 0.38 0.38 0.29 0.10 0.06 0.05 0.03 0.04 0.06 0.09 0.05 0.01 0.00
0.00 0.00 0.00 0.00 0.05 0.22 0.30 0.46 0.19 0.16 0.38 0.38 0.96 0.58 0.91 0.64 0.33 0.58 0.98 1.00 1.73 2.10 2.40 3.33 5.34 6.93 4.40 2.97 2.10 2.19 2.93 4.60 2.32 1.55 1.76 1.41 0.49 0.39 0.25 0.16 0.09 0.09 0.06 0.06 0.13 0.15 0.08 0.04 0.04
0.00 0.00 0.00 0.01 0.04 0.10 0.07 0.07 0.02 0.03 0.05 0.31 0.50 0.44 0.52 0.61 0.60 0.68 0.97 0.90 1.27 1.36 1.46 1.47 2.49 4.22 3.72 3.11 2.57 2.22 2.39 4.11 3.40 1.58 1.16 1.48 0.57 0.54 0.35 0.22 0.22 0.15 0.12 0.18 0.18 0.37 0.41 0.34 0.20
0.00 0.00 0.00 0.00 0.03 0.04 0.00 0.05 0.02 0.02 0.05 0.08 0.15 0.28 0.46 0.59 0.58 0.71 0.95 1.13 0.86 1.21 1.18 1.12 0.87 1.90 1.99 1.76 2.09 1.98 1.35 1.97 3.69 1.78 1.21 0.94 1.04 0.59 0.40 0.15 0.11 0.09 0.09 0.10 0.19 0.39 0.33 0.26 0.31
0.00 0.00 0.00 0.03 0.01 0.00 0.00 0.00 0.07 0.06 0.09 0.27 0.17 0.60 0.69 0.64 0.59 0.72 1.22 0.83 1.11 1.11 1.16 1.07 0.80 0.97 1.54 1.67 1.74 1.47 0.79 1.09 2.56 2.15 1.46 0.72 1.00 0.85 0.53 0.29 0.05 0.02 0.02 0.04 0.04 0.07 0.12 0.14 0.13
0.00 0.00 0.00 0.00 0.00 0.00 0.01 0.00 0.01 0.18 0.30 0.68 0.58 0.86 0.95 0.61 0.62 1.09 0.61 0.36 0.47 0.70 0.58 0.60 0.77 0.65 0.94 1.51 1.21 1.31 0.83 0.87 1.83 2.28 1.59 0.93 0.63 0.64 0.29 0.16 0.09 0.05 0.03 0.01 0.03 0.03 0.04 0.05 0.06
0.00 0.00 0.00 0.00 0.00 0.00 0.02 0.08 0.16 0.07 0.06 0.19 0.41 0.35 0.41 0.30 0.21 0.29 0.23 0.13 0.21 0.49 0.45 0.46 0.50 0.63 1.03 1.29 1.04 0.99 0.84 0.66 1.09 1.93 1.64 1.56 0.78 0.52 0.22 0.10 0.06 0.02 0.00 0.00 0.00 0.00 0.02 0.04 0.07
0.00 0.00 0.01 0.09 0.00 0.00 0.00 0.13 0.28 0.06 0.08 0.09 0.10 0.09 0.19 0.29 0.21 0.29 0.15 0.10 0.08 0.38 0.31 0.31 0.54 0.83 0.94 1.07 0.97 1.01 0.82 0.67 0.97 1.51 1.48 1.46 1.26 0.42 0.18 0.07 0.03 0.01 0.00 0.00 0.00 0.00 0.00 0.01 0.04
0.00 0.00 0.00 0.00 0.00 0.00 0.00 0.01 0.07 0.06 0.04 0.06 0.04 0.01 0.05 0.35 0.53 0.24 0.14 0.10 0.07 0.12 0.17 0.51 0.81 1.17 1.37 1.23 1.16 1.56 1.36 1.06 0.95 1.33 1.30 0.95 1.04 0.41 0.14 0.07 0.06 0.04 0.01 0.00 0.00 0.00 0.00 0.00 0.00
0.00 0.00 0.00 0.00 0.00 0.00 0.00 0.00 0.03 0.04 0.02 0.01 0.01 0.00 0.01 0.02 0.07 0.03 0.03 0.03 0.08 0.13 0.12 0.68 1.07 1.33 1.39 2.07 1.89 1.68 1.02 0.85 0.82 1.08 1.07 0.87 0.61 0.48 0.32 0.16 0.07 0.12 0.04 0.04 0.01 0.00 0.00 0.00 0.00
0.00 0.00 0.00 0.00 0.00 0.00 0.00 0.00 0.02 0.04 0.03 0.13 0.01 0.00 0.00 0.00 0.00 0.01 0.02 0.05 0.08 0.12 0.31 0.81 1.22 1.52 1.15 0.77 0.57 0.84 0.80 0.75 0.85 0.88 0.83 0.65 0.51 0.31 0.28 0.10 0.06 0.05 0.03 0.05 0.02 0.00 0.01 0.01 0.01
0.00 0.00 0.00 0.00 0.00 0.00 0.00 0.00 0.01 0.02 0.02 0.05 0.02 0.01 0.00 0.00 0.01 0.02 0.04 0.10 0.14 0.27 0.38 0.41 0.37 0.54 0.22 0.15 0.23 0.51 0.60 0.66 0.69 0.85 0.67 0.59 0.53 0.39 0.16 0.05 0.08 0.01 0.03 0.03 0.02 0.01 0.02 0.02 0.02
0.00 0.00 0.00 0.00 0.00 0.00 0.00 0.00 0.00 0.01 0.03 0.02 0.03 0.01 0.00 0.00 0.00 0.02 0.09 0.13 0.15 0.15 0.17 0.06 0.06 0.27 0.22 0.10 0.16 0.40 0.67 0.77 0.91 1.23 1.04 0.59 0.53 0.51 0.33 0.09 0.05 0.03 0.03 0.02 0.02 0.01 0.01 0.02 0.02
0.00 0.00 0.00 0.00 0.00 0.01 0.00 0.02 0.02 0.00 0.01 0.01 0.01 0.01 0.01 0.01 0.01 0.01 0.01 0.02 0.02 0.02 0.03 0.02 0.07 0.13 0.18 0.20 0.24 0.32 0.63 0.67 0.77 0.80 1.00 0.66 0.47 0.33 0.24 0.11 0.06 0.05 0.05 0.03 0.04 0.03 0.03 0.02 0.02
0.03 0.00 0.00 0.00 0.00 0.01 0.01 0.01 0.01 0.00 0.00 0.00 0.00 0.01 0.00 0.01 0.01 0.00 0.01 0.02 0.01 0.04 0.04 0.10 0.13 0.15 0.12 0.17 0.32 0.22 0.31 0.45 0.65 0.81 1.10 1.19 0.82 0.48 0.27 0.15 0.10 0.11 0.08 0.16 0.10 0.06 0.08 0.07 0.05
0.00 0.00 0.00 0.00 0.00 0.00 0.01 0.01 0.01 0.01 0.01 0.01 0.00 0.00 0.00 0.02 0.01 0.01 0.02 0.02 0.03 0.12 0.17 0.16 0.13 0.14 0.15 0.21 0.27 0.28 0.21 0.17 0.24 0.50 0.79 1.35 1.37 0.85 0.45 0.22 0.14 0.16 0.18 0.24 0.22 0.22 0.16 0.17 0.14
0.00 0.00 0.01 0.11 0.04 0.02 0.05 0.06 0.02 0.01 0.01 0.05 0.00 0.00 0.00 0.01 0.01 0.02 0.02 0.06 0.09 0.20 0.22 0.16 0.13 0.12 0.16 0.20 0.26 0.20 0.15 0.09 0.08 0.11 0.27 0.58 1.34 1.32 0.77 0.35 0.21 0.22 0.28 0.31 0.35 0.36 0.32 0.28 0.33
0.00 0.00 0.03 0.09 0.07 0.09 0.08 0.02 0.01 0.00 0.00 0.00 0.00 0.00 0.00 0.00 0.00 0.01 0.04 0.06 0.10 0.30 0.22 0.10 0.04 0.04 0.06 0.09 0.16 0.13 0.13 0.10 0.09 0.08 0.17 0.23 0.40 0.89 0.87 0.65 0.36 0.33 0.38 0.40 0.48 0.63 0.69 0.82 1.00
0.02 0.04 0.01 0.01 0.02 0.05 0.02 0.01 0.01 0.01 0.00 0.00 0.00 0.00 0.00 0.00 0.00 0.00 0.02 0.05 0.11 0.22 0.16 0.04 0.01 0.00 0.01 0.03 0.07 0.11 0.14 0.07 0.13 0.31 0.20 0.35 0.34 0.50 0.63 0.79 0.70 0.54 0.53 0.56 0.67 0.80 1.04 1.09 0.96
0.00 0.02 0.02 0.02 0.04 0.04 0.00 0.01 0.04 0.05 0.01 0.02 0.02 0.00 0.01 0.00 0.00 0.00 0.01 0.02 0.07 0.16 0.16 0.19 0.11 0.02 0.00 0.01 0.04 0.04 0.13 0.15 0.17 0.29 0.14 0.22 0.31 0.49 0.74 0.88 0.92 0.88 0.77 0.76 0.92 0.95 0.92 0.88 0.73
0.02 0.00 0.00 0.01 0.01 0.06 0.08 0.01 0.03 0.05 0.10 0.07 0.07 0.05 0.01 0.00 0.01 0.01 0.00 0.00 0.04 0.15 0.16 0.20 0.31 0.20 0.07 0.02 0.02 0.05 0.18 0.18 0.28 0.28 0.33 0.33 0.50 0.68 0.87 1.03 1.16 1.23 1.24 1.13 1.02 0.85 0.65 0.54 0.49
0.05 0.05 0.06 0.11 0.05 0.01 0.04 0.02 0.00 0.02 0.06 0.12 0.21 0.23 0.12 0.02 0.02 0.05 0.04 0.02 0.04 0.13 0.17 0.09 0.25 0.26 0.29 0.18 0.12 0.14 0.30 0.35 0.41 0.56 0.53 0.63 0.78 0.83 1.01 1.16 1.21 1.24 1.17 1.14 1.09 0.96 0.82 0.70 0.62

GFSSGP_prec_precacc_114.txt.gz
Total_Precipitation_Accumulation
0.00 0.00 0.00 0.00 0.00 0.00 0.00 0.00 0.00 0.03 0.05 0.11 0.11 0.17 0.12 0.21 0.58 1.07 0.89 1.31 1.58 0.58 0.50 0.40 0.10 0.02 0.04 0.08 0.08 0.06 0.05 0.03 0.06 0.09 0.17 0.27 0.34 0.50 0.51 0.38 0.34 0.55 0.70 0.55 0.41 0.39 0.51 0.47 0.28
0.00 0.00 0.00 0.00 0.00 0.00 0.00 0.00 0.02 0.10 0.37 0.43 0.30 0.29 0.32 0.81 0.88 1.44 1.33 2.24 2.41 1.33 0.88 0.85 0.58 0.09 0.04 0.03 0.03 0.03 0.04 0.04 0.05 0.04 0.11 0.31 0.38 0.33 0.31 0.45 0.41 0.44 0.48 0.60 0.51 0.77 1.18 0.99 0.72
0.00 0.00 0.00 0.00 0.00 0.00 0.00 0.00 0.01 0.06 0.26 0.37 0.14 0.14 0.29 0.58 1.03 0.80 0.96 1.37 1.51 1.15 1.17 1.04 1.11 0.87 0.32 0.16 0.07 0.04 0.07 0.03 0.03 0.04 0.14 0.22 0.24 0.34 0.28 0.47 0.33 0.20 0.20 0.46 0.62 0.73 0.95 0.84 0.98
0.00 0.00 0.00 0.00 0.00 0.00 0.00 0.01 0.16 0.18 0.12 0.07 0.19 0.26 0.33 0.47 0.71 0.78 0.61 0.86 1.20 1.13 1.26 1.45 1.45 0.97 0.59 0.60 0.24 0.08 0.08 0.01 0.03 0.11 0.21 0.20 0.41 0.33 0.26 0.40 0.46 0.51 0.44 0.80 1.19 1.78 1.28 0.72 1.05
0.00 0.00 0.00 0.00 0.00 0.01 0.02 0.03 0.12 0.12 0.42 0.43 0.15 0.37 0.53 0.60 0.40 0.55 1.02 1.11 1.78 1.83 2.55 3.31 2.97 2.41 1.10 0.98 0.77 0.33 0.17 0.07 0.10 0.28 0.65 0.61 1.06 0.74 0.35 0.19 0.22 0.53 1.19 1.37 1.16 1.25 1.41 0.98 0.29
0.00 0.00 0.00 0.00 0.00 0.03 0.07 0.19 0.34 0.31 0.73 0.52 0.46 0.66 0.66 0.78 0.65 0.57 1.09 1.91 3.18 3.36 3.45 5.11 5.72 5.42 4.22 2.66 1.89 1.54 1.36 1.01 0.76 0.49 0.50 0.53 0.92 0.91 0.40 0.19 0.13 0.10 0.13 0.19 0.17 0.15 0.12 0.16 0.09
0.00 0.00 0.00 0.00 0.01 0.01 0.04 0.19 0.36 0.22 0.62 1.20 0.49 0.62 0.44 0.40 0.60 1.08 1.65 2.31 3.87 5.85 5.86 5.26 7.51 5.13 4.02 4.24 3.28 3.33 2.37 2.15 1.85 1.31 0.73 0.35 0.36 0.49 0.28 0.18 0.09 0.06 0.07 0.08 0.10 0.08 0.02 0.01 0.01
0.00 0.00 0.00 0.00 0.01 0.02 0.06 0.29 0.38 0.15 0.19 0.25 0.33 0.59 0.76 0.39 0.54 0.91 1.65 2.10 3.74 6.58 9.34 6.73 6.72 5.23 3.50 3.41 3.96 3.24 3.43 2.81 2.03 1.57 1.28 0.45 0.45 0.35 0.36 0.22 0.16 0.07 0.04 0.06 0.08 0.08 0.03 0.02 0.00
0.00 0.00 0.00 0.01 0.02 0.05 0.17 0.40 0.32 0.13 0.09 0.16 0.27 0.46 0.62 0.50 0.30 0.76 1.07 1.50 2.10 3.69 5.27 5.84 7.31 6.11 3.63 2.51 3.42 2.94 3.65 3.19 2.04 1.57 2.05 0.79 0.38 0.38 0.30 0.14 0.12 0.13 0.06 0.04 0.06 0.09 0.05 0.01 0.00
0.00 0.00 0.00 0.00 0.05 0.22 0.30 0.46 0.19 0.16 0.38 0.38 0.96 0.58 0.91 0.64 0.33 0.58 0.98 1.00 1.73 2.10 2.40 3.33 5.34 6.93 4.40 2.97 2.10 2.19 2.93 4.62 2.34 1.56 1.77 1.41 0.50 0.40 0.25 0.18 0.13 0.14 0.08 0.07 0.13 0.15 0.08 0.04 0.04
0.00 0.00 0.00 0.01 0.04 0.10 0.07 0.07 0.02 0.03 0.05 0.31 0.50 0.44 0.52 0.61 0.60 0.68 0.97 0.90 1.27 1.36 1.46 1.47 2.49 4.22 3.72 3.11 2.57 2.22 2.39 4.12 3.45 1.63 1.20 1.49 0.57 0.54 0.36 0.28 0.36 0.20 0.13 0.18 0.18 0.37 0.41 0.34 0.20
0.00 0.00 0.00 0.00 0.03 0.04 0.00 0.05 0.02 0.02 0.05 0.08 0.15 0.28 0.46 0.59 0.58 0.71 0.95 1.13 0.86 1.21 1.18 1.12 0.87 1.90 1.99 1.76 2.09 1.98 1.35 1.97 3.71 1.82 1.30 1.02 1.06 0.60 0.40 0.20 0.22 0.14 0.10 0.10 0.19 0.39 0.33 0.26 0.31
0.00 0.00 0.00 0.03 0.01 0.00 0.00 0.00 0.07 0.06 0.09 0.27 0.17 0.60 0.69 0.64 0.59 0.72 1.22 0.83 1.11 1.11 1.16 1.07 0.80 0.97 1.54 1.67 1.74 1.47 0.79 1.09 2.56 2.17 1.51 0.81 1.08 0.89 0.56 0.34 0.08 0.03 0.02 0.04 0.04 0.07 0.12 0.14 0.13
0.00 0.00 0.00 0.00 0.00 0.00 0.01 0.00 0.01 0.18 0.30 0.68 0.58 0.86 0.95 0.61 0.62 1.09 0.61 0.36 0.47 0.70 0.58 0.60 0.77 0.65 0.94 1.51 1.21 1.31 0.83 0.87 1.84 2.30 1.62 0.99 0.68 0.72 0.37 0.21 0.11 0.06 0.03 0.01 0.03 0.03 0.04 0.05 0.06
0.00 0.00 0.00 0.00 0.00 0.00 0.02 0.08 0.16 0.07 0.06 0.19 0.41 0.35 0.41 0.30 0.21 0.29 0.23 0.13 0.21 0.49 0.45 0.46 0.50 0.63 1.03 1.29 1.04 0.99 0.84 0.66 1.09 1.94 1.66 1.62 0.85 0.59 0.34 0.19 0.07 0.03 0.00 0.00 0.00 0.00 0.02 0.04 0.07
0.00 0.00 0.01 0.09 0.00 0.00 0.00 0.13 0.28 0.06 0.08 0.09 0.10 0.09 0.19 0.29 0.21 0.29 0.15 0.10 0.08 0.38 0.31 0.31 0.54 0.83 0.94 1.07 0.97 1.01 0.82 0.67 0.97 1.52 1.52 1.56 1.44 0.50 0.28 0.17 0.08 0.02 0.01 0.00 0.00 0.00 0.00 0.01 0.04
0.00 0.00 0.00 0.00 0.00 0.00 0.00 0.01 0.07 0.06 0.04 0.06 0.04 0.01 0.05 0.35 0.53 0.24 0.14 0.10 0.07 0.12 0.17 0.51 0.81 1.17 1.37 1.23 1.16 1.56 1.36 1.06 0.95 1.34 1.37 1.03 1.48 0.75 0.21 0.12 0.10 0.06 0.02 0.00 0.00 0.00 0.00 0.00 0.00
0.00 0.00 0.00 0.00 0.00 0.00 0.00 0.00 0.03 0.04 0.02 0.01 0.01 0.00 0.01 0.02 0.07 0.03 0.03 0.03 0.08 0.13 0.12 0.68 1.07 1.33 1.39 2.07 1.89 1.68 1.02 0.85 0.82 1.09 1.12 0.96 1.08 1.07 0.46 0.21 0.09 0.13 0.05 0.04 0.01 0.00 0.00 0.00 0.00
0.00 0.00 0.00 0.00 0.00 0.00 0.00 0.00 0.02 0.04 0.03 0.13 0.01 0.00 0.00 0.00 0.00 0.01 0.02 0.05 0.08 0.12 0.31 0.81 1.22 1.52 1.15 0.77 0.58 0.86 0.80 0.75 0.85 0.91 0.89 0.71 0.82 0.68 0.49 0.14 0.08 0.06 0.04 0.05 0.02 0.00 0.01 0.01 0.01
0.00 0.00 0.00 0.00 0.00 0.00 0.00 0.00 0.01 0.02 0.02 0.05 0.02 0.01 0.00 0.00 0.01 0.02 0.04 0.10 0.14 0.27 0.38 0.41 0.37 0.54 0.22 0.15 0.23 0.52 0.60 0.66 0.69 0.86 0.71 0.65 0.77 0.58 0.25 0.09 0.10 0.02 0.03 0.03 0.02 0.01 0.02 0.02 0.02
0.00 0.00 0.00 0.00 0.00 0.00 0.00 0.00 0.00 0.01 0.03 0.02 0.03 0.01 0.00 0.00 0.00 0.02 0.09 0.13 0.15 0.15 0.17 0.06 0.06 0.27 0.22 0.10 0.16 0.40 0.67 0.77 0.91 1.23 1.06 0.66 0.68 0.62 0.41 0.11 0.05 0.04 0.03 0.02 0.02 0.01 0.01 0.02 0.02
0.00 0.00 0.00 0.00 0.00 0.01 0.00 0.02 0.02 0.00 0.01 0.01 0.01 0.01 0.01 0.01 0.01 0.01 0.01 0.02 0.02 0.02 0.03 0.02 0.07 0.13 0.18 0.20 0.24 0.32 0.63 0.67 0.77 0.80 1.01 0.68 0.54 0.45 0.32 0.15 0.06 0.05 0.06 0.03 0.04 0.03 0.03 0.02 0.02
0.03 0.00 0.00 0.00 0.00 0.01 0.01 0.01 0.01 0.00 0.00 0.00 0.00 0.01 0.00 0.01 0.01 0.00 0.01 0.02 0.01 0.04 0.04 0.10 0.13 0.15 0.12 0.17 0.32 0.22 0.31 0.45 0.65 0.81 1.10 1.21 0.85 0.53 0.34 0.21 0.12 0.11 0.09 0.16 0.10 0.06 0.08 0.07 0.05
0.00 0.00 0.00 0.00 0.00 0.00 0.01 0.01 0.01 0.01 0.01 0.01 0.00 0.00 0.00 0.02 0.01 0.01 0.02 0.02 0.03 0.12 0.17 0.16 0.13 0.14 0.16 0.22 0.27 0.28 0.21 0.17 0.24 0.50 0.79 1.37 1.41 0.87 0.47 0.27 0.17 0.17 0.18 0.24 0.22 0.22 0.16 0.17 0.14
0.00 0.00 0.01 0.11 0.04 0.02 0.05 0.06 0.02 0.01 0.01 0.05 0.00 0.00 0.00 0.01 0.01 0.02 0.02 0.06 0.09 0.20 0.22 0.16 0.13 0.12 0.16 0.20 0.26 0.20 0.15 0.09 0.08 0.11 0.27 0.59 1.36 1.36 0.78 0.36 0.24 0.24 0.28 0.32 0.35 0.36 0.32 0.28 0.34
0.00 0.00 0.03 0.09 0.07 0.09 0.08 0.02 0.01 0.00 0.00 0.00 0.00 0.00 0.00 0.00 0.00 0.01 0.04 0.06 0.10 0.30 0.22 0.10 0.04 0.04 0.06 0.09 0.16 0.13 0.13 0.10 0.09 0.08 0.18 0.24 0.42 0.94 0.98 0.71 0.38 0.35 0.39 0.40 0.49 0.64 0.69 0.82 1.02
0.02 0.04 0.01 0.01 0.02 0.05 0.02 0.01 0.01 0.01 0.00 0.00 0.00 0.00 0.00 0.00 0.00 0.00 0.02 0.05 0.11 0.22 0.16 0.04 0.01 0.00 0.02 0.03 0.07 0.11 0.14 0.07 0.13 0.31 0.20 0.35 0.35 0.58 0.80 1.02 0.91 0.67 0.59 0.61 0.73 0.88 1.09 1.15 1.06
0.00 0.02 0.02 0.02 0.04 0.04 0.00 0.01 0.04 0.05 0.01 0.02 0.02 0.00 0.01 0.00 0.00 0.00 0.01 0.02 0.07 0.16 0.16 0.19 0.12 0.06 0.02 0.01 0.04 0.05 0.13 0.15 0.17 0.29 0.14 0.22 0.32 0.57 0.89 1.11 1.27 1.19 0.92 0.91 1.14 1.22 1.11 1.09 1.00
0.02 0.00 0.00 0.01 0.01 0.06 0.08 0.01 0.03 0.05 0.10 0.07 0.07 0.05 0.01 0.00 0.01 0.01 0.00 0.00 0.04 0.15 0.18 0.25 0.37 0.24 0.09 0.02 0.03 0.05 0.18 0.18 0.28 0.28 0.33 0.33 0.51 0.69 0.95 1.24 1.44 1.60 1.50 1.37 1.36 1.20 0.96 0.79 0.78
0.05 0.05 0.06 0.11 0.06 0.02 0.05 0.02 0.00 0.02 0.06 0.12 0.21 0.23 0.12 0.03 0.02 0.05 0.04 0.02 0.04 0.14 0.19 0.14 0.30 0.29 0.30 0.18 0.12 0.14 0.30 0.36 0.41 0.56 0.53 0.63 0.78 0.84 1.05 1.34 1.53 1.50 1.49 1.42 1.42 1.33 1.17 1.01 0.83

GFSSGP_prec_precacc_117.txt.gz
Total_Precipitation_Accumulation
0.00 0.00 0.00 0.00 0.00 0.00 0.00 0.00 0.00 0.03 0.05 0.11 0.11 0.17 0.12 0.21 0.58 1.07 0.89 1.31 1.58 0.58 0.50 0.40 0.11 0.03 0.05 0.08 0.08 0.06 0.05 0.04 0.07 0.09 0.17 0.27 0.34 0.50 0.51 0.38 0.34 0.55 0.70 0.56 0.41 0.39 0.51 0.47 0.28
0.00 0.00 0.00 0.00 0.00 0.00 0.00 0.00 0.02 0.10 0.37 0.43 0.30 0.29 0.32 0.81 0.88 1.44 1.33 2.24 2.41 1.33 0.88 0.85 0.58 0.10 0.04 0.03 0.03 0.03 0.05 0.06 0.05 0.04 0.11 0.31 0.38 0.33 0.31 0.45 0.41 0.44 0.48 0.61 0.52 0.78 1.19 1.00 0.72
0.00 0.00 0.00 0.00 0.00 0.00 0.00 0.00 0.01 0.06 0.26 0.37 0.14 0.14 0.29 0.58 1.03 0.80 0.96 1.37 1.51 1.15 1.17 1.04 1.11 0.87 0.32 0.16 0.07 0.04 0.08 0.06 0.06 0.06 0.14 0.22 0.25 0.36 0.37 0.55 0.35 0.20 0.21 0.47 0.64 0.78 0.96 0.84 0.98
0.00 0.00 0.00 0.00 0.00 0.00 0.00 0.01 0.16 0.18 0.12 0.07 0.19 0.26 0.33 0.47 0.71 0.78 0.61 0.86 1.20 1.13 1.26 1.45 1.45 0.97 0.60 0.60 0.24 0.08 0.09 0.03 0.05 0.13 0.31 0.28 0.67 0.70 0.50 0.65 0.58 0.58 0.49 0.83 1.25 1.84 1.30 0.72 1.05
0.00 0.00 0.00 0.00 0.00 0.01 0.02 0.03 0.12 0.12 0.42 0.43 0.15 0.37 0.53 0.60 0.40 0.55 1.02 1.11 1.78 1.83 2.55 3.31 2.97 2.41 1.11 0.98 0.77 0.33 0.17 0.08 0.10 0.29 0.71 1.00 1.63 1.31 0.75 0.49 0.33 0.57 1.22 1.41 1.21 1.30 1.42 0.98 0.29
0.00 0.00 0.00 0.00 0.00 0.03 0.07 0.19 0.34 0.31 0.73 0.52 0.46 0.66 0.66 0.78 0.65 0.57 1.09 1.91 3.18 3.36 3.45 5.11 5.72 5.42 4.22 2.66 1.89 1.54 1.36 1.01 0.77 0.51 0.50 0.54 0.99 1.19 0.67 0.37 0.22 0.14 0.15 0.22 0.23 0.19 0.12 0.16 0.09
0.00 0.00 0.00 0.00 0.01 0.01 0.04 0.19 0.36 0.22 0.62 1.20 0.49 0.62 0.44 0.40 0.60 1.08 1.65 2.31 3.87 5.85 5.86 5.26 7.51 5.13 4.03 4.24 3.28 3.33 2.37 2.15 1.87 1.31 0.73 0.35 0.36 0.49 0.28 0.20 0.16 0.13 0.10 0.12 0.16 0.11 0.02 0.01 0.01
0.00 0.00 0.00 0.00 0.01 0.02 0.06 0.29 0.38 0.15 0.19 0.25 0.33 0.59 0.76 0.39 0.54 0.91 1.65 2.10 3.74 6.58 9.34 6.73 6.72 5.23 3.51 3.41 3.97 3.24 3.43 2.81 2.03 1.57 1.28 0.45 0.45 0.35 0.36 0.22 0.18 0.10 0.07 0.09 0.10 0.09 0.03 0.02 0.00
0.00 0.00 0.00 0.01 0.02 0.05 0.17 0.40 0.32 0.13 0.09 0.16 0.27 0.46 0.62 0.50 0.30 0.76 1.07 1.50 2.10 3.69 5.27 5.84 7.31 6.11 3.63 2.51 3.42 2.95 3.65 3.19 2.04 1.57 2.05 0.79 0.38 0.38 0.30 0.14 0.12 0.13 0.07 0.06 0.07 0.09 0.05 0.01 0.00
0.00 0.00 0.00 0.00 0.05 0.22 0.30 0.46 0.19 0.16 0.38 0.38 0.96 0.58 0.91 0.64 0.33 0.58 0.98 1.00 1.73 2.10 2.40 3.33 5.34 6.93 4.40 2.97 2.10 2.20 2.94 4.63 2.34 1.56 1.77 1.41 0.50 0.40 0.25 0.18 0.14 0.16 0.09 0.07 0.14 0.15 0.08 0.04 0.04
0.00 0.00 0.00 0.01 0.04 0.10 0.07 0.07 0.02 0.03 0.05 0.31 0.50 0.44 0.52 0.61 0.60 0.68 0.97 0.90 1.27 1.36 1.46 1.47 2.49 4.22 3.72 3.11 2.57 2.22 2.40 4.14 3.47 1.66 1.21 1.49 0.57 0.54 0.36 0.28 0.37 0.24 0.15 0.18 0.18 0.38 0.42 0.34 0.20
0.00 0.00 0.00 0.00 0.03 0.04 0.00 0.05 0.02 0.02 0.05 0.08 0.15 0.28 0.46 0.59 0.58 0.71 0.95 1.13 0.86 1.21 1.18 1.12 0.87 1.90 1.99 1.76 2.09 1.98 1.35 1.98 3.73 1.87 1.37 1.05 1.07 0.60 0.40 0.21 0.25 0.16 0.10 0.10 0.19 0.39 0.33 0.26 0.31
0.00 0.00 0.00 0.03 0.01 0.00 0.00 0.00 0.07 0.06 0.09 0.27 0.17 0.60 0.69 0.64 0.59 0.72 1.22 0.83 1.11 1.11 1.16 1.07 0.80 0.97 1.54 1.67 1.74 1.47 0.79 1.09 2.58 2.22 1.59 0.90 1.14 0.92 0.57 0.37 0.16 0.08 0.02 0.04 0.04 0.07 0.12 0.14 0.13
0.00 0.00 0.00 0.00 0.00 0.00 0.01 0.00 0.01 0.18 0.30 0.68 0.58 0.86 0.95 0.61 0.62 1.09 0.61 0.36 0.47 0.70 0.58 0.60 0.77 0.65 0.94 1.51 1.21 1.31 0.83 0.87 1.84 2.31 1.66 1.06 0.75 0.77 0.40 0.28 0.15 0.09 0.05 0.01 0.03 0.03 0.04 0.05 0.06
0.00 0.00 0.00 0.00 0.00 0.00 0.02 0.08 0.16 0.07 0.06 0.19 0.41 0.35 0.41 0.30 0.21 0.29 0.23 0.13 0.21 0.49 0.45 0.46 0.50 0.63 1.03 1.29 1.04 0.99 0.84 0.66 1.10 1.94 1.67 1.63 0.87 0.64 0.41 0.26 0.11 0.05 0.02 0.00 0.00 0.00 0.02 0.04 0.07
0.00 0.00 0.01 0.09 0.00 0.00 0.00 0.13 0.28 0.06 0.08 0.09 0.10 0.09 0.19 0.29 0.21 0.29 0.15 0.10 0.08 0.38 0.31 0.31 0.54 0.83 0.94 1.07 0.97 1.01 0.82 0.67 0.97 1.52 1.53 1.57 1.46 0.55 0.39 0.28 0.14 0.03 0.02 0.00 0.00 0.00 0.00 0.01 0.04
0.00 0.00 0.00 0.00 0.00 0.00 0.00 0.01 0.07 0.06 0.04 0.06 0.04 0.01 0.05 0.35 0.53 0.24 0.14 0.10 0.07 0.12 0.17 0.51 0.81 1.17 1.37 1.23 1.16 1.56 1.36 1.06 0.95 1.34 1.37 1.04 1.53 0.83 0.32 0.32 0.20 0.10 0.03 0.00 0.00 0.00 0.00 0.00 0.00
0.00 0.00 0.00 0.00 0.00 0.00 0.00 0.00 0.03 0.04 0.02 0.01 0.01 0.00 0.01 0.02 0.07 0.03 0.03 0.03 0.08 0.13 0.12 0.68 1.07 1.33 1.39 2.07 1.89 1.68 1.02 0.85 0.82 1.09 1.12 0.96 1.12 1.23 0.72 0.46 0.28 0.21 0.10 0.05 0.01 0.00 0.00 0.00 0.00
0.00 0.00 0.00 0.00 0.00 0.00 0.00 0.00 0.02 0.04 0.03 0.13 0.01 0.00 0.00 0.00 0.00 0.01 0.02 0.05 0.08 0.12 0.31 0.81 1.22 1.52 1.15 0.77 0.58 0.86 0.80 0.75 0.86 0.91 0.89 0.72 0.84 0.82 1.03 0.46 0.20 0.14 0.10 0.06 0.02 0.00 0.01 0.01 0.01
0.00 0.00 0.00 0.00 0.00 0.00 0.00 0.00 0.01 0.02 0.02 0.05 0.02 0.01 0.00 0.00 0.01 0.02 0.04 0.10 0.14 0.27 0.38 0.41 0.37 0.54 0.22 0.15 0.23 0.52 0.60 0.66 0.69 0.86 0.71 0.65 0.79 0.64 0.71 0.47 0.24 0.08 0.07 0.05 0.02 0.01 0.02 0.02 0.02
0.00 0.00 0.00 0.00 0.00 0.00 0.00 0.00 0.00 0.01 0.03 0.02 0.03 0.01 0.00 0.00 0.00 0.02 0.09 0.13 0.15 0.15 0.17 0.06 0.06 0.27 0.22 0.10 0.16 0.40 0.68 0.78 0.92 1.24 1.07 0.67 0.76 0.74 0.61 0.43 0.25 0.09 0.04 0.03 0.02 0.01 0.01 0.02 0.02
0.00 0.00 0.00 0.00 0.00 0.01 0.00 0.02 0.02 0.00 0.01 0.01 0.01 0.01 0.01 0.01 0.01 0.01 0.01 0.02 0.02 0.02 0.03 0.02 0.07 0.13 0.18 0.20 0.24 0.32 0.63 0.68 0.77 0.80 1.01 0.69 0.58 0.57 0.46 0.35 0.34 0.14 0.07 0.04 0.04 0.03 0.03 0.02 0.02
0.03 0.00 0.00 0.00 0.00 0.01 0.01 0.01 0.01 0.00 0.00 0.00 0.00 0.01 0.00 0.01 0.01 0.00 0.01 0.02 0.01 0.04 0.04 0.10 0.13 0.15 0.12 0.18 0.32 0.22 0.31 0.46 0.65 0.82 1.11 1.22 0.85 0.58 0.50 0.37 0.33 0.22 0.11 0.17 0.10 0.06 0.08 0.07 0.05
0.00 0.00 0.00 0.00 0.00 0.00 0.01 0.01 0.01 0.01 0.01 0.01 0.00 0.00 0.00 0.02 0.01 0.01 0.02 0.02 0.03 0.12 0.17 0.16 0.13 0.14 0.16 0.22 0.27 0.28 0.21 0.17 0.24 0.50 0.80 1.38 1.42 0.88 0.54 0.46 0.32 0.26 0.22 0.25 0.22 0.22 0.16 0.17 0.14
0.00 0.00 0.01 0.11 0.04 0.02 0.05 0.06 0.02 0.01 0.01 0.05 0.00 0.00 0.00 0.01 0.01 0.02 0.02 0.06 0.09 0.20 0.22 0.16 0.13 0.13 0.16 0.20 0.26 0.20 0.15 0.09 0.08 0.11 0.27 0.61 1.42 1.39 0.78 0.42 0.35 0.31 0.31 0.33 0.36 0.36 0.32 0.28 0.34
0.00 0.00 0.03 0.09 0.07 0.09 0.08 0.02 0.01 0.00 0.00 0.00 0.00 0.00 0.00 0.00 0.00 0.01 0.04 0.06 0.10 0.30 0.22 0.10 0.05 0.04 0.06 0.09 0.18 0.15 0.13 0.10 0.09 0.08 0.18 0.24 0.46 1.00 1.01 0.71 0.39 0.39 0.44 0.42 0.50 0.64 0.69 0.82 1.02
0.02 0.04 0.01 0.01 0.02 0.05 0.02 0.01 0.01 0.01 0.00 0.00 0.00 0.00 0.00 0.00 0.00 0.00 0.02 0.05 0.11 0.22 0.16 0.05 0.02 0.01 0.05 0.09 0.10 0.11 0.14 0.07 0.13 0.31 0.20 0.36 0.36 0.60 0.86 1.07 0.93 0.68 0.61 0.63 0.74 0.88 1.09 1.15 1.07
0.00 0.02 0.02 0.02 0.04 0.04 0.00 0.01 0.04 0.05 0.01 0.02 0.02 0.00 0.01 0.00 0.00 0.00 0.01 0.02 0.07 0.16 0.16 0.19 0.12 0.08 0.06 0.05 0.05 0.05 0.13 0.15 0.17 0.29 0.14 0.22 0.32 0.58 0.91 1.17 1.51 1.48 1.03 0.94 1.16 1.24 1.12 1.09 1.02
0.02 0.01 0.00 0.01 0.01 0.06 0.08 0.01 0.03 0.05 0.10 0.07 0.07 0.05 0.01 0.00 0.01 0.01 0.00 0.00 0.04 0.15 0.18 0.25 0.38 0.25 0.11 0.05 0.03 0.05 0.18 0.18 0.28 0.28 0.33 0.33 0.51 0.69 0.95 1.29 1.68 2.08 1.85 1.59 1.46 1.28 1.02 0.83 0.80
0.05 0.06 0.06 0.11 0.06 0.02 0.05 0.02 0.00 0.02 0.06 0.12 0.21 0.23 0.12 0.03 0.02 0.05 0.04 0.02 0.04 0.14 0.21 0.15 0.31 0.30 0.32 0.18 0.12 0.14 0.31 0.36 0.41 0.56 0.53 0.63 0.78 0.84 1.05 1.36 1.71 1.85 1.83 1.66 1.71 1.59 1.36 1.22 0.98

GFSSGP_prec_precacc_120.txt.gz
Total_Precipitation_Accumulation
0.00 0.00 0.00 0.00 0.00 0.00 0.00 0.00 0.00 0.03 0.05 0.11 0.11 0.17 0.12 0.21 0.58 1.07 0.89 1.31 1.58 0.58 0.50 0.40 0.11 0.03 0.05 0.08 0.08 0.06 0.05 0.04 0.07 0.09 0.18 0.28 0.34 0.50 0.51 0.38 0.35 0.56 0.74 0.58 0.43 0.42 0.54 0.47 0.28
0.00 0.00 0.00 0.00 0.00 0.00 0.00 0.00 0.02 0.10 0.37 0.43 0.30 0.29 0.32 0.81 0.88 1.44 1.33 2.24 2.41 1.33 0.88 0.85 0.58 0.10 0.04 0.03 0.03 0.03 0.05 0.06 0.05 0.04 0.11 0.31 0.38 0.34 0.31 0.45 0.42 0.50 0.60 0.68 0.56 0.86 1.22 1.00 0.72
0.00 0.00 0.00 0.00 0.00 0.00 0.00 0.00 0.01 0.06 0.26 0.37 0.14 0.14 0.29 0.58 1.03 0.80 0.96 1.37 1.51 1.15 1.17 1.04 1.11 0.87 0.32 0.16 0.07 0.05 0.09 0.06 0.06 0.06 0.14 0.22 0.25 0.36 0.38 0.61 0.43 0.27 0.31 0.60 0.68 0.82 0.98 0.84 0.98
0.00 0.00 0.00 0.00 0.00 0.00 0.00 0.01 0.16 0.18 0.12 0.07 0.19 0.26 0.33 0.47 0.71 0.78 0.61 0.86 1.20 1.13 1.26 1.45 1.45 0.97 0.60 0.60 0.24 0.08 0.09 0.03 0.05 0.13 0.31 0.29 0.80 0.97 1.10 1.14 1.49 0.98 0.68 0.96 1.35 1.92 1.32 0.73 1.05
0.00 0.00 0.00 0.00 0.00 0.01 0.02 0.03 0.12 0.12 0.42 0.43 0.15 0.37 0.53 0.60 0.40 0.55 1.02 1.11 1.78 1.83 2.55 3.31 2.97 2.41 1.11 0.98 0.77 0.33 0.17 0.09 0.11 0.29 0.71 1.00 1.66 1.46 1.13 0.71 0.76 1.01 1.44 1.46 1.24 1.35 1.44 0.98 0.29
0.00 0.00 0.00 0.00 0.00 0.03 0.07 0.19 0.34 0.31 0.73 0.52 0.46 0.66 0.66 0.78 0.65 0.57 1.09 1.91 3.18 3.36 3.45 5.11 5.72 5.42 4.22 2.66 1.89 1.54 1.36 1.02 0.78 0.55 0.55 0.57 0.99 1.20 0.68 0.39 0.32 0.25 0.25 0.23 0.25 0.21 0.12 0.16 0.09
0.00 0.00 0.00 0.00 0.01 0.01 0.04 0.19 0.36 0.22 0.62 1.20 0.49 0.62 0.44 0.40 0.60 1.08 1.65 2.31 3.87 5.85 5.86 5.26 7.51 5.14 4.03 4.24 3.28 3.33 2.37 2.15 1.89 1.37 0.79 0.41 0.37 0.49 0.28 0.20 0.17 0.13 0.11 0.13 0.19 0.12 0.03 0.01 0.01
0.00 0.00 0.00 0.00 0.01 0.02 0.06 0.29 0.38 0.15 0.19 0.25 0.33 0.59 0.76 0.39 0.54 0.91 1.65 2.10 3.74 6.58 9.34 6.73 6.72 5.23 3.51 3.42 3.97 3.24 3.43 2.81 2.04 1.59 1.30 0.46 0.46 0.36 0.36 0.22 0.18 0.10 0.07 0.09 0.10 0.10 0.03 0.02 0.00
0.00 0.00 0.00 0.01 0.02 0.05 0.17 0.40 0.32 0.13 0.09 0.16 0.27 0.46 0.62 0.50 0.30 0.76 1.07 1.50 2.10 3.69 5.27 5.84 7.31 6.11 3.64 2.51 3.42 2.95 3.65 3.19 2.04 1.57 2.06 0.80 0.38 0.38 0.30 0.14 0.12 0.13 0.07 0.06 0.07 0.10 0.05 0.01 0.00
0.00 0.00 0.00 0.00 0.05 0.22 0.30 0.46 0.19 0.16 0.38 0.38 0.96 0.58 0.91 0.64 0.33 0.58 0.98 1.00 1.73 2.10 2.40 3.33 5.34 6.93 4.40 2.98 2.10 2.21 2.95 4.64 2.34 1.56 1.77 1.41 0.51 0.41 0.26 0.18 0.14 0.18 0.10 0.09 0.19 0.17 0.08 0.05 0.04
0.00 0.00 0.00 0.01 0.04 0.10 0.07 0.07 0.02 0.03 0.05 0.31 0.50 0.44 0.52 0.61 0.60 0.68 0.97 0.90 1.27 1.36 1.46 1.47 2.49 4.22 3.72 3.11 2.58 2.23 2.41 4.15 3.48 1.67 1.23 1.51 0.59 0.56 0.36 0.28 0.40 0.32 0.20 0.27 0.26 0.41 0.42 0.34 0.20
0.00 0.00 0.00 0.00 0.03 0.04 0.00 0.05 0.02 0.02 0.05 0.08 0.15 0.28 0.46 0.59 0.58 0.71 0.95 1.13 0.86 1.21 1.18 1.12 0.87 1.90 1.99 1.77 2.09 1.98 1.36 2.00 3.75 1.89 1.41 1.11 1.09 0.61 0.41 0.21 0.26 0.24 0.17 0.15 0.19 0.39 0.33 0.26 0.31
0.00 0.00 0.00 0.03 0.01 0.00 0.00 0.00 0.07 0.06 0.09 0.27 0.17 0.60 0.69 0.64 0.59 0.72 1.22 0.83 1.11 1.11 1.16 1.07 0.80 0.97 1.54 1.67 1.75 1.47 0.80 1.10 2.58 2.22 1.62 0.97 1.17 0.93 0.59 0.39 0.17 0.12 0.08 0.08 0.04 0.07 0.12 0.15 0.14
0.00 0.00 0.00 0.00 0.00 0.00 0.01 0.00 0.01 0.18 0.30 0.68 0.58 0.86 0.95 0.61 0.62 1.09 0.61 0.36 0.47 0.70 0.58 0.60 0.77 0.65 0.94 1.51 1.21 1.31 0.83 0.87 1.85 2.32 1.66 1.09 0.80 0.78 0.42 0.31 0.24 0.21 0.14 0.05 0.03 0.03 0.04 0.05 0.06
0.00 0.00 0.00 0.00 0.00 0.00 0.02 0.08 0.16 0.07 0.06 0.19 0.41 0.35 0.41 0.30 0.21 0.29 0.23 0.13 0.21 0.49 0.45 0.46 0.50 0.63 1.03 1.29 1.04 0.99 0.84 0.66 1.11 1.94 1.68 1.64 0.90 0.67 0.45 0.29 0.19 0.12 0.15 0.09 0.03 0.01 0.02 0.04 0.07
0.00 0.00 0.01 0.09 0.00 0.00 0.00 0.13 0.28 0.06 0.08 0.09 0.10 0.09 0.19 0.29 0.21 0.29 0.15 0.10 0.08 0.38 0.31 0.31 0.54 0.83 0.94 1.07 0.97 1.01 0.82 0.68 1.01 1.53 1.54 1.57 1.46 0.56 0.45 0.34 0.19 0.08 0.08 0.06 0.01 0.00 0.00 0.01 0.04
0.00 0.00 0.00 0.00 0.00 0.00 0.00 0.01 0.07 0.06 0.04 0.06 0.04 0.01 0.05 0.35 0.53 0.24 0.14 0.10 0.07 0.12 0.17 0.51 0.81 1.17 1.37 1.23 1.16 1.56 1.36 1.08 0.99 1.36 1.37 1.05 1.53 0.85 0.33 0.35 0.26 0.19 0.11 0.03 0.02 0.00 0.00 0.00 0.00
0.00 0.00 0.00 0.00 0.00 0.00 0.00 0.00 0.03 0.04 0.02 0.01 0.01 0.00 0.01 0.02 0.07 0.03 0.03 0.03 0.08 0.13 0.12 0.68 1.07 1.33 1.39 2.07 1.90 1.68 1.02 0.86 0.84 1.12 1.12 0.97 1.13 1.24 0.74 0.50 0.38 0.31 0.28 0.12 0.03 0.00 0.00 0.00 0.00
0.00 0.00 0.00 0.00 0.00 0.00 0.00 0.00 0.02 0.04 0.03 0.13 0.01 0.00 0.00 0.00 0.00 0.01 0.02 0.05 0.08 0.12 0.31 0.81 1.22 1.52 1.15 0.77 0.58 0.86 0.80 0.75 0.86 0.92 0.89 0.72 0.85 0.84 1.06 0.64 0.35 0.27 0.32 0.19 0.04 0.00 0.01 0.02 0.01
0.00 0.00 0.00 0.00 0.00 0.00 0.00 0.00 0.01 0.02 0.02 0.05 0.02 0.01 0.00 0.00 0.01 0.02 0.04 0.10 0.14 0.27 0.38 0.41 0.37 0.54 0.22 0.15 0.23 0.52 0.60 0.66 0.69 0.86 0.71 0.66 0.80 0.65 0.74 0.73 0.58 0.23 0.22 0.27 0.07 0.01 0.02 0.02 0.02
0.00 0.00 0.00 0.00 0.00 0.00 0.00 0.00 0.00 0.01 0.03 0.02 0.03 0.01 0.00 0.00 0.00 0.02 0.09 0.13 0.15 0.15 0.17 0.06 0.06 0.27 0.22 0.10 0.16 0.41 0.68 0.78 0.92 1.24 1.07 0.68 0.77 0.75 0.65 0.63 0.68 0.35 0.21 0.20 0.10 0.02 0.01 0.02 0.02
0.01 0.00 0.00 0.00 0.00 0.02 0.00 0.02 0.02 0.00 0.01 0.01 0.01 0.01 0.01 0.01 0.01 0.01 0.01 0.02 0.02 0.02 0.03 0.02 0.07 0.13 0.18 0.20 0.24 0.32 0.63 0.68 0.77 0.81 1.02 0.70 0.58 0.58 0.48 0.42 0.64 0.48 0.18 0.13 0.11 0.05 0.04 0.02 0.02
0.03 0.00 0.00 0.00 0.00 0.01 0.01 0.01 0.01 0.00 0.00 0.00 0.00 0.01 0.00 0.01 0.01 0.00 0.01 0.02 0.01 0.04 0.04 0.10 0.13 0.15 0.12 0.18 0.32 0.22 0.31 0.46 0.65 0.82 1.11 1.23 0.86 0.58 0.51 0.44 0.56 0.54 0.30 0.24 0.15 0.09 0.08 0.08 0.05
0.00 0.00 0.00 0.00 0.00 0.00 0.01 0.01 0.01 0.01 0.01 0.01 0.00 0.00 0.00 0.02 0.01 0.01 0.02 0.02 0.03 0.12 0.17 0.16 0.13 0.14 0.16 0.22 0.27 0.28 0.21 0.18 0.25 0.51 0.80 1.39 1.42 0.89 0.54 0.49 0.54 0.57 0.48 0.36 0.28 0.25 0.17 0.17 0.14
0.00 0.00 0.01 0.11 0.04 0.02 0.05 0.06 0.02 0.01 0.01 0.05 0.00 0.00 0.00 0.01 0.01 0.02 0.02 0.06 0.09 0.20 0.22 0.16 0.13 0.13 0.17 0.21 0.26 0.22 0.18 0.09 0.08 0.12 0.28 0.61 1.43 1.40 0.79 0.42 0.44 0.59 0.62 0.47 0.41 0.37 0.32 0.28 0.34
0.01 0.00 0.04 0.09 0.07 0.09 0.08 0.02 0.01 0.00 0.00 0.00 0.00 0.00 0.00 0.00 0.00 0.01 0.04 0.06 0.10 0.30 0.22 0.10 0.05 0.05 0.07 0.10 0.21 0.17 0.14 0.11 0.09 0.09 0.18 0.24 0.46 1.02 1.01 0.71 0.40 0.53 0.73 0.61 0.57 0.65 0.69 0.82 1.02
0.04 0.05 0.01 0.01 0.02 0.05 0.02 0.01 0.01 0.01 0.00 0.00 0.00 0.00 0.00 0.00 0.00 0.00 0.02 0.05 0.11 0.22 0.16 0.05 0.02 0.01 0.05 0.09 0.11 0.13 0.16 0.08 0.13 0.32 0.21 0.37 0.37 0.66 0.92 1.08 0.93 0.69 0.71 0.82 0.81 0.90 1.09 1.15 1.07
0.00 0.02 0.02 0.02 0.04 0.04 0.00 0.01 0.04 0.05 0.01 0.02 0.02 0.00 0.01 0.00 0.00 0.00 0.01 0.02 0.07 0.16 0.16 0.19 0.12 0.08 0.07 0.05 0.07 0.07 0.14 0.15 0.17 0.30 0.14 0.23 0.33 0.60 0.97 1.26 1.58 1.49 1.04 0.98 1.25 1.29 1.13 1.10 1.02
0.05 0.03 0.01 0.01 0.01 0.06 0.08 0.01 0.03 0.05 0.10 0.07 0.07 0.05 0.01 0.00 0.01 0.01 0.00 0.00 0.04 0.15 0.18 0.25 0.38 0.26 0.12 0.06 0.06 0.09 0.24 0.21 0.28 0.29 0.33 0.33 0.51 0.70 0.98 1.38 1.85 2.33 2.03 1.66 1.48 1.32 1.05 0.84 0.80
0.07 0.10 0.12 0.15 0.08 0.02 0.05 0.02 0.00 0.02 0.06 0.12 0.21 0.23 0.12 0.03 0.02 0.05 0.04 0.02 0.04 0.14 0.21 0.15 0.31 0.31 0.33 0.19 0.17 0.22 0.36 0.37 0.41 0.56 0.53 0.63 0.79 0.85 1.05 1.37 1.77 2.09 2.36 2.07 1.84 1.64 1.39 1.23 0.99

GFSSGP_prec_precacc_123.txt.gz
Total_Precipitation_Accumulation
0.00 0.00 0.00 0.00 0.00 0.00 0.00 0.00 0.00 0.03 0.05 0.11 0.11 0.17 0.12 0.21 0.58 1.07 0.89 1.31 1.58 0.58 0.50 0.40 0.11 0.03 0.05 0.08 0.08 0.06 0.05 0.04 0.07 0.09 0.21 0.33 0.35 0.50 0.52 0.38 0.37 0.61 0.86 0.64 0.45 0.46 0.58 0.48 0.29
0.00 0.00 0.00 0.00 0.00 0.00 0.00 0.00 0.02 0.10 0.37 0.43 0.30 0.29 0.32 0.81 0.88 1.44 1.33 2.24 2.41 1.33 0.88 0.85 0.58 0.10 0.04 0.03 0.03 0.03 0.05 0.06 0.05 0.04 0.13 0.36 0.40 0.34 0.33 0.47 0.47 0.63 0.76 0.77 0.57 0.95 1.38 1.01 0.73
0.00 0.00 0.00 0.00 0.00 0.00 0.00 0.00 0.01 0.06 0.26 0.37 0.14 0.14 0.29 0.58 1.03 0.80 0.96 1.37 1.51 1.15 1.17 1.04 1.11 0.87 0.32 0.16 0.07 0.05 0.09 0.06 0.06 0.07 0.14 0.25 0.26 0.37 0.42 0.80 0.82 0.56 0.55 0.82 0.78 0.90 1.04 0.87 0.98
0.00 0.00 0.00 0.00 0.00 0.00 0.00 0.01 0.16 0.18 0.12 0.07 0.19 0.26 0.33 0.47 0.71 0.78 0.61 0.86 1.20 1.13 1.26 1.45 1.45 0.97 0.60 0.60 0.24 0.08 0.09 0.04 0.05 0.13 0.31 0.30 0.84 0.97 1.16 1.67 2.39 1.91 1.76 1.37 1.67 2.13 1.44 0.75 1.05
0.00 0.00 0.00 0.00 0.00 0.01 0.02 0.03 0.12 0.12 0.42 0.43 0.15 0.37 0.53 0.60 0.40 0.55 1.02 1.11 1.78 1.83 2.55 3.31 2.97 2.41 1.11 0.98 0.77 0.33 0.17 0.09 0.11 0.29 0.71 1.01 1.69 1.46 1.14 0.95 1.01 1.23 2.09 1.85 1.46 1.44 1.44 0.98 0.29
0.00 0.00 0.00 0.00 0.00 0.03 0.07 0.19 0.34 0.31 0.73 0.52 0.46 0.66 0.66 0.78 0.65 0.57 1.09 1.91 3.18 3.36 3.45 5.11 5.72 5.42 4.22 2.66 1.89 1.54 1.36 1.02 0.78 0.55 0.58 0.57 0.99 1.20 0.69 0.39 0.32 0.25 0.30 0.38 0.37 0.26 0.12 0.16 0.09
0.00 0.00 0.00 0.00 0.01 0.01 0.04 0.19 0.36 0.22 0.62 1.20 0.49 0.62 0.44 0.40 0.60 1.08 1.65 2.31 3.87 5.85 5.86 5.26 7.51 5.14 4.03 4.24 3.28 3.33 2.37 2.15 1.89 1.38 0.81 0.42 0.37 0.49 0.28 0.20 0.17 0.13 0.12 0.17 0.25 0.16 0.06 0.02 0.01
0.00 0.00 0.00 0.00 0.01 0.02 0.06 0.29 0.38 0.15 0.19 0.25 0.33 0.59 0.76 0.39 0.54 0.91 1.65 2.10 3.74 6.58 9.34 6.73 6.72 5.23 3.51 3.42 3.97 3.24 3.43 2.81 2.04 1.60 1.31 0.46 0.46 0.36 0.36 0.22 0.18 0.10 0.07 0.10 0.12 0.13 0.07 0.05 0.01
0.00 0.00 0.00 0.01 0.02 0.05 0.17 0.40 0.32 0.13 0.09 0.16 0.27 0.46 0.62 0.50 0.30 0.76 1.07 1.50 2.10 3.69 5.27 5.84 7.31 6.11 3.64 2.51 3.42 2.96 3.65 3.19 2.04 1.58 2.07 0.81 0.39 0.38 0.30 0.14 0.12 0.13 0.07 0.06 0.07 0.18 0.08 0.05 0.02
0.00 0.00 0.00 0.00 0.05 0.22 0.30 0.46 0.19 0.16 0.38 0.38 0.96 0.58 0.91 0.64 0.33 0.58 0.98 1.00 1.73 2.10 2.40 3.33 5.34 6.93 4.40 2.98 2.10 2.21 2.95 4.64 2.34 1.57 1.78 1.43 0.56 0.44 0.27 0.19 0.16 0.19 0.11 0.12 0.37 0.46 0.27 0.10 0.05
0.00 0.00 0.00 0.01 0.04 0.10 0.07 0.07 0.02 0.03 0.05 0.31 0.50 0.44 0.52 0.61 0.60 0.68 0.97 0.90 1.27 1.36 1.46 1.47 2.49 4.22 3.72 3.11 2.58 2.23 2.41 4.16 3.48 1.68 1.24 1.56 0.66 0.64 0.42 0.35 0.41 0.37 0.26 0.35 0.43 0.55 0.55 0.39 0.20
0.00 0.00 0.00 0.00 0.03 0.04 0.00 0.05 0.02 0.02 0.05 0.08 0.15 0.28 0.46 0.59 0.58 0.71 0.95 1.13 0.86 1.21 1.18 1.12 0.87 1.90 1.99 1.77 2.09 1.98 1.37 2.00 3.75 1.89 1.44 1.18 1.17 0.69 0.44 0.27 0.29 0.25 0.22 0.22 0.23 0.44 0.41 0.29 0.31
0.00 0.00 0.00 0.03 0.01 0.00 0.00 0.00 0.07 0.06 0.09 0.27 0.17 0.60 0.69 0.64 0.59 0.72 1.22 0.83 1.11 1.11 1.16 1.07 0.80 0.97 1.54 1.67 1.75 1.47 0.80 1.10 2.59 2.23 1.63 1.00 1.19 0.97 0.65 0.46 0.20 0.12 0.13 0.16 0.12 0.12 0.18 0.16 0.14
0.00 0.00 0.00 0.00 0.00 0.00 0.01 0.00 0.01 0.18 0.30 0.68 0.58 0.86 0.95 0.61 0.62 1.09 0.61 0.36 0.47 0.70 0.58 0.60 0.77 0.65 0.94 1.51 1.21 1.32 0.83 0.87 1.85 2.32 1.67 1.10 0.82 0.81 0.45 0.34 0.31 0.30 0.27 0.20 0.16 0.08 0.08 0.05 0.06
0.00 0.00 0.00 0.00 0.00 0.00 0.02 0.08 0.16 0.07 0.06 0.19 0.41 0.35 0.41 0.30 0.21 0.29 0.23 0.13 0.21 0.49 0.45 0.46 0.50 0.63 1.03 1.29 1.04 0.99 0.84 0.66 1.11 1.95 1.68 1.65 0.94 0.71 0.47 0.32 0.26 0.22 0.30 0.41 0.32 0.16 0.07 0.05 0.08
0.00 0.00 0.01 0.09 0.00 0.00 0.00 0.13 0.28 0.06 0.08 0.09 0.10 0.09 0.19 0.29 0.21 0.29 0.15 0.10 0.08 0.38 0.31 0.31 0.54 0.83 0.94 1.07 0.97 1.01 0.82 0.68 1.01 1.54 1.54 1.58 1.49 0.59 0.50 0.35 0.21 0.17 0.26 0.39 0.39 0.13 0.05 0.02 0.06
0.00 0.00 0.00 0.00 0.00 0.00 0.00 0.01 0.07 0.06 0.04 0.06 0.04 0.01 0.05 0.35 0.53 0.24 0.14 0.10 0.07 0.12 0.17 0.51 0.81 1.17 1.37 1.23 1.16 1.56 1.36 1.08 0.99 1.36 1.38 1.06 1.54 0.86 0.36 0.37 0.27 0.24 0.15 0.19 0.28 0.16 0.03 0.01 0.02
0.00 0.00 0.00 0.00 0.00 0.00 0.00 0.00 0.03 0.04 0.02 0.01 0.01 0.00 0.01 0.02 0.07 0.03 0.03 0.03 0.08 0.13 0.12 0.68 1.07 1.33 1.39 2.07 1.90 1.69 1.03 0.87 0.84 1.12 1.13 0.98 1.14 1.25 0.76 0.51 0.39 0.34 0.33 0.25 0.20 0.13 0.03 0.01 0.00
0.00 0.00 0.00 0.00 0.00 0.00 0.00 0.00 0.02 0.04 0.03 0.13 0.01 0.00 0.00 0.00 0.00 0.01 0.02 0.05 0.08 0.12 0.31 0.81 1.22 1.52 1.15 0.77 0.58 0.86 0.81 0.76 0.86 0.92 0.89 0.72 0.86 0.85 1.07 0.65 0.37 0.28 0.36 0.35 0.28 0.12 0.03 0.03 0.03
0.00 0.00 0.00 0.00 0.00 0.00 0.00 0.00 0.01 0.02 0.02 0.05 0.02 0.01 0.00 0.00 0.01 0.02 0.04 0.10 0.14 0.27 0.38 0.41 0.37 0.54 0.22 0.15 0.23 0.52 0.61 0.67 0.70 0.86 0.71 0.66 0.80 0.66 0.76 0.74 0.60 0.24 0.26 0.35 0.36 0.31 0.08 0.04 0.06
0.00 0.00 0.00 0.00 0.00 0.00 0.00 0.00 0.00 0.01 0.03 0.02 0.03 0.01 0.00 0.00 0.00 0.02 0.09 0.13 0.15 0.15 0.17 0.06 0.06 0.27 0.22 0.10 0.16 0.41 0.68 0.78 0.93 1.25 1.08 0.68 0.77 0.75 0.66 0.64 0.70 0.41 0.29 0.36 0.27 0.29 0.13 0.04 0.05
0.01 0.00 0.00 0.00 0.01 0.02 0.00 0.02 0.02 0.00 0.01 0.01 0.01 0.01 0.01 0.01 0.01 0.01 0.01 0.02 0.02 0.02 0.03 0.02 0.07 0.13 0.18 0.20 0.24 0.32 0.64 0.68 0.78 0.81 1.02 0.70 0.59 0.58 0.49 0.43 0.66 0.61 0.38 0.30 0.28 0.24 0.12 0.04 0.03
0.03 0.00 0.00 0.00 0.00 0.01 0.01 0.01 0.01 0.00 0.00 0.00 0.00 0.01 0.00 0.01 0.01 0.00 0.01 0.02 0.01 0.04 0.04 0.10 0.13 0.15 0.12 0.18 0.32 0.22 0.32 0.46 0.65 0.82 1.11 1.24 0.86 0.59 0.53 0.45 0.57 0.64 0.48 0.46 0.33 0.28 0.22 0.11 0.07
0.00 0.00 0.00 0.00 0.00 0.00 0.01 0.01 0.01 0.01 0.01 0.01 0.00 0.00 0.00 0.02 0.01 0.01 0.02 0.02 0.03 0.12 0.17 0.16 0.13 0.14 0.16 0.22 0.27 0.28 0.21 0.18 0.25 0.51 0.81 1.41 1.43 0.89 0.55 0.49 0.55 0.63 0.64 0.54 0.45 0.43 0.27 0.21 0.16
0.00 0.00 0.02 0.13 0.04 0.02 0.05 0.06 0.02 0.01 0.01 0.05 0.00 0.00 0.00 0.01 0.01 0.02 0.02 0.06 0.09 0.20 0.22 0.16 0.13 0.13 0.17 0.21 0.26 0.23 0.19 0.10 0.09 0.12 0.29 0.62 1.44 1.40 0.79 0.42 0.44 0.65 0.75 0.69 0.59 0.60 0.50 0.32 0.35
0.01 0.00 0.05 0.10 0.07 0.09 0.08 0.02 0.01 0.00 0.00 0.00 0.00 0.00 0.00 0.00 0.00 0.01 0.04 0.06 0.10 0.30 0.22 0.10 0.05 0.05 0.07 0.10 0.21 0.18 0.15 0.12 0.09 0.09 0.19 0.25 0.47 1.02 1.02 0.71 0.40 0.55 0.84 0.85 0.86 0.89 0.92 0.92 1.07
0.04 0.05 0.01 0.02 0.03 0.05 0.02 0.01 0.02 0.01 0.00 0.00 0.00 0.00 0.00 0.00 0.00 0.00 0.02 0.05 0.11 0.22 0.16 0.05 0.02 0.01 0.05 0.10 0.11 0.15 0.21 0.10 0.14 0.32 0.22 0.37 0.37 0.67 0.92 1.08 0.93 0.69 0.76 1.06 1.13 1.14 1.30 1.29 1.13
0.01 0.02 0.04 0.06 0.09 0.04 0.00 0.01 0.04 0.05 0.01 0.02 0.02 0.00 0.01 0.00 0.00 0.00 0.01 0.02 0.07 0.16 0.16 0.19 0.12 0.08 0.07 0.06 0.08 0.09 0.19 0.18 0.17 0.30 0.15 0.24 0.34 0.61 0.98 1.29 1.59 1.49 1.05 1.03 1.49 1.52 1.29 1.20 1.07
0.11 0.07 0.03 0.03 0.01 0.06 0.09 0.01 0.03 0.05 0.10 0.07 0.07 0.05 0.01 0.00 0.01 0.01 0.00 0.00 0.04 0.15 0.18 0.25 0.38 0.26 0.13 0.07 0.06 0.11 0.33 0.31 0.31 0.29 0.33 0.34 0.52 0.71 0.99 1.39 1.89 2.40 2.07 1.67 1.50 1.45 1.19 0.91 0.83
0.08 0.18 0.33 0.32 0.13 0.03 0.06 0.03 0.00 0.02 0.06 0.12 0.21 0.23 0.12 0.03 0.02 0.05 0.04 0.02 0.04 0.14 0.21 0.15 0.31 0.31 0.33 0.19 0.17 0.24 0.43 0.41 0.43 0.57 0.54 0.64 0.80 0.86 1.06 1.38 1.82 2.17 2.49 2.30 1.96 1.68 1.48 1.32 1.02

GFSSGP_prec_precacc_126.txt.gz
Total_Precipitation_Accumulation
0.00 0.00 0.00 0.00 0.00 0.00 0.00 0.00 0.00 0.03 0.05 0.11 0.11 0.17 0.12 0.21 0.58 1.07 0.89 1.31 1.58 0.58 0.50 0.40 0.11 0.03 0.05 0.08 0.08 0.06 0.05 0.04 0.07 0.09 0.21 0.33 0.36 0.53 0.52 0.39 0.39 0.65 0.98 0.75 0.48 0.46 0.60 0.55 0.43
0.00 0.00 0.00 0.00 0.00 0.00 0.00 0.00 0.02 0.10 0.37 0.43 0.30 0.29 0.32 0.81 0.88 1.44 1.33 2.24 2.41 1.33 0.88 0.85 0.58 0.10 0.04 0.03 0.03 0.03 0.05 0.06 0.05 0.04 0.13 0.36 0.42 0.36 0.35 0.49 0.56 0.80 1.08 1.09 0.67 1.01 1.46 1.05 0.77
0.00 0.00 0.00 0.00 0.00 0.00 0.00 0.00 0.01 0.06 0.26 0.37 0.14 0.14 0.29 0.58 1.03 0.80 0.96 1.37 1.51 1.15 1.17 1.04 1.11 0.87 0.32 0.16 0.07 0.05 0.09 0.06 0.06 0.07 0.15 0.26 0.28 0.41 0.46 0.89 1.08 1.36 1.22 1.36 1.20 1.09 1.22 0.96 0.98
0.00 0.00 0.00 0.00 0.00 0.00 0.00 0.01 0.16 0.18 0.12 0.07 0.19 0.26 0.33 0.47 0.71 0.78 0.61 0.86 1.20 1.13 1.26 1.45 1.45 0.97 0.60 0.60 0.24 0.08 0.09 0.04 0.05 0.13 0.31 0.30 0.87 1.02 1.18 1.68 2.46 2.53 2.19 2.22 2.98 2.54 1.61 0.77 1.05
0.00 0.00 0.00 0.00 0.00 0.01 0.02 0.03 0.12 0.12 0.42 0.43 0.15 0.37 0.53 0.60 0.40 0.55 1.02 1.11 1.78 1.83 2.55 3.31 2.97 2.41 1.11 0.98 0.77 0.33 0.17 0.09 0.11 0.29 0.71 1.01 1.70 1.47 1.15 0.95 1.02 1.24 2.16 2.18 1.82 1.67 1.64 1.00 0.29
0.00 0.00 0.00 0.00 0.00 0.03 0.07 0.19 0.34 0.31 0.73 0.52 0.46 0.66 0.66 0.78 0.65 0.57 1.09 1.91 3.18 3.36 3.45 5.11 5.72 5.42 4.22 2.66 1.89 1.54 1.36 1.02 0.78 0.55 0.58 0.57 1.00 1.21 0.71 0.39 0.32 0.25 0.30 0.38 0.38 0.32 0.20 0.18 0.09
0.00 0.00 0.00 0.00 0.01 0.01 0.04 0.19 0.36 0.22 0.62 1.20 0.49 0.62 0.44 0.40 0.60 1.08 1.65 2.31 3.87 5.85 5.86 5.26 7.51 5.14 4.03 4.24 3.28 3.33 2.37 2.15 1.89 1.39 0.82 0.43 0.40 0.52 0.31 0.20 0.17 0.13 0.12 0.17 0.25 0.18 0.14 0.08 0.02
0.00 0.00 0.00 0.00 0.01 0.02 0.06 0.29 0.38 0.15 0.19 0.25 0.33 0.59 0.76 0.39 0.54 0.91 1.65 2.10 3.74 6.58 9.34 6.73 6.72 5.23 3.51 3.42 3.97 3.24 3.43 2.81 2.04 1.60 1.31 0.46 0.47 0.38 0.37 0.22 0.18 0.10 0.07 0.10 0.12 0.18 0.17 0.21 0.14
0.00 0.00 0.00 0.01 0.02 0.05 0.17 0.40 0.32 0.13 0.09 0.16 0.27 0.46 0.62 0.50 0.30 0.76 1.07 1.50 2.10 3.69 5.27 5.84 7.31 6.11 3.64 2.51 3.42 2.96 3.65 3.19 2.04 1.58 2.07 0.81 0.39 0.38 0.30 0.14 0.12 0.13 0.07 0.06 0.14 0.32 0.21 0.20 0.19
0.00 0.00 0.00 0.00 0.05 0.22 0.30 0.46 0.19 0.16 0.38 0.38 0.96 0.58 0.91 0.64 0.33 0.58 0.98 1.00 1.73 2.10 2.40 3.33 5.34 6.93 4.40 2.98 2.10 2.21 2.95 4.64 2.34 1.57 1.78 1.44 0.56 0.45 0.28 0.19 0.16 0.20 0.14 0.17 0.47 0.54 0.39 0.19 0.11
0.00 0.00 0.00 0.01 0.04 0.10 0.07 0.07 0.02 0.03 0.05 0.31 0.50 0.44 0.52 0.61 0.60 0.68 0.97 0.90 1.27 1.36 1.46 1.47 2.49 4.22 3.72 3.11 2.58 2.23 2.41 4.16 3.48 1.68 1.24 1.56 0.67 0.66 0.48 0.40 0.42 0.42 0.36 0.44 0.46 0.57 0.58 0.45 0.22
0.00 0.00 0.00 0.00 0.03 0.04 0.00 0.05 0.02 0.02 0.05 0.08 0.15 0.28 0.46 0.59 0.58 0.71 0.95 1.13 0.86 1.21 1.18 1.12 0.87 1.90 1.99 1.77 2.09 1.98 1.37 2.00 3.75 1.89 1.44 1.18 1.18 0.71 0.47 0.28 0.32 0.29 0.24 0.27 0.25 0.44 0.47 0.35 0.33
0.00 0.00 0.00 0.03 0.01 0.00 0.00 0.00 0.07 0.06 0.09 0.27 0.17 0.60 0.69 0.64 0.59 0.72 1.22 0.83 1.11 1.11 1.16 1.07 0.80 0.97 1.54 1.67 1.75 1.47 0.80 1.10 2.59 2.23 1.63 1.00 1.19 0.97 0.66 0.47 0.24 0.17 0.19 0.23 0.13 0.14 0.19 0.18 0.19
0.00 0.00 0.00 0.00 0.00 0.00 0.01 0.00 0.01 0.18 0.30 0.68 0.58 0.86 0.95 0.61 0.62 1.09 0.61 0.36 0.47 0.70 0.58 0.60 0.77 0.65 0.94 1.51 1.21 1.32 0.84 0.87 1.85 2.32 1.67 1.11 0.82 0.82 0.45 0.35 0.34 0.38 0.36 0.23 0.18 0.15 0.12 0.12 0.25
0.00 0.00 0.00 0.00 0.00 0.00 0.02 0.08 0.16 0.07 0.06 0.19 0.41 0.35 0.41 0.30 0.21 0.29 0.23 0.13 0.21 0.49 0.45 0.46 0.50 0.63 1.03 1.29 1.04 0.99 0.84 0.66 1.11 1.95 1.68 1.65 0.94 0.71 0.47 0.32 0.27 0.27 0.35 0.49 0.45 0.32 0.19 0.12 0.16
0.00 0.00 0.01 0.09 0.00 0.00 0.00 0.13 0.28 0.06 0.08 0.09 0.10 0.09 0.19 0.29 0.21 0.29 0.15 0.10 0.08 0.38 0.31 0.31 0.54 0.83 0.94 1.07 0.97 1.01 0.82 0.68 1.01 1.54 1.54 1.59 1.50 0.59 0.51 0.36 0.21 0.20 0.34 0.53 0.55 0.47 0.20 0.14 0.11
0.00 0.00 0.00 0.00 0.00 0.00 0.00 0.01 0.07 0.06 0.04 0.06 0.04 0.01 0.05 0.35 0.53 0.24 0.14 0.10 0.07 0.12 0.17 0.51 0.81 1.17 1.37 1.23 1.16 1.56 1.36 1.08 0.99 1.37 1.38 1.06 1.55 0.87 0.37 0.37 0.28 0.26 0.16 0.24 0.52 0.57 0.35 0.20 0.10
0.00 0.00 0.00 0.00 0.00 0.00 0.00 0.00 0.03 0.04 0.02 0.01 0.01 0.00 0.01 0.02 0.07 0.03 0.03 0.03 0.08 0.13 0.12 0.68 1.07 1.33 1.39 2.07 1.90 1.69 1.03 0.87 0.84 1.12 1.13 0.98 1.15 1.26 0.77 0.52 0.40 0.35 0.34 0.26 0.24 0.31 0.25 0.29 0.18
0.00 0.00 0.00 0.00 0.00 0.00 0.00 0.00 0.02 0.04 0.03 0.13 0.01 0.00 0.00 0.00 0.00 0.01 0.02 0.05 0.08 0.12 0.31 0.81 1.22 1.52 1.15 0.77 0.58 0.86 0.81 0.76 0.86 0.92 0.90 0.73 0.86 0.86 1.08 0.66 0.38 0.29 0.36 0.36 0.32 0.24 0.14 0.15 0.13
0.00 0.00 0.00 0.00 0.00 0.00 0.00 0.00 0.01 0.02 0.02 0.05 0.02 0.01 0.00 0.00 0.01 0.02 0.04 0.10 0.14 0.27 0.38 0.41 0.37 0.54 0.22 0.15 0.23 0.52 0.61 0.67 0.70 0.87 0.72 0.67 0.81 0.66 0.77 0.75 0.61 0.25 0.27 0.36 0.39 0.42 0.23 0.12 0.19
0.00 0.00 0.00 0.00 0.00 0.00 0.00 0.00 0.00 0.01 0.03 0.02 0.03 0.01 0.00 0.00 0.00 0.02 0.09 0.13 0.15 0.15 0.17 0.06 0.06 0.27 0.22 0.10 0.16 0.41 0.69 0.79 0.93 1.25 1.08 0.68 0.77 0.77 0.67 0.65 0.71 0.42 0.31 0.37 0.29 0.33 0.22 0.12 0.12
0.01 0.00 0.00 0.00 0.01 0.02 0.00 0.02 0.02 0.00 0.01 0.01 0.01 0.01 0.01 0.01 0.01 0.01 0.01 0.02 0.02 0.02 0.03 0.02 0.07 0.13 0.18 0.20 0.24 0.32 0.64 0.68 0.78 0.81 1.02 0.70 0.59 0.59 0.49 0.44 0.67 0.61 0.38 0.32 0.30 0.29 0.20 0.10 0.09
0.03 0.00 0.00 0.00 0.00 0.01 0.01 0.01 0.01 0.00 0.00 0.00 0.00 0.01 0.00 0.01 0.01 0.00 0.01 0.02 0.01 0.04 0.04 0.10 0.13 0.15 0.12 0.18 0.32 0.22 0.32 0.46 0.65 0.82 1.12 1.24 0.87 0.59 0.53 0.46 0.58 0.64 0.48 0.48 0.34 0.34 0.37 0.21 0.10
0.00 0.00 0.00 0.00 0.00 0.00 0.01 0.01 0.01 0.01 0.01 0.01 0.00 0.00 0.00 0.02 0.01 0.01 0.02 0.02 0.03 0.12 0.17 0.16 0.13 0.14 0.16 0.22 0.27 0.29 0.21 0.18 0.26 0.52 0.81 1.41 1.43 0.89 0.55 0.51 0.56 0.64 0.64 0.56 0.51 0.54 0.41 0.37 0.25
0.00 0.00 0.02 0.15 0.05 0.02 0.05 0.06 0.02 0.01 0.01 0.05 0.00 0.00 0.00 0.01 0.01 0.02 0.02 0.06 0.09 0.20 0.22 0.16 0.13 0.13 0.17 0.21 0.27 0.24 0.20 0.11 0.12 0.14 0.29 0.62 1.44 1.40 0.79 0.43 0.45 0.65 0.75 0.70 0.63 0.75 0.74 0.47 0.47
0.01 0.01 0.06 0.11 0.08 0.09 0.08 0.03 0.01 0.00 0.00 0.00 0.00 0.00 0.00 0.00 0.00 0.01 0.04 0.06 0.10 0.30 0.22 0.10 0.05 0.05 0.07 0.10 0.22 0.18 0.16 0.13 0.11 0.12 0.19 0.25 0.47 1.02 1.02 0.71 0.41 0.55 0.84 0.86 0.89 0.96 1.10 1.10 1.18
0.07 0.07 0.02 0.04 0.05 0.08 0.03 0.01 0.02 0.01 0.00 0.00 0.00 0.00 0.00 0.00 0.00 0.00 0.02 0.05 0.11 0.22 0.16 0.05 0.02 0.01 0.06 0.10 0.11 0.15 0.21 0.11 0.16 0.33 0.22 0.38 0.37 0.67 0.92 1.08 0.93 0.69 0.76 1.07 1.18 1.25 1.49 1.51 1.33
0.03 0.03 0.08 0.15 0.16 0.06 0.00 0.02 0.05 0.05 0.01 0.02 0.02 0.00 0.01 0.00 0.00 0.00 0.01 0.02 0.07 0.16 0.16 0.19 0.12 0.08 0.07 0.06 0.08 0.09 0.19 0.18 0.20 0.31 0.16 0.25 0.35 0.61 0.98 1.29 1.59 1.49 1.05 1.03 1.55 1.68 1.57 1.47 1.30
0.15 0.10 0.07 0.10 0.05 0.09 0.10 0.02 0.03 0.08 0.12 0.07 0.07 0.05 0.01 0.00 0.01 0.01 0.00 0.00 0.04 0.15 0.18 0.25 0.38 0.26 0.13 0.07 0.07 0.12 0.33 0.31 0.32 0.31 0.35 0.35 0.53 0.72 0.99 1.39 1.89 2.40 2.08 1.67 1.51 1.52 1.42 1.20 1.07
0.11 0.25 0.44 0.54 0.28 0.08 0.08 0.04 0.00 0.02 0.09 0.13 0.21 0.23 0.12 0.03 0.02 0.05 0.04 0.02 0.04 0.14 0.21 0.15 0.31 0.31 0.33 0.19 0.17 0.25 0.43 0.42 0.45 0.58 0.56 0.67 0.81 0.88 1.07 1.38 1.82 2.17 2.49 2.30 1.97 1.70 1.56 1.50 1.21

GFSSGP_prec_precacc_129.txt.gz
Total_Precipitation_Accumulation
0.00 0.00 0.00 0.00 0.00 0.00 0.00 0.00 0.00 0.03 0.05 0.11 0.11 0.17 0.12 0.21 0.58 1.07 0.89 1.31 1.58 0.58 0.50 0.40 0.11 0.03 0.05 0.08 0.08 0.06 0.05 0.04 0.07 0.09 0.21 0.33 0.37 0.54 0.52 0.39 0.39 0.71 1.13 0.95 0.66 0.59 0.69 0.57 0.43
0.00 0.00 0.00 0.00 0.00 0.00 0.00 0.00 0.02 0.10 0.37 0.43 0.30 0.29 0.32 0.81 0.88 1.44 1.33 2.24 2.41 1.33 0.88 0.85 0.58 0.10 0.04 0.03 0.03 0.03 0.05 0.06 0.05 0.04 0.13 0.36 0.42 0.36 0.35 0.49 0.57 0.86 1.16 1.31 1.04 1.24 1.61 1.14 0.78
0.00 0.00 0.00 0.00 0.00 0.00 0.00 0.00 0.01 0.06 0.26 0.37 0.14 0.14 0.29 0.58 1.03 0.80 0.96 1.37 1.51 1.15 1.17 1.04 1.11 0.87 0.32 0.16 0.07 0.05 0.09 0.06 0.06 0.07 0.15 0.26 0.28 0.41 0.46 0.89 1.08 1.37 1.28 1.51 1.42 1.35 1.39 1.05 0.98
0.00 0.00 0.00 0.00 0.00 0.00 0.00 0.01 0.16 0.18 0.12 0.07 0.19 0.26 0.33 0.47 0.71 0.78 0.61 0.86 1.20 1.13 1.26 1.45 1.45 0.97 0.60 0.60 0.24 0.08 0.09 0.04 0.05 0.13 0.31 0.30 0.87 1.02 1.18 1.68 2.46 2.53 2.20 2.24 3.15 2.78 1.80 0.91 1.06
0.00 0.00 0.00 0.00 0.00 0.01 0.02 0.03 0.12 0.12 0.42 0.43 0.15 0.37 0.53 0.60 0.40 0.55 1.02 1.11 1.78 1.83 2.55 3.31 2.97 2.41 1.11 0.98 0.77 0.33 0.17 0.09 0.11 0.29 0.71 1.01 1.71 1.47 1.15 0.95 1.02 1.24 2.16 2.18 1.83 1.72 1.71 1.12 0.30
0.00 0.00 0.00 0.00 0.00 0.03 0.07 0.19 0.34 0.31 0.73 0.52 0.46 0.66 0.66 0.78 0.65 0.57 1.09 1.91 3.18 3.36 3.45 5.11 5.72 5.42 4.22 2.66 1.89 1.54 1.36 1.02 0.78 0.55 0.58 0.57 1.01 1.21 0.71 0.39 0.32 0.25 0.30 0.38 0.38 0.33 0.21 0.22 0.09
0.00 0.00 0.00 0.00 0.01 0.01 0.04 0.19 0.36 0.22 0.62 1.20 0.49 0.62 0.44 0.40 0.60 1.08 1.65 2.31 3.87 5.85 5.86 5.26 7.51 5.14 4.03 4.24 3.28 3.33 2.37 2.15 1.89 1.39 0.82 0.43 0.40 0.55 0.31 0.20 0.17 0.13 0.12 0.17 0.25 0.19 0.15 0.08 0.03
0.00 0.00 0.00 0.00 0.01 0.02 0.06 0.29 0.38 0.15 0.19 0.25 0.33 0.59 0.76 0.39 0.54 0.91 1.65 2.10 3.74 6.58 9.34 6.73 6.72 5.23 3.51 3.42 3.97 3.24 3.43 2.81 2.04 1.61 1.32 0.46 0.47 0.38 0.37 0.22 0.18 0.10 0.07 0.10 0.12 0.21 0.24 0.26 0.18
0.00 0.00 0.00 0.01 0.02 0.05 0.17 0.40 0.32 0.13 0.09 0.16 0.27 0.46 0.62 0.50 0.30 0.76 1.07 1.50 2.10 3.69 5.27 5.84 7.31 6.11 3.64 2.51 3.42 2.96 3.65 3.19 2.04 1.58 2.07 0.81 0.39 0.38 0.30 0.14 0.12 0.13 0.07 0.07 0.15 0.37 0.32 0.28 0.24
0.00 0.00 0.00 0.00 0.05 0.22 0.30 0.46 0.19 0.16 0.38 0.38 0.96 0.58 0.91 0.64 0.33 0.58 0.98 1.00 1.73 2.10 2.40 3.33 5.34 6.93 4.40 2.98 2.10 2.21 2.95 4.64 2.34 1.57 1.78 1.44 0.56 0.45 0.28 0.19 0.19 0.20 0.16 0.21 0.49 0.55 0.40 0.20 0.11
0.00 0.00 0.00 0.01 0.04 0.10 0.07 0.07 0.02 0.03 0.05 0.31 0.50 0.44 0.52 0.61 0.60 0.68 0.97 0.90 1.27 1.36 1.46 1.47 2.49 4.22 3.72 3.11 2.58 2.23 2.41 4.16 3.48 1.68 1.24 1.56 0.67 0.66 0.48 0.41 0.44 0.42 0.38 0.45 0.47 0.57 0.58 0.45 0.23
0.00 0.00 0.00 0.00 0.03 0.04 0.00 0.05 0.02 0.02 0.05 0.08 0.15 0.28 0.46 0.59 0.58 0.71 0.95 1.13 0.86 1.21 1.18 1.12 0.87 1.90 1.99 1.77 2.09 1.98 1.37 2.00 3.75 1.89 1.44 1.18 1.18 0.71 0.47 0.28 0.32 0.29 0.24 0.27 0.25 0.44 0.47 0.35 0.33
0.00 0.00 0.00 0.03 0.01 0.00 0.00 0.00 0.07 0.06 0.09 0.27 0.17 0.60 0.69 0.64 0.59 0.72 1.22 0.83 1.11 1.11 1.16 1.07 0.80 0.97 1.54 1.67 1.75 1.47 0.80 1.10 2.59 2.23 1.63 1.00 1.19 0.97 0.66 0.47 0.24 0.17 0.20 0.23 0.13 0.14 0.19 0.18 0.21
0.00 0.00 0.00 0.00 0.00 0.00 0.01 0.00 0.01 0.18 0.30 0.68 0.58 0.86 0.95 0.61 0.62 1.09 0.61 0.36 0.47 0.70 0.58 0.60 0.77 0.65 0.94 1.51 1.21 1.32 0.84 0.87 1.85 2.32 1.67 1.11 0.82 0.82 0.45 0.35 0.35 0.40 0.36 0.24 0.19 0.19 0.15 0.21 0.42
0.00 0.00 0.00 0.00 0.00 0.00 0.02 0.08 0.16 0.07 0.06 0.19 0.41 0.35 0.41 0.30 0.21 0.29 0.23 0.13 0.21 0.49 0.45 0.46 0.50 0.63 1.03 1.29 1.04 0.99 0.84 0.66 1.11 1.95 1.68 1.65 0.94 0.71 0.47 0.32 0.27 0.28 0.35 0.49 0.49 0.41 0.27 0.20 0.24
0.00 0.00 0.01 0.09 0.00 0.00 0.00 0.13 0.28 0.06 0.08 0.09 0.10 0.09 0.19 0.29 0.21 0.29 0.15 0.10 0.08 0.38 0.31 0.31 0.54 0.83 0.94 1.07 0.97 1.01 0.82 0.68 1.01 1.54 1.54 1.59 1.50 0.59 0.51 0.36 0.21 0.20 0.35 0.57 0.71 0.53 0.23 0.22 0.19
0.00 0.00 0.00 0.00 0.00 0.00 0.00 0.01 0.07 0.06 0.04 0.06 0.04 0.01 0.05 0.35 0.53 0.24 0.14 0.10 0.07 0.12 0.17 0.51 0.81 1.18 1.39 1.24 1.16 1.56 1.36 1.08 0.99 1.37 1.39 1.07 1.56 0.88 0.37 0.37 0.28 0.26 0.18 0.25 0.54 0.62 0.42 0.27 0.17
0.00 0.00 0.00 0.00 0.00 0.00 0.00 0.00 0.03 0.04 0.02 0.01 0.01 0.00 0.01 0.02 0.07 0.03 0.03 0.03 0.08 0.13 0.12 0.68 1.07 1.34 1.40 2.09 1.91 1.69 1.03 0.87 0.84 1.13 1.14 0.99 1.16 1.28 0.79 0.53 0.40 0.35 0.38 0.28 0.24 0.32 0.29 0.34 0.30
0.00 0.00 0.00 0.00 0.00 0.00 0.00 0.00 0.02 0.04 0.03 0.13 0.01 0.00 0.00 0.00 0.00 0.01 0.02 0.05 0.08 0.12 0.31 0.81 1.22 1.52 1.15 0.78 0.59 0.86 0.81 0.76 0.86 0.92 0.90 0.74 0.88 0.88 1.11 0.67 0.39 0.30 0.39 0.37 0.32 0.25 0.15 0.16 0.26
0.00 0.00 0.00 0.00 0.00 0.00 0.00 0.00 0.01 0.02 0.02 0.05 0.02 0.01 0.00 0.00 0.01 0.02 0.04 0.10 0.14 0.27 0.38 0.41 0.37 0.54 0.22 0.15 0.23 0.52 0.61 0.67 0.70 0.87 0.72 0.67 0.83 0.69 0.79 0.77 0.62 0.25 0.28 0.36 0.40 0.42 0.24 0.12 0.22
0.00 0.00 0.00 0.00 0.00 0.00 0.00 0.00 0.00 0.01 0.03 0.02 0.03 0.01 0.00 0.00 0.00 0.02 0.09 0.13 0.15 0.15 0.17 0.06 0.06 0.27 0.22 0.10 0.16 0.41 0.69 0.79 0.93 1.25 1.08 0.68 0.79 0.79 0.70 0.68 0.72 0.43 0.31 0.38 0.30 0.34 0.23 0.13 0.13
0.01 0.00 0.00 0.00 0.01 0.02 0.00 0.02 0.02 0.00 0.01 0.01 0.01 0.01 0.01 0.01 0.01 0.01 0.01 0.02 0.02 0.02 0.03 0.02 0.07 0.13 0.18 0.20 0.24 0.32 0.64 0.68 0.78 0.81 1.03 0.71 0.60 0.63 0.54 0.49 0.72 0.64 0.41 0.34 0.31 0.29 0.21 0.11 0.10
0.03 0.00 0.00 0.00 0.00 0.01 0.01 0.01 0.01 0.00 0.00 0.00 0.00 0.01 0.00 0.01 0.01 0.00 0.01 0.02 0.01 0.04 0.04 0.10 0.13 0.15 0.12 0.18 0.32 0.22 0.32 0.46 0.65 0.82 1.12 1.25 0.87 0.61 0.56 0.49 0.63 0.69 0.52 0.49 0.35 0.35 0.38 0.23 0.11
0.00 0.00 0.00 0.00 0.00 0.00 0.01 0.01 0.01 0.01 0.01 0.01 0.00 0.00 0.00 0.02 0.01 0.01 0.02 0.02 0.03 0.12 0.17 0.16 0.13 0.14 0.16 0.22 0.27 0.29 0.21 0.18 0.26 0.52 0.81 1.41 1.44 0.90 0.57 0.52 0.59 0.67 0.66 0.56 0.52 0.54 0.42 0.39 0.29
0.00 0.00 0.03 0.15 0.05 0.02 0.05 0.06 0.02 0.01 0.01 0.05 0.00 0.00 0.00 0.01 0.01 0.02 0.02 0.06 0.09 0.20 0.22 0.16 0.13 0.13 0.17 0.21 0.27 0.24 0.21 0.12 0.12 0.14 0.30 0.63 1.45 1.41 0.80 0.45 0.46 0.66 0.76 0.71 0.63 0.75 0.76 0.55 0.56
0.01 0.03 0.13 0.18 0.09 0.10 0.08 0.03 0.01 0.00 0.00 0.00 0.00 0.00 0.00 0.00 0.00 0.01 0.04 0.06 0.10 0.30 0.22 0.10 0.05 0.05 0.07 0.10 0.22 0.18 0.16 0.15 0.13 0.14 0.21 0.26 0.47 1.02 1.02 0.72 0.42 0.56 0.84 0.86 0.90 0.97 1.12 1.23 1.36
0.08 0.09 0.06 0.13 0.11 0.12 0.03 0.01 0.02 0.01 0.00 0.00 0.00 0.00 0.01 0.01 0.01 0.00 0.02 0.05 0.11 0.22 0.16 0.05 0.02 0.01 0.06 0.10 0.11 0.15 0.22 0.11 0.17 0.36 0.25 0.40 0.38 0.67 0.94 1.08 0.94 0.70 0.77 1.07 1.18 1.25 1.51 1.59 1.52
0.03 0.04 0.10 0.24 0.32 0.14 0.01 0.02 0.05 0.05 0.03 0.06 0.06 0.01 0.02 0.01 0.01 0.00 0.01 0.02 0.07 0.16 0.16 0.19 0.12 0.08 0.07 0.06 0.08 0.09 0.20 0.19 0.21 0.34 0.20 0.28 0.36 0.62 1.00 1.30 1.60 1.50 1.05 1.03 1.55 1.68 1.58 1.54 1.44
0.16 0.13 0.12 0.14 0.10 0.17 0.14 0.03 0.09 0.12 0.17 0.15 0.12 0.08 0.03 0.01 0.01 0.01 0.00 0.00 0.04 0.15 0.18 0.25 0.38 0.26 0.13 0.07 0.07 0.12 0.33 0.31 0.33 0.35 0.40 0.40 0.55 0.72 1.03 1.41 1.89 2.41 2.08 1.67 1.51 1.52 1.43 1.25 1.18
0.12 0.31 0.56 0.73 0.35 0.14 0.11 0.06 0.06 0.07 0.10 0.20 0.31 0.25 0.13 0.03 0.02 0.05 0.04 0.02 0.04 0.14 0.21 0.15 0.31 0.31 0.33 0.19 0.17 0.25 0.44 0.43 0.45 0.61 0.62 0.71 0.85 0.90 1.10 1.42 1.83 2.17 2.49 2.30 1.97 1.70 1.56 1.51 1.28

GFSSGP_prec_precacc_132.txt.gz
Total_Precipitation_Accumulation
0.00 0.00 0.00 0.00 0.00 0.00 0.00 0.00 0.00 0.03 0.05 0.11 0.11 0.17 0.12 0.21 0.58 1.07 0.89 1.31 1.58 0.58 0.50 0.40 0.11 0.03 0.05 0.08 0.08 0.06 0.05 0.04 0.07 0.09 0.21 0.33 0.37 0.54 0.52 0.39 0.39 0.71 1.13 0.96 0.69 0.62 0.76 0.62 0.46
0.00 0.00 0.00 0.00 0.00 0.00 0.00 0.00 0.02 0.10 0.37 0.43 0.30 0.29 0.32 0.81 0.88 1.44 1.33 2.24 2.41 1.33 0.88 0.85 0.58 0.10 0.04 0.03 0.03 0.03 0.05 0.06 0.05 0.04 0.13 0.36 0.42 0.36 0.35 0.49 0.57 0.86 1.16 1.31 1.04 1.24 1.62 1.17 0.80
0.00 0.00 0.00 0.00 0.00 0.00 0.00 0.00 0.01 0.06 0.26 0.37 0.14 0.14 0.29 0.58 1.03 0.80 0.96 1.37 1.51 1.15 1.17 1.04 1.11 0.87 0.32 0.16 0.07 0.05 0.09 0.06 0.06 0.07 0.15 0.26 0.28 0.41 0.46 0.89 1.08 1.37 1.28 1.51 1.42 1.35 1.39 1.05 0.98
0.00 0.00 0.00 0.00 0.00 0.00 0.00 0.01 0.16 0.18 0.12 0.07 0.19 0.26 0.33 0.47 0.71 0.78 0.61 0.86 1.20 1.13 1.26 1.45 1.45 0.97 0.60 0.60 0.24 0.08 0.09 0.04 0.05 0.13 0.31 0.30 0.87 1.02 1.18 1.68 2.46 2.53 2.20 2.24 3.15 2.78 1.80 0.91 1.06
0.00 0.00 0.00 0.00 0.00 0.01 0.02 0.03 0.12 0.12 0.42 0.43 0.15 0.37 0.53 0.60 0.40 0.55 1.02 1.11 1.78 1.83 2.55 3.31 2.97 2.41 1.11 0.98 0.77 0.33 0.17 0.09 0.11 0.29 0.71 1.01 1.71 1.47 1.15 0.95 1.02 1.24 2.16 2.18 1.83 1.72 1.71 1.12 0.30
0.00 0.00 0.00 0.00 0.00 0.03 0.07 0.19 0.34 0.31 0.73 0.52 0.46 0.66 0.66 0.78 0.65 0.57 1.09 1.91 3.18 3.36 3.45 5.11 5.72 5.42 4.22 2.66 1.89 1.54 1.36 1.02 0.78 0.55 0.58 0.57 1.01 1.21 0.71 0.39 0.32 0.25 0.30 0.38 0.38 0.33 0.21 0.22 0.09
0.00 0.00 0.00 0.00 0.01 0.01 0.04 0.19 0.36 0.22 0.62 1.20 0.49 0.62 0.44 0.40 0.60 1.08 1.65 2.31 3.87 5.85 5.86 5.26 7.51 5.14 4.03 4.24 3.28 3.33 2.37 2.15 1.89 1.39 0.82 0.43 0.40 0.55 0.31 0.20 0.17 0.13 0.12 0.17 0.25 0.19 0.15 0.08 0.03
0.00 0.00 0.00 0.00 0.01 0.02 0.06 0.29 0.38 0.15 0.19 0.25 0.33 0.59 0.76 0.39 0.54 0.91 1.65 2.10 3.74 6.58 9.34 6.73 6.72 5.23 3.51 3.42 3.97 3.24 3.43 2.81 2.04 1.61 1.32 0.46 0.47 0.38 0.37 0.22 0.18 0.10 0.07 0.10 0.12 0.21 0.24 0.26 0.22
0.00 0.00 0.00 0.01 0.02 0.05 0.17 0.40 0.32 0.13 0.09 0.16 0.27 0.46 0.62 0.50 0.30 0.76 1.07 1.50 2.10 3.69 5.27 5.84 7.31 6.11 3.64 2.51 3.42 2.96 3.65 3.19 2.04 1.58 2.07 0.81 0.39 0.38 0.30 0.14 0.12 0.13 0.07 0.07 0.15 0.37 0.32 0.28 0.25
0.00 0.00 0.00 0.00 0.05 0.22 0.30 0.46 0.19 0.16 0.38 0.38 0.96 0.58 0.91 0.64 0.33 0.58 0.98 1.00 1.73 2.10 2.40 3.33 5.34 6.93 4.40 2.98 2.10 2.21 2.95 4.64 2.34 1.57 1.78 1.44 0.56 0.45 0.28 0.19 0.19 0.20 0.16 0.21 0.49 0.55 0.40 0.20 0.11
0.00 0.00 0.00 0.01 0.04 0.10 0.07 0.07 0.02 0.03 0.05 0.31 0.50 0.44 0.52 0.61 0.60 0.68 0.97 0.90 1.27 1.36 1.46 1.47 2.49 4.22 3.72 3.11 2.58 2.23 2.41 4.16 3.48 1.68 1.24 1.56 0.67 0.66 0.48 0.41 0.44 0.42 0.38 0.45 0.47 0.57 0.58 0.45 0.23
0.00 0.00 0.00 0.00 0.03 0.04 0.00 0.05 0.02 0.02 0.05 0.08 0.15 0.28 0.46 0.59 0.58 0.71 0.95 1.13 0.86 1.21 1.18 1.12 0.87 1.90 1.99 1.77 2.09 1.98 1.37 2.00 3.75 1.89 1.44 1.18 1.18 0.71 0.47 0.28 0.32 0.29 0.24 0.27 0.25 0.44 0.47 0.35 0.33
0.00 0.00 0.00 0.03 0.01 0.00 0.00 0.00 0.07 0.06 0.09 0.27 0.17 0.60 0.69 0.64 0.59 0.72 1.22 0.83 1.11 1.11 1.16 1.07 0.80 0.97 1.54 1.67 1.75 1.47 0.80 1.10 2.59 2.23 1.63 1.00 1.19 0.97 0.66 0.47 0.24 0.18 0.20 0.23 0.13 0.14 0.19 0.18 0.21
0.00 0.00 0.00 0.00 0.00 0.00 0.01 0.00 0.01 0.18 0.30 0.68 0.58 0.86 0.95 0.61 0.62 1.09 0.61 0.36 0.47 0.70 0.58 0.60 0.77 0.65 0.94 1.51 1.21 1.32 0.84 0.87 1.85 2.32 1.67 1.11 0.82 0.82 0.45 0.35 0.35 0.40 0.36 0.24 0.19 0.19 0.16 0.29 0.52
0.00 0.00 0.00 0.00 0.00 0.00 0.02 0.08 0.16 0.07 0.06 0.19 0.41 0.35 0.41 0.30 0.21 0.29 0.23 0.13 0.21 0.49 0.45 0.46 0.50 0.63 1.03 1.29 1.04 0.99 0.84 0.66 1.11 1.95 1.68 1.65 0.94 0.71 0.47 0.32 0.27 0.28 0.35 0.49 0.50 0.42 0.27 0.22 0.27
0.00 0.00 0.01 0.09 0.00 0.00 0.00 0.13 0.28 0.06 0.08 0.09 0.10 0.09 0.19 0.29 0.21 0.29 0.15 0.10 0.08 0.38 0.31 0.31 0.54 0.83 0.94 1.07 0.97 1.01 0.82 0.68 1.01 1.54 1.54 1.59 1.50 0.59 0.51 0.36 0.21 0.20 0.39 0.60 0.72 0.54 0.24 0.22 0.19
0.00 0.00 0.00 0.00 0.00 0.00 0.00 0.01 0.07 0.06 0.04 0.06 0.04 0.01 0.05 0.35 0.53 0.24 0.14 0.10 0.07 0.12 0.17 0.51 0.82 1.19 1.41 1.29 1.19 1.58 1.37 1.08 0.99 1.37 1.39 1.07 1.56 0.88 0.38 0.37 0.28 0.26 0.22 0.32 0.55 0.62 0.43 0.28 0.17
0.00 0.00 0.00 0.00 0.00 0.00 0.00 0.00 0.03 0.04 0.02 0.01 0.01 0.00 0.01 0.02 0.07 0.03 0.03 0.03 0.08 0.13 0.12 0.68 1.07 1.36 1.46 2.14 1.95 1.72 1.05 0.88 0.84 1.13 1.14 0.99 1.17 1.30 0.81 0.54 0.41 0.36 0.40 0.36 0.28 0.32 0.29 0.36 0.32
0.00 0.00 0.00 0.00 0.00 0.00 0.00 0.00 0.02 0.04 0.03 0.13 0.01 0.00 0.00 0.00 0.00 0.01 0.02 0.05 0.08 0.12 0.31 0.81 1.22 1.53 1.21 0.82 0.63 0.89 0.83 0.78 0.87 0.93 0.90 0.74 0.90 0.98 1.24 0.80 0.48 0.32 0.43 0.47 0.39 0.25 0.16 0.17 0.26
0.00 0.00 0.00 0.00 0.00 0.00 0.00 0.00 0.01 0.02 0.02 0.05 0.02 0.01 0.00 0.00 0.01 0.02 0.04 0.10 0.14 0.27 0.38 0.41 0.37 0.54 0.22 0.15 0.24 0.54 0.61 0.68 0.70 0.87 0.72 0.68 0.84 0.75 0.89 0.87 0.73 0.32 0.32 0.39 0.43 0.43 0.25 0.13 0.22
0.00 0.00 0.00 0.00 0.00 0.00 0.00 0.00 0.00 0.01 0.03 0.02 0.03 0.01 0.00 0.00 0.00 0.02 0.09 0.13 0.15 0.15 0.17 0.06 0.06 0.27 0.22 0.10 0.16 0.41 0.69 0.79 0.93 1.25 1.08 0.69 0.80 0.82 0.76 0.78 0.81 0.47 0.34 0.40 0.33 0.35 0.24 0.14 0.14
0.01 0.00 0.00 0.00 0.01 0.02 0.00 0.02 0.02 0.00 0.01 0.01 0.01 0.01 0.01 0.01 0.01 0.01 0.01 0.02 0.02 0.02 0.03 0.02 0.07 0.13 0.18 0.20 0.24 0.32 0.64 0.68 0.78 0.81 1.03 0.73 0.64 0.67 0.59 0.55 0.79 0.72 0.47 0.39 0.36 0.31 0.22 0.13 0.11
0.03 0.00 0.00 0.00 0.00 0.01 0.01 0.01 0.01 0.00 0.00 0.00 0.00 0.01 0.00 0.01 0.01 0.00 0.01 0.02 0.01 0.04 0.04 0.10 0.13 0.15 0.12 0.18 0.32 0.23 0.32 0.46 0.65 0.82 1.13 1.26 0.89 0.63 0.59 0.54 0.70 0.75 0.58 0.55 0.40 0.38 0.39 0.24 0.12
0.00 0.00 0.00 0.00 0.00 0.00 0.01 0.01 0.01 0.01 0.01 0.01 0.00 0.00 0.00 0.02 0.01 0.01 0.02 0.02 0.03 0.12 0.17 0.16 0.13 0.14 0.16 0.22 0.27 0.29 0.21 0.19 0.26 0.52 0.83 1.45 1.46 0.92 0.59 0.56 0.64 0.74 0.73 0.63 0.58 0.57 0.43 0.40 0.30
0.00 0.00 0.03 0.16 0.05 0.02 0.05 0.06 0.02 0.01 0.01 0.05 0.00 0.00 0.00 0.01 0.01 0.02 0.02 0.06 0.09 0.20 0.22 0.16 0.13 0.13 0.17 0.21 0.27 0.24 0.21 0.13 0.14 0.18 0.32 0.66 1.47 1.42 0.82 0.47 0.49 0.73 0.85 0.77 0.69 0.78 0.77 0.56 0.58
0.01 0.03 0.14 0.24 0.11 0.11 0.09 0.03 0.01 0.00 0.00 0.00 0.00 0.00 0.00 0.00 0.00 0.01 0.04 0.06 0.10 0.30 0.22 0.10 0.05 0.05 0.07 0.10 0.22 0.18 0.16 0.15 0.14 0.16 0.23 0.28 0.48 1.03 1.03 0.74 0.43 0.60 0.96 0.94 0.94 0.99 1.13 1.23 1.37
0.08 0.09 0.07 0.17 0.12 0.14 0.04 0.01 0.02 0.01 0.01 0.00 0.00 0.01 0.02 0.01 0.01 0.01 0.02 0.05 0.11 0.22 0.16 0.05 0.02 0.01 0.06 0.10 0.11 0.15 0.22 0.12 0.17 0.37 0.28 0.43 0.40 0.69 0.94 1.09 0.95 0.72 0.84 1.11 1.22 1.26 1.52 1.61 1.54
0.03 0.04 0.12 0.27 0.40 0.22 0.08 0.05 0.08 0.06 0.06 0.12 0.12 0.07 0.06 0.06 0.03 0.01 0.01 0.02 0.07 0.16 0.16 0.19 0.12 0.08 0.07 0.06 0.08 0.09 0.20 0.19 0.21 0.34 0.22 0.31 0.39 0.65 1.01 1.31 1.60 1.53 1.11 1.08 1.57 1.70 1.59 1.55 1.46
0.16 0.14 0.15 0.18 0.16 0.23 0.17 0.10 0.13 0.15 0.21 0.30 0.32 0.17 0.10 0.05 0.03 0.03 0.00 0.00 0.04 0.15 0.18 0.25 0.38 0.26 0.13 0.07 0.07 0.12 0.33 0.31 0.33 0.35 0.40 0.43 0.62 0.80 1.07 1.43 1.90 2.43 2.12 1.71 1.53 1.53 1.44 1.26 1.19
0.16 0.34 0.59 0.83 0.54 0.26 0.18 0.08 0.06 0.09 0.16 0.30 0.74 0.49 0.30 0.08 0.06 0.10 0.06 0.02 0.04 0.14 0.21 0.15 0.31 0.31 0.33 0.19 0.17 0.25 0.44 0.43 0.46 0.61 0.62 0.74 0.91 0.98 1.20 1.48 1.84 2.18 2.50 2.31 1.99 1.71 1.56 1.52 1.28

GFSSGP_prec_precacc_135.txt.gz
Total_Precipitation_Accumulation
0.00 0.00 0.00 0.00 0.00 0.00 0.00 0.00 0.00 0.03 0.05 0.11 0.11 0.17 0.12 0.21 0.58 1.07 0.89 1.31 1.58 0.58 0.50 0.40 0.11 0.03 0.05 0.08 0.08 0.06 0.05 0.04 0.07 0.09 0.21 0.33 0.37 0.54 0.52 0.39 0.39 0.71 1.13 0.96 0.69 0.62 0.76 0.63 0.48
0.00 0.00 0.00 0.00 0.00 0.00 0.00 0.00 0.02 0.10 0.37 0.43 0.30 0.29 0.32 0.81 0.88 1.44 1.33 2.24 2.41 1.33 0.88 0.85 0.58 0.10 0.04 0.03 0.03 0.03 0.05 0.06 0.05 0.04 0.13 0.36 0.42 0.36 0.35 0.49 0.57 0.86 1.16 1.31 1.04 1.24 1.62 1.17 0.80
0.00 0.00 0.00 0.00 0.00 0.00 0.00 0.00 0.01 0.06 0.26 0.37 0.14 0.14 0.29 0.58 1.03 0.80 0.96 1.37 1.51 1.15 1.17 1.04 1.11 0.87 0.32 0.16 0.07 0.05 0.09 0.06 0.06 0.07 0.15 0.26 0.28 0.41 0.46 0.89 1.08 1.37 1.28 1.51 1.42 1.35 1.39 1.06 0.98
0.00 0.00 0.00 0.00 0.00 0.00 0.00 0.01 0.16 0.18 0.12 0.07 0.19 0.26 0.33 0.47 0.71 0.78 0.61 0.86 1.20 1.13 1.26 1.45 1.45 0.97 0.60 0.60 0.24 0.08 0.09 0.04 0.05 0.13 0.31 0.30 0.87 1.02 1.18 1.68 2.46 2.53 2.20 2.24 3.15 2.78 1.80 0.91 1.06
0.00 0.00 0.00 0.00 0.00 0.01 0.02 0.03 0.12 0.12 0.42 0.43 0.15 0.37 0.53 0.60 0.40 0.55 1.02 1.11 1.78 1.83 2.55 3.31 2.97 2.41 1.11 0.98 0.77 0.33 0.17 0.09 0.11 0.29 0.71 1.01 1.71 1.47 1.15 0.95 1.02 1.24 2.16 2.18 1.83 1.72 1.71 1.14 0.30
0.00 0.00 0.00 0.00 0.00 0.03 0.07 0.19 0.34 0.31 0.73 0.52 0.46 0.66 0.66 0.78 0.65 0.57 1.09 1.91 3.18 3.36 3.45 5.11 5.72 5.42 4.22 2.66 1.89 1.54 1.36 1.02 0.78 0.55 0.58 0.57 1.01 1.21 0.71 0.39 0.32 0.25 0.30 0.38 0.38 0.33 0.21 0.22 0.09
0.00 0.00 0.00 0.00 0.01 0.01 0.04 0.19 0.36 0.22 0.62 1.20 0.49 0.62 0.44 0.40 0.60 1.08 1.65 2.31 3.87 5.85 5.86 5.26 7.51 5.14 4.03 4.24 3.28 3.33 2.37 2.15 1.89 1.39 0.82 0.43 0.40 0.55 0.31 0.20 0.17 0.13 0.12 0.17 0.25 0.19 0.15 0.08 0.03
0.00 0.00 0.00 0.00 0.01 0.02 0.06 0.29 0.38 0.15 0.19 0.25 0.33 0.59 0.76 0.39 0.54 0.91 1.65 2.10 3.74 6.58 9.34 6.73 6.72 5.23 3.51 3.42 3.97 3.24 3.43 2.81 2.04 1.61 1.32 0.46 0.47 0.38 0.37 0.22 0.18 0.10 0.07 0.10 0.12 0.21 0.24 0.26 0.22
0.00 0.00 0.00 0.01 0.02 0.05 0.17 0.40 0.32 0.13 0.09 0.16 0.27 0.46 0.62 0.50 0.30 0.76 1.07 1.50 2.10 3.69 5.27 5.84 7.31 6.11 3.64 2.51 3.42 2.96 3.65 3.19 2.04 1.58 2.07 0.81 0.39 0.38 0.30 0.14 0.12 0.13 0.07 0.07 0.15 0.37 0.32 0.28 0.25
0.00 0.00 0.00 0.00 0.05 0.22 0.30 0.46 0.19 0.16 0.38 0.38 0.96 0.58 0.91 0.64 0.33 0.58 0.98 1.00 1.73 2.10 2.40 3.33 5.34 6.93 4.40 2.98 2.10 2.21 2.95 4.64 2.34 1.57 1.78 1.44 0.56 0.45 0.28 0.19 0.19 0.20 0.16 0.21 0.49 0.55 0.40 0.20 0.12
0.00 0.00 0.00 0.01 0.04 0.10 0.07 0.07 0.02 0.03 0.05 0.31 0.50 0.44 0.52 0.61 0.60 0.68 0.97 0.90 1.27 1.36 1.46 1.47 2.49 4.22 3.72 3.11 2.58 2.23 2.41 4.16 3.48 1.68 1.24 1.56 0.67 0.66 0.48 0.41 0.44 0.42 0.38 0.45 0.47 0.57 0.58 0.45 0.23
0.00 0.00 0.00 0.00 0.03 0.04 0.00 0.05 0.02 0.02 0.05 0.08 0.15 0.28 0.46 0.59 0.58 0.71 0.95 1.13 0.86 1.21 1.18 1.12 0.87 1.90 1.99 1.77 2.09 1.98 1.37 2.00 3.75 1.89 1.44 1.18 1.18 0.71 0.47 0.28 0.32 0.29 0.24 0.27 0.25 0.44 0.47 0.35 0.33
0.00 0.00 0.00 0.03 0.01 0.00 0.00 0.00 0.07 0.06 0.09 0.27 0.17 0.60 0.69 0.64 0.59 0.72 1.22 0.83 1.11 1.11 1.16 1.07 0.80 0.97 1.54 1.67 1.75 1.47 0.80 1.10 2.59 2.23 1.63 1.00 1.19 0.97 0.66 0.47 0.24 0.18 0.20 0.23 0.13 0.14 0.19 0.18 0.22
0.00 0.00 0.00 0.00 0.00 0.00 0.01 0.00 0.01 0.18 0.30 0.68 0.58 0.86 0.95 0.61 0.62 1.09 0.61 0.36 0.47 0.70 0.58 0.60 0.77 0.65 0.94 1.51 1.21 1.32 0.84 0.87 1.85 2.32 1.67 1.11 0.82 0.82 0.45 0.35 0.35 0.40 0.36 0.24 0.19 0.19 0.16 0.29 0.53
0.00 0.00 0.00 0.00 0.00 0.00 0.02 0.08 0.16 0.07 0.06 0.19 0.41 0.35 0.41 0.30 0.21 0.29 0.23 0.13 0.21 0.49 0.45 0.46 0.50 0.63 1.03 1.29 1.04 0.99 0.84 0.66 1.11 1.95 1.68 1.66 0.94 0.72 0.47 0.32 0.27 0.28 0.35 0.49 0.50 0.42 0.28 0.22 0.27
0.00 0.00 0.01 0.09 0.00 0.00 0.00 0.13 0.28 0.06 0.08 0.09 0.10 0.09 0.19 0.29 0.21 0.29 0.15 0.10 0.08 0.38 0.31 0.31 0.54 0.83 0.94 1.07 0.97 1.01 0.82 0.68 1.01 1.54 1.54 1.59 1.50 0.60 0.51 0.36 0.21 0.20 0.39 0.61 0.72 0.54 0.24 0.22 0.19
0.00 0.00 0.00 0.00 0.00 0.00 0.00 0.01 0.07 0.06 0.04 0.06 0.04 0.01 0.05 0.35 0.53 0.24 0.14 0.10 0.07 0.12 0.17 0.51 0.82 1.19 1.41 1.29 1.19 1.58 1.37 1.08 0.99 1.37 1.39 1.07 1.56 0.88 0.38 0.37 0.28 0.26 0.22 0.34 0.57 0.63 0.45 0.29 0.17
0.00 0.00 0.00 0.00 0.00 0.00 0.00 0.00 0.03 0.04 0.02 0.01 0.01 0.00 0.01 0.02 0.07 0.03 0.03 0.03 0.08 0.13 0.12 0.68 1.07 1.36 1.46 2.16 2.03 1.81 1.12 0.91 0.85 1.13 1.14 0.99 1.17 1.30 0.81 0.55 0.41 0.36 0.40 0.37 0.32 0.39 0.34 0.38 0.32
0.00 0.00 0.00 0.00 0.00 0.00 0.00 0.00 0.02 0.04 0.03 0.13 0.01 0.00 0.00 0.00 0.00 0.01 0.02 0.05 0.08 0.12 0.31 0.81 1.22 1.53 1.22 0.84 0.67 0.93 0.85 0.79 0.89 0.97 0.91 0.75 0.90 0.99 1.25 0.83 0.53 0.39 0.44 0.49 0.50 0.33 0.20 0.17 0.27
0.00 0.00 0.00 0.00 0.00 0.00 0.00 0.00 0.01 0.02 0.02 0.05 0.02 0.01 0.00 0.00 0.01 0.02 0.04 0.10 0.14 0.27 0.38 0.41 0.37 0.54 0.23 0.16 0.25 0.55 0.62 0.68 0.71 0.92 0.73 0.68 0.85 0.75 0.89 0.89 0.81 0.47 0.52 0.50 0.50 0.45 0.26 0.13 0.22
0.00 0.00 0.00 0.00 0.00 0.00 0.00 0.00 0.00 0.01 0.03 0.02 0.03 0.01 0.00 0.00 0.00 0.02 0.09 0.13 0.15 0.15 0.17 0.06 0.06 0.27 0.23 0.12 0.20 0.43 0.69 0.79 0.93 1.25 1.09 0.70 0.81 0.88 0.78 0.79 0.86 0.62 0.54 0.56 0.42 0.38 0.26 0.16 0.16
0.01 0.00 0.00 0.00 0.01 0.02 0.00 0.02 0.02 0.00 0.01 0.01 0.01 0.01 0.01 0.01 0.01 0.01 0.01 0.02 0.02 0.02 0.03 0.02 0.07 0.13 0.18 0.20 0.25 0.33 0.64 0.68 0.78 0.81 1.03 0.75 0.67 0.75 0.65 0.60 0.82 0.75 0.53 0.47 0.40 0.35 0.27 0.16 0.13
0.03 0.00 0.00 0.00 0.00 0.01 0.01 0.01 0.01 0.00 0.00 0.00 0.00 0.01 0.00 0.01 0.01 0.00 0.01 0.02 0.01 0.04 0.04 0.10 0.13 0.15 0.12 0.18 0.32 0.23 0.33 0.46 0.65 0.82 1.14 1.27 0.90 0.66 0.62 0.57 0.73 0.78 0.60 0.59 0.49 0.46 0.46 0.26 0.15
0.00 0.00 0.00 0.00 0.00 0.00 0.01 0.01 0.01 0.01 0.01 0.01 0.00 0.00 0.00 0.02 0.01 0.01 0.02 0.02 0.03 0.12 0.17 0.16 0.13 0.14 0.16 0.22 0.27 0.29 0.21 0.19 0.26 0.52 0.84 1.48 1.49 0.95 0.63 0.60 0.67 0.77 0.77 0.66 0.65 0.67 0.52 0.46 0.33
0.00 0.00 0.03 0.16 0.05 0.02 0.05 0.06 0.02 0.01 0.01 0.05 0.00 0.00 0.00 0.01 0.01 0.02 0.02 0.06 0.09 0.20 0.22 0.16 0.13 0.13 0.17 0.21 0.27 0.24 0.21 0.13 0.14 0.18 0.33 0.69 1.52 1.46 0.90 0.54 0.54 0.75 0.87 0.80 0.77 0.83 0.81 0.61 0.61
0.01 0.03 0.14 0.24 0.11 0.11 0.09 0.03 0.01 0.00 0.00 0.00 0.00 0.00 0.00 0.00 0.00 0.01 0.04 0.06 0.10 0.30 0.23 0.11 0.05 0.05 0.07 0.10 0.22 0.18 0.16 0.15 0.14 0.16 0.23 0.29 0.50 1.05 1.09 0.81 0.50 0.64 0.98 0.99 1.00 1.06 1.17 1.27 1.40
0.08 0.09 0.07 0.17 0.12 0.14 0.04 0.01 0.02 0.01 0.01 0.00 0.00 0.01 0.02 0.01 0.01 0.01 0.04 0.06 0.12 0.24 0.17 0.05 0.02 0.01 0.06 0.10 0.11 0.15 0.22 0.12 0.17 0.37 0.28 0.43 0.41 0.69 0.95 1.11 0.97 0.75 0.86 1.13 1.27 1.31 1.57 1.67 1.58
0.03 0.04 0.12 0.28 0.40 0.22 0.08 0.08 0.13 0.06 0.06 0.12 0.12 0.09 0.09 0.09 0.09 0.09 0.09 0.07 0.10 0.18 0.17 0.19 0.12 0.08 0.07 0.06 0.08 0.09 0.20 0.19 0.21 0.34 0.22 0.31 0.39 0.65 1.02 1.33 1.62 1.55 1.12 1.10 1.64 1.73 1.65 1.59 1.50
0.16 0.15 0.16 0.20 0.20 0.27 0.18 0.13 0.15 0.16 0.21 0.30 0.37 0.31 0.20 0.14 0.12 0.10 0.08 0.04 0.07 0.16 0.18 0.25 0.38 0.26 0.13 0.07 0.07 0.12 0.33 0.31 0.33 0.35 0.40 0.43 0.62 0.83 1.09 1.45 1.93 2.44 2.15 1.76 1.58 1.57 1.49 1.29 1.21
0.16 0.34 0.63 0.89 0.59 0.35 0.32 0.13 0.07 0.09 0.16 0.30 0.81 0.83 0.50 0.23 0.24 0.26 0.23 0.18 0.10 0.15 0.21 0.15 0.31 0.31 0.33 0.19 0.17 0.25 0.44 0.43 0.46 0.61 0.62 0.74 0.91 0.99 1.24 1.54 1.90 2.21 2.51 2.33 2.01 1.73 1.59 1.54 1.30

GFSSGP_prec_precacc_138.txt.gz
Total_Precipitation_Accumulation
0.00 0.00 0.00 0.00 0.00 0.00 0.00 0.00 0.00 0.03 0.05 0.11 0.11 0.17 0.12 0.21 0.58 1.07 0.89 1.31 1.58 0.58 0.50 0.40 0.11 0.03 0.05 0.08 0.08 0.06 0.05 0.04 0.07 0.09 0.21 0.33 0.37 0.54 0.52 0.39 0.39 0.71 1.13 0.96 0.69 0.63 0.76 0.64 0.48
0.00 0.00 0.00 0.00 0.00 0.00 0.00 0.00 0.02 0.10 0.37 0.43 0.30 0.29 0.32 0.81 0.88 1.44 1.33 2.24 2.41 1.33 0.88 0.85 0.58 0.10 0.04 0.03 0.03 0.03 0.05 0.06 0.05 0.04 0.13 0.36 0.42 0.36 0.35 0.49 0.57 0.86 1.16 1.31 1.04 1.24 1.62 1.17 0.80
0.00 0.00 0.00 0.00 0.00 0.00 0.00 0.00 0.01 0.06 0.26 0.37 0.14 0.14 0.29 0.58 1.03 0.80 0.96 1.37 1.51 1.15 1.17 1.04 1.11 0.87 0.32 0.16 0.07 0.05 0.09 0.06 0.06 0.07 0.15 0.26 0.28 0.41 0.46 0.89 1.08 1.37 1.28 1.51 1.42 1.35 1.39 1.06 0.98
0.00 0.00 0.00 0.00 0.00 0.00 0.00 0.01 0.16 0.18 0.12 0.07 0.19 0.26 0.33 0.47 0.71 0.78 0.61 0.86 1.20 1.13 1.26 1.45 1.45 0.97 0.60 0.60 0.24 0.08 0.09 0.04 0.05 0.13 0.31 0.30 0.87 1.02 1.18 1.68 2.46 2.53 2.20 2.25 3.17 2.78 1.80 0.91 1.06
0.00 0.00 0.00 0.00 0.00 0.01 0.02 0.03 0.12 0.12 0.42 0.43 0.15 0.37 0.53 0.60 0.40 0.55 1.02 1.11 1.78 1.83 2.55 3.31 2.97 2.41 1.11 0.98 0.77 0.33 0.17 0.09 0.11 0.29 0.71 1.01 1.71 1.47 1.15 0.95 1.02 1.24 2.16 2.18 1.84 1.72 1.71 1.14 0.30
0.00 0.00 0.00 0.00 0.00 0.03 0.07 0.19 0.34 0.31 0.73 0.52 0.46 0.66 0.66 0.78 0.65 0.57 1.09 1.91 3.18 3.36 3.45 5.11 5.72 5.42 4.22 2.66 1.89 1.54 1.36 1.02 0.78 0.55 0.58 0.57 1.01 1.21 0.71 0.39 0.32 0.25 0.30 0.38 0.38 0.33 0.21 0.22 0.09
0.00 0.00 0.00 0.00 0.01 0.01 0.04 0.19 0.36 0.22 0.62 1.20 0.49 0.62 0.44 0.40 0.60 1.08 1.65 2.31 3.87 5.85 5.86 5.26 7.51 5.14 4.03 4.24 3.28 3.33 2.37 2.15 1.89 1.39 0.82 0.43 0.40 0.55 0.31 0.20 0.17 0.13 0.12 0.17 0.25 0.19 0.15 0.08 0.05
0.00 0.00 0.00 0.00 0.01 0.02 0.06 0.29 0.38 0.15 0.19 0.25 0.33 0.59 0.76 0.39 0.54 0.91 1.65 2.10 3.74 6.58 9.34 6.73 6.72 5.23 3.51 3.42 3.97 3.24 3.43 2.81 2.04 1.61 1.32 0.46 0.47 0.38 0.37 0.22 0.18 0.10 0.07 0.10 0.12 0.21 0.24 0.26 0.24
0.00 0.00 0.00 0.01 0.02 0.05 0.17 0.40 0.32 0.13 0.09 0.16 0.27 0.46 0.62 0.50 0.30 0.76 1.07 1.50 2.10 3.69 5.27 5.84 7.31 6.11 3.64 2.51 3.42 2.96 3.65 3.19 2.04 1.58 2.07 0.81 0.39 0.38 0.30 0.14 0.12 0.13 0.07 0.07 0.15 0.37 0.33 0.29 0.25
0.00 0.00 0.00 0.00 0.05 0.22 0.30 0.46 0.19 0.16 0.38 0.38 0.96 0.58 0.91 0.64 0.33 0.58 0.98 1.00 1.73 2.10 2.40 3.33 5.34 6.93 4.40 2.98 2.10 2.21 2.95 4.64 2.34 1.57 1.78 1.44 0.56 0.45 0.28 0.19 0.19 0.20 0.16 0.21 0.49 0.55 0.41 0.23 0.13
0.00 0.00 0.00 0.01 0.04 0.10 0.07 0.07 0.02 0.03 0.05 0.31 0.50 0.44 0.52 0.61 0.60 0.68 0.97 0.90 1.27 1.36 1.46 1.47 2.49 4.22 3.72 3.11 2.58 2.23 2.41 4.16 3.48 1.68 1.24 1.56 0.67 0.66 0.48 0.41 0.44 0.42 0.38 0.45 0.47 0.57 0.58 0.47 0.25
0.00 0.00 0.00 0.00 0.03 0.04 0.00 0.05 0.02 0.02 0.05 0.08 0.15 0.28 0.46 0.59 0.58 0.71 0.95 1.13 0.86 1.21 1.18 1.12 0.87 1.90 1.99 1.77 2.09 1.98 1.37 2.00 3.75 1.89 1.44 1.18 1.18 0.71 0.47 0.28 0.32 0.29 0.24 0.27 0.25 0.44 0.47 0.38 0.33
0.00 0.00 0.00 0.03 0.01 0.00 0.00 0.00 0.07 0.06 0.09 0.27 0.17 0.60 0.69 0.64 0.59 0.72 1.22 0.83 1.11 1.11 1.16 1.07 0.80 0.97 1.54 1.67 1.75 1.47 0.80 1.11 2.59 2.23 1.63 1.00 1.20 0.97 0.66 0.47 0.24 0.18 0.20 0.23 0.13 0.14 0.19 0.19 0.22
0.00 0.00 0.00 0.00 0.00 0.00 0.01 0.00 0.01 0.18 0.30 0.68 0.58 0.86 0.95 0.61 0.62 1.09 0.61 0.36 0.47 0.70 0.58 0.60 0.77 0.65 0.94 1.51 1.21 1.32 0.84 0.87 1.85 2.32 1.67 1.11 0.82 0.82 0.45 0.35 0.35 0.40 0.36 0.24 0.19 0.19 0.16 0.30 0.53
0.00 0.00 0.00 0.00 0.00 0.00 0.02 0.08 0.16 0.07 0.06 0.19 0.41 0.35 0.41 0.30 0.21 0.29 0.23 0.13 0.21 0.49 0.45 0.46 0.50 0.63 1.03 1.29 1.04 0.99 0.84 0.66 1.11 1.95 1.68 1.66 0.94 0.72 0.47 0.32 0.27 0.28 0.35 0.49 0.50 0.43 0.28 0.22 0.27
0.00 0.00 0.01 0.09 0.00 0.00 0.00 0.13 0.28 0.06 0.08 0.09 0.10 0.09 0.19 0.29 0.21 0.29 0.15 0.10 0.08 0.38 0.31 0.31 0.54 0.83 0.94 1.07 0.97 1.01 0.82 0.68 1.01 1.54 1.54 1.59 1.50 0.60 0.51 0.36 0.21 0.20 0.39 0.61 0.72 0.54 0.25 0.22 0.19
0.00 0.00 0.00 0.00 0.00 0.00 0.00 0.01 0.07 0.06 0.04 0.06 0.04 0.01 0.05 0.35 0.53 0.24 0.14 0.10 0.07 0.12 0.17 0.51 0.82 1.19 1.41 1.29 1.19 1.58 1.37 1.08 0.99 1.37 1.39 1.07 1.56 0.88 0.38 0.38 0.28 0.26 0.22 0.34 0.57 0.63 0.49 0.32 0.18
0.00 0.00 0.00 0.00 0.00 0.00 0.00 0.00 0.03 0.04 0.02 0.01 0.01 0.00 0.01 0.02 0.07 0.03 0.03 0.03 0.08 0.13 0.12 0.68 1.07 1.36 1.46 2.16 2.03 1.81 1.12 0.92 0.86 1.14 1.15 0.99 1.17 1.30 0.82 0.55 0.41 0.36 0.40 0.37 0.33 0.40 0.39 0.44 0.34
0.00 0.00 0.00 0.00 0.00 0.00 0.00 0.00 0.02 0.04 0.03 0.13 0.01 0.00 0.00 0.00 0.00 0.01 0.02 0.05 0.08 0.12 0.31 0.81 1.22 1.53 1.22 0.84 0.67 0.93 0.85 0.79 0.90 1.00 0.96 0.77 0.91 0.99 1.25 0.83 0.54 0.39 0.45 0.49 0.53 0.38 0.23 0.21 0.29
0.00 0.00 0.00 0.00 0.00 0.00 0.00 0.00 0.01 0.02 0.02 0.05 0.02 0.01 0.00 0.00 0.01 0.02 0.04 0.10 0.14 0.27 0.38 0.41 0.37 0.54 0.23 0.16 0.25 0.56 0.64 0.73 0.80 1.01 0.80 0.69 0.86 0.75 0.90 0.90 0.81 0.48 0.54 0.53 0.61 0.63 0.38 0.16 0.24
0.00 0.00 0.00 0.00 0.00 0.00 0.00 0.00 0.00 0.01 0.03 0.02 0.03 0.01 0.00 0.00 0.00 0.02 0.09 0.13 0.15 0.15 0.17 0.06 0.06 0.27 0.23 0.13 0.23 0.48 0.81 0.92 1.05 1.33 1.13 0.77 0.88 0.92 0.80 0.79 0.87 0.63 0.58 0.65 0.61 0.59 0.38 0.20 0.18
0.01 0.00 0.00 0.00 0.01 0.02 0.00 0.02 0.02 0.00 0.01 0.01 0.01 0.01 0.01 0.01 0.01 0.01 0.01 0.02 0.02 0.02 0.03 0.02 0.07 0.14 0.20 0.26 0.32 0.39 0.66 0.72 0.83 0.88 1.12 0.89 0.76 0.80 0.69 0.62 0.85 0.77 0.56 0.51 0.50 0.52 0.40 0.22 0.15
0.03 0.00 0.00 0.00 0.00 0.01 0.01 0.01 0.01 0.00 0.00 0.00 0.00 0.01 0.00 0.01 0.01 0.00 0.01 0.02 0.01 0.04 0.04 0.10 0.13 0.16 0.15 0.22 0.38 0.30 0.36 0.47 0.66 0.83 1.15 1.31 0.94 0.71 0.66 0.62 0.75 0.79 0.62 0.61 0.52 0.53 0.52 0.31 0.16
0.00 0.00 0.00 0.00 0.00 0.00 0.01 0.01 0.01 0.01 0.01 0.01 0.00 0.00 0.00 0.02 0.01 0.01 0.02 0.02 0.03 0.12 0.17 0.16 0.13 0.15 0.17 0.24 0.31 0.31 0.23 0.20 0.27 0.52 0.84 1.50 1.52 0.96 0.64 0.62 0.69 0.79 0.78 0.67 0.69 0.75 0.60 0.60 0.43
0.00 0.00 0.03 0.16 0.05 0.02 0.05 0.06 0.02 0.01 0.01 0.05 0.00 0.00 0.00 0.01 0.01 0.02 0.02 0.06 0.10 0.21 0.22 0.17 0.15 0.13 0.17 0.21 0.28 0.25 0.21 0.13 0.15 0.18 0.33 0.71 1.54 1.47 0.92 0.59 0.57 0.78 0.91 0.84 0.78 0.86 0.85 0.69 0.73
0.01 0.03 0.14 0.24 0.11 0.11 0.09 0.03 0.01 0.00 0.00 0.00 0.00 0.00 0.00 0.00 0.00 0.01 0.04 0.07 0.13 0.37 0.30 0.18 0.10 0.07 0.08 0.12 0.23 0.19 0.16 0.15 0.14 0.16 0.23 0.29 0.50 1.08 1.12 0.86 0.55 0.70 1.04 1.04 1.04 1.08 1.19 1.29 1.46
0.08 0.09 0.07 0.17 0.12 0.14 0.04 0.01 0.02 0.01 0.01 0.00 0.00 0.01 0.02 0.01 0.01 0.01 0.04 0.08 0.15 0.28 0.23 0.09 0.05 0.02 0.06 0.10 0.11 0.15 0.22 0.12 0.17 0.37 0.28 0.43 0.41 0.70 0.96 1.15 1.01 0.79 0.93 1.19 1.33 1.34 1.58 1.68 1.60
0.03 0.04 0.12 0.28 0.40 0.22 0.08 0.08 0.13 0.06 0.06 0.12 0.13 0.10 0.09 0.09 0.11 0.18 0.24 0.14 0.16 0.22 0.20 0.20 0.13 0.08 0.07 0.06 0.08 0.09 0.20 0.19 0.21 0.34 0.22 0.31 0.39 0.65 1.02 1.33 1.64 1.57 1.15 1.12 1.67 1.75 1.67 1.61 1.52
0.16 0.15 0.16 0.20 0.20 0.29 0.21 0.14 0.18 0.16 0.21 0.30 0.38 0.32 0.20 0.16 0.18 0.26 0.54 0.36 0.16 0.20 0.21 0.26 0.38 0.26 0.13 0.07 0.07 0.12 0.33 0.31 0.33 0.35 0.40 0.43 0.62 0.83 1.09 1.45 1.95 2.48 2.19 1.79 1.59 1.58 1.49 1.31 1.24
0.16 0.34 0.64 0.93 0.65 0.41 0.40 0.16 0.10 0.10 0.16 0.31 0.91 0.89 0.52 0.35 0.54 0.51 0.75 0.93 0.31 0.21 0.24 0.16 0.31 0.31 0.33 0.19 0.17 0.25 0.44 0.43 0.46 0.61 0.62 0.74 0.91 0.99 1.24 1.54 1.91 2.22 2.54 2.38 2.05 1.75 1.59 1.55 1.32

GFSSGP_prec_precacc_141.txt.gz
Total_Precipitation_Accumulation
0.00 0.00 0.00 0.00 0.00 0.00 0.00 0.00 0.00 0.03 0.05 0.11 0.11 0.17 0.12 0.21 0.58 1.07 0.89 1.31 1.58 0.58 0.50 0.40 0.11 0.03 0.05 0.08 0.08 0.06 0.05 0.04 0.07 0.09 0.21 0.33 0.37 0.54 0.52 0.39 0.39 0.71 1.13 0.96 0.69 0.63 0.77 0.64 0.48
0.00 0.00 0.00 0.00 0.00 0.00 0.00 0.00 0.02 0.10 0.37 0.43 0.30 0.29 0.32 0.81 0.88 1.44 1.33 2.24 2.41 1.33 0.88 0.85 0.58 0.10 0.04 0.03 0.03 0.03 0.05 0.06 0.05 0.04 0.13 0.36 0.42 0.36 0.35 0.49 0.57 0.86 1.16 1.31 1.04 1.24 1.62 1.17 0.80
0.00 0.00 0.00 0.00 0.00 0.00 0.00 0.00 0.01 0.06 0.26 0.37 0.14 0.14 0.29 0.58 1.03 0.80 0.96 1.37 1.51 1.15 1.17 1.04 1.11 0.87 0.32 0.16 0.07 0.05 0.09 0.06 0.06 0.07 0.15 0.26 0.28 0.41 0.46 0.89 1.08 1.37 1.28 1.51 1.43 1.37 1.40 1.06 0.98
0.00 0.00 0.00 0.00 0.00 0.00 0.00 0.01 0.16 0.18 0.12 0.07 0.19 0.26 0.33 0.47 0.71 0.78 0.61 0.86 1.20 1.13 1.26 1.45 1.45 0.97 0.60 0.60 0.24 0.08 0.09 0.04 0.05 0.13 0.31 0.30 0.87 1.02 1.18 1.68 2.46 2.53 2.20 2.25 3.18 2.78 1.80 0.91 1.06
0.00 0.00 0.00 0.00 0.00 0.01 0.02 0.03 0.12 0.12 0.42 0.43 0.15 0.37 0.53 0.60 0.40 0.55 1.02 1.11 1.78 1.83 2.55 3.31 2.97 2.41 1.11 0.98 0.77 0.33 0.17 0.09 0.11 0.29 0.71 1.01 1.71 1.47 1.15 0.95 1.02 1.24 2.16 2.18 1.84 1.72 1.71 1.14 0.30
0.00 0.00 0.00 0.00 0.00 0.03 0.07 0.19 0.34 0.31 0.73 0.52 0.46 0.66 0.66 0.78 0.65 0.57 1.09 1.91 3.18 3.36 3.45 5.11 5.72 5.42 4.22 2.66 1.89 1.54 1.36 1.02 0.78 0.55 0.58 0.57 1.01 1.21 0.71 0.39 0.32 0.25 0.30 0.38 0.38 0.33 0.21 0.22 0.09
0.00 0.00 0.00 0.00 0.01 0.01 0.04 0.19 0.36 0.22 0.62 1.20 0.49 0.62 0.44 0.40 0.60 1.08 1.65 2.31 3.87 5.85 5.86 5.26 7.51 5.14 4.03 4.24 3.28 3.33 2.37 2.15 1.89 1.39 0.82 0.43 0.40 0.55 0.31 0.20 0.17 0.13 0.12 0.17 0.25 0.19 0.15 0.08 0.06
0.00 0.00 0.00 0.00 0.01 0.02 0.06 0.29 0.38 0.15 0.19 0.25 0.33 0.59 0.76 0.39 0.54 0.91 1.65 2.10 3.74 6.58 9.34 6.73 6.72 5.23 3.51 3.42 3.97 3.24 3.43 2.81 2.04 1.61 1.32 0.46 0.47 0.38 0.37 0.22 0.18 0.10 0.07 0.10 0.12 0.21 0.24 0.28 0.26
0.00 0.00 0.00 0.01 0.02 0.05 0.17 0.40 0.32 0.13 0.09 0.16 0.27 0.46 0.62 0.50 0.30 0.76 1.07 1.50 2.10 3.69 5.27 5.84 7.31 6.11 3.64 2.51 3.42 2.96 3.65 3.19 2.04 1.58 2.07 0.81 0.39 0.38 0.30 0.14 0.12 0.13 0.07 0.07 0.15 0.37 0.33 0.29 0.26
0.00 0.00 0.00 0.00 0.05 0.22 0.30 0.46 0.19 0.16 0.38 0.38 0.96 0.58 0.91 0.64 0.33 0.58 0.98 1.00 1.73 2.10 2.40 3.33 5.34 6.93 4.40 2.98 2.10 2.21 2.95 4.64 2.34 1.57 1.78 1.44 0.56 0.45 0.28 0.19 0.19 0.20 0.16 0.21 0.49 0.55 0.41 0.23 0.13
0.00 0.00 0.00 0.01 0.04 0.10 0.07 0.07 0.02 0.03 0.05 0.31 0.50 0.44 0.52 0.61 0.60 0.68 0.97 0.90 1.27 1.36 1.46 1.47 2.49 4.22 3.72 3.11 2.58 2.23 2.41 4.16 3.48 1.68 1.24 1.56 0.67 0.66 0.48 0.41 0.44 0.42 0.38 0.45 0.47 0.57 0.58 0.47 0.25
0.00 0.00 0.00 0.00 0.03 0.04 0.00 0.05 0.02 0.02 0.05 0.08 0.15 0.28 0.46 0.59 0.58 0.71 0.95 1.13 0.86 1.21 1.18 1.12 0.87 1.90 1.99 1.77 2.09 1.98 1.37 2.00 3.75 1.89 1.44 1.19 1.18 0.71 0.47 0.28 0.32 0.29 0.24 0.27 0.25 0.44 0.47 0.38 0.33
0.00 0.00 0.00 0.03 0.01 0.00 0.00 0.00 0.07 0.06 0.09 0.27 0.17 0.60 0.69 0.64 0.59 0.72 1.22 0.83 1.11 1.11 1.16 1.07 0.80 0.97 1.54 1.67 1.75 1.47 0.80 1.11 2.59 2.23 1.63 1.00 1.20 0.97 0.66 0.47 0.24 0.18 0.20 0.23 0.13 0.14 0.19 0.19 0.22
0.00 0.00 0.00 0.00 0.00 0.00 0.01 0.00 0.01 0.18 0.30 0.68 0.58 0.86 0.95 0.61 0.62 1.09 0.61 0.36 0.47 0.70 0.58 0.60 0.77 0.65 0.94 1.51 1.21 1.32 0.84 0.87 1.85 2.32 1.67 1.11 0.82 0.82 0.45 0.35 0.35 0.40 0.36 0.24 0.19 0.19 0.16 0.30 0.53
0.00 0.00 0.00 0.00 0.00 0.00 0.02 0.08 0.16 0.07 0.06 0.19 0.41 0.35 0.41 0.30 0.21 0.29 0.23 0.13 0.21 0.49 0.45 0.46 0.50 0.63 1.03 1.29 1.04 0.99 0.84 0.66 1.11 1.95 1.68 1.66 0.94 0.72 0.47 0.32 0.27 0.28 0.35 0.49 0.50 0.43 0.28 0.22 0.27
0.00 0.00 0.01 0.09 0.00 0.00 0.00 0.13 0.28 0.06 0.08 0.09 0.10 0.09 0.19 0.29 0.21 0.29 0.15 0.10 0.08 0.38 0.31 0.31 0.54 0.83 0.94 1.07 0.97 1.01 0.82 0.68 1.01 1.54 1.54 1.59 1.50 0.60 0.51 0.36 0.21 0.20 0.39 0.61 0.72 0.54 0.25 0.22 0.19
0.00 0.00 0.00 0.00 0.00 0.00 0.00 0.01 0.07 0.06 0.04 0.06 0.04 0.01 0.05 0.35 0.53 0.24 0.14 0.10 0.07 0.12 0.17 0.51 0.82 1.19 1.41 1.29 1.19 1.58 1.37 1.08 0.99 1.37 1.39 1.07 1.56 0.88 0.38 0.38 0.28 0.26 0.22 0.34 0.57 0.63 0.51 0.33 0.18
0.00 0.00 0.00 0.00 0.00 0.00 0.00 0.00 0.03 0.04 0.02 0.01 0.01 0.00 0.01 0.02 0.07 0.03 0.03 0.03 0.08 0.13 0.12 0.68 1.07 1.36 1.46 2.16 2.03 1.81 1.12 0.92 0.86 1.15 1.15 0.99 1.17 1.30 0.82 0.55 0.41 0.37 0.41 0.37 0.33 0.40 0.43 0.50 0.35
0.00 0.00 0.00 0.00 0.00 0.00 0.00 0.00 0.02 0.04 0.03 0.13 0.01 0.00 0.00 0.00 0.00 0.01 0.02 0.05 0.08 0.12 0.31 0.81 1.22 1.53 1.22 0.84 0.67 0.93 0.85 0.80 0.91 1.02 0.99 0.78 0.91 0.99 1.25 0.83 0.54 0.39 0.45 0.50 0.54 0.39 0.25 0.27 0.33
0.00 0.00 0.00 0.00 0.00 0.00 0.00 0.00 0.01 0.02 0.02 0.05 0.02 0.01 0.00 0.00 0.01 0.02 0.04 0.10 0.14 0.27 0.38 0.41 0.37 0.54 0.23 0.16 0.25 0.56 0.64 0.75 0.87 1.09 0.85 0.70 0.87 0.76 0.90 0.90 0.82 0.48 0.54 0.54 0.62 0.65 0.44 0.21 0.34
0.00 0.00 0.00 0.00 0.00 0.00 0.00 0.00 0.00 0.01 0.03 0.02 0.03 0.01 0.00 0.00 0.00 0.02 0.09 0.13 0.15 0.15 0.17 0.06 0.06 0.27 0.23 0.13 0.24 0.50 0.83 1.01 1.18 1.43 1.28 0.89 1.04 1.00 0.87 0.84 0.88 0.65 0.62 0.67 0.62 0.62 0.46 0.28 0.25
0.01 0.00 0.00 0.00 0.01 0.02 0.00 0.02 0.02 0.00 0.01 0.01 0.01 0.01 0.01 0.01 0.01 0.01 0.01 0.02 0.02 0.02 0.03 0.02 0.07 0.14 0.20 0.26 0.33 0.43 0.68 0.73 0.83 0.88 1.14 0.94 0.91 1.02 0.94 0.81 0.97 0.85 0.62 0.54 0.53 0.62 0.53 0.36 0.20
0.03 0.00 0.00 0.00 0.00 0.01 0.01 0.01 0.01 0.00 0.00 0.00 0.00 0.01 0.00 0.01 0.01 0.00 0.01 0.02 0.01 0.04 0.04 0.10 0.13 0.16 0.15 0.23 0.41 0.34 0.46 0.62 0.73 0.89 1.16 1.31 0.96 0.78 0.76 0.79 0.92 0.88 0.69 0.65 0.55 0.56 0.58 0.37 0.20
0.00 0.00 0.00 0.00 0.00 0.00 0.01 0.01 0.01 0.01 0.01 0.01 0.00 0.00 0.00 0.02 0.01 0.01 0.02 0.02 0.03 0.12 0.17 0.16 0.15 0.18 0.21 0.29 0.38 0.39 0.31 0.28 0.31 0.62 0.99 1.60 1.55 0.98 0.65 0.64 0.71 0.82 0.83 0.69 0.70 0.77 0.61 0.63 0.47
0.00 0.00 0.03 0.16 0.05 0.02 0.05 0.06 0.02 0.01 0.01 0.05 0.00 0.00 0.00 0.01 0.01 0.02 0.02 0.06 0.10 0.21 0.23 0.20 0.19 0.21 0.30 0.36 0.41 0.36 0.30 0.20 0.27 0.29 0.41 0.79 1.63 1.54 0.95 0.61 0.60 0.81 0.93 0.85 0.81 0.87 0.86 0.70 0.75
0.01 0.03 0.14 0.24 0.11 0.11 0.09 0.03 0.01 0.00 0.00 0.00 0.00 0.00 0.00 0.00 0.00 0.01 0.05 0.10 0.15 0.40 0.36 0.27 0.18 0.16 0.19 0.21 0.30 0.26 0.18 0.15 0.16 0.29 0.29 0.29 0.51 1.09 1.13 0.87 0.56 0.72 1.06 1.06 1.06 1.09 1.20 1.30 1.48
0.08 0.09 0.07 0.17 0.12 0.14 0.04 0.01 0.02 0.01 0.01 0.00 0.00 0.01 0.02 0.02 0.02 0.07 0.16 0.16 0.21 0.33 0.30 0.21 0.15 0.09 0.12 0.14 0.13 0.16 0.22 0.12 0.17 0.37 0.28 0.43 0.41 0.70 0.96 1.16 1.01 0.80 0.94 1.21 1.34 1.36 1.60 1.70 1.61
0.03 0.04 0.12 0.28 0.40 0.22 0.08 0.08 0.13 0.06 0.06 0.12 0.13 0.11 0.12 0.11 0.14 0.33 0.40 0.30 0.26 0.29 0.25 0.27 0.22 0.15 0.11 0.07 0.08 0.09 0.20 0.19 0.21 0.34 0.22 0.31 0.39 0.65 1.02 1.33 1.65 1.58 1.17 1.15 1.70 1.78 1.69 1.63 1.54
0.16 0.15 0.16 0.21 0.21 0.30 0.23 0.14 0.18 0.16 0.21 0.31 0.43 0.44 0.30 0.22 0.31 0.48 0.80 0.62 0.35 0.27 0.23 0.27 0.40 0.31 0.15 0.08 0.07 0.12 0.33 0.31 0.33 0.35 0.40 0.43 0.62 0.83 1.09 1.45 1.95 2.49 2.20 1.80 1.61 1.59 1.51 1.32 1.26
0.16 0.34 0.64 0.93 0.65 0.43 0.42 0.17 0.10 0.10 0.16 0.32 1.08 1.10 0.66 0.48 0.73 0.82 1.13 1.48 0.99 0.60 0.33 0.17 0.31 0.31 0.33 0.19 0.17 0.25 0.44 0.43 0.46 0.61 0.62 0.74 0.91 0.99 1.24 1.54 1.91 2.22 2.55 2.40 2.08 1.79 1.61 1.56 1.32

GFSSGP_prec_precacc_144.txt.gz
Total_Precipitation_Accumulation
0.00 0.00 0.00 0.00 0.00 0.00 0.00 0.00 0.00 0.03 0.05 0.11 0.11 0.17 0.12 0.21 0.58 1.07 0.89 1.31 1.58 0.58 0.50 0.40 0.11 0.03 0.05 0.08 0.08 0.06 0.05 0.04 0.07 0.09 0.21 0.33 0.37 0.54 0.52 0.39 0.39 0.71 1.13 0.96 0.69 0.63 0.77 0.64 0.48
0.00 0.00 0.00 0.00 0.00 0.00 0.00 0.00 0.02 0.10 0.37 0.43 0.30 0.29 0.32 0.81 0.88 1.44 1.33 2.24 2.41 1.33 0.88 0.85 0.58 0.10 0.04 0.03 0.03 0.03 0.05 0.06 0.05 0.04 0.13 0.36 0.42 0.36 0.35 0.49 0.57 0.86 1.16 1.31 1.04 1.24 1.62 1.17 0.80
0.00 0.00 0.00 0.00 0.00 0.00 0.00 0.00 0.01 0.06 0.26 0.37 0.14 0.14 0.29 0.58 1.03 0.80 0.96 1.37 1.51 1.15 1.17 1.04 1.11 0.87 0.32 0.16 0.07 0.05 0.09 0.06 0.06 0.07 0.15 0.26 0.28 0.41 0.46 0.89 1.08 1.37 1.28 1.51 1.43 1.37 1.40 1.06 0.98
0.00 0.00 0.00 0.00 0.00 0.00 0.00 0.01 0.16 0.18 0.12 0.07 0.19 0.26 0.33 0.47 0.71 0.78 0.61 0.86 1.20 1.13 1.26 1.45 1.45 0.97 0.60 0.60 0.24 0.08 0.09 0.04 0.05 0.13 0.31 0.30 0.87 1.02 1.18 1.68 2.46 2.53 2.20 2.25 3.18 2.78 1.80 0.91 1.06
0.00 0.00 0.00 0.00 0.00 0.01 0.02 0.03 0.12 0.12 0.42 0.43 0.15 0.37 0.53 0.60 0.40 0.55 1.02 1.11 1.78 1.83 2.55 3.31 2.97 2.41 1.11 0.98 0.77 0.33 0.17 0.09 0.11 0.29 0.71 1.01 1.71 1.47 1.15 0.95 1.02 1.24 2.16 2.18 1.84 1.72 1.71 1.14 0.30
0.00 0.00 0.00 0.00 0.00 0.03 0.07 0.19 0.34 0.31 0.73 0.52 0.46 0.66 0.66 0.78 0.65 0.57 1.09 1.91 3.18 3.36 3.45 5.11 5.72 5.42 4.22 2.66 1.89 1.54 1.36 1.02 0.78 0.55 0.58 0.57 1.01 1.21 0.71 0.39 0.32 0.25 0.30 0.38 0.38 0.33 0.21 0.22 0.09
0.00 0.00 0.00 0.00 0.01 0.01 0.04 0.19 0.36 0.22 0.62 1.20 0.49 0.62 0.44 0.40 0.60 1.08 1.65 2.31 3.87 5.85 5.86 5.26 7.51 5.14 4.03 4.24 3.28 3.33 2.37 2.15 1.89 1.39 0.82 0.43 0.40 0.55 0.31 0.20 0.17 0.13 0.12 0.17 0.25 0.19 0.15 0.08 0.06
0.00 0.00 0.00 0.00 0.01 0.02 0.06 0.29 0.38 0.15 0.19 0.25 0.33 0.59 0.76 0.39 0.54 0.91 1.65 2.10 3.74 6.58 9.34 6.73 6.72 5.23 3.51 3.42 3.97 3.24 3.43 2.81 2.04 1.61 1.32 0.46 0.47 0.38 0.37 0.22 0.18 0.10 0.07 0.10 0.12 0.21 0.24 0.28 0.26
0.00 0.00 0.00 0.01 0.02 0.05 0.17 0.40 0.32 0.13 0.09 0.16 0.27 0.46 0.62 0.50 0.30 0.76 1.07 1.50 2.10 3.69 5.27 5.84 7.31 6.11 3.64 2.51 3.42 2.96 3.65 3.19 2.04 1.58 2.07 0.81 0.39 0.38 0.30 0.14 0.12 0.13 0.07 0.07 0.15 0.37 0.33 0.29 0.26
0.00 0.00 0.00 0.00 0.05 0.22 0.30 0.46 0.19 0.16 0.38 0.38 0.96 0.58 0.91 0.64 0.33 0.58 0.98 1.00 1.73 2.10 2.40 3.33 5.34 6.93 4.40 2.98 2.10 2.21 2.95 4.64 2.34 1.57 1.78 1.44 0.56 0.45 0.28 0.19 0.19 0.20 0.16 0.21 0.49 0.55 0.41 0.23 0.13
0.00 0.00 0.00 0.01 0.04 0.10 0.07 0.07 0.02 0.03 0.05 0.31 0.50 0.44 0.52 0.61 0.60 0.68 0.97 0.90 1.27 1.36 1.46 1.47 2.49 4.22 3.72 3.11 2.58 2.23 2.41 4.16 3.48 1.68 1.24 1.56 0.67 0.67 0.48 0.41 0.44 0.42 0.38 0.45 0.47 0.57 0.58 0.47 0.25
0.00 0.00 0.00 0.00 0.03 0.04 0.00 0.05 0.02 0.02 0.05 0.08 0.15 0.28 0.46 0.59 0.58 0.71 0.95 1.13 0.86 1.21 1.18 1.12 0.87 1.90 1.99 1.77 2.09 1.98 1.37 2.00 3.75 1.89 1.44 1.19 1.18 0.72 0.47 0.28 0.32 0.29 0.24 0.27 0.25 0.44 0.47 0.38 0.33
0.00 0.00 0.00 0.03 0.01 0.00 0.00 0.00 0.07 0.06 0.09 0.27 0.17 0.60 0.69 0.64 0.59 0.72 1.22 0.83 1.11 1.11 1.16 1.07 0.80 0.97 1.54 1.67 1.75 1.47 0.80 1.11 2.59 2.23 1.63 1.00 1.20 0.97 0.66 0.47 0.24 0.18 0.20 0.23 0.13 0.14 0.19 0.19 0.22
0.00 0.00 0.00 0.00 0.00 0.00 0.01 0.00 0.01 0.18 0.30 0.68 0.58 0.86 0.95 0.61 0.62 1.09 0.61 0.36 0.47 0.70 0.58 0.60 0.77 0.65 0.94 1.51 1.21 1.32 0.84 0.87 1.85 2.32 1.67 1.11 0.82 0.82 0.45 0.35 0.35 0.40 0.36 0.24 0.19 0.19 0.16 0.30 0.53
0.00 0.00 0.00 0.00 0.00 0.00 0.02 0.08 0.16 0.07 0.06 0.19 0.41 0.35 0.41 0.30 0.21 0.29 0.23 0.13 0.21 0.49 0.45 0.46 0.50 0.63 1.03 1.29 1.04 0.99 0.84 0.66 1.11 1.95 1.68 1.66 0.94 0.73 0.47 0.32 0.27 0.28 0.35 0.49 0.50 0.43 0.28 0.22 0.27
0.00 0.00 0.01 0.09 0.00 0.00 0.00 0.13 0.28 0.06 0.08 0.09 0.10 0.09 0.19 0.29 0.21 0.29 0.15 0.10 0.08 0.38 0.31 0.31 0.54 0.83 0.94 1.07 0.97 1.01 0.82 0.68 1.01 1.54 1.54 1.59 1.51 0.60 0.52 0.36 0.21 0.20 0.39 0.61 0.72 0.54 0.25 0.22 0.19
0.00 0.00 0.00 0.00 0.00 0.00 0.00 0.01 0.07 0.06 0.04 0.06 0.04 0.01 0.05 0.35 0.53 0.24 0.14 0.10 0.07 0.12 0.17 0.51 0.82 1.19 1.41 1.29 1.19 1.58 1.37 1.08 0.99 1.37 1.39 1.07 1.56 0.89 0.38 0.38 0.28 0.26 0.22 0.34 0.57 0.63 0.51 0.33 0.18
0.00 0.00 0.00 0.00 0.00 0.00 0.00 0.00 0.03 0.04 0.02 0.01 0.01 0.00 0.01 0.02 0.07 0.03 0.03 0.03 0.08 0.13 0.12 0.68 1.07 1.36 1.46 2.16 2.03 1.81 1.12 0.92 0.86 1.15 1.15 0.99 1.18 1.31 0.82 0.56 0.42 0.37 0.41 0.37 0.33 0.40 0.43 0.51 0.36
0.00 0.00 0.00 0.00 0.00 0.00 0.00 0.00 0.02 0.04 0.03 0.13 0.01 0.00 0.00 0.00 0.00 0.01 0.02 0.05 0.08 0.12 0.31 0.81 1.22 1.53 1.22 0.84 0.67 0.93 0.85 0.80 0.91 1.02 0.99 0.78 0.91 0.99 1.26 0.84 0.54 0.40 0.45 0.50 0.54 0.40 0.25 0.27 0.34
0.00 0.00 0.00 0.00 0.00 0.00 0.00 0.00 0.01 0.02 0.02 0.05 0.02 0.01 0.00 0.00 0.01 0.02 0.04 0.10 0.14 0.27 0.38 0.41 0.37 0.54 0.23 0.16 0.25 0.56 0.64 0.75 0.87 1.09 0.85 0.71 0.87 0.76 0.91 0.91 0.82 0.49 0.56 0.55 0.65 0.67 0.46 0.23 0.39
0.00 0.00 0.00 0.00 0.00 0.00 0.00 0.00 0.00 0.01 0.03 0.02 0.03 0.01 0.00 0.00 0.00 0.02 0.09 0.13 0.15 0.15 0.17 0.06 0.06 0.27 0.23 0.13 0.24 0.50 0.84 1.02 1.19 1.44 1.29 0.90 1.04 1.00 0.90 0.88 0.93 0.69 0.66 0.72 0.67 0.68 0.50 0.32 0.31
0.01 0.00 0.00 0.00 0.01 0.02 0.00 0.02 0.02 0.00 0.01 0.01 0.01 0.01 0.01 0.01 0.01 0.01 0.01 0.02 0.02 0.02 0.03 0.02 0.07 0.14 0.20 0.26 0.33 0.43 0.68 0.73 0.84 0.89 1.14 0.95 0.91 1.02 1.00 0.91 1.14 1.10 0.90 0.69 0.59 0.69 0.59 0.42 0.25
0.03 0.00 0.00 0.00 0.00 0.01 0.01 0.01 0.01 0.00 0.00 0.00 0.00 0.01 0.00 0.01 0.01 0.00 0.01 0.02 0.01 0.04 0.04 0.10 0.13 0.16 0.15 0.23 0.41 0.35 0.47 0.63 0.75 0.90 1.17 1.32 0.97 0.78 0.77 0.80 1.02 1.12 0.90 0.78 0.64 0.61 0.63 0.40 0.23
0.00 0.00 0.00 0.00 0.00 0.00 0.01 0.01 0.01 0.01 0.01 0.01 0.00 0.00 0.00 0.02 0.01 0.01 0.02 0.02 0.03 0.12 0.17 0.16 0.16 0.18 0.21 0.29 0.38 0.41 0.36 0.35 0.37 0.66 1.02 1.68 1.67 1.09 0.81 0.75 0.75 0.84 0.87 0.76 0.78 0.83 0.67 0.68 0.52
0.00 0.00 0.03 0.16 0.05 0.02 0.05 0.06 0.02 0.01 0.01 0.05 0.00 0.00 0.00 0.01 0.01 0.02 0.02 0.06 0.10 0.22 0.25 0.22 0.21 0.22 0.31 0.37 0.43 0.43 0.48 0.38 0.35 0.33 0.47 0.92 1.94 2.00 1.43 0.97 0.81 0.87 0.95 0.87 0.84 0.91 0.90 0.76 0.79
0.01 0.03 0.14 0.24 0.11 0.11 0.09 0.03 0.01 0.00 0.00 0.00 0.01 0.00 0.00 0.00 0.01 0.01 0.05 0.11 0.17 0.44 0.40 0.32 0.23 0.20 0.23 0.27 0.36 0.35 0.31 0.29 0.22 0.30 0.31 0.31 0.54 1.17 1.30 1.13 0.85 0.92 1.13 1.10 1.09 1.12 1.22 1.33 1.51
0.08 0.09 0.07 0.17 0.12 0.14 0.04 0.01 0.02 0.01 0.01 0.00 0.01 0.01 0.02 0.03 0.03 0.08 0.18 0.26 0.31 0.40 0.36 0.27 0.22 0.15 0.17 0.20 0.19 0.25 0.32 0.26 0.28 0.43 0.31 0.45 0.42 0.71 1.01 1.22 1.07 0.85 1.00 1.27 1.39 1.39 1.61 1.71 1.63
0.03 0.04 0.12 0.28 0.40 0.22 0.08 0.08 0.13 0.06 0.06 0.12 0.13 0.12 0.13 0.13 0.15 0.35 0.47 0.40 0.39 0.41 0.35 0.33 0.26 0.23 0.19 0.11 0.11 0.12 0.23 0.25 0.27 0.37 0.23 0.32 0.40 0.65 1.02 1.35 1.67 1.60 1.19 1.18 1.75 1.83 1.73 1.68 1.56
0.16 0.15 0.16 0.21 0.21 0.30 0.23 0.15 0.19 0.16 0.21 0.31 0.43 0.46 0.33 0.26 0.37 0.56 0.90 0.80 0.53 0.41 0.33 0.35 0.45 0.39 0.34 0.16 0.10 0.14 0.34 0.32 0.35 0.35 0.40 0.43 0.62 0.83 1.09 1.45 1.95 2.49 2.21 1.82 1.65 1.65 1.56 1.38 1.30
0.16 0.34 0.64 0.93 0.66 0.44 0.43 0.17 0.11 0.10 0.16 0.32 1.09 1.12 0.68 0.51 0.79 0.87 1.21 1.60 1.11 0.75 0.54 0.31 0.37 0.32 0.50 0.58 0.33 0.28 0.44 0.43 0.46 0.61 0.62 0.74 0.91 0.99 1.24 1.54 1.91 2.22 2.55 2.40 2.10 1.83 1.65 1.59 1.37

GFSSGP_prec_precacc_147.txt.gz
Total_Precipitation_Accumulation
0.00 0.00 0.00 0.00 0.00 0.00 0.00 0.00 0.00 0.03 0.05 0.11 0.11 0.17 0.12 0.21 0.58 1.07 0.89 1.31 1.58 0.58 0.50 0.40 0.11 0.03 0.05 0.08 0.08 0.06 0.05 0.04 0.07 0.09 0.21 0.33 0.37 0.54 0.52 0.39 0.39 0.71 1.13 0.96 0.69 0.63 0.77 0.64 0.48
0.00 0.00 0.00 0.00 0.00 0.00 0.00 0.00 0.02 0.10 0.37 0.43 0.30 0.29 0.32 0.81 0.88 1.44 1.33 2.24 2.41 1.33 0.88 0.85 0.58 0.10 0.04 0.03 0.03 0.03 0.05 0.06 0.05 0.04 0.13 0.36 0.42 0.36 0.35 0.49 0.57 0.86 1.16 1.31 1.04 1.24 1.62 1.17 0.80
0.00 0.00 0.00 0.00 0.00 0.00 0.00 0.00 0.01 0.06 0.26 0.37 0.14 0.14 0.29 0.58 1.03 0.80 0.96 1.37 1.51 1.15 1.17 1.04 1.11 0.87 0.32 0.16 0.07 0.05 0.09 0.06 0.06 0.07 0.15 0.26 0.28 0.41 0.46 0.89 1.08 1.37 1.28 1.51 1.43 1.37 1.40 1.06 0.98
0.00 0.00 0.00 0.00 0.00 0.00 0.00 0.01 0.16 0.18 0.12 0.07 0.19 0.26 0.33 0.47 0.71 0.78 0.61 0.86 1.20 1.13 1.26 1.45 1.45 0.97 0.60 0.60 0.24 0.08 0.09 0.04 0.05 0.13 0.31 0.30 0.87 1.02 1.18 1.68 2.46 2.53 2.20 2.25 3.18 2.78 1.80 0.91 1.06
0.00 0.00 0.00 0.00 0.00 0.01 0.02 0.03 0.12 0.12 0.42 0.43 0.15 0.37 0.53 0.60 0.40 0.55 1.02 1.11 1.78 1.83 2.55 3.31 2.97 2.41 1.11 0.98 0.77 0.33 0.17 0.09 0.11 0.29 0.71 1.01 1.71 1.47 1.15 0.95 1.02 1.24 2.16 2.18 1.84 1.72 1.71 1.14 0.30
0.00 0.00 0.00 0.00 0.00 0.03 0.07 0.19 0.34 0.31 0.73 0.52 0.46 0.66 0.66 0.78 0.65 0.57 1.09 1.91 3.18 3.36 3.45 5.11 5.72 5.42 4.22 2.66 1.89 1.54 1.36 1.02 0.78 0.55 0.58 0.57 1.01 1.21 0.71 0.39 0.32 0.25 0.30 0.38 0.38 0.33 0.21 0.22 0.09
0.00 0.00 0.00 0.00 0.01 0.01 0.04 0.19 0.36 0.22 0.62 1.20 0.49 0.62 0.44 0.40 0.60 1.08 1.65 2.31 3.87 5.85 5.86 5.26 7.51 5.14 4.03 4.24 3.28 3.33 2.37 2.15 1.89 1.39 0.82 0.43 0.40 0.55 0.31 0.20 0.17 0.13 0.12 0.17 0.25 0.19 0.15 0.08 0.06
0.00 0.00 0.00 0.00 0.01 0.02 0.06 0.29 0.38 0.15 0.19 0.25 0.33 0.59 0.76 0.39 0.54 0.91 1.65 2.10 3.74 6.58 9.34 6.73 6.72 5.23 3.51 3.42 3.97 3.24 3.43 2.81 2.04 1.61 1.32 0.46 0.47 0.38 0.37 0.22 0.18 0.10 0.07 0.10 0.12 0.21 0.24 0.28 0.26
0.00 0.00 0.00 0.01 0.02 0.05 0.17 0.40 0.32 0.13 0.09 0.16 0.27 0.46 0.62 0.50 0.30 0.76 1.07 1.50 2.10 3.69 5.27 5.84 7.31 6.11 3.64 2.51 3.42 2.96 3.65 3.19 2.04 1.58 2.07 0.81 0.39 0.38 0.30 0.14 0.12 0.13 0.07 0.07 0.15 0.37 0.33 0.29 0.26
0.00 0.00 0.00 0.00 0.05 0.22 0.30 0.46 0.19 0.16 0.38 0.38 0.96 0.58 0.91 0.64 0.33 0.58 0.98 1.00 1.73 2.10 2.40 3.33 5.34 6.93 4.40 2.98 2.10 2.21 2.95 4.64 2.34 1.57 1.78 1.44 0.56 0.45 0.28 0.19 0.19 0.20 0.16 0.21 0.49 0.55 0.41 0.23 0.13
0.00 0.00 0.00 0.01 0.04 0.10 0.07 0.07 0.02 0.03 0.05 0.31 0.50 0.44 0.52 0.61 0.60 0.68 0.97 0.90 1.27 1.36 1.46 1.47 2.49 4.22 3.72 3.11 2.58 2.23 2.41 4.16 3.48 1.68 1.24 1.56 0.67 0.67 0.48 0.41 0.44 0.42 0.38 0.45 0.47 0.57 0.58 0.47 0.25
0.00 0.00 0.00 0.00 0.03 0.04 0.00 0.05 0.02 0.02 0.05 0.08 0.15 0.28 0.46 0.59 0.58 0.71 0.95 1.13 0.86 1.21 1.18 1.12 0.87 1.90 1.99 1.77 2.09 1.98 1.37 2.00 3.75 1.89 1.44 1.19 1.18 0.72 0.47 0.28 0.32 0.29 0.24 0.27 0.25 0.44 0.47 0.38 0.33
0.00 0.00 0.00 0.03 0.01 0.00 0.00 0.00 0.07 0.06 0.09 0.27 0.17 0.60 0.69 0.64 0.59 0.72 1.22 0.83 1.11 1.11 1.16 1.07 0.80 0.97 1.54 1.67 1.75 1.47 0.80 1.11 2.59 2.23 1.63 1.01 1.20 0.98 0.66 0.47 0.24 0.18 0.20 0.23 0.13 0.14 0.19 0.19 0.22
0.00 0.00 0.00 0.00 0.00 0.00 0.01 0.00 0.01 0.18 0.30 0.68 0.58 0.86 0.95 0.61 0.62 1.09 0.61 0.36 0.47 0.70 0.58 0.60 0.77 0.65 0.94 1.51 1.21 1.32 0.84 0.87 1.85 2.32 1.67 1.11 0.82 0.82 0.45 0.35 0.35 0.40 0.36 0.24 0.19 0.19 0.16 0.30 0.53
0.00 0.00 0.00 0.00 0.00 0.00 0.02 0.08 0.16 0.07 0.06 0.19 0.41 0.35 0.41 0.30 0.21 0.29 0.23 0.13 0.21 0.49 0.45 0.46 0.50 0.63 1.03 1.29 1.04 0.99 0.84 0.66 1.11 1.95 1.68 1.66 0.94 0.73 0.47 0.32 0.27 0.28 0.35 0.49 0.50 0.43 0.28 0.22 0.27
0.00 0.00 0.01 0.09 0.00 0.00 0.00 0.13 0.28 0.06 0.08 0.09 0.10 0.09 0.19 0.29 0.21 0.29 0.15 0.10 0.08 0.38 0.31 0.31 0.54 0.83 0.94 1.07 0.97 1.01 0.82 0.68 1.01 1.54 1.54 1.59 1.51 0.60 0.52 0.36 0.21 0.20 0.39 0.61 0.72 0.54 0.25 0.22 0.19
0.00 0.00 0.00 0.00 0.00 0.00 0.00 0.01 0.07 0.06 0.04 0.06 0.04 0.01 0.05 0.35 0.53 0.24 0.14 0.10 0.07 0.12 0.17 0.51 0.82 1.19 1.41 1.29 1.19 1.58 1.37 1.08 0.99 1.37 1.39 1.07 1.56 0.89 0.38 0.38 0.28 0.26 0.22 0.34 0.57 0.63 0.51 0.33 0.18
0.00 0.00 0.00 0.00 0.00 0.00 0.00 0.00 0.03 0.04 0.02 0.01 0.01 0.00 0.01 0.02 0.07 0.03 0.03 0.03 0.08 0.13 0.12 0.68 1.07 1.36 1.46 2.16 2.03 1.81 1.12 0.92 0.86 1.15 1.15 0.99 1.18 1.31 0.82 0.56 0.42 0.37 0.41 0.37 0.33 0.40 0.43 0.51 0.36
0.00 0.00 0.00 0.00 0.00 0.00 0.00 0.00 0.02 0.04 0.03 0.13 0.01 0.00 0.00 0.00 0.00 0.01 0.02 0.05 0.08 0.12 0.31 0.81 1.22 1.53 1.22 0.84 0.67 0.93 0.85 0.80 0.91 1.02 0.99 0.78 0.91 0.99 1.27 0.85 0.55 0.40 0.46 0.50 0.54 0.40 0.26 0.27 0.34
0.00 0.00 0.00 0.00 0.00 0.00 0.00 0.00 0.01 0.02 0.02 0.05 0.02 0.01 0.00 0.00 0.01 0.02 0.04 0.10 0.14 0.27 0.38 0.41 0.37 0.54 0.23 0.16 0.25 0.56 0.64 0.75 0.87 1.09 0.85 0.71 0.87 0.77 0.91 0.91 0.83 0.50 0.56 0.57 0.67 0.68 0.47 0.24 0.40
0.00 0.00 0.00 0.00 0.00 0.00 0.00 0.00 0.00 0.01 0.03 0.02 0.03 0.01 0.00 0.00 0.00 0.02 0.09 0.13 0.15 0.15 0.17 0.06 0.06 0.27 0.23 0.13 0.24 0.50 0.84 1.02 1.19 1.44 1.29 0.90 1.04 1.01 0.91 0.88 0.94 0.70 0.67 0.73 0.69 0.69 0.53 0.35 0.35
0.01 0.00 0.00 0.00 0.01 0.02 0.00 0.02 0.02 0.00 0.01 0.01 0.01 0.01 0.01 0.01 0.01 0.01 0.01 0.02 0.02 0.02 0.03 0.02 0.07 0.14 0.20 0.26 0.33 0.43 0.68 0.73 0.84 0.89 1.14 0.95 0.91 1.02 1.01 0.92 1.16 1.12 0.92 0.80 0.73 0.78 0.68 0.55 0.35
0.03 0.00 0.00 0.00 0.00 0.01 0.01 0.01 0.01 0.00 0.00 0.00 0.00 0.01 0.00 0.01 0.01 0.00 0.01 0.02 0.01 0.04 0.04 0.10 0.13 0.16 0.15 0.23 0.41 0.35 0.47 0.63 0.75 0.91 1.17 1.33 0.98 0.80 0.78 0.82 1.07 1.23 0.94 0.80 0.73 0.76 0.78 0.55 0.39
0.00 0.00 0.00 0.00 0.00 0.00 0.01 0.01 0.01 0.01 0.01 0.01 0.00 0.00 0.00 0.02 0.01 0.01 0.02 0.02 0.03 0.12 0.17 0.16 0.16 0.19 0.21 0.29 0.39 0.41 0.36 0.36 0.38 0.66 1.04 1.70 1.69 1.13 0.87 0.84 0.87 0.96 0.95 0.80 0.81 0.86 0.70 0.70 0.55
0.00 0.00 0.03 0.16 0.05 0.02 0.05 0.06 0.02 0.01 0.01 0.05 0.01 0.01 0.00 0.01 0.01 0.02 0.02 0.06 0.10 0.22 0.25 0.22 0.21 0.22 0.32 0.39 0.44 0.44 0.49 0.43 0.42 0.40 0.55 1.03 2.05 2.08 1.63 1.18 1.07 1.17 1.33 1.27 1.05 0.95 0.91 0.78 0.81
0.01 0.03 0.14 0.24 0.11 0.11 0.09 0.03 0.01 0.00 0.00 0.00 0.01 0.00 0.00 0.00 0.01 0.01 0.05 0.11 0.17 0.45 0.41 0.32 0.24 0.21 0.24 0.28 0.39 0.40 0.34 0.35 0.31 0.38 0.41 0.44 0.68 1.32 1.53 1.37 1.07 1.35 1.72 1.67 1.54 1.17 1.24 1.36 1.53
0.08 0.09 0.07 0.17 0.12 0.14 0.04 0.01 0.02 0.01 0.01 0.00 0.01 0.01 0.02 0.03 0.03 0.08 0.18 0.26 0.31 0.40 0.36 0.29 0.25 0.17 0.19 0.22 0.21 0.29 0.41 0.39 0.39 0.53 0.37 0.52 0.47 0.76 1.07 1.32 1.15 0.96 1.21 1.45 1.55 1.53 1.71 1.77 1.66
0.03 0.04 0.12 0.28 0.40 0.22 0.08 0.08 0.13 0.06 0.06 0.13 0.13 0.12 0.13 0.13 0.15 0.35 0.47 0.40 0.39 0.42 0.36 0.35 0.29 0.27 0.23 0.16 0.16 0.17 0.30 0.33 0.36 0.49 0.30 0.38 0.45 0.70 1.05 1.38 1.70 1.64 1.21 1.21 1.81 1.92 1.84 1.79 1.62
0.16 0.15 0.16 0.21 0.21 0.30 0.23 0.15 0.19 0.16 0.21 0.32 0.43 0.46 0.33 0.26 0.37 0.56 0.90 0.80 0.53 0.42 0.35 0.38 0.50 0.45 0.40 0.26 0.24 0.27 0.46 0.42 0.40 0.41 0.45 0.45 0.64 0.85 1.10 1.46 1.95 2.49 2.21 1.85 1.69 1.69 1.60 1.46 1.38
0.16 0.34 0.64 0.93 0.66 0.44 0.43 0.17 0.11 0.10 0.16 0.33 1.10 1.12 0.68 0.51 0.79 0.87 1.21 1.60 1.11 0.76 0.55 0.34 0.42 0.39 0.58 0.73 0.54 0.49 0.63 0.55 0.54 0.64 0.64 0.75 0.92 1.00 1.24 1.54 1.91 2.22 2.55 2.40 2.11 1.86 1.68 1.62 1.40